<?xml version="1.0" encoding="UTF-8" standalone="no" ?>
<gpx xmlns="http://www.topografix.com/GPX/1/1" xmlns:xsi="http://www.w3.org/2001/XMLSchema-instance" xsi:schemaLocation="http://www.topografix.com/GPX/1/1 http://www.topografix.com/GPX/1/1/gpx.xsd" version="1.1" creator="VisuGPX - https://www.visugpx.com">
  <metadata>
    <name>CHEZINE CENS</name>
    <desc><![CDATA[Belle rando, complète aux sens sportif et bucolique.]]></desc>
  </metadata>
  <trk>
    <name><![CDATA[Chézine Cens - PP 2014-02-16-01]]></name>
    <trkseg>
      <trkpt lat="47.2307" lon="-1.60639">
        <ele>57.825061</ele>
        <time>2014-02-16T10:08:36Z</time>
      </trkpt>
      <trkpt lat="47.2307" lon="-1.60639">
        <ele>64.74208</ele>
        <time>2014-02-16T10:08:37Z</time>
      </trkpt>
      <trkpt lat="47.2308" lon="-1.60691">
        <ele>66.4</ele>
        <time>2014-02-16T10:10:21Z</time>
      </trkpt>
      <trkpt lat="47.23072" lon="-1.6068">
        <ele>29.5</ele>
        <time>2014-02-16T10:12:15Z</time>
      </trkpt>
      <trkpt lat="47.23062" lon="-1.60681">
        <ele>35.7</ele>
        <time>2014-02-16T10:13:23Z</time>
      </trkpt>
      <trkpt lat="47.23067" lon="-1.60694">
        <ele>36.8</ele>
        <time>2014-02-16T10:13:29Z</time>
      </trkpt>
      <trkpt lat="47.23072" lon="-1.60707">
        <ele>37.3</ele>
        <time>2014-02-16T10:13:33Z</time>
      </trkpt>
      <trkpt lat="47.23074" lon="-1.60721">
        <ele>37.5</ele>
        <time>2014-02-16T10:13:38Z</time>
      </trkpt>
      <trkpt lat="47.23079" lon="-1.60736">
        <ele>37.6</ele>
        <time>2014-02-16T10:13:42Z</time>
      </trkpt>
      <trkpt lat="47.23084" lon="-1.60748">
        <ele>37.5</ele>
        <time>2014-02-16T10:13:47Z</time>
      </trkpt>
      <trkpt lat="47.23093" lon="-1.60745">
        <ele>37.4</ele>
        <time>2014-02-16T10:13:52Z</time>
      </trkpt>
      <trkpt lat="47.23103" lon="-1.60736">
        <ele>37.2</ele>
        <time>2014-02-16T10:13:56Z</time>
      </trkpt>
      <trkpt lat="47.23113" lon="-1.60729">
        <ele>37.1</ele>
        <time>2014-02-16T10:14:00Z</time>
      </trkpt>
      <trkpt lat="47.23121" lon="-1.60722">
        <ele>36.9</ele>
        <time>2014-02-16T10:14:03Z</time>
      </trkpt>
      <trkpt lat="47.23129" lon="-1.60716">
        <ele>37</ele>
        <time>2014-02-16T10:14:06Z</time>
      </trkpt>
      <trkpt lat="47.23139" lon="-1.6071">
        <ele>37</ele>
        <time>2014-02-16T10:14:09Z</time>
      </trkpt>
      <trkpt lat="47.23149" lon="-1.60707">
        <ele>37</ele>
        <time>2014-02-16T10:14:13Z</time>
      </trkpt>
      <trkpt lat="47.23159" lon="-1.6072">
        <ele>36.8</ele>
        <time>2014-02-16T10:14:16Z</time>
      </trkpt>
      <trkpt lat="47.23165" lon="-1.60733">
        <ele>36.8</ele>
        <time>2014-02-16T10:14:19Z</time>
      </trkpt>
      <trkpt lat="47.2317" lon="-1.60746">
        <ele>36.8</ele>
        <time>2014-02-16T10:14:22Z</time>
      </trkpt>
      <trkpt lat="47.23174" lon="-1.60759">
        <ele>36.6</ele>
        <time>2014-02-16T10:14:25Z</time>
      </trkpt>
      <trkpt lat="47.23185" lon="-1.60765">
        <ele>36.4</ele>
        <time>2014-02-16T10:14:29Z</time>
      </trkpt>
      <trkpt lat="47.23194" lon="-1.60771">
        <ele>36.1</ele>
        <time>2014-02-16T10:14:32Z</time>
      </trkpt>
      <trkpt lat="47.23203" lon="-1.60779">
        <ele>35.9</ele>
        <time>2014-02-16T10:14:35Z</time>
      </trkpt>
      <trkpt lat="47.23214" lon="-1.60788">
        <ele>35.8</ele>
        <time>2014-02-16T10:14:38Z</time>
      </trkpt>
      <trkpt lat="47.23222" lon="-1.60798">
        <ele>35.7</ele>
        <time>2014-02-16T10:14:41Z</time>
      </trkpt>
      <trkpt lat="47.23233" lon="-1.60807">
        <ele>35.4</ele>
        <time>2014-02-16T10:14:44Z</time>
      </trkpt>
      <trkpt lat="47.23241" lon="-1.60815">
        <ele>35.3</ele>
        <time>2014-02-16T10:14:47Z</time>
      </trkpt>
      <trkpt lat="47.2325" lon="-1.60825">
        <ele>34.6</ele>
        <time>2014-02-16T10:14:53Z</time>
      </trkpt>
      <trkpt lat="47.23259" lon="-1.60828">
        <ele>34.4</ele>
        <time>2014-02-16T10:14:57Z</time>
      </trkpt>
      <trkpt lat="47.23254" lon="-1.60839">
        <ele>34.2</ele>
        <time>2014-02-16T10:15:03Z</time>
      </trkpt>
      <trkpt lat="47.23244" lon="-1.60846">
        <ele>34.2</ele>
        <time>2014-02-16T10:15:07Z</time>
      </trkpt>
      <trkpt lat="47.23235" lon="-1.60852">
        <ele>34.2</ele>
        <time>2014-02-16T10:15:09Z</time>
      </trkpt>
      <trkpt lat="47.23224" lon="-1.60858">
        <ele>34.2</ele>
        <time>2014-02-16T10:15:12Z</time>
      </trkpt>
      <trkpt lat="47.23215" lon="-1.60868">
        <ele>33.9</ele>
        <time>2014-02-16T10:15:16Z</time>
      </trkpt>
      <trkpt lat="47.23209" lon="-1.60879">
        <ele>33.8</ele>
        <time>2014-02-16T10:15:19Z</time>
      </trkpt>
      <trkpt lat="47.23199" lon="-1.60884">
        <ele>33.8</ele>
        <time>2014-02-16T10:15:23Z</time>
      </trkpt>
      <trkpt lat="47.23188" lon="-1.60891">
        <ele>33.6</ele>
        <time>2014-02-16T10:15:27Z</time>
      </trkpt>
      <trkpt lat="47.23178" lon="-1.6091">
        <ele>34.6</ele>
        <time>2014-02-16T10:15:40Z</time>
      </trkpt>
      <trkpt lat="47.23185" lon="-1.60921">
        <ele>34.9</ele>
        <time>2014-02-16T10:15:43Z</time>
      </trkpt>
      <trkpt lat="47.23191" lon="-1.60932">
        <ele>35.1</ele>
        <time>2014-02-16T10:15:46Z</time>
      </trkpt>
      <trkpt lat="47.23198" lon="-1.60947">
        <ele>35.5</ele>
        <time>2014-02-16T10:15:50Z</time>
      </trkpt>
      <trkpt lat="47.23204" lon="-1.60958">
        <ele>35.6</ele>
        <time>2014-02-16T10:15:53Z</time>
      </trkpt>
      <trkpt lat="47.23211" lon="-1.6097">
        <ele>35.7</ele>
        <time>2014-02-16T10:15:56Z</time>
      </trkpt>
      <trkpt lat="47.23217" lon="-1.60983">
        <ele>35.9</ele>
        <time>2014-02-16T10:15:59Z</time>
      </trkpt>
      <trkpt lat="47.23221" lon="-1.60997">
        <ele>36</ele>
        <time>2014-02-16T10:16:02Z</time>
      </trkpt>
      <trkpt lat="47.23222" lon="-1.61011">
        <ele>36.1</ele>
        <time>2014-02-16T10:16:05Z</time>
      </trkpt>
      <trkpt lat="47.2322" lon="-1.6103">
        <ele>36.1</ele>
        <time>2014-02-16T10:16:08Z</time>
      </trkpt>
      <trkpt lat="47.23217" lon="-1.61046">
        <ele>36.2</ele>
        <time>2014-02-16T10:16:11Z</time>
      </trkpt>
      <trkpt lat="47.23212" lon="-1.6106">
        <ele>36.3</ele>
        <time>2014-02-16T10:16:14Z</time>
      </trkpt>
      <trkpt lat="47.23205" lon="-1.61073">
        <ele>36.3</ele>
        <time>2014-02-16T10:16:17Z</time>
      </trkpt>
      <trkpt lat="47.23199" lon="-1.61083">
        <ele>36.3</ele>
        <time>2014-02-16T10:16:19Z</time>
      </trkpt>
      <trkpt lat="47.2319" lon="-1.61093">
        <ele>36.3</ele>
        <time>2014-02-16T10:16:22Z</time>
      </trkpt>
      <trkpt lat="47.2318" lon="-1.61098">
        <ele>36.4</ele>
        <time>2014-02-16T10:16:26Z</time>
      </trkpt>
      <trkpt lat="47.2317" lon="-1.61103">
        <ele>35.9</ele>
        <time>2014-02-16T10:16:29Z</time>
      </trkpt>
      <trkpt lat="47.23148" lon="-1.61116">
        <ele>36.9</ele>
        <time>2014-02-16T10:16:35Z</time>
      </trkpt>
      <trkpt lat="47.23138" lon="-1.61123">
        <ele>37.1</ele>
        <time>2014-02-16T10:16:38Z</time>
      </trkpt>
      <trkpt lat="47.2313" lon="-1.6113">
        <ele>37.2</ele>
        <time>2014-02-16T10:16:41Z</time>
      </trkpt>
      <trkpt lat="47.2312" lon="-1.61139">
        <ele>37.2</ele>
        <time>2014-02-16T10:16:45Z</time>
      </trkpt>
      <trkpt lat="47.2311" lon="-1.61147">
        <ele>37</ele>
        <time>2014-02-16T10:16:48Z</time>
      </trkpt>
      <trkpt lat="47.23101" lon="-1.61154">
        <ele>36.8</ele>
        <time>2014-02-16T10:16:51Z</time>
      </trkpt>
      <trkpt lat="47.23096" lon="-1.61169">
        <ele>36.4</ele>
        <time>2014-02-16T10:16:55Z</time>
      </trkpt>
      <trkpt lat="47.23099" lon="-1.61185">
        <ele>36.2</ele>
        <time>2014-02-16T10:16:58Z</time>
      </trkpt>
      <trkpt lat="47.23103" lon="-1.61199">
        <ele>35.8</ele>
        <time>2014-02-16T10:17:02Z</time>
      </trkpt>
      <trkpt lat="47.23108" lon="-1.6121">
        <ele>35.3</ele>
        <time>2014-02-16T10:17:05Z</time>
      </trkpt>
      <trkpt lat="47.23114" lon="-1.61225">
        <ele>34.7</ele>
        <time>2014-02-16T10:17:08Z</time>
      </trkpt>
      <trkpt lat="47.23119" lon="-1.61239">
        <ele>34</ele>
        <time>2014-02-16T10:17:11Z</time>
      </trkpt>
      <trkpt lat="47.23124" lon="-1.61256">
        <ele>33.6</ele>
        <time>2014-02-16T10:17:14Z</time>
      </trkpt>
      <trkpt lat="47.23127" lon="-1.61272">
        <ele>33.1</ele>
        <time>2014-02-16T10:17:17Z</time>
      </trkpt>
      <trkpt lat="47.23131" lon="-1.61286">
        <ele>32.8</ele>
        <time>2014-02-16T10:17:20Z</time>
      </trkpt>
      <trkpt lat="47.23135" lon="-1.61303">
        <ele>32.4</ele>
        <time>2014-02-16T10:17:23Z</time>
      </trkpt>
      <trkpt lat="47.23139" lon="-1.6132">
        <ele>28.4</ele>
        <time>2014-02-16T10:17:26Z</time>
      </trkpt>
      <trkpt lat="47.23143" lon="-1.61332">
        <ele>27.2</ele>
        <time>2014-02-16T10:17:28Z</time>
      </trkpt>
      <trkpt lat="47.23148" lon="-1.61345">
        <ele>27.3</ele>
        <time>2014-02-16T10:17:30Z</time>
      </trkpt>
      <trkpt lat="47.23158" lon="-1.61374">
        <ele>27.1</ele>
        <time>2014-02-16T10:17:35Z</time>
      </trkpt>
      <trkpt lat="47.23163" lon="-1.61386">
        <ele>27.7</ele>
        <time>2014-02-16T10:17:37Z</time>
      </trkpt>
      <trkpt lat="47.23169" lon="-1.61396">
        <ele>28.4</ele>
        <time>2014-02-16T10:17:39Z</time>
      </trkpt>
      <trkpt lat="47.23178" lon="-1.61409">
        <ele>29.8</ele>
        <time>2014-02-16T10:17:42Z</time>
      </trkpt>
      <trkpt lat="47.23187" lon="-1.61423">
        <ele>30.6</ele>
        <time>2014-02-16T10:17:45Z</time>
      </trkpt>
      <trkpt lat="47.23191" lon="-1.6144">
        <ele>30.7</ele>
        <time>2014-02-16T10:17:48Z</time>
      </trkpt>
      <trkpt lat="47.23201" lon="-1.61447">
        <ele>30.9</ele>
        <time>2014-02-16T10:17:52Z</time>
      </trkpt>
      <trkpt lat="47.23212" lon="-1.61442">
        <ele>31.8</ele>
        <time>2014-02-16T10:17:55Z</time>
      </trkpt>
      <trkpt lat="47.23224" lon="-1.61435">
        <ele>32.2</ele>
        <time>2014-02-16T10:17:58Z</time>
      </trkpt>
      <trkpt lat="47.23236" lon="-1.61427">
        <ele>33.2</ele>
        <time>2014-02-16T10:18:01Z</time>
      </trkpt>
      <trkpt lat="47.23247" lon="-1.61419">
        <ele>35.4</ele>
        <time>2014-02-16T10:18:04Z</time>
      </trkpt>
      <trkpt lat="47.23259" lon="-1.61414">
        <ele>35.6</ele>
        <time>2014-02-16T10:18:07Z</time>
      </trkpt>
      <trkpt lat="47.23266" lon="-1.61426">
        <ele>35.4</ele>
        <time>2014-02-16T10:18:11Z</time>
      </trkpt>
      <trkpt lat="47.23269" lon="-1.6144">
        <ele>35.1</ele>
        <time>2014-02-16T10:18:14Z</time>
      </trkpt>
      <trkpt lat="47.2327" lon="-1.61453">
        <ele>34.9</ele>
        <time>2014-02-16T10:18:16Z</time>
      </trkpt>
      <trkpt lat="47.23271" lon="-1.61466">
        <ele>34.7</ele>
        <time>2014-02-16T10:18:18Z</time>
      </trkpt>
      <trkpt lat="47.23273" lon="-1.61482">
        <ele>34.6</ele>
        <time>2014-02-16T10:18:20Z</time>
      </trkpt>
      <trkpt lat="47.23273" lon="-1.61498">
        <ele>34.5</ele>
        <time>2014-02-16T10:18:22Z</time>
      </trkpt>
      <trkpt lat="47.23274" lon="-1.61512">
        <ele>34.4</ele>
        <time>2014-02-16T10:18:24Z</time>
      </trkpt>
      <trkpt lat="47.23275" lon="-1.61531">
        <ele>33.3</ele>
        <time>2014-02-16T10:18:27Z</time>
      </trkpt>
      <trkpt lat="47.23278" lon="-1.61545">
        <ele>33.3</ele>
        <time>2014-02-16T10:18:29Z</time>
      </trkpt>
      <trkpt lat="47.23282" lon="-1.61563">
        <ele>34.8</ele>
        <time>2014-02-16T10:18:32Z</time>
      </trkpt>
      <trkpt lat="47.23293" lon="-1.61592">
        <ele>34.8</ele>
        <time>2014-02-16T10:18:37Z</time>
      </trkpt>
      <trkpt lat="47.23301" lon="-1.61607">
        <ele>35.9</ele>
        <time>2014-02-16T10:18:40Z</time>
      </trkpt>
      <trkpt lat="47.23307" lon="-1.61618">
        <ele>36.4</ele>
        <time>2014-02-16T10:18:42Z</time>
      </trkpt>
      <trkpt lat="47.23312" lon="-1.61628">
        <ele>37.4</ele>
        <time>2014-02-16T10:18:44Z</time>
      </trkpt>
      <trkpt lat="47.23319" lon="-1.61638">
        <ele>37.6</ele>
        <time>2014-02-16T10:18:46Z</time>
      </trkpt>
      <trkpt lat="47.23326" lon="-1.61648">
        <ele>37.2</ele>
        <time>2014-02-16T10:18:48Z</time>
      </trkpt>
      <trkpt lat="47.23335" lon="-1.61662">
        <ele>37</ele>
        <time>2014-02-16T10:18:51Z</time>
      </trkpt>
      <trkpt lat="47.23343" lon="-1.61675">
        <ele>37.5</ele>
        <time>2014-02-16T10:18:54Z</time>
      </trkpt>
      <trkpt lat="47.23349" lon="-1.61686">
        <ele>38</ele>
        <time>2014-02-16T10:18:56Z</time>
      </trkpt>
      <trkpt lat="47.23359" lon="-1.61702">
        <ele>38.6</ele>
        <time>2014-02-16T10:18:59Z</time>
      </trkpt>
      <trkpt lat="47.23365" lon="-1.61713">
        <ele>38.6</ele>
        <time>2014-02-16T10:19:01Z</time>
      </trkpt>
      <trkpt lat="47.2337" lon="-1.61725">
        <ele>37.8</ele>
        <time>2014-02-16T10:19:03Z</time>
      </trkpt>
      <trkpt lat="47.23378" lon="-1.61733">
        <ele>37.7</ele>
        <time>2014-02-16T10:19:06Z</time>
      </trkpt>
      <trkpt lat="47.23387" lon="-1.61725">
        <ele>36.8</ele>
        <time>2014-02-16T10:19:09Z</time>
      </trkpt>
      <trkpt lat="47.23397" lon="-1.61719">
        <ele>35.1</ele>
        <time>2014-02-16T10:19:11Z</time>
      </trkpt>
      <trkpt lat="47.23408" lon="-1.61716">
        <ele>34.1</ele>
        <time>2014-02-16T10:19:13Z</time>
      </trkpt>
      <trkpt lat="47.2342" lon="-1.61715">
        <ele>34</ele>
        <time>2014-02-16T10:19:15Z</time>
      </trkpt>
      <trkpt lat="47.23433" lon="-1.61716">
        <ele>35.3</ele>
        <time>2014-02-16T10:19:17Z</time>
      </trkpt>
      <trkpt lat="47.23447" lon="-1.61718">
        <ele>36.3</ele>
        <time>2014-02-16T10:19:19Z</time>
      </trkpt>
      <trkpt lat="47.23459" lon="-1.61722">
        <ele>36.7</ele>
        <time>2014-02-16T10:19:21Z</time>
      </trkpt>
      <trkpt lat="47.23469" lon="-1.61729">
        <ele>35.9</ele>
        <time>2014-02-16T10:19:23Z</time>
      </trkpt>
      <trkpt lat="47.23475" lon="-1.6174">
        <ele>35.2</ele>
        <time>2014-02-16T10:19:27Z</time>
      </trkpt>
      <trkpt lat="47.23484" lon="-1.61747">
        <ele>34.7</ele>
        <time>2014-02-16T10:19:31Z</time>
      </trkpt>
      <trkpt lat="47.23495" lon="-1.61745">
        <ele>33.7</ele>
        <time>2014-02-16T10:19:34Z</time>
      </trkpt>
      <trkpt lat="47.23515" lon="-1.61726">
        <ele>32.5</ele>
        <time>2014-02-16T10:19:38Z</time>
      </trkpt>
      <trkpt lat="47.23526" lon="-1.61714">
        <ele>32.5</ele>
        <time>2014-02-16T10:19:40Z</time>
      </trkpt>
      <trkpt lat="47.23536" lon="-1.61703">
        <ele>32.4</ele>
        <time>2014-02-16T10:19:42Z</time>
      </trkpt>
      <trkpt lat="47.23546" lon="-1.61692">
        <ele>32.4</ele>
        <time>2014-02-16T10:19:44Z</time>
      </trkpt>
      <trkpt lat="47.23555" lon="-1.61682">
        <ele>31.9</ele>
        <time>2014-02-16T10:19:46Z</time>
      </trkpt>
      <trkpt lat="47.23565" lon="-1.61671">
        <ele>30.7</ele>
        <time>2014-02-16T10:19:48Z</time>
      </trkpt>
      <trkpt lat="47.23574" lon="-1.61659">
        <ele>29.6</ele>
        <time>2014-02-16T10:19:50Z</time>
      </trkpt>
      <trkpt lat="47.23582" lon="-1.61644">
        <ele>29.5</ele>
        <time>2014-02-16T10:19:52Z</time>
      </trkpt>
      <trkpt lat="47.23589" lon="-1.61629">
        <ele>29.9</ele>
        <time>2014-02-16T10:19:54Z</time>
      </trkpt>
      <trkpt lat="47.23596" lon="-1.61615">
        <ele>29.2</ele>
        <time>2014-02-16T10:19:57Z</time>
      </trkpt>
      <trkpt lat="47.23604" lon="-1.61601">
        <ele>29.3</ele>
        <time>2014-02-16T10:20:00Z</time>
      </trkpt>
      <trkpt lat="47.23604" lon="-1.61587">
        <ele>29.1</ele>
        <time>2014-02-16T10:20:03Z</time>
      </trkpt>
      <trkpt lat="47.23611" lon="-1.61572">
        <ele>28.5</ele>
        <time>2014-02-16T10:20:06Z</time>
      </trkpt>
      <trkpt lat="47.23618" lon="-1.61563">
        <ele>28.1</ele>
        <time>2014-02-16T10:20:09Z</time>
      </trkpt>
      <trkpt lat="47.23623" lon="-1.61552">
        <ele>27.9</ele>
        <time>2014-02-16T10:20:12Z</time>
      </trkpt>
      <trkpt lat="47.23634" lon="-1.61531">
        <ele>25.9</ele>
        <time>2014-02-16T10:20:25Z</time>
      </trkpt>
      <trkpt lat="47.23647" lon="-1.61531">
        <ele>25</ele>
        <time>2014-02-16T10:20:28Z</time>
      </trkpt>
      <trkpt lat="47.23657" lon="-1.6153">
        <ele>20</ele>
        <time>2014-02-16T10:20:30Z</time>
      </trkpt>
      <trkpt lat="47.23672" lon="-1.61529">
        <ele>16.6</ele>
        <time>2014-02-16T10:20:32Z</time>
      </trkpt>
      <trkpt lat="47.23681" lon="-1.61523">
        <ele>16.4</ele>
        <time>2014-02-16T10:20:34Z</time>
      </trkpt>
      <trkpt lat="47.23692" lon="-1.61514">
        <ele>16.2</ele>
        <time>2014-02-16T10:20:37Z</time>
      </trkpt>
      <trkpt lat="47.23713" lon="-1.61505">
        <ele>16.3</ele>
        <time>2014-02-16T10:20:43Z</time>
      </trkpt>
      <trkpt lat="47.23724" lon="-1.61502">
        <ele>15.9</ele>
        <time>2014-02-16T10:20:48Z</time>
      </trkpt>
      <trkpt lat="47.23735" lon="-1.61508">
        <ele>15.6</ele>
        <time>2014-02-16T10:20:52Z</time>
      </trkpt>
      <trkpt lat="47.23744" lon="-1.61519">
        <ele>15.3</ele>
        <time>2014-02-16T10:20:56Z</time>
      </trkpt>
      <trkpt lat="47.23751" lon="-1.6153">
        <ele>15</ele>
        <time>2014-02-16T10:21:01Z</time>
      </trkpt>
      <trkpt lat="47.2376" lon="-1.61537">
        <ele>14.8</ele>
        <time>2014-02-16T10:21:07Z</time>
      </trkpt>
      <trkpt lat="47.23769" lon="-1.61543">
        <ele>14.5</ele>
        <time>2014-02-16T10:21:11Z</time>
      </trkpt>
      <trkpt lat="47.23776" lon="-1.61552">
        <ele>14.1</ele>
        <time>2014-02-16T10:21:15Z</time>
      </trkpt>
      <trkpt lat="47.23782" lon="-1.6157">
        <ele>13.5</ele>
        <time>2014-02-16T10:21:39Z</time>
      </trkpt>
      <trkpt lat="47.23773" lon="-1.61604">
        <ele>14.1</ele>
        <time>2014-02-16T10:21:52Z</time>
      </trkpt>
      <trkpt lat="47.23768" lon="-1.61617">
        <ele>14.3</ele>
        <time>2014-02-16T10:21:58Z</time>
      </trkpt>
      <trkpt lat="47.23765" lon="-1.61629">
        <ele>14.2</ele>
        <time>2014-02-16T10:22:02Z</time>
      </trkpt>
      <trkpt lat="47.23763" lon="-1.61643">
        <ele>14.2</ele>
        <time>2014-02-16T10:22:07Z</time>
      </trkpt>
      <trkpt lat="47.23759" lon="-1.61664">
        <ele>16.2</ele>
        <time>2014-02-16T10:22:35Z</time>
      </trkpt>
      <trkpt lat="47.23758" lon="-1.61679">
        <ele>17.3</ele>
        <time>2014-02-16T10:22:51Z</time>
      </trkpt>
      <trkpt lat="47.23773" lon="-1.61707">
        <ele>18</ele>
        <time>2014-02-16T10:23:10Z</time>
      </trkpt>
      <trkpt lat="47.23776" lon="-1.61721">
        <ele>18.5</ele>
        <time>2014-02-16T10:23:18Z</time>
      </trkpt>
      <trkpt lat="47.23776" lon="-1.61735">
        <ele>19.1</ele>
        <time>2014-02-16T10:23:23Z</time>
      </trkpt>
      <trkpt lat="47.23773" lon="-1.6175">
        <ele>19.6</ele>
        <time>2014-02-16T10:23:28Z</time>
      </trkpt>
      <trkpt lat="47.23777" lon="-1.61763">
        <ele>19.4</ele>
        <time>2014-02-16T10:23:34Z</time>
      </trkpt>
      <trkpt lat="47.23783" lon="-1.61775">
        <ele>18.7</ele>
        <time>2014-02-16T10:23:41Z</time>
      </trkpt>
      <trkpt lat="47.23789" lon="-1.6179">
        <ele>17.6</ele>
        <time>2014-02-16T10:23:49Z</time>
      </trkpt>
      <trkpt lat="47.23793" lon="-1.61804">
        <ele>16.6</ele>
        <time>2014-02-16T10:23:53Z</time>
      </trkpt>
      <trkpt lat="47.23806" lon="-1.61824">
        <ele>15</ele>
        <time>2014-02-16T10:24:00Z</time>
      </trkpt>
      <trkpt lat="47.23815" lon="-1.61834">
        <ele>14.1</ele>
        <time>2014-02-16T10:24:07Z</time>
      </trkpt>
      <trkpt lat="47.23818" lon="-1.61849">
        <ele>13.2</ele>
        <time>2014-02-16T10:24:11Z</time>
      </trkpt>
      <trkpt lat="47.23818" lon="-1.61864">
        <ele>11.8</ele>
        <time>2014-02-16T10:24:16Z</time>
      </trkpt>
      <trkpt lat="47.23825" lon="-1.61874">
        <ele>10.1</ele>
        <time>2014-02-16T10:24:21Z</time>
      </trkpt>
      <trkpt lat="47.23829" lon="-1.61889">
        <ele>9.3</ele>
        <time>2014-02-16T10:24:23Z</time>
      </trkpt>
      <trkpt lat="47.23831" lon="-1.6191">
        <ele>11.6</ele>
        <time>2014-02-16T10:24:52Z</time>
      </trkpt>
      <trkpt lat="47.23839" lon="-1.61919">
        <ele>12.3</ele>
        <time>2014-02-16T10:24:56Z</time>
      </trkpt>
      <trkpt lat="47.23854" lon="-1.61937">
        <ele>12.1</ele>
        <time>2014-02-16T10:25:07Z</time>
      </trkpt>
      <trkpt lat="47.23865" lon="-1.61945">
        <ele>11.9</ele>
        <time>2014-02-16T10:25:11Z</time>
      </trkpt>
      <trkpt lat="47.23875" lon="-1.61952">
        <ele>12.1</ele>
        <time>2014-02-16T10:25:15Z</time>
      </trkpt>
      <trkpt lat="47.23885" lon="-1.61957">
        <ele>12.7</ele>
        <time>2014-02-16T10:25:20Z</time>
      </trkpt>
      <trkpt lat="47.23894" lon="-1.6196">
        <ele>12.9</ele>
        <time>2014-02-16T10:25:23Z</time>
      </trkpt>
      <trkpt lat="47.23903" lon="-1.61963">
        <ele>13</ele>
        <time>2014-02-16T10:25:26Z</time>
      </trkpt>
      <trkpt lat="47.23913" lon="-1.61963">
        <ele>13.1</ele>
        <time>2014-02-16T10:25:29Z</time>
      </trkpt>
      <trkpt lat="47.23923" lon="-1.61965">
        <ele>13.4</ele>
        <time>2014-02-16T10:25:34Z</time>
      </trkpt>
      <trkpt lat="47.23933" lon="-1.61969">
        <ele>14.1</ele>
        <time>2014-02-16T10:25:41Z</time>
      </trkpt>
      <trkpt lat="47.23943" lon="-1.61973">
        <ele>14.6</ele>
        <time>2014-02-16T10:25:47Z</time>
      </trkpt>
      <trkpt lat="47.2395" lon="-1.61982">
        <ele>15.4</ele>
        <time>2014-02-16T10:25:52Z</time>
      </trkpt>
      <trkpt lat="47.23957" lon="-1.61991">
        <ele>15.8</ele>
        <time>2014-02-16T10:25:56Z</time>
      </trkpt>
      <trkpt lat="47.23965" lon="-1.61998">
        <ele>16.1</ele>
        <time>2014-02-16T10:25:59Z</time>
      </trkpt>
      <trkpt lat="47.23981" lon="-1.62016">
        <ele>16.1</ele>
        <time>2014-02-16T10:26:05Z</time>
      </trkpt>
      <trkpt lat="47.23987" lon="-1.62026">
        <ele>15.3</ele>
        <time>2014-02-16T10:26:08Z</time>
      </trkpt>
      <trkpt lat="47.23993" lon="-1.62039">
        <ele>14.1</ele>
        <time>2014-02-16T10:26:11Z</time>
      </trkpt>
      <trkpt lat="47.23999" lon="-1.62049">
        <ele>12.5</ele>
        <time>2014-02-16T10:26:15Z</time>
      </trkpt>
      <trkpt lat="47.24007" lon="-1.62059">
        <ele>10.2</ele>
        <time>2014-02-16T10:26:22Z</time>
      </trkpt>
      <trkpt lat="47.24007" lon="-1.62073">
        <ele>7.8</ele>
        <time>2014-02-16T10:26:29Z</time>
      </trkpt>
      <trkpt lat="47.24011" lon="-1.62087">
        <ele>5.5</ele>
        <time>2014-02-16T10:26:36Z</time>
      </trkpt>
      <trkpt lat="47.24013" lon="-1.62102">
        <ele>6</ele>
        <time>2014-02-16T10:26:39Z</time>
      </trkpt>
      <trkpt lat="47.24014" lon="-1.62117">
        <ele>7</ele>
        <time>2014-02-16T10:26:43Z</time>
      </trkpt>
      <trkpt lat="47.24014" lon="-1.6213">
        <ele>7.4</ele>
        <time>2014-02-16T10:26:46Z</time>
      </trkpt>
      <trkpt lat="47.24013" lon="-1.62148">
        <ele>7.9</ele>
        <time>2014-02-16T10:26:50Z</time>
      </trkpt>
      <trkpt lat="47.24013" lon="-1.62163">
        <ele>8.4</ele>
        <time>2014-02-16T10:26:53Z</time>
      </trkpt>
      <trkpt lat="47.24013" lon="-1.62176">
        <ele>8.9</ele>
        <time>2014-02-16T10:26:56Z</time>
      </trkpt>
      <trkpt lat="47.24015" lon="-1.62191">
        <ele>9.5</ele>
        <time>2014-02-16T10:26:59Z</time>
      </trkpt>
      <trkpt lat="47.24016" lon="-1.62208">
        <ele>10</ele>
        <time>2014-02-16T10:27:02Z</time>
      </trkpt>
      <trkpt lat="47.24015" lon="-1.62242">
        <ele>10.4</ele>
        <time>2014-02-16T10:27:08Z</time>
      </trkpt>
      <trkpt lat="47.24014" lon="-1.6226">
        <ele>10.8</ele>
        <time>2014-02-16T10:27:11Z</time>
      </trkpt>
      <trkpt lat="47.24016" lon="-1.62278">
        <ele>11</ele>
        <time>2014-02-16T10:27:14Z</time>
      </trkpt>
      <trkpt lat="47.24016" lon="-1.62294">
        <ele>11.2</ele>
        <time>2014-02-16T10:27:17Z</time>
      </trkpt>
      <trkpt lat="47.24014" lon="-1.62308">
        <ele>11.5</ele>
        <time>2014-02-16T10:27:20Z</time>
      </trkpt>
      <trkpt lat="47.24013" lon="-1.62321">
        <ele>11.8</ele>
        <time>2014-02-16T10:27:23Z</time>
      </trkpt>
      <trkpt lat="47.24013" lon="-1.62337">
        <ele>12.1</ele>
        <time>2014-02-16T10:27:26Z</time>
      </trkpt>
      <trkpt lat="47.24013" lon="-1.62353">
        <ele>11.5</ele>
        <time>2014-02-16T10:27:31Z</time>
      </trkpt>
      <trkpt lat="47.24015" lon="-1.6237">
        <ele>11.2</ele>
        <time>2014-02-16T10:27:34Z</time>
      </trkpt>
      <trkpt lat="47.24013" lon="-1.62388">
        <ele>11</ele>
        <time>2014-02-16T10:27:38Z</time>
      </trkpt>
      <trkpt lat="47.24013" lon="-1.62402">
        <ele>10.8</ele>
        <time>2014-02-16T10:27:41Z</time>
      </trkpt>
      <trkpt lat="47.24017" lon="-1.62413">
        <ele>10.9</ele>
        <time>2014-02-16T10:27:44Z</time>
      </trkpt>
      <trkpt lat="47.24015" lon="-1.62427">
        <ele>11.1</ele>
        <time>2014-02-16T10:27:49Z</time>
      </trkpt>
      <trkpt lat="47.24012" lon="-1.62439">
        <ele>11.3</ele>
        <time>2014-02-16T10:27:56Z</time>
      </trkpt>
      <trkpt lat="47.24012" lon="-1.62453">
        <ele>11.7</ele>
        <time>2014-02-16T10:28:06Z</time>
      </trkpt>
      <trkpt lat="47.24025" lon="-1.62474">
        <ele>12.6</ele>
        <time>2014-02-16T10:28:26Z</time>
      </trkpt>
      <trkpt lat="47.24033" lon="-1.62484">
        <ele>12.6</ele>
        <time>2014-02-16T10:28:29Z</time>
      </trkpt>
      <trkpt lat="47.24042" lon="-1.62493">
        <ele>12.9</ele>
        <time>2014-02-16T10:28:33Z</time>
      </trkpt>
      <trkpt lat="47.24048" lon="-1.62504">
        <ele>13.3</ele>
        <time>2014-02-16T10:28:36Z</time>
      </trkpt>
      <trkpt lat="47.24054" lon="-1.62515">
        <ele>13.4</ele>
        <time>2014-02-16T10:28:40Z</time>
      </trkpt>
      <trkpt lat="47.24061" lon="-1.62525">
        <ele>13.3</ele>
        <time>2014-02-16T10:28:43Z</time>
      </trkpt>
      <trkpt lat="47.24069" lon="-1.62537">
        <ele>13.2</ele>
        <time>2014-02-16T10:28:46Z</time>
      </trkpt>
      <trkpt lat="47.24078" lon="-1.62541">
        <ele>13</ele>
        <time>2014-02-16T10:28:50Z</time>
      </trkpt>
      <trkpt lat="47.24088" lon="-1.62544">
        <ele>12.8</ele>
        <time>2014-02-16T10:28:54Z</time>
      </trkpt>
      <trkpt lat="47.24095" lon="-1.62554">
        <ele>12.9</ele>
        <time>2014-02-16T10:28:57Z</time>
      </trkpt>
      <trkpt lat="47.24099" lon="-1.62569">
        <ele>13.3</ele>
        <time>2014-02-16T10:29:01Z</time>
      </trkpt>
      <trkpt lat="47.24095" lon="-1.62584">
        <ele>13.7</ele>
        <time>2014-02-16T10:29:05Z</time>
      </trkpt>
      <trkpt lat="47.24092" lon="-1.62598">
        <ele>14.2</ele>
        <time>2014-02-16T10:29:09Z</time>
      </trkpt>
      <trkpt lat="47.24083" lon="-1.62627">
        <ele>14.5</ele>
        <time>2014-02-16T10:29:16Z</time>
      </trkpt>
      <trkpt lat="47.24077" lon="-1.62639">
        <ele>14.6</ele>
        <time>2014-02-16T10:29:20Z</time>
      </trkpt>
      <trkpt lat="47.24072" lon="-1.6265">
        <ele>14.9</ele>
        <time>2014-02-16T10:29:24Z</time>
      </trkpt>
      <trkpt lat="47.24066" lon="-1.62662">
        <ele>14.6</ele>
        <time>2014-02-16T10:29:32Z</time>
      </trkpt>
      <trkpt lat="47.24062" lon="-1.62676">
        <ele>14.5</ele>
        <time>2014-02-16T10:29:37Z</time>
      </trkpt>
      <trkpt lat="47.24059" lon="-1.62691">
        <ele>14.3</ele>
        <time>2014-02-16T10:29:42Z</time>
      </trkpt>
      <trkpt lat="47.24055" lon="-1.62703">
        <ele>13.6</ele>
        <time>2014-02-16T10:29:52Z</time>
      </trkpt>
      <trkpt lat="47.24046" lon="-1.62711">
        <ele>12.9</ele>
        <time>2014-02-16T10:30:00Z</time>
      </trkpt>
      <trkpt lat="47.24039" lon="-1.62722">
        <ele>12.6</ele>
        <time>2014-02-16T10:30:06Z</time>
      </trkpt>
      <trkpt lat="47.24037" lon="-1.62737">
        <ele>12.9</ele>
        <time>2014-02-16T10:30:13Z</time>
      </trkpt>
      <trkpt lat="47.24053" lon="-1.62749">
        <ele>14.7</ele>
        <time>2014-02-16T10:30:24Z</time>
      </trkpt>
      <trkpt lat="47.24065" lon="-1.62747">
        <ele>14.8</ele>
        <time>2014-02-16T10:30:26Z</time>
      </trkpt>
      <trkpt lat="47.24076" lon="-1.62755">
        <ele>15.3</ele>
        <time>2014-02-16T10:30:29Z</time>
      </trkpt>
      <trkpt lat="47.2408" lon="-1.6277">
        <ele>15.7</ele>
        <time>2014-02-16T10:30:33Z</time>
      </trkpt>
      <trkpt lat="47.24081" lon="-1.62786">
        <ele>15.9</ele>
        <time>2014-02-16T10:30:37Z</time>
      </trkpt>
      <trkpt lat="47.24083" lon="-1.628">
        <ele>15.7</ele>
        <time>2014-02-16T10:30:40Z</time>
      </trkpt>
      <trkpt lat="47.24084" lon="-1.62815">
        <ele>15.3</ele>
        <time>2014-02-16T10:30:44Z</time>
      </trkpt>
      <trkpt lat="47.24084" lon="-1.62828">
        <ele>15.2</ele>
        <time>2014-02-16T10:30:47Z</time>
      </trkpt>
      <trkpt lat="47.24083" lon="-1.62842">
        <ele>15.2</ele>
        <time>2014-02-16T10:30:50Z</time>
      </trkpt>
      <trkpt lat="47.24081" lon="-1.62857">
        <ele>15.2</ele>
        <time>2014-02-16T10:30:52Z</time>
      </trkpt>
      <trkpt lat="47.24079" lon="-1.62877">
        <ele>15.4</ele>
        <time>2014-02-16T10:30:55Z</time>
      </trkpt>
      <trkpt lat="47.24079" lon="-1.62896">
        <ele>15.5</ele>
        <time>2014-02-16T10:30:58Z</time>
      </trkpt>
      <trkpt lat="47.2408" lon="-1.62913">
        <ele>15.5</ele>
        <time>2014-02-16T10:31:01Z</time>
      </trkpt>
      <trkpt lat="47.2408" lon="-1.6293">
        <ele>15.8</ele>
        <time>2014-02-16T10:31:04Z</time>
      </trkpt>
      <trkpt lat="47.2408" lon="-1.62944">
        <ele>16.1</ele>
        <time>2014-02-16T10:31:07Z</time>
      </trkpt>
      <trkpt lat="47.24079" lon="-1.62959">
        <ele>16.5</ele>
        <time>2014-02-16T10:31:10Z</time>
      </trkpt>
      <trkpt lat="47.24076" lon="-1.62976">
        <ele>17</ele>
        <time>2014-02-16T10:31:13Z</time>
      </trkpt>
      <trkpt lat="47.24071" lon="-1.62993">
        <ele>17.5</ele>
        <time>2014-02-16T10:31:16Z</time>
      </trkpt>
      <trkpt lat="47.24061" lon="-1.63019">
        <ele>18.7</ele>
        <time>2014-02-16T10:31:23Z</time>
      </trkpt>
      <trkpt lat="47.24059" lon="-1.63032">
        <ele>19</ele>
        <time>2014-02-16T10:31:26Z</time>
      </trkpt>
      <trkpt lat="47.24057" lon="-1.63048">
        <ele>19.2</ele>
        <time>2014-02-16T10:31:29Z</time>
      </trkpt>
      <trkpt lat="47.24057" lon="-1.63062">
        <ele>19.3</ele>
        <time>2014-02-16T10:31:31Z</time>
      </trkpt>
      <trkpt lat="47.2406" lon="-1.63076">
        <ele>19.7</ele>
        <time>2014-02-16T10:31:34Z</time>
      </trkpt>
      <trkpt lat="47.24064" lon="-1.6309">
        <ele>19.8</ele>
        <time>2014-02-16T10:31:37Z</time>
      </trkpt>
      <trkpt lat="47.24069" lon="-1.63107">
        <ele>20</ele>
        <time>2014-02-16T10:31:40Z</time>
      </trkpt>
      <trkpt lat="47.24073" lon="-1.63119">
        <ele>20.2</ele>
        <time>2014-02-16T10:31:43Z</time>
      </trkpt>
      <trkpt lat="47.24077" lon="-1.63133">
        <ele>20.4</ele>
        <time>2014-02-16T10:31:46Z</time>
      </trkpt>
      <trkpt lat="47.24079" lon="-1.63149">
        <ele>20.9</ele>
        <time>2014-02-16T10:31:49Z</time>
      </trkpt>
      <trkpt lat="47.24083" lon="-1.63164">
        <ele>21.8</ele>
        <time>2014-02-16T10:31:53Z</time>
      </trkpt>
      <trkpt lat="47.24085" lon="-1.63178">
        <ele>22.3</ele>
        <time>2014-02-16T10:31:56Z</time>
      </trkpt>
      <trkpt lat="47.24087" lon="-1.63192">
        <ele>22.8</ele>
        <time>2014-02-16T10:31:59Z</time>
      </trkpt>
      <trkpt lat="47.24088" lon="-1.63207">
        <ele>23.4</ele>
        <time>2014-02-16T10:32:02Z</time>
      </trkpt>
      <trkpt lat="47.24089" lon="-1.63221">
        <ele>23.9</ele>
        <time>2014-02-16T10:32:05Z</time>
      </trkpt>
      <trkpt lat="47.24093" lon="-1.63237">
        <ele>24.3</ele>
        <time>2014-02-16T10:32:09Z</time>
      </trkpt>
      <trkpt lat="47.24103" lon="-1.6324">
        <ele>24.2</ele>
        <time>2014-02-16T10:32:15Z</time>
      </trkpt>
      <trkpt lat="47.24113" lon="-1.63238">
        <ele>24</ele>
        <time>2014-02-16T10:32:20Z</time>
      </trkpt>
      <trkpt lat="47.24134" lon="-1.63231">
        <ele>23.2</ele>
        <time>2014-02-16T10:32:28Z</time>
      </trkpt>
      <trkpt lat="47.24144" lon="-1.63229">
        <ele>22.9</ele>
        <time>2014-02-16T10:32:33Z</time>
      </trkpt>
      <trkpt lat="47.24154" lon="-1.63233">
        <ele>22.2</ele>
        <time>2014-02-16T10:32:38Z</time>
      </trkpt>
      <trkpt lat="47.24166" lon="-1.63239">
        <ele>21.7</ele>
        <time>2014-02-16T10:32:42Z</time>
      </trkpt>
      <trkpt lat="47.24175" lon="-1.63246">
        <ele>21.5</ele>
        <time>2014-02-16T10:32:46Z</time>
      </trkpt>
      <trkpt lat="47.24181" lon="-1.63258">
        <ele>21.1</ele>
        <time>2014-02-16T10:32:51Z</time>
      </trkpt>
      <trkpt lat="47.24188" lon="-1.63269">
        <ele>20.7</ele>
        <time>2014-02-16T10:32:59Z</time>
      </trkpt>
      <trkpt lat="47.24194" lon="-1.63281">
        <ele>20.3</ele>
        <time>2014-02-16T10:33:08Z</time>
      </trkpt>
      <trkpt lat="47.24203" lon="-1.63286">
        <ele>21.3</ele>
        <time>2014-02-16T10:33:20Z</time>
      </trkpt>
      <trkpt lat="47.24205" lon="-1.63271">
        <ele>21.7</ele>
        <time>2014-02-16T10:33:36Z</time>
      </trkpt>
      <trkpt lat="47.24219" lon="-1.63259">
        <ele>23.3</ele>
        <time>2014-02-16T10:34:46Z</time>
      </trkpt>
      <trkpt lat="47.24202" lon="-1.6329">
        <ele>23.5</ele>
        <time>2014-02-16T10:37:49Z</time>
      </trkpt>
      <trkpt lat="47.24204" lon="-1.63303">
        <ele>23.6</ele>
        <time>2014-02-16T10:38:06Z</time>
      </trkpt>
      <trkpt lat="47.24202" lon="-1.63304">
        <ele>23.7</ele>
        <time>2014-02-16T10:38:54Z</time>
      </trkpt>
      <trkpt lat="47.24199" lon="-1.63317">
        <ele>22.3</ele>
        <time>2014-02-16T10:39:08Z</time>
      </trkpt>
      <trkpt lat="47.24205" lon="-1.63341">
        <ele>20.8</ele>
        <time>2014-02-16T10:41:06Z</time>
      </trkpt>
      <trkpt lat="47.24215" lon="-1.63364">
        <ele>19.1</ele>
        <time>2014-02-16T10:41:52Z</time>
      </trkpt>
      <trkpt lat="47.24219" lon="-1.63378">
        <ele>19.9</ele>
        <time>2014-02-16T10:42:09Z</time>
      </trkpt>
      <trkpt lat="47.2423" lon="-1.63397">
        <ele>20.5</ele>
        <time>2014-02-16T10:42:29Z</time>
      </trkpt>
      <trkpt lat="47.24234" lon="-1.6341">
        <ele>21.3</ele>
        <time>2014-02-16T10:42:36Z</time>
      </trkpt>
      <trkpt lat="47.24238" lon="-1.63422">
        <ele>21.6</ele>
        <time>2014-02-16T10:42:44Z</time>
      </trkpt>
      <trkpt lat="47.24239" lon="-1.63437">
        <ele>21.7</ele>
        <time>2014-02-16T10:42:50Z</time>
      </trkpt>
      <trkpt lat="47.24246" lon="-1.63449">
        <ele>21.5</ele>
        <time>2014-02-16T10:42:56Z</time>
      </trkpt>
      <trkpt lat="47.24247" lon="-1.63463">
        <ele>21.6</ele>
        <time>2014-02-16T10:43:03Z</time>
      </trkpt>
      <trkpt lat="47.2424" lon="-1.63471">
        <ele>21.5</ele>
        <time>2014-02-16T10:43:08Z</time>
      </trkpt>
      <trkpt lat="47.24231" lon="-1.63476">
        <ele>22</ele>
        <time>2014-02-16T10:43:15Z</time>
      </trkpt>
      <trkpt lat="47.24226" lon="-1.63495">
        <ele>22.6</ele>
        <time>2014-02-16T10:44:01Z</time>
      </trkpt>
      <trkpt lat="47.24223" lon="-1.6351">
        <ele>22.7</ele>
        <time>2014-02-16T10:44:08Z</time>
      </trkpt>
      <trkpt lat="47.24225" lon="-1.63524">
        <ele>23</ele>
        <time>2014-02-16T10:44:14Z</time>
      </trkpt>
      <trkpt lat="47.24233" lon="-1.63531">
        <ele>23.5</ele>
        <time>2014-02-16T10:44:20Z</time>
      </trkpt>
      <trkpt lat="47.24242" lon="-1.63557">
        <ele>24.6</ele>
        <time>2014-02-16T10:44:32Z</time>
      </trkpt>
      <trkpt lat="47.24244" lon="-1.63572">
        <ele>25.2</ele>
        <time>2014-02-16T10:44:40Z</time>
      </trkpt>
      <trkpt lat="47.24247" lon="-1.63585">
        <ele>25.4</ele>
        <time>2014-02-16T10:44:47Z</time>
      </trkpt>
      <trkpt lat="47.24251" lon="-1.63596">
        <ele>25.5</ele>
        <time>2014-02-16T10:44:51Z</time>
      </trkpt>
      <trkpt lat="47.24259" lon="-1.63607">
        <ele>25.4</ele>
        <time>2014-02-16T10:44:58Z</time>
      </trkpt>
      <trkpt lat="47.24268" lon="-1.63612">
        <ele>25.3</ele>
        <time>2014-02-16T10:45:03Z</time>
      </trkpt>
      <trkpt lat="47.24274" lon="-1.63624">
        <ele>25.5</ele>
        <time>2014-02-16T10:45:14Z</time>
      </trkpt>
      <trkpt lat="47.24282" lon="-1.63631">
        <ele>25.5</ele>
        <time>2014-02-16T10:45:21Z</time>
      </trkpt>
      <trkpt lat="47.24299" lon="-1.63621">
        <ele>25</ele>
        <time>2014-02-16T10:46:28Z</time>
      </trkpt>
      <trkpt lat="47.24318" lon="-1.63619">
        <ele>23.7</ele>
        <time>2014-02-16T10:47:49Z</time>
      </trkpt>
      <trkpt lat="47.24333" lon="-1.63611">
        <ele>21</ele>
        <time>2014-02-16T10:49:45Z</time>
      </trkpt>
      <trkpt lat="47.24344" lon="-1.63575">
        <ele>19.9</ele>
        <time>2014-02-16T10:51:49Z</time>
      </trkpt>
      <trkpt lat="47.24346" lon="-1.6356">
        <ele>20</ele>
        <time>2014-02-16T10:51:59Z</time>
      </trkpt>
      <trkpt lat="47.2435" lon="-1.63548">
        <ele>19.9</ele>
        <time>2014-02-16T10:52:11Z</time>
      </trkpt>
      <trkpt lat="47.24357" lon="-1.63539">
        <ele>19</ele>
        <time>2014-02-16T10:52:17Z</time>
      </trkpt>
      <trkpt lat="47.24365" lon="-1.6353">
        <ele>18.7</ele>
        <time>2014-02-16T10:52:24Z</time>
      </trkpt>
      <trkpt lat="47.24374" lon="-1.63528">
        <ele>18.8</ele>
        <time>2014-02-16T10:52:30Z</time>
      </trkpt>
      <trkpt lat="47.24384" lon="-1.6353">
        <ele>19.4</ele>
        <time>2014-02-16T10:52:42Z</time>
      </trkpt>
      <trkpt lat="47.24386" lon="-1.63556">
        <ele>20.2</ele>
        <time>2014-02-16T10:53:19Z</time>
      </trkpt>
      <trkpt lat="47.24387" lon="-1.6357">
        <ele>19.5</ele>
        <time>2014-02-16T10:53:23Z</time>
      </trkpt>
      <trkpt lat="47.24391" lon="-1.63585">
        <ele>18.5</ele>
        <time>2014-02-16T10:53:26Z</time>
      </trkpt>
      <trkpt lat="47.24394" lon="-1.63598">
        <ele>17.5</ele>
        <time>2014-02-16T10:53:29Z</time>
      </trkpt>
      <trkpt lat="47.24396" lon="-1.63613">
        <ele>17.4</ele>
        <time>2014-02-16T10:53:33Z</time>
      </trkpt>
      <trkpt lat="47.24399" lon="-1.63627">
        <ele>18</ele>
        <time>2014-02-16T10:53:41Z</time>
      </trkpt>
      <trkpt lat="47.24401" lon="-1.63641">
        <ele>18.9</ele>
        <time>2014-02-16T10:53:51Z</time>
      </trkpt>
      <trkpt lat="47.24411" lon="-1.63656">
        <ele>20.6</ele>
        <time>2014-02-16T10:54:17Z</time>
      </trkpt>
      <trkpt lat="47.2442" lon="-1.6365">
        <ele>22.4</ele>
        <time>2014-02-16T10:54:56Z</time>
      </trkpt>
      <trkpt lat="47.24417" lon="-1.63679">
        <ele>20.3</ele>
        <time>2014-02-16T10:55:44Z</time>
      </trkpt>
      <trkpt lat="47.24414" lon="-1.63693">
        <ele>20.2</ele>
        <time>2014-02-16T10:55:48Z</time>
      </trkpt>
      <trkpt lat="47.24412" lon="-1.63709">
        <ele>20.4</ele>
        <time>2014-02-16T10:55:52Z</time>
      </trkpt>
      <trkpt lat="47.24414" lon="-1.63727">
        <ele>20.8</ele>
        <time>2014-02-16T10:55:55Z</time>
      </trkpt>
      <trkpt lat="47.24422" lon="-1.63737">
        <ele>21.3</ele>
        <time>2014-02-16T10:55:59Z</time>
      </trkpt>
      <trkpt lat="47.24439" lon="-1.6375">
        <ele>19.3</ele>
        <time>2014-02-16T10:56:11Z</time>
      </trkpt>
      <trkpt lat="47.24443" lon="-1.63764">
        <ele>19.4</ele>
        <time>2014-02-16T10:56:16Z</time>
      </trkpt>
      <trkpt lat="47.24444" lon="-1.63779">
        <ele>18.4</ele>
        <time>2014-02-16T10:56:24Z</time>
      </trkpt>
      <trkpt lat="47.24442" lon="-1.63795">
        <ele>18.1</ele>
        <time>2014-02-16T10:56:28Z</time>
      </trkpt>
      <trkpt lat="47.24438" lon="-1.63807">
        <ele>17.8</ele>
        <time>2014-02-16T10:56:30Z</time>
      </trkpt>
      <trkpt lat="47.2443" lon="-1.63818">
        <ele>17.5</ele>
        <time>2014-02-16T10:56:32Z</time>
      </trkpt>
      <trkpt lat="47.24425" lon="-1.63832">
        <ele>16.9</ele>
        <time>2014-02-16T10:56:35Z</time>
      </trkpt>
      <trkpt lat="47.24428" lon="-1.63848">
        <ele>16.2</ele>
        <time>2014-02-16T10:56:38Z</time>
      </trkpt>
      <trkpt lat="47.24432" lon="-1.63861">
        <ele>15.7</ele>
        <time>2014-02-16T10:56:41Z</time>
      </trkpt>
      <trkpt lat="47.24436" lon="-1.6388">
        <ele>15.7</ele>
        <time>2014-02-16T10:56:44Z</time>
      </trkpt>
      <trkpt lat="47.2444" lon="-1.63895">
        <ele>16.7</ele>
        <time>2014-02-16T10:56:46Z</time>
      </trkpt>
      <trkpt lat="47.24446" lon="-1.63913">
        <ele>17.2</ele>
        <time>2014-02-16T10:56:49Z</time>
      </trkpt>
      <trkpt lat="47.2445" lon="-1.63927">
        <ele>16.8</ele>
        <time>2014-02-16T10:56:51Z</time>
      </trkpt>
      <trkpt lat="47.24455" lon="-1.63941">
        <ele>16.6</ele>
        <time>2014-02-16T10:56:53Z</time>
      </trkpt>
      <trkpt lat="47.24459" lon="-1.63953">
        <ele>16.3</ele>
        <time>2014-02-16T10:56:55Z</time>
      </trkpt>
      <trkpt lat="47.24464" lon="-1.63967">
        <ele>15.1</ele>
        <time>2014-02-16T10:56:57Z</time>
      </trkpt>
      <trkpt lat="47.24469" lon="-1.63985">
        <ele>14.5</ele>
        <time>2014-02-16T10:56:59Z</time>
      </trkpt>
      <trkpt lat="47.24474" lon="-1.64">
        <ele>14.4</ele>
        <time>2014-02-16T10:57:01Z</time>
      </trkpt>
      <trkpt lat="47.24484" lon="-1.64029">
        <ele>15</ele>
        <time>2014-02-16T10:57:05Z</time>
      </trkpt>
      <trkpt lat="47.24489" lon="-1.64042">
        <ele>14.9</ele>
        <time>2014-02-16T10:57:07Z</time>
      </trkpt>
      <trkpt lat="47.24495" lon="-1.64056">
        <ele>13</ele>
        <time>2014-02-16T10:57:09Z</time>
      </trkpt>
      <trkpt lat="47.24499" lon="-1.6407">
        <ele>12.6</ele>
        <time>2014-02-16T10:57:11Z</time>
      </trkpt>
      <trkpt lat="47.24506" lon="-1.6408">
        <ele>13.7</ele>
        <time>2014-02-16T10:57:13Z</time>
      </trkpt>
      <trkpt lat="47.24512" lon="-1.64094">
        <ele>15.1</ele>
        <time>2014-02-16T10:57:15Z</time>
      </trkpt>
      <trkpt lat="47.24518" lon="-1.64106">
        <ele>16.8</ele>
        <time>2014-02-16T10:57:17Z</time>
      </trkpt>
      <trkpt lat="47.24524" lon="-1.64119">
        <ele>18.9</ele>
        <time>2014-02-16T10:57:19Z</time>
      </trkpt>
      <trkpt lat="47.2453" lon="-1.64132">
        <ele>21.4</ele>
        <time>2014-02-16T10:57:21Z</time>
      </trkpt>
      <trkpt lat="47.24538" lon="-1.64146">
        <ele>22.6</ele>
        <time>2014-02-16T10:57:24Z</time>
      </trkpt>
      <trkpt lat="47.24543" lon="-1.64158">
        <ele>22</ele>
        <time>2014-02-16T10:57:26Z</time>
      </trkpt>
      <trkpt lat="47.2455" lon="-1.64172">
        <ele>21.4</ele>
        <time>2014-02-16T10:57:29Z</time>
      </trkpt>
      <trkpt lat="47.24556" lon="-1.64185">
        <ele>21.5</ele>
        <time>2014-02-16T10:57:32Z</time>
      </trkpt>
      <trkpt lat="47.24562" lon="-1.64197">
        <ele>23.1</ele>
        <time>2014-02-16T10:57:34Z</time>
      </trkpt>
      <trkpt lat="47.2457" lon="-1.64211">
        <ele>24.1</ele>
        <time>2014-02-16T10:57:36Z</time>
      </trkpt>
      <trkpt lat="47.24577" lon="-1.64222">
        <ele>23.8</ele>
        <time>2014-02-16T10:57:38Z</time>
      </trkpt>
      <trkpt lat="47.24584" lon="-1.64239">
        <ele>23.5</ele>
        <time>2014-02-16T10:57:41Z</time>
      </trkpt>
      <trkpt lat="47.24589" lon="-1.6425">
        <ele>22.9</ele>
        <time>2014-02-16T10:57:43Z</time>
      </trkpt>
      <trkpt lat="47.24592" lon="-1.64264">
        <ele>22.6</ele>
        <time>2014-02-16T10:57:45Z</time>
      </trkpt>
      <trkpt lat="47.24595" lon="-1.64278">
        <ele>21.5</ele>
        <time>2014-02-16T10:57:47Z</time>
      </trkpt>
      <trkpt lat="47.24601" lon="-1.64295">
        <ele>18</ele>
        <time>2014-02-16T10:57:50Z</time>
      </trkpt>
      <trkpt lat="47.24608" lon="-1.6431">
        <ele>15.8</ele>
        <time>2014-02-16T10:57:53Z</time>
      </trkpt>
      <trkpt lat="47.24614" lon="-1.64325">
        <ele>15.9</ele>
        <time>2014-02-16T10:57:56Z</time>
      </trkpt>
      <trkpt lat="47.24618" lon="-1.64338">
        <ele>16</ele>
        <time>2014-02-16T10:57:58Z</time>
      </trkpt>
      <trkpt lat="47.24621" lon="-1.64357">
        <ele>18</ele>
        <time>2014-02-16T10:58:01Z</time>
      </trkpt>
      <trkpt lat="47.24625" lon="-1.64369">
        <ele>18.3</ele>
        <time>2014-02-16T10:58:03Z</time>
      </trkpt>
      <trkpt lat="47.2464" lon="-1.64395">
        <ele>20.2</ele>
        <time>2014-02-16T10:58:08Z</time>
      </trkpt>
      <trkpt lat="47.24645" lon="-1.6441">
        <ele>21.3</ele>
        <time>2014-02-16T10:58:11Z</time>
      </trkpt>
      <trkpt lat="47.24649" lon="-1.6443">
        <ele>21.7</ele>
        <time>2014-02-16T10:58:14Z</time>
      </trkpt>
      <trkpt lat="47.24651" lon="-1.64443">
        <ele>21.6</ele>
        <time>2014-02-16T10:58:16Z</time>
      </trkpt>
      <trkpt lat="47.24654" lon="-1.64456">
        <ele>21</ele>
        <time>2014-02-16T10:58:18Z</time>
      </trkpt>
      <trkpt lat="47.2466" lon="-1.64467">
        <ele>20.9</ele>
        <time>2014-02-16T10:58:20Z</time>
      </trkpt>
      <trkpt lat="47.24667" lon="-1.64478">
        <ele>19.3</ele>
        <time>2014-02-16T10:58:22Z</time>
      </trkpt>
      <trkpt lat="47.24675" lon="-1.6449">
        <ele>19.8</ele>
        <time>2014-02-16T10:58:24Z</time>
      </trkpt>
      <trkpt lat="47.24681" lon="-1.645">
        <ele>21.1</ele>
        <time>2014-02-16T10:58:26Z</time>
      </trkpt>
      <trkpt lat="47.24688" lon="-1.6451">
        <ele>22.9</ele>
        <time>2014-02-16T10:58:28Z</time>
      </trkpt>
      <trkpt lat="47.24694" lon="-1.6452">
        <ele>24.3</ele>
        <time>2014-02-16T10:58:30Z</time>
      </trkpt>
      <trkpt lat="47.24702" lon="-1.64526">
        <ele>25.9</ele>
        <time>2014-02-16T10:58:32Z</time>
      </trkpt>
      <trkpt lat="47.24713" lon="-1.64534">
        <ele>27.7</ele>
        <time>2014-02-16T10:58:35Z</time>
      </trkpt>
      <trkpt lat="47.24723" lon="-1.64543">
        <ele>27.9</ele>
        <time>2014-02-16T10:58:38Z</time>
      </trkpt>
      <trkpt lat="47.24731" lon="-1.64552">
        <ele>28.2</ele>
        <time>2014-02-16T10:58:41Z</time>
      </trkpt>
      <trkpt lat="47.24737" lon="-1.64567">
        <ele>28</ele>
        <time>2014-02-16T10:58:45Z</time>
      </trkpt>
      <trkpt lat="47.24747" lon="-1.64571">
        <ele>28</ele>
        <time>2014-02-16T10:58:51Z</time>
      </trkpt>
      <trkpt lat="47.24757" lon="-1.64571">
        <ele>27.8</ele>
        <time>2014-02-16T10:58:54Z</time>
      </trkpt>
      <trkpt lat="47.24768" lon="-1.64575">
        <ele>27.6</ele>
        <time>2014-02-16T10:58:57Z</time>
      </trkpt>
      <trkpt lat="47.2478" lon="-1.64581">
        <ele>27.7</ele>
        <time>2014-02-16T10:59:00Z</time>
      </trkpt>
      <trkpt lat="47.2479" lon="-1.64584">
        <ele>28.3</ele>
        <time>2014-02-16T10:59:02Z</time>
      </trkpt>
      <trkpt lat="47.24803" lon="-1.64589">
        <ele>28.1</ele>
        <time>2014-02-16T10:59:05Z</time>
      </trkpt>
      <trkpt lat="47.24816" lon="-1.64611">
        <ele>26.2</ele>
        <time>2014-02-16T10:59:42Z</time>
      </trkpt>
      <trkpt lat="47.24815" lon="-1.64625">
        <ele>26</ele>
        <time>2014-02-16T10:59:47Z</time>
      </trkpt>
      <trkpt lat="47.24816" lon="-1.6464">
        <ele>25.9</ele>
        <time>2014-02-16T10:59:53Z</time>
      </trkpt>
      <trkpt lat="47.24807" lon="-1.64646">
        <ele>25.1</ele>
        <time>2014-02-16T11:00:44Z</time>
      </trkpt>
      <trkpt lat="47.24803" lon="-1.64671">
        <ele>24.9</ele>
        <time>2014-02-16T11:01:36Z</time>
      </trkpt>
      <trkpt lat="47.24803" lon="-1.64658">
        <ele>24.5</ele>
        <time>2014-02-16T11:02:14Z</time>
      </trkpt>
      <trkpt lat="47.24806" lon="-1.64671">
        <ele>25.9</ele>
        <time>2014-02-16T11:03:41Z</time>
      </trkpt>
      <trkpt lat="47.24809" lon="-1.64699">
        <ele>24.3</ele>
        <time>2014-02-16T11:03:56Z</time>
      </trkpt>
      <trkpt lat="47.24815" lon="-1.6471">
        <ele>24.2</ele>
        <time>2014-02-16T11:04:01Z</time>
      </trkpt>
      <trkpt lat="47.24822" lon="-1.64719">
        <ele>24.4</ele>
        <time>2014-02-16T11:04:10Z</time>
      </trkpt>
      <trkpt lat="47.24823" lon="-1.64733">
        <ele>25.1</ele>
        <time>2014-02-16T11:04:38Z</time>
      </trkpt>
      <trkpt lat="47.24819" lon="-1.64747">
        <ele>25.1</ele>
        <time>2014-02-16T11:04:46Z</time>
      </trkpt>
      <trkpt lat="47.24812" lon="-1.64773">
        <ele>26.1</ele>
        <time>2014-02-16T11:04:59Z</time>
      </trkpt>
      <trkpt lat="47.2481" lon="-1.64787">
        <ele>26.3</ele>
        <time>2014-02-16T11:05:05Z</time>
      </trkpt>
      <trkpt lat="47.24812" lon="-1.648">
        <ele>26.5</ele>
        <time>2014-02-16T11:05:14Z</time>
      </trkpt>
      <trkpt lat="47.2481" lon="-1.64813">
        <ele>25.2</ele>
        <time>2014-02-16T11:05:23Z</time>
      </trkpt>
      <trkpt lat="47.24806" lon="-1.64827">
        <ele>23.8</ele>
        <time>2014-02-16T11:05:33Z</time>
      </trkpt>
      <trkpt lat="47.248" lon="-1.64838">
        <ele>23.4</ele>
        <time>2014-02-16T11:05:40Z</time>
      </trkpt>
      <trkpt lat="47.24794" lon="-1.64849">
        <ele>23.5</ele>
        <time>2014-02-16T11:05:48Z</time>
      </trkpt>
      <trkpt lat="47.24779" lon="-1.64867">
        <ele>25.7</ele>
        <time>2014-02-16T11:06:13Z</time>
      </trkpt>
      <trkpt lat="47.24777" lon="-1.64881">
        <ele>26.1</ele>
        <time>2014-02-16T11:06:26Z</time>
      </trkpt>
      <trkpt lat="47.24774" lon="-1.64894">
        <ele>26.6</ele>
        <time>2014-02-16T11:06:33Z</time>
      </trkpt>
      <trkpt lat="47.24772" lon="-1.64908">
        <ele>26.7</ele>
        <time>2014-02-16T11:06:43Z</time>
      </trkpt>
      <trkpt lat="47.24763" lon="-1.64911">
        <ele>27</ele>
        <time>2014-02-16T11:06:59Z</time>
      </trkpt>
      <trkpt lat="47.24781" lon="-1.64943">
        <ele>51.2</ele>
        <time>2014-02-16T11:11:09Z</time>
      </trkpt>
      <trkpt lat="47.24772" lon="-1.64949">
        <ele>41.3</ele>
        <time>2014-02-16T11:11:17Z</time>
      </trkpt>
      <trkpt lat="47.24767" lon="-1.64965">
        <ele>30</ele>
        <time>2014-02-16T11:11:29Z</time>
      </trkpt>
      <trkpt lat="47.24769" lon="-1.64981">
        <ele>24.4</ele>
        <time>2014-02-16T11:11:36Z</time>
      </trkpt>
      <trkpt lat="47.2477" lon="-1.64995">
        <ele>24.2</ele>
        <time>2014-02-16T11:11:45Z</time>
      </trkpt>
      <trkpt lat="47.24774" lon="-1.65006">
        <ele>25.3</ele>
        <time>2014-02-16T11:11:52Z</time>
      </trkpt>
      <trkpt lat="47.2478" lon="-1.65018">
        <ele>26.7</ele>
        <time>2014-02-16T11:12:00Z</time>
      </trkpt>
      <trkpt lat="47.24784" lon="-1.65031">
        <ele>27.3</ele>
        <time>2014-02-16T11:12:07Z</time>
      </trkpt>
      <trkpt lat="47.24782" lon="-1.65046">
        <ele>27.3</ele>
        <time>2014-02-16T11:12:16Z</time>
      </trkpt>
      <trkpt lat="47.2478" lon="-1.65074">
        <ele>29.5</ele>
        <time>2014-02-16T11:12:48Z</time>
      </trkpt>
      <trkpt lat="47.24787" lon="-1.65082">
        <ele>29.5</ele>
        <time>2014-02-16T11:13:05Z</time>
      </trkpt>
      <trkpt lat="47.24785" lon="-1.65095">
        <ele>27.3</ele>
        <time>2014-02-16T11:13:29Z</time>
      </trkpt>
      <trkpt lat="47.24798" lon="-1.65091">
        <ele>26.6</ele>
        <time>2014-02-16T11:13:58Z</time>
      </trkpt>
      <trkpt lat="47.24801" lon="-1.65079">
        <ele>26.1</ele>
        <time>2014-02-16T11:14:08Z</time>
      </trkpt>
      <trkpt lat="47.24799" lon="-1.65065">
        <ele>21.9</ele>
        <time>2014-02-16T11:14:34Z</time>
      </trkpt>
      <trkpt lat="47.24805" lon="-1.65042">
        <ele>20.8</ele>
        <time>2014-02-16T11:15:04Z</time>
      </trkpt>
      <trkpt lat="47.24804" lon="-1.65056">
        <ele>21.9</ele>
        <time>2014-02-16T11:15:39Z</time>
      </trkpt>
      <trkpt lat="47.24812" lon="-1.65082">
        <ele>22.2</ele>
        <time>2014-02-16T11:15:59Z</time>
      </trkpt>
      <trkpt lat="47.24807" lon="-1.65094">
        <ele>23.6</ele>
        <time>2014-02-16T11:16:05Z</time>
      </trkpt>
      <trkpt lat="47.24805" lon="-1.65107">
        <ele>24.7</ele>
        <time>2014-02-16T11:16:46Z</time>
      </trkpt>
      <trkpt lat="47.24798" lon="-1.65132">
        <ele>23.9</ele>
        <time>2014-02-16T11:19:10Z</time>
      </trkpt>
      <trkpt lat="47.24782" lon="-1.65144">
        <ele>23.9</ele>
        <time>2014-02-16T11:19:34Z</time>
      </trkpt>
      <trkpt lat="47.24771" lon="-1.65146">
        <ele>24.5</ele>
        <time>2014-02-16T11:19:41Z</time>
      </trkpt>
      <trkpt lat="47.24761" lon="-1.65148">
        <ele>25.5</ele>
        <time>2014-02-16T11:19:48Z</time>
      </trkpt>
      <trkpt lat="47.24753" lon="-1.65153">
        <ele>25.4</ele>
        <time>2014-02-16T11:19:55Z</time>
      </trkpt>
      <trkpt lat="47.24743" lon="-1.65157">
        <ele>25.5</ele>
        <time>2014-02-16T11:20:02Z</time>
      </trkpt>
      <trkpt lat="47.24734" lon="-1.65163">
        <ele>26.1</ele>
        <time>2014-02-16T11:20:08Z</time>
      </trkpt>
      <trkpt lat="47.24738" lon="-1.65177">
        <ele>28.3</ele>
        <time>2014-02-16T11:20:50Z</time>
      </trkpt>
      <trkpt lat="47.24747" lon="-1.652">
        <ele>28.4</ele>
        <time>2014-02-16T11:21:05Z</time>
      </trkpt>
      <trkpt lat="47.24752" lon="-1.65211">
        <ele>27.4</ele>
        <time>2014-02-16T11:21:28Z</time>
      </trkpt>
      <trkpt lat="47.24758" lon="-1.65223">
        <ele>27.6</ele>
        <time>2014-02-16T11:21:35Z</time>
      </trkpt>
      <trkpt lat="47.24759" lon="-1.65236">
        <ele>27.9</ele>
        <time>2014-02-16T11:21:46Z</time>
      </trkpt>
      <trkpt lat="47.2475" lon="-1.65245">
        <ele>28.6</ele>
        <time>2014-02-16T11:22:06Z</time>
      </trkpt>
      <trkpt lat="47.24734" lon="-1.65261">
        <ele>29.7</ele>
        <time>2014-02-16T11:22:17Z</time>
      </trkpt>
      <trkpt lat="47.24729" lon="-1.65272">
        <ele>29.9</ele>
        <time>2014-02-16T11:22:21Z</time>
      </trkpt>
      <trkpt lat="47.24722" lon="-1.65284">
        <ele>30</ele>
        <time>2014-02-16T11:22:27Z</time>
      </trkpt>
      <trkpt lat="47.24721" lon="-1.65299">
        <ele>30.5</ele>
        <time>2014-02-16T11:22:33Z</time>
      </trkpt>
      <trkpt lat="47.24719" lon="-1.65314">
        <ele>30.7</ele>
        <time>2014-02-16T11:22:38Z</time>
      </trkpt>
      <trkpt lat="47.2472" lon="-1.65329">
        <ele>30.9</ele>
        <time>2014-02-16T11:22:44Z</time>
      </trkpt>
      <trkpt lat="47.24723" lon="-1.65344">
        <ele>31.1</ele>
        <time>2014-02-16T11:22:49Z</time>
      </trkpt>
      <trkpt lat="47.24727" lon="-1.65358">
        <ele>30.8</ele>
        <time>2014-02-16T11:22:53Z</time>
      </trkpt>
      <trkpt lat="47.24728" lon="-1.65373">
        <ele>30.3</ele>
        <time>2014-02-16T11:22:57Z</time>
      </trkpt>
      <trkpt lat="47.24729" lon="-1.65387">
        <ele>30.4</ele>
        <time>2014-02-16T11:23:01Z</time>
      </trkpt>
      <trkpt lat="47.24731" lon="-1.654">
        <ele>30.7</ele>
        <time>2014-02-16T11:23:04Z</time>
      </trkpt>
      <trkpt lat="47.24734" lon="-1.65413">
        <ele>31.1</ele>
        <time>2014-02-16T11:23:07Z</time>
      </trkpt>
      <trkpt lat="47.24745" lon="-1.65444">
        <ele>31.8</ele>
        <time>2014-02-16T11:23:13Z</time>
      </trkpt>
      <trkpt lat="47.24743" lon="-1.65459">
        <ele>32.1</ele>
        <time>2014-02-16T11:23:16Z</time>
      </trkpt>
      <trkpt lat="47.24735" lon="-1.65471">
        <ele>32.4</ele>
        <time>2014-02-16T11:23:19Z</time>
      </trkpt>
      <trkpt lat="47.24728" lon="-1.65486">
        <ele>32.9</ele>
        <time>2014-02-16T11:23:23Z</time>
      </trkpt>
      <trkpt lat="47.24727" lon="-1.65502">
        <ele>33.2</ele>
        <time>2014-02-16T11:23:26Z</time>
      </trkpt>
      <trkpt lat="47.24729" lon="-1.6552">
        <ele>33.6</ele>
        <time>2014-02-16T11:23:29Z</time>
      </trkpt>
      <trkpt lat="47.24733" lon="-1.65538">
        <ele>34.2</ele>
        <time>2014-02-16T11:23:33Z</time>
      </trkpt>
      <trkpt lat="47.24736" lon="-1.65553">
        <ele>34.6</ele>
        <time>2014-02-16T11:23:36Z</time>
      </trkpt>
      <trkpt lat="47.24739" lon="-1.65567">
        <ele>35.1</ele>
        <time>2014-02-16T11:23:39Z</time>
      </trkpt>
      <trkpt lat="47.24744" lon="-1.65582">
        <ele>35.6</ele>
        <time>2014-02-16T11:23:42Z</time>
      </trkpt>
      <trkpt lat="47.24751" lon="-1.65598">
        <ele>35.8</ele>
        <time>2014-02-16T11:23:45Z</time>
      </trkpt>
      <trkpt lat="47.24756" lon="-1.65616">
        <ele>37.9</ele>
        <time>2014-02-16T11:23:48Z</time>
      </trkpt>
      <trkpt lat="47.24758" lon="-1.65632">
        <ele>38.3</ele>
        <time>2014-02-16T11:23:50Z</time>
      </trkpt>
      <trkpt lat="47.2476" lon="-1.65647">
        <ele>38.8</ele>
        <time>2014-02-16T11:23:52Z</time>
      </trkpt>
      <trkpt lat="47.24762" lon="-1.65664">
        <ele>39.7</ele>
        <time>2014-02-16T11:23:55Z</time>
      </trkpt>
      <trkpt lat="47.24762" lon="-1.65681">
        <ele>41.3</ele>
        <time>2014-02-16T11:23:58Z</time>
      </trkpt>
      <trkpt lat="47.24759" lon="-1.65698">
        <ele>41.8</ele>
        <time>2014-02-16T11:24:01Z</time>
      </trkpt>
      <trkpt lat="47.24763" lon="-1.65711">
        <ele>42</ele>
        <time>2014-02-16T11:24:06Z</time>
      </trkpt>
      <trkpt lat="47.24772" lon="-1.65705">
        <ele>41.9</ele>
        <time>2014-02-16T11:24:09Z</time>
      </trkpt>
      <trkpt lat="47.24787" lon="-1.65684">
        <ele>41.5</ele>
        <time>2014-02-16T11:24:15Z</time>
      </trkpt>
      <trkpt lat="47.24795" lon="-1.65674">
        <ele>41.3</ele>
        <time>2014-02-16T11:24:18Z</time>
      </trkpt>
      <trkpt lat="47.24805" lon="-1.65663">
        <ele>39.9</ele>
        <time>2014-02-16T11:24:21Z</time>
      </trkpt>
      <trkpt lat="47.24814" lon="-1.65654">
        <ele>39.3</ele>
        <time>2014-02-16T11:24:23Z</time>
      </trkpt>
      <trkpt lat="47.24823" lon="-1.65645">
        <ele>38.2</ele>
        <time>2014-02-16T11:24:25Z</time>
      </trkpt>
      <trkpt lat="47.24835" lon="-1.65636">
        <ele>36.6</ele>
        <time>2014-02-16T11:24:27Z</time>
      </trkpt>
      <trkpt lat="47.24846" lon="-1.65629">
        <ele>35.1</ele>
        <time>2014-02-16T11:24:29Z</time>
      </trkpt>
      <trkpt lat="47.24859" lon="-1.65624">
        <ele>34.7</ele>
        <time>2014-02-16T11:24:31Z</time>
      </trkpt>
      <trkpt lat="47.24871" lon="-1.65619">
        <ele>32.9</ele>
        <time>2014-02-16T11:24:33Z</time>
      </trkpt>
      <trkpt lat="47.24883" lon="-1.65615">
        <ele>32.7</ele>
        <time>2014-02-16T11:24:35Z</time>
      </trkpt>
      <trkpt lat="47.24897" lon="-1.65611">
        <ele>32.1</ele>
        <time>2014-02-16T11:24:37Z</time>
      </trkpt>
      <trkpt lat="47.24911" lon="-1.65607">
        <ele>32.2</ele>
        <time>2014-02-16T11:24:39Z</time>
      </trkpt>
      <trkpt lat="47.24926" lon="-1.65605">
        <ele>33.4</ele>
        <time>2014-02-16T11:24:41Z</time>
      </trkpt>
      <trkpt lat="47.2494" lon="-1.65606">
        <ele>33.6</ele>
        <time>2014-02-16T11:24:43Z</time>
      </trkpt>
      <trkpt lat="47.24955" lon="-1.6561">
        <ele>32.5</ele>
        <time>2014-02-16T11:24:45Z</time>
      </trkpt>
      <trkpt lat="47.24971" lon="-1.65616">
        <ele>30.4</ele>
        <time>2014-02-16T11:24:47Z</time>
      </trkpt>
      <trkpt lat="47.24987" lon="-1.65622">
        <ele>29.9</ele>
        <time>2014-02-16T11:24:49Z</time>
      </trkpt>
      <trkpt lat="47.25004" lon="-1.6563">
        <ele>29.5</ele>
        <time>2014-02-16T11:24:51Z</time>
      </trkpt>
      <trkpt lat="47.25013" lon="-1.65634">
        <ele>29.9</ele>
        <time>2014-02-16T11:24:52Z</time>
      </trkpt>
      <trkpt lat="47.25023" lon="-1.65639">
        <ele>29.1</ele>
        <time>2014-02-16T11:24:53Z</time>
      </trkpt>
      <trkpt lat="47.25035" lon="-1.65643">
        <ele>28.1</ele>
        <time>2014-02-16T11:24:54Z</time>
      </trkpt>
      <trkpt lat="47.25044" lon="-1.65647">
        <ele>27</ele>
        <time>2014-02-16T11:24:55Z</time>
      </trkpt>
      <trkpt lat="47.2506" lon="-1.65653">
        <ele>26</ele>
        <time>2014-02-16T11:24:57Z</time>
      </trkpt>
      <trkpt lat="47.25071" lon="-1.65659">
        <ele>25.1</ele>
        <time>2014-02-16T11:24:59Z</time>
      </trkpt>
      <trkpt lat="47.25082" lon="-1.65665">
        <ele>24.3</ele>
        <time>2014-02-16T11:25:01Z</time>
      </trkpt>
      <trkpt lat="47.25091" lon="-1.65671">
        <ele>23.9</ele>
        <time>2014-02-16T11:25:03Z</time>
      </trkpt>
      <trkpt lat="47.25102" lon="-1.65676">
        <ele>23.8</ele>
        <time>2014-02-16T11:25:05Z</time>
      </trkpt>
      <trkpt lat="47.25112" lon="-1.65679">
        <ele>24.8</ele>
        <time>2014-02-16T11:25:07Z</time>
      </trkpt>
      <trkpt lat="47.25122" lon="-1.65682">
        <ele>25.8</ele>
        <time>2014-02-16T11:25:09Z</time>
      </trkpt>
      <trkpt lat="47.25131" lon="-1.65684">
        <ele>26</ele>
        <time>2014-02-16T11:25:11Z</time>
      </trkpt>
      <trkpt lat="47.25155" lon="-1.65691">
        <ele>26.2</ele>
        <time>2014-02-16T11:25:17Z</time>
      </trkpt>
      <trkpt lat="47.25164" lon="-1.65693">
        <ele>26.3</ele>
        <time>2014-02-16T11:25:20Z</time>
      </trkpt>
      <trkpt lat="47.25176" lon="-1.65695">
        <ele>26.4</ele>
        <time>2014-02-16T11:25:23Z</time>
      </trkpt>
      <trkpt lat="47.25182" lon="-1.65706">
        <ele>26.7</ele>
        <time>2014-02-16T11:25:27Z</time>
      </trkpt>
      <trkpt lat="47.25185" lon="-1.65719">
        <ele>26.9</ele>
        <time>2014-02-16T11:25:30Z</time>
      </trkpt>
      <trkpt lat="47.25191" lon="-1.65735">
        <ele>27.1</ele>
        <time>2014-02-16T11:25:33Z</time>
      </trkpt>
      <trkpt lat="47.25197" lon="-1.65752">
        <ele>27.1</ele>
        <time>2014-02-16T11:25:36Z</time>
      </trkpt>
      <trkpt lat="47.25201" lon="-1.65765">
        <ele>27.6</ele>
        <time>2014-02-16T11:25:38Z</time>
      </trkpt>
      <trkpt lat="47.25206" lon="-1.65779">
        <ele>27.1</ele>
        <time>2014-02-16T11:25:40Z</time>
      </trkpt>
      <trkpt lat="47.25211" lon="-1.65792">
        <ele>27.3</ele>
        <time>2014-02-16T11:25:42Z</time>
      </trkpt>
      <trkpt lat="47.25215" lon="-1.65808">
        <ele>27.7</ele>
        <time>2014-02-16T11:25:44Z</time>
      </trkpt>
      <trkpt lat="47.25219" lon="-1.65825">
        <ele>30.8</ele>
        <time>2014-02-16T11:25:47Z</time>
      </trkpt>
      <trkpt lat="47.25222" lon="-1.65839">
        <ele>31.2</ele>
        <time>2014-02-16T11:25:50Z</time>
      </trkpt>
      <trkpt lat="47.25232" lon="-1.65838">
        <ele>32.5</ele>
        <time>2014-02-16T11:25:57Z</time>
      </trkpt>
      <trkpt lat="47.25242" lon="-1.65833">
        <ele>34.1</ele>
        <time>2014-02-16T11:26:03Z</time>
      </trkpt>
      <trkpt lat="47.25233" lon="-1.65838">
        <ele>36.3</ele>
        <time>2014-02-16T11:26:13Z</time>
      </trkpt>
      <trkpt lat="47.25216" lon="-1.65848">
        <ele>38.2</ele>
        <time>2014-02-16T11:26:37Z</time>
      </trkpt>
      <trkpt lat="47.25222" lon="-1.65863">
        <ele>38.4</ele>
        <time>2014-02-16T11:26:41Z</time>
      </trkpt>
      <trkpt lat="47.25227" lon="-1.65875">
        <ele>38.5</ele>
        <time>2014-02-16T11:26:44Z</time>
      </trkpt>
      <trkpt lat="47.25231" lon="-1.65889">
        <ele>38.7</ele>
        <time>2014-02-16T11:26:47Z</time>
      </trkpt>
      <trkpt lat="47.25235" lon="-1.65902">
        <ele>38.8</ele>
        <time>2014-02-16T11:26:50Z</time>
      </trkpt>
      <trkpt lat="47.25239" lon="-1.65916">
        <ele>39.1</ele>
        <time>2014-02-16T11:26:53Z</time>
      </trkpt>
      <trkpt lat="47.25244" lon="-1.65932">
        <ele>39.3</ele>
        <time>2014-02-16T11:26:56Z</time>
      </trkpt>
      <trkpt lat="47.25249" lon="-1.65946">
        <ele>39.3</ele>
        <time>2014-02-16T11:26:59Z</time>
      </trkpt>
      <trkpt lat="47.25253" lon="-1.65959">
        <ele>39.6</ele>
        <time>2014-02-16T11:27:02Z</time>
      </trkpt>
      <trkpt lat="47.25259" lon="-1.65974">
        <ele>40</ele>
        <time>2014-02-16T11:27:06Z</time>
      </trkpt>
      <trkpt lat="47.25264" lon="-1.65986">
        <ele>40.4</ele>
        <time>2014-02-16T11:27:09Z</time>
      </trkpt>
      <trkpt lat="47.25271" lon="-1.65998">
        <ele>40.6</ele>
        <time>2014-02-16T11:27:12Z</time>
      </trkpt>
      <trkpt lat="47.25278" lon="-1.6601">
        <ele>40.8</ele>
        <time>2014-02-16T11:27:15Z</time>
      </trkpt>
      <trkpt lat="47.25291" lon="-1.66038">
        <ele>41.2</ele>
        <time>2014-02-16T11:27:21Z</time>
      </trkpt>
      <trkpt lat="47.25297" lon="-1.6605">
        <ele>41.4</ele>
        <time>2014-02-16T11:27:24Z</time>
      </trkpt>
      <trkpt lat="47.25302" lon="-1.66062">
        <ele>41.4</ele>
        <time>2014-02-16T11:27:27Z</time>
      </trkpt>
      <trkpt lat="47.25308" lon="-1.66073">
        <ele>41.6</ele>
        <time>2014-02-16T11:27:30Z</time>
      </trkpt>
      <trkpt lat="47.25315" lon="-1.66084">
        <ele>41.7</ele>
        <time>2014-02-16T11:27:33Z</time>
      </trkpt>
      <trkpt lat="47.25321" lon="-1.66095">
        <ele>41.6</ele>
        <time>2014-02-16T11:27:36Z</time>
      </trkpt>
      <trkpt lat="47.25324" lon="-1.6611">
        <ele>41.4</ele>
        <time>2014-02-16T11:27:40Z</time>
      </trkpt>
      <trkpt lat="47.25323" lon="-1.66127">
        <ele>41.1</ele>
        <time>2014-02-16T11:27:43Z</time>
      </trkpt>
      <trkpt lat="47.25322" lon="-1.66144">
        <ele>40.8</ele>
        <time>2014-02-16T11:27:46Z</time>
      </trkpt>
      <trkpt lat="47.25321" lon="-1.66164">
        <ele>40.7</ele>
        <time>2014-02-16T11:27:49Z</time>
      </trkpt>
      <trkpt lat="47.2532" lon="-1.66183">
        <ele>39.3</ele>
        <time>2014-02-16T11:27:52Z</time>
      </trkpt>
      <trkpt lat="47.25321" lon="-1.66201">
        <ele>37.9</ele>
        <time>2014-02-16T11:27:55Z</time>
      </trkpt>
      <trkpt lat="47.25321" lon="-1.66217">
        <ele>37.8</ele>
        <time>2014-02-16T11:27:58Z</time>
      </trkpt>
      <trkpt lat="47.25321" lon="-1.66234">
        <ele>37.7</ele>
        <time>2014-02-16T11:28:01Z</time>
      </trkpt>
      <trkpt lat="47.25322" lon="-1.66253">
        <ele>37.3</ele>
        <time>2014-02-16T11:28:04Z</time>
      </trkpt>
      <trkpt lat="47.25322" lon="-1.66267">
        <ele>37.5</ele>
        <time>2014-02-16T11:28:06Z</time>
      </trkpt>
      <trkpt lat="47.25322" lon="-1.66284">
        <ele>37.6</ele>
        <time>2014-02-16T11:28:09Z</time>
      </trkpt>
      <trkpt lat="47.25322" lon="-1.66297">
        <ele>37.7</ele>
        <time>2014-02-16T11:28:12Z</time>
      </trkpt>
      <trkpt lat="47.25322" lon="-1.6631">
        <ele>38</ele>
        <time>2014-02-16T11:28:16Z</time>
      </trkpt>
      <trkpt lat="47.25325" lon="-1.66338">
        <ele>37.7</ele>
        <time>2014-02-16T11:28:25Z</time>
      </trkpt>
      <trkpt lat="47.25326" lon="-1.66353">
        <ele>37.5</ele>
        <time>2014-02-16T11:28:29Z</time>
      </trkpt>
      <trkpt lat="47.25326" lon="-1.66368">
        <ele>37.1</ele>
        <time>2014-02-16T11:28:33Z</time>
      </trkpt>
      <trkpt lat="47.25326" lon="-1.66384">
        <ele>36.9</ele>
        <time>2014-02-16T11:28:37Z</time>
      </trkpt>
      <trkpt lat="47.25326" lon="-1.66397">
        <ele>36.9</ele>
        <time>2014-02-16T11:28:40Z</time>
      </trkpt>
      <trkpt lat="47.25327" lon="-1.66413">
        <ele>36.6</ele>
        <time>2014-02-16T11:28:44Z</time>
      </trkpt>
      <trkpt lat="47.2533" lon="-1.66428">
        <ele>36.8</ele>
        <time>2014-02-16T11:28:48Z</time>
      </trkpt>
      <trkpt lat="47.25333" lon="-1.66443">
        <ele>37.1</ele>
        <time>2014-02-16T11:28:52Z</time>
      </trkpt>
      <trkpt lat="47.25334" lon="-1.66459">
        <ele>37.2</ele>
        <time>2014-02-16T11:28:56Z</time>
      </trkpt>
      <trkpt lat="47.25337" lon="-1.66474">
        <ele>38</ele>
        <time>2014-02-16T11:29:00Z</time>
      </trkpt>
      <trkpt lat="47.25352" lon="-1.6648">
        <ele>37.1</ele>
        <time>2014-02-16T11:29:20Z</time>
      </trkpt>
      <trkpt lat="47.25371" lon="-1.66481">
        <ele>34.7</ele>
        <time>2014-02-16T11:29:26Z</time>
      </trkpt>
      <trkpt lat="47.2538" lon="-1.66483">
        <ele>33.6</ele>
        <time>2014-02-16T11:29:29Z</time>
      </trkpt>
      <trkpt lat="47.25391" lon="-1.66482">
        <ele>31.9</ele>
        <time>2014-02-16T11:29:32Z</time>
      </trkpt>
      <trkpt lat="47.25399" lon="-1.66477">
        <ele>29.8</ele>
        <time>2014-02-16T11:29:36Z</time>
      </trkpt>
      <trkpt lat="47.25408" lon="-1.66467">
        <ele>26.6</ele>
        <time>2014-02-16T11:29:44Z</time>
      </trkpt>
      <trkpt lat="47.25417" lon="-1.66456">
        <ele>25.4</ele>
        <time>2014-02-16T11:29:47Z</time>
      </trkpt>
      <trkpt lat="47.25425" lon="-1.66449">
        <ele>25</ele>
        <time>2014-02-16T11:29:49Z</time>
      </trkpt>
      <trkpt lat="47.25434" lon="-1.66443">
        <ele>25</ele>
        <time>2014-02-16T11:29:51Z</time>
      </trkpt>
      <trkpt lat="47.25442" lon="-1.66437">
        <ele>25.2</ele>
        <time>2014-02-16T11:29:53Z</time>
      </trkpt>
      <trkpt lat="47.25451" lon="-1.66431">
        <ele>25.4</ele>
        <time>2014-02-16T11:29:55Z</time>
      </trkpt>
      <trkpt lat="47.2546" lon="-1.66425">
        <ele>25.7</ele>
        <time>2014-02-16T11:29:57Z</time>
      </trkpt>
      <trkpt lat="47.25468" lon="-1.6642">
        <ele>26.3</ele>
        <time>2014-02-16T11:29:59Z</time>
      </trkpt>
      <trkpt lat="47.25479" lon="-1.66413">
        <ele>27.4</ele>
        <time>2014-02-16T11:30:03Z</time>
      </trkpt>
      <trkpt lat="47.25487" lon="-1.66402">
        <ele>28.3</ele>
        <time>2014-02-16T11:30:06Z</time>
      </trkpt>
      <trkpt lat="47.25494" lon="-1.66393">
        <ele>29.2</ele>
        <time>2014-02-16T11:30:09Z</time>
      </trkpt>
      <trkpt lat="47.255" lon="-1.66379">
        <ele>30</ele>
        <time>2014-02-16T11:30:13Z</time>
      </trkpt>
      <trkpt lat="47.25509" lon="-1.66369">
        <ele>31</ele>
        <time>2014-02-16T11:30:17Z</time>
      </trkpt>
      <trkpt lat="47.25516" lon="-1.66361">
        <ele>31.6</ele>
        <time>2014-02-16T11:30:22Z</time>
      </trkpt>
      <trkpt lat="47.25527" lon="-1.66332">
        <ele>32.9</ele>
        <time>2014-02-16T11:30:31Z</time>
      </trkpt>
      <trkpt lat="47.25534" lon="-1.6632">
        <ele>33.2</ele>
        <time>2014-02-16T11:30:34Z</time>
      </trkpt>
      <trkpt lat="47.25542" lon="-1.66306">
        <ele>33.5</ele>
        <time>2014-02-16T11:30:37Z</time>
      </trkpt>
      <trkpt lat="47.25549" lon="-1.66294">
        <ele>34.1</ele>
        <time>2014-02-16T11:30:40Z</time>
      </trkpt>
      <trkpt lat="47.25556" lon="-1.66282">
        <ele>34.8</ele>
        <time>2014-02-16T11:30:43Z</time>
      </trkpt>
      <trkpt lat="47.25561" lon="-1.66271">
        <ele>35.4</ele>
        <time>2014-02-16T11:30:46Z</time>
      </trkpt>
      <trkpt lat="47.25567" lon="-1.6626">
        <ele>35.7</ele>
        <time>2014-02-16T11:30:49Z</time>
      </trkpt>
      <trkpt lat="47.25573" lon="-1.66246">
        <ele>36.2</ele>
        <time>2014-02-16T11:30:52Z</time>
      </trkpt>
      <trkpt lat="47.25578" lon="-1.66233">
        <ele>36.6</ele>
        <time>2014-02-16T11:30:55Z</time>
      </trkpt>
      <trkpt lat="47.25583" lon="-1.66221">
        <ele>37.1</ele>
        <time>2014-02-16T11:30:58Z</time>
      </trkpt>
      <trkpt lat="47.25591" lon="-1.6621">
        <ele>37.6</ele>
        <time>2014-02-16T11:31:01Z</time>
      </trkpt>
      <trkpt lat="47.25598" lon="-1.66197">
        <ele>38</ele>
        <time>2014-02-16T11:31:04Z</time>
      </trkpt>
      <trkpt lat="47.25604" lon="-1.66183">
        <ele>38.2</ele>
        <time>2014-02-16T11:31:08Z</time>
      </trkpt>
      <trkpt lat="47.2561" lon="-1.6617">
        <ele>38.2</ele>
        <time>2014-02-16T11:31:13Z</time>
      </trkpt>
      <trkpt lat="47.25617" lon="-1.66158">
        <ele>38.6</ele>
        <time>2014-02-16T11:31:18Z</time>
      </trkpt>
      <trkpt lat="47.25621" lon="-1.66146">
        <ele>39.1</ele>
        <time>2014-02-16T11:31:25Z</time>
      </trkpt>
      <trkpt lat="47.25634" lon="-1.66119">
        <ele>39.3</ele>
        <time>2014-02-16T11:31:34Z</time>
      </trkpt>
      <trkpt lat="47.25639" lon="-1.66107">
        <ele>39.3</ele>
        <time>2014-02-16T11:31:38Z</time>
      </trkpt>
      <trkpt lat="47.25645" lon="-1.66094">
        <ele>39.4</ele>
        <time>2014-02-16T11:31:42Z</time>
      </trkpt>
      <trkpt lat="47.25651" lon="-1.6608">
        <ele>39.3</ele>
        <time>2014-02-16T11:31:46Z</time>
      </trkpt>
      <trkpt lat="47.25658" lon="-1.66068">
        <ele>39.5</ele>
        <time>2014-02-16T11:31:50Z</time>
      </trkpt>
      <trkpt lat="47.25665" lon="-1.66056">
        <ele>39.8</ele>
        <time>2014-02-16T11:31:54Z</time>
      </trkpt>
      <trkpt lat="47.25673" lon="-1.66045">
        <ele>40.1</ele>
        <time>2014-02-16T11:31:59Z</time>
      </trkpt>
      <trkpt lat="47.2568" lon="-1.66033">
        <ele>40.5</ele>
        <time>2014-02-16T11:32:03Z</time>
      </trkpt>
      <trkpt lat="47.25686" lon="-1.66023">
        <ele>40.8</ele>
        <time>2014-02-16T11:32:06Z</time>
      </trkpt>
      <trkpt lat="47.25692" lon="-1.66009">
        <ele>41.1</ele>
        <time>2014-02-16T11:32:09Z</time>
      </trkpt>
      <trkpt lat="47.25698" lon="-1.65997">
        <ele>41.4</ele>
        <time>2014-02-16T11:32:12Z</time>
      </trkpt>
      <trkpt lat="47.25703" lon="-1.65985">
        <ele>41.9</ele>
        <time>2014-02-16T11:32:15Z</time>
      </trkpt>
      <trkpt lat="47.2571" lon="-1.6597">
        <ele>42.6</ele>
        <time>2014-02-16T11:32:19Z</time>
      </trkpt>
      <trkpt lat="47.25715" lon="-1.65957">
        <ele>43</ele>
        <time>2014-02-16T11:32:22Z</time>
      </trkpt>
      <trkpt lat="47.2572" lon="-1.65943">
        <ele>43.6</ele>
        <time>2014-02-16T11:32:25Z</time>
      </trkpt>
      <trkpt lat="47.25726" lon="-1.65928">
        <ele>44.4</ele>
        <time>2014-02-16T11:32:29Z</time>
      </trkpt>
      <trkpt lat="47.2574" lon="-1.659">
        <ele>45.8</ele>
        <time>2014-02-16T11:32:35Z</time>
      </trkpt>
      <trkpt lat="47.25746" lon="-1.65889">
        <ele>46.2</ele>
        <time>2014-02-16T11:32:37Z</time>
      </trkpt>
      <trkpt lat="47.25751" lon="-1.65877">
        <ele>46.6</ele>
        <time>2014-02-16T11:32:40Z</time>
      </trkpt>
      <trkpt lat="47.25759" lon="-1.65863">
        <ele>47.2</ele>
        <time>2014-02-16T11:32:44Z</time>
      </trkpt>
      <trkpt lat="47.25765" lon="-1.65852">
        <ele>47.7</ele>
        <time>2014-02-16T11:32:47Z</time>
      </trkpt>
      <trkpt lat="47.2577" lon="-1.65841">
        <ele>48.1</ele>
        <time>2014-02-16T11:32:50Z</time>
      </trkpt>
      <trkpt lat="47.25777" lon="-1.6583">
        <ele>48.4</ele>
        <time>2014-02-16T11:32:53Z</time>
      </trkpt>
      <trkpt lat="47.25784" lon="-1.6582">
        <ele>48.6</ele>
        <time>2014-02-16T11:32:57Z</time>
      </trkpt>
      <trkpt lat="47.25789" lon="-1.65809">
        <ele>48.9</ele>
        <time>2014-02-16T11:33:02Z</time>
      </trkpt>
      <trkpt lat="47.25796" lon="-1.65797">
        <ele>49.2</ele>
        <time>2014-02-16T11:33:07Z</time>
      </trkpt>
      <trkpt lat="47.25801" lon="-1.65786">
        <ele>49.6</ele>
        <time>2014-02-16T11:33:11Z</time>
      </trkpt>
      <trkpt lat="47.25808" lon="-1.65773">
        <ele>50</ele>
        <time>2014-02-16T11:33:15Z</time>
      </trkpt>
      <trkpt lat="47.25814" lon="-1.6576">
        <ele>50.4</ele>
        <time>2014-02-16T11:33:20Z</time>
      </trkpt>
      <trkpt lat="47.25818" lon="-1.65747">
        <ele>51.1</ele>
        <time>2014-02-16T11:33:25Z</time>
      </trkpt>
      <trkpt lat="47.25823" lon="-1.65735">
        <ele>51.8</ele>
        <time>2014-02-16T11:33:29Z</time>
      </trkpt>
      <trkpt lat="47.25829" lon="-1.65723">
        <ele>52.1</ele>
        <time>2014-02-16T11:33:33Z</time>
      </trkpt>
      <trkpt lat="47.25841" lon="-1.65696">
        <ele>53.4</ele>
        <time>2014-02-16T11:33:41Z</time>
      </trkpt>
      <trkpt lat="47.25848" lon="-1.65682">
        <ele>53.9</ele>
        <time>2014-02-16T11:33:46Z</time>
      </trkpt>
      <trkpt lat="47.25854" lon="-1.65671">
        <ele>54.6</ele>
        <time>2014-02-16T11:33:50Z</time>
      </trkpt>
      <trkpt lat="47.2586" lon="-1.65659">
        <ele>55</ele>
        <time>2014-02-16T11:33:54Z</time>
      </trkpt>
      <trkpt lat="47.25866" lon="-1.65647">
        <ele>55.4</ele>
        <time>2014-02-16T11:33:57Z</time>
      </trkpt>
      <trkpt lat="47.25871" lon="-1.65634">
        <ele>55.9</ele>
        <time>2014-02-16T11:34:01Z</time>
      </trkpt>
      <trkpt lat="47.25877" lon="-1.65621">
        <ele>56.5</ele>
        <time>2014-02-16T11:34:05Z</time>
      </trkpt>
      <trkpt lat="47.25883" lon="-1.65608">
        <ele>57</ele>
        <time>2014-02-16T11:34:09Z</time>
      </trkpt>
      <trkpt lat="47.2589" lon="-1.65595">
        <ele>57.5</ele>
        <time>2014-02-16T11:34:13Z</time>
      </trkpt>
      <trkpt lat="47.25896" lon="-1.65584">
        <ele>57.8</ele>
        <time>2014-02-16T11:34:16Z</time>
      </trkpt>
      <trkpt lat="47.25903" lon="-1.65571">
        <ele>58.2</ele>
        <time>2014-02-16T11:34:20Z</time>
      </trkpt>
      <trkpt lat="47.25909" lon="-1.6556">
        <ele>58.4</ele>
        <time>2014-02-16T11:34:23Z</time>
      </trkpt>
      <trkpt lat="47.25916" lon="-1.65547">
        <ele>58.3</ele>
        <time>2014-02-16T11:34:26Z</time>
      </trkpt>
      <trkpt lat="47.25922" lon="-1.65537">
        <ele>58.1</ele>
        <time>2014-02-16T11:34:29Z</time>
      </trkpt>
      <trkpt lat="47.25928" lon="-1.65526">
        <ele>58.2</ele>
        <time>2014-02-16T11:34:33Z</time>
      </trkpt>
      <trkpt lat="47.25934" lon="-1.65514">
        <ele>57.9</ele>
        <time>2014-02-16T11:34:41Z</time>
      </trkpt>
      <trkpt lat="47.25945" lon="-1.6549">
        <ele>59</ele>
        <time>2014-02-16T11:34:57Z</time>
      </trkpt>
      <trkpt lat="47.25954" lon="-1.65486">
        <ele>59</ele>
        <time>2014-02-16T11:35:05Z</time>
      </trkpt>
      <trkpt lat="47.25963" lon="-1.65494">
        <ele>59.4</ele>
        <time>2014-02-16T11:35:10Z</time>
      </trkpt>
      <trkpt lat="47.25967" lon="-1.65506">
        <ele>59.6</ele>
        <time>2014-02-16T11:35:15Z</time>
      </trkpt>
      <trkpt lat="47.25968" lon="-1.6552">
        <ele>60.7</ele>
        <time>2014-02-16T11:35:27Z</time>
      </trkpt>
      <trkpt lat="47.25966" lon="-1.65534">
        <ele>63.1</ele>
        <time>2014-02-16T11:38:56Z</time>
      </trkpt>
      <trkpt lat="47.26009" lon="-1.65792">
        <ele>75.9</ele>
        <time>2014-02-16T11:40:08Z</time>
      </trkpt>
      <trkpt lat="47.26013" lon="-1.65806">
        <ele>71.3</ele>
        <time>2014-02-16T11:40:10Z</time>
      </trkpt>
      <trkpt lat="47.26016" lon="-1.65819">
        <ele>70.8</ele>
        <time>2014-02-16T11:40:12Z</time>
      </trkpt>
      <trkpt lat="47.2602" lon="-1.65835">
        <ele>72.2</ele>
        <time>2014-02-16T11:40:15Z</time>
      </trkpt>
      <trkpt lat="47.26023" lon="-1.65849">
        <ele>72.5</ele>
        <time>2014-02-16T11:40:18Z</time>
      </trkpt>
      <trkpt lat="47.26027" lon="-1.65865">
        <ele>74.5</ele>
        <time>2014-02-16T11:40:21Z</time>
      </trkpt>
      <trkpt lat="47.2603" lon="-1.65882">
        <ele>72.1</ele>
        <time>2014-02-16T11:40:24Z</time>
      </trkpt>
      <trkpt lat="47.26033" lon="-1.65897">
        <ele>68.5</ele>
        <time>2014-02-16T11:40:27Z</time>
      </trkpt>
      <trkpt lat="47.26042" lon="-1.65907">
        <ele>68.1</ele>
        <time>2014-02-16T11:40:31Z</time>
      </trkpt>
      <trkpt lat="47.26054" lon="-1.65907">
        <ele>68.2</ele>
        <time>2014-02-16T11:40:36Z</time>
      </trkpt>
      <trkpt lat="47.26066" lon="-1.65903">
        <ele>68</ele>
        <time>2014-02-16T11:40:39Z</time>
      </trkpt>
      <trkpt lat="47.26078" lon="-1.65896">
        <ele>67.5</ele>
        <time>2014-02-16T11:40:42Z</time>
      </trkpt>
      <trkpt lat="47.26089" lon="-1.6589">
        <ele>67</ele>
        <time>2014-02-16T11:40:45Z</time>
      </trkpt>
      <trkpt lat="47.26098" lon="-1.65885">
        <ele>66.6</ele>
        <time>2014-02-16T11:40:48Z</time>
      </trkpt>
      <trkpt lat="47.26109" lon="-1.65882">
        <ele>66.2</ele>
        <time>2014-02-16T11:40:52Z</time>
      </trkpt>
      <trkpt lat="47.26119" lon="-1.65883">
        <ele>66.1</ele>
        <time>2014-02-16T11:40:56Z</time>
      </trkpt>
      <trkpt lat="47.26128" lon="-1.65885">
        <ele>66.3</ele>
        <time>2014-02-16T11:40:59Z</time>
      </trkpt>
      <trkpt lat="47.26138" lon="-1.65888">
        <ele>66.2</ele>
        <time>2014-02-16T11:41:01Z</time>
      </trkpt>
      <trkpt lat="47.26149" lon="-1.65891">
        <ele>66</ele>
        <time>2014-02-16T11:41:04Z</time>
      </trkpt>
      <trkpt lat="47.26169" lon="-1.65902">
        <ele>65.3</ele>
        <time>2014-02-16T11:41:11Z</time>
      </trkpt>
      <trkpt lat="47.26179" lon="-1.65903">
        <ele>64.9</ele>
        <time>2014-02-16T11:41:14Z</time>
      </trkpt>
      <trkpt lat="47.2619" lon="-1.65902">
        <ele>64.6</ele>
        <time>2014-02-16T11:41:17Z</time>
      </trkpt>
      <trkpt lat="47.26201" lon="-1.65898">
        <ele>64.3</ele>
        <time>2014-02-16T11:41:20Z</time>
      </trkpt>
      <trkpt lat="47.26213" lon="-1.65894">
        <ele>64</ele>
        <time>2014-02-16T11:41:23Z</time>
      </trkpt>
      <trkpt lat="47.26225" lon="-1.65889">
        <ele>64</ele>
        <time>2014-02-16T11:41:26Z</time>
      </trkpt>
      <trkpt lat="47.26236" lon="-1.65884">
        <ele>63.9</ele>
        <time>2014-02-16T11:41:29Z</time>
      </trkpt>
      <trkpt lat="47.26247" lon="-1.65878">
        <ele>63.4</ele>
        <time>2014-02-16T11:41:32Z</time>
      </trkpt>
      <trkpt lat="47.26256" lon="-1.65872">
        <ele>63.1</ele>
        <time>2014-02-16T11:41:36Z</time>
      </trkpt>
      <trkpt lat="47.26264" lon="-1.65864">
        <ele>62.3</ele>
        <time>2014-02-16T11:41:58Z</time>
      </trkpt>
      <trkpt lat="47.26259" lon="-1.65852">
        <ele>62.2</ele>
        <time>2014-02-16T11:42:13Z</time>
      </trkpt>
      <trkpt lat="47.26257" lon="-1.65817">
        <ele>60.6</ele>
        <time>2014-02-16T11:42:44Z</time>
      </trkpt>
      <trkpt lat="47.26258" lon="-1.65801">
        <ele>61.9</ele>
        <time>2014-02-16T11:42:47Z</time>
      </trkpt>
      <trkpt lat="47.26263" lon="-1.65784">
        <ele>62.2</ele>
        <time>2014-02-16T11:42:50Z</time>
      </trkpt>
      <trkpt lat="47.26266" lon="-1.6577">
        <ele>62.2</ele>
        <time>2014-02-16T11:42:52Z</time>
      </trkpt>
      <trkpt lat="47.2627" lon="-1.65753">
        <ele>63.5</ele>
        <time>2014-02-16T11:42:55Z</time>
      </trkpt>
      <trkpt lat="47.26275" lon="-1.65738">
        <ele>63.4</ele>
        <time>2014-02-16T11:42:58Z</time>
      </trkpt>
      <trkpt lat="47.26278" lon="-1.65725">
        <ele>63.5</ele>
        <time>2014-02-16T11:43:01Z</time>
      </trkpt>
      <trkpt lat="47.26283" lon="-1.65713">
        <ele>63.6</ele>
        <time>2014-02-16T11:43:04Z</time>
      </trkpt>
      <trkpt lat="47.26293" lon="-1.65712">
        <ele>63.2</ele>
        <time>2014-02-16T11:43:08Z</time>
      </trkpt>
      <trkpt lat="47.26304" lon="-1.65714">
        <ele>62.9</ele>
        <time>2014-02-16T11:43:11Z</time>
      </trkpt>
      <trkpt lat="47.26318" lon="-1.65717">
        <ele>61.7</ele>
        <time>2014-02-16T11:43:14Z</time>
      </trkpt>
      <trkpt lat="47.26338" lon="-1.65722">
        <ele>60.9</ele>
        <time>2014-02-16T11:43:18Z</time>
      </trkpt>
      <trkpt lat="47.26348" lon="-1.65722">
        <ele>61.3</ele>
        <time>2014-02-16T11:43:20Z</time>
      </trkpt>
      <trkpt lat="47.26359" lon="-1.65719">
        <ele>60.5</ele>
        <time>2014-02-16T11:43:22Z</time>
      </trkpt>
      <trkpt lat="47.2637" lon="-1.65714">
        <ele>59.4</ele>
        <time>2014-02-16T11:43:24Z</time>
      </trkpt>
      <trkpt lat="47.26382" lon="-1.65708">
        <ele>57.9</ele>
        <time>2014-02-16T11:43:26Z</time>
      </trkpt>
      <trkpt lat="47.26392" lon="-1.65704">
        <ele>55.8</ele>
        <time>2014-02-16T11:43:28Z</time>
      </trkpt>
      <trkpt lat="47.26405" lon="-1.65702">
        <ele>55.4</ele>
        <time>2014-02-16T11:43:31Z</time>
      </trkpt>
      <trkpt lat="47.26418" lon="-1.65706">
        <ele>54.5</ele>
        <time>2014-02-16T11:43:34Z</time>
      </trkpt>
      <trkpt lat="47.26427" lon="-1.65717">
        <ele>54.7</ele>
        <time>2014-02-16T11:43:36Z</time>
      </trkpt>
      <trkpt lat="47.26432" lon="-1.65729">
        <ele>54.3</ele>
        <time>2014-02-16T11:43:38Z</time>
      </trkpt>
      <trkpt lat="47.2644" lon="-1.65738">
        <ele>52.8</ele>
        <time>2014-02-16T11:43:55Z</time>
      </trkpt>
      <trkpt lat="47.2645" lon="-1.65745">
        <ele>52.3</ele>
        <time>2014-02-16T11:43:59Z</time>
      </trkpt>
      <trkpt lat="47.2646" lon="-1.65752">
        <ele>51.8</ele>
        <time>2014-02-16T11:44:03Z</time>
      </trkpt>
      <trkpt lat="47.26469" lon="-1.65763">
        <ele>51.4</ele>
        <time>2014-02-16T11:44:08Z</time>
      </trkpt>
      <trkpt lat="47.26476" lon="-1.65779">
        <ele>50.5</ele>
        <time>2014-02-16T11:44:13Z</time>
      </trkpt>
      <trkpt lat="47.26481" lon="-1.65793">
        <ele>49.9</ele>
        <time>2014-02-16T11:44:15Z</time>
      </trkpt>
      <trkpt lat="47.26495" lon="-1.65819">
        <ele>48.3</ele>
        <time>2014-02-16T11:44:20Z</time>
      </trkpt>
      <trkpt lat="47.26502" lon="-1.65832">
        <ele>47</ele>
        <time>2014-02-16T11:44:23Z</time>
      </trkpt>
      <trkpt lat="47.2651" lon="-1.65838">
        <ele>45.8</ele>
        <time>2014-02-16T11:44:26Z</time>
      </trkpt>
      <trkpt lat="47.26517" lon="-1.65848">
        <ele>44.2</ele>
        <time>2014-02-16T11:44:30Z</time>
      </trkpt>
      <trkpt lat="47.26523" lon="-1.65862">
        <ele>42.7</ele>
        <time>2014-02-16T11:44:35Z</time>
      </trkpt>
      <trkpt lat="47.26523" lon="-1.65878">
        <ele>41.5</ele>
        <time>2014-02-16T11:44:39Z</time>
      </trkpt>
      <trkpt lat="47.26519" lon="-1.65891">
        <ele>40.2</ele>
        <time>2014-02-16T11:44:43Z</time>
      </trkpt>
      <trkpt lat="47.26518" lon="-1.65907">
        <ele>39.2</ele>
        <time>2014-02-16T11:44:46Z</time>
      </trkpt>
      <trkpt lat="47.2652" lon="-1.65924">
        <ele>38</ele>
        <time>2014-02-16T11:44:49Z</time>
      </trkpt>
      <trkpt lat="47.26524" lon="-1.65938">
        <ele>36.8</ele>
        <time>2014-02-16T11:44:52Z</time>
      </trkpt>
      <trkpt lat="47.26525" lon="-1.65953">
        <ele>35.8</ele>
        <time>2014-02-16T11:44:55Z</time>
      </trkpt>
      <trkpt lat="47.26524" lon="-1.6597">
        <ele>35.3</ele>
        <time>2014-02-16T11:44:58Z</time>
      </trkpt>
      <trkpt lat="47.26525" lon="-1.65984">
        <ele>35</ele>
        <time>2014-02-16T11:45:02Z</time>
      </trkpt>
      <trkpt lat="47.26525" lon="-1.66">
        <ele>35.3</ele>
        <time>2014-02-16T11:45:06Z</time>
      </trkpt>
      <trkpt lat="47.26529" lon="-1.66015">
        <ele>35.4</ele>
        <time>2014-02-16T11:45:10Z</time>
      </trkpt>
      <trkpt lat="47.26536" lon="-1.66027">
        <ele>35</ele>
        <time>2014-02-16T11:45:14Z</time>
      </trkpt>
      <trkpt lat="47.26549" lon="-1.66031">
        <ele>34</ele>
        <time>2014-02-16T11:45:18Z</time>
      </trkpt>
      <trkpt lat="47.26568" lon="-1.66033">
        <ele>32.2</ele>
        <time>2014-02-16T11:45:22Z</time>
      </trkpt>
      <trkpt lat="47.26576" lon="-1.6604">
        <ele>31.7</ele>
        <time>2014-02-16T11:45:24Z</time>
      </trkpt>
      <trkpt lat="47.26588" lon="-1.66051">
        <ele>31.2</ele>
        <time>2014-02-16T11:45:26Z</time>
      </trkpt>
      <trkpt lat="47.26597" lon="-1.66057">
        <ele>30.6</ele>
        <time>2014-02-16T11:45:28Z</time>
      </trkpt>
      <trkpt lat="47.26606" lon="-1.66062">
        <ele>27.3</ele>
        <time>2014-02-16T11:45:30Z</time>
      </trkpt>
      <trkpt lat="47.26614" lon="-1.66068">
        <ele>26.9</ele>
        <time>2014-02-16T11:45:32Z</time>
      </trkpt>
      <trkpt lat="47.26623" lon="-1.66076">
        <ele>26.2</ele>
        <time>2014-02-16T11:45:35Z</time>
      </trkpt>
      <trkpt lat="47.26632" lon="-1.66088">
        <ele>25.8</ele>
        <time>2014-02-16T11:45:38Z</time>
      </trkpt>
      <trkpt lat="47.26638" lon="-1.66099">
        <ele>25.8</ele>
        <time>2014-02-16T11:45:40Z</time>
      </trkpt>
      <trkpt lat="47.26642" lon="-1.66117">
        <ele>26.4</ele>
        <time>2014-02-16T11:45:43Z</time>
      </trkpt>
      <trkpt lat="47.26643" lon="-1.66133">
        <ele>27.3</ele>
        <time>2014-02-16T11:45:46Z</time>
      </trkpt>
      <trkpt lat="47.26641" lon="-1.66147">
        <ele>28.3</ele>
        <time>2014-02-16T11:45:49Z</time>
      </trkpt>
      <trkpt lat="47.26641" lon="-1.66162">
        <ele>29.7</ele>
        <time>2014-02-16T11:45:55Z</time>
      </trkpt>
      <trkpt lat="47.26641" lon="-1.66177">
        <ele>30.2</ele>
        <time>2014-02-16T11:45:59Z</time>
      </trkpt>
      <trkpt lat="47.26642" lon="-1.66191">
        <ele>30.5</ele>
        <time>2014-02-16T11:46:01Z</time>
      </trkpt>
      <trkpt lat="47.26643" lon="-1.66206">
        <ele>30.7</ele>
        <time>2014-02-16T11:46:06Z</time>
      </trkpt>
      <trkpt lat="47.26646" lon="-1.66224">
        <ele>31.1</ele>
        <time>2014-02-16T11:46:10Z</time>
      </trkpt>
      <trkpt lat="47.26649" lon="-1.6624">
        <ele>31.2</ele>
        <time>2014-02-16T11:46:13Z</time>
      </trkpt>
      <trkpt lat="47.26652" lon="-1.66255">
        <ele>31.4</ele>
        <time>2014-02-16T11:46:16Z</time>
      </trkpt>
      <trkpt lat="47.26654" lon="-1.66269">
        <ele>31.6</ele>
        <time>2014-02-16T11:46:19Z</time>
      </trkpt>
      <trkpt lat="47.26663" lon="-1.66292">
        <ele>31.9</ele>
        <time>2014-02-16T11:47:04Z</time>
      </trkpt>
      <trkpt lat="47.26654" lon="-1.66292">
        <ele>34</ele>
        <time>2014-02-16T11:47:41Z</time>
      </trkpt>
      <trkpt lat="47.26652" lon="-1.66249">
        <ele>34.2</ele>
        <time>2014-02-16T11:48:58Z</time>
      </trkpt>
      <trkpt lat="47.2665" lon="-1.66233">
        <ele>33.9</ele>
        <time>2014-02-16T11:49:01Z</time>
      </trkpt>
      <trkpt lat="47.26648" lon="-1.66214">
        <ele>33.6</ele>
        <time>2014-02-16T11:49:04Z</time>
      </trkpt>
      <trkpt lat="47.26646" lon="-1.66195">
        <ele>33.2</ele>
        <time>2014-02-16T11:49:07Z</time>
      </trkpt>
      <trkpt lat="47.26645" lon="-1.66177">
        <ele>32.7</ele>
        <time>2014-02-16T11:49:10Z</time>
      </trkpt>
      <trkpt lat="47.26642" lon="-1.66162">
        <ele>32.1</ele>
        <time>2014-02-16T11:49:13Z</time>
      </trkpt>
      <trkpt lat="47.26633" lon="-1.66159">
        <ele>31.2</ele>
        <time>2014-02-16T11:49:17Z</time>
      </trkpt>
      <trkpt lat="47.26623" lon="-1.66159">
        <ele>28.2</ele>
        <time>2014-02-16T11:50:15Z</time>
      </trkpt>
      <trkpt lat="47.26608" lon="-1.66178">
        <ele>30.2</ele>
        <time>2014-02-16T11:50:46Z</time>
      </trkpt>
      <trkpt lat="47.2661" lon="-1.66191">
        <ele>29.6</ele>
        <time>2014-02-16T11:50:50Z</time>
      </trkpt>
      <trkpt lat="47.26615" lon="-1.66206">
        <ele>29.2</ele>
        <time>2014-02-16T11:50:56Z</time>
      </trkpt>
      <trkpt lat="47.26611" lon="-1.66219">
        <ele>29.2</ele>
        <time>2014-02-16T11:51:01Z</time>
      </trkpt>
      <trkpt lat="47.26604" lon="-1.6623">
        <ele>29.2</ele>
        <time>2014-02-16T11:51:07Z</time>
      </trkpt>
      <trkpt lat="47.26598" lon="-1.66243">
        <ele>29</ele>
        <time>2014-02-16T11:51:14Z</time>
      </trkpt>
      <trkpt lat="47.26598" lon="-1.66259">
        <ele>28.8</ele>
        <time>2014-02-16T11:51:19Z</time>
      </trkpt>
      <trkpt lat="47.26606" lon="-1.66286">
        <ele>28.3</ele>
        <time>2014-02-16T11:51:25Z</time>
      </trkpt>
      <trkpt lat="47.26612" lon="-1.66301">
        <ele>28.2</ele>
        <time>2014-02-16T11:51:30Z</time>
      </trkpt>
      <trkpt lat="47.26616" lon="-1.66316">
        <ele>28.2</ele>
        <time>2014-02-16T11:51:34Z</time>
      </trkpt>
      <trkpt lat="47.26619" lon="-1.66329">
        <ele>28.2</ele>
        <time>2014-02-16T11:51:37Z</time>
      </trkpt>
      <trkpt lat="47.26623" lon="-1.66344">
        <ele>28.1</ele>
        <time>2014-02-16T11:51:40Z</time>
      </trkpt>
      <trkpt lat="47.26627" lon="-1.66357">
        <ele>28</ele>
        <time>2014-02-16T11:51:44Z</time>
      </trkpt>
      <trkpt lat="47.26631" lon="-1.6637">
        <ele>27.7</ele>
        <time>2014-02-16T11:51:50Z</time>
      </trkpt>
      <trkpt lat="47.26636" lon="-1.66384">
        <ele>27.9</ele>
        <time>2014-02-16T11:51:55Z</time>
      </trkpt>
      <trkpt lat="47.26638" lon="-1.66399">
        <ele>28.8</ele>
        <time>2014-02-16T11:52:00Z</time>
      </trkpt>
      <trkpt lat="47.26644" lon="-1.66411">
        <ele>29.7</ele>
        <time>2014-02-16T11:52:06Z</time>
      </trkpt>
      <trkpt lat="47.26643" lon="-1.66426">
        <ele>29.4</ele>
        <time>2014-02-16T11:52:19Z</time>
      </trkpt>
      <trkpt lat="47.26649" lon="-1.66438">
        <ele>29.2</ele>
        <time>2014-02-16T11:52:25Z</time>
      </trkpt>
      <trkpt lat="47.26658" lon="-1.66463">
        <ele>28.4</ele>
        <time>2014-02-16T11:52:40Z</time>
      </trkpt>
      <trkpt lat="47.26661" lon="-1.66477">
        <ele>28.4</ele>
        <time>2014-02-16T11:52:46Z</time>
      </trkpt>
      <trkpt lat="47.26665" lon="-1.66491">
        <ele>28.4</ele>
        <time>2014-02-16T11:52:50Z</time>
      </trkpt>
      <trkpt lat="47.26668" lon="-1.66504">
        <ele>28.7</ele>
        <time>2014-02-16T11:52:54Z</time>
      </trkpt>
      <trkpt lat="47.26669" lon="-1.66519">
        <ele>28.6</ele>
        <time>2014-02-16T11:52:59Z</time>
      </trkpt>
      <trkpt lat="47.26668" lon="-1.66534">
        <ele>28.8</ele>
        <time>2014-02-16T11:53:05Z</time>
      </trkpt>
      <trkpt lat="47.26671" lon="-1.66549">
        <ele>29.3</ele>
        <time>2014-02-16T11:53:11Z</time>
      </trkpt>
      <trkpt lat="47.26676" lon="-1.66561">
        <ele>29.6</ele>
        <time>2014-02-16T11:53:15Z</time>
      </trkpt>
      <trkpt lat="47.26683" lon="-1.66571">
        <ele>30</ele>
        <time>2014-02-16T11:53:19Z</time>
      </trkpt>
      <trkpt lat="47.26689" lon="-1.66583">
        <ele>30.3</ele>
        <time>2014-02-16T11:53:24Z</time>
      </trkpt>
      <trkpt lat="47.26694" lon="-1.66596">
        <ele>30.6</ele>
        <time>2014-02-16T11:53:28Z</time>
      </trkpt>
      <trkpt lat="47.2671" lon="-1.66603">
        <ele>29.6</ele>
        <time>2014-02-16T11:54:13Z</time>
      </trkpt>
      <trkpt lat="47.26719" lon="-1.6661">
        <ele>28.9</ele>
        <time>2014-02-16T11:54:31Z</time>
      </trkpt>
      <trkpt lat="47.26738" lon="-1.66614">
        <ele>30.1</ele>
        <time>2014-02-16T11:54:55Z</time>
      </trkpt>
      <trkpt lat="47.26748" lon="-1.66611">
        <ele>30.5</ele>
        <time>2014-02-16T11:55:00Z</time>
      </trkpt>
      <trkpt lat="47.26758" lon="-1.66607">
        <ele>30.4</ele>
        <time>2014-02-16T11:55:06Z</time>
      </trkpt>
      <trkpt lat="47.26766" lon="-1.66617">
        <ele>30.9</ele>
        <time>2014-02-16T11:55:12Z</time>
      </trkpt>
      <trkpt lat="47.26773" lon="-1.66631">
        <ele>30.8</ele>
        <time>2014-02-16T11:55:16Z</time>
      </trkpt>
      <trkpt lat="47.26779" lon="-1.66642">
        <ele>30.3</ele>
        <time>2014-02-16T11:55:19Z</time>
      </trkpt>
      <trkpt lat="47.26785" lon="-1.66655">
        <ele>28.9</ele>
        <time>2014-02-16T11:55:23Z</time>
      </trkpt>
      <trkpt lat="47.26789" lon="-1.66668">
        <ele>28.8</ele>
        <time>2014-02-16T11:55:26Z</time>
      </trkpt>
      <trkpt lat="47.26795" lon="-1.66682">
        <ele>29</ele>
        <time>2014-02-16T11:55:30Z</time>
      </trkpt>
      <trkpt lat="47.268" lon="-1.66695">
        <ele>29.6</ele>
        <time>2014-02-16T11:55:34Z</time>
      </trkpt>
      <trkpt lat="47.26811" lon="-1.6672">
        <ele>30.4</ele>
        <time>2014-02-16T11:55:40Z</time>
      </trkpt>
      <trkpt lat="47.26819" lon="-1.66733">
        <ele>30.5</ele>
        <time>2014-02-16T11:55:43Z</time>
      </trkpt>
      <trkpt lat="47.26828" lon="-1.66745">
        <ele>30.3</ele>
        <time>2014-02-16T11:55:47Z</time>
      </trkpt>
      <trkpt lat="47.26834" lon="-1.66755">
        <ele>30.1</ele>
        <time>2014-02-16T11:55:50Z</time>
      </trkpt>
      <trkpt lat="47.26843" lon="-1.66767">
        <ele>29.3</ele>
        <time>2014-02-16T11:55:54Z</time>
      </trkpt>
      <trkpt lat="47.26854" lon="-1.66775">
        <ele>28.9</ele>
        <time>2014-02-16T11:55:58Z</time>
      </trkpt>
      <trkpt lat="47.26864" lon="-1.66783">
        <ele>29</ele>
        <time>2014-02-16T11:56:01Z</time>
      </trkpt>
      <trkpt lat="47.26871" lon="-1.66793">
        <ele>29</ele>
        <time>2014-02-16T11:56:03Z</time>
      </trkpt>
      <trkpt lat="47.26881" lon="-1.66803">
        <ele>29</ele>
        <time>2014-02-16T11:56:06Z</time>
      </trkpt>
      <trkpt lat="47.2689" lon="-1.66812">
        <ele>29</ele>
        <time>2014-02-16T11:56:09Z</time>
      </trkpt>
      <trkpt lat="47.269" lon="-1.66821">
        <ele>29.1</ele>
        <time>2014-02-16T11:56:12Z</time>
      </trkpt>
      <trkpt lat="47.26908" lon="-1.66832">
        <ele>29.4</ele>
        <time>2014-02-16T11:56:16Z</time>
      </trkpt>
      <trkpt lat="47.26913" lon="-1.66845">
        <ele>29.7</ele>
        <time>2014-02-16T11:56:19Z</time>
      </trkpt>
      <trkpt lat="47.26918" lon="-1.66859">
        <ele>30.1</ele>
        <time>2014-02-16T11:56:24Z</time>
      </trkpt>
      <trkpt lat="47.26923" lon="-1.66871">
        <ele>30.4</ele>
        <time>2014-02-16T11:56:28Z</time>
      </trkpt>
      <trkpt lat="47.26928" lon="-1.66884">
        <ele>30.7</ele>
        <time>2014-02-16T11:56:31Z</time>
      </trkpt>
      <trkpt lat="47.26933" lon="-1.66896">
        <ele>30.8</ele>
        <time>2014-02-16T11:56:34Z</time>
      </trkpt>
      <trkpt lat="47.26935" lon="-1.66911">
        <ele>31.2</ele>
        <time>2014-02-16T11:56:38Z</time>
      </trkpt>
      <trkpt lat="47.26928" lon="-1.66945">
        <ele>33.3</ele>
        <time>2014-02-16T11:56:46Z</time>
      </trkpt>
      <trkpt lat="47.26922" lon="-1.66956">
        <ele>34.8</ele>
        <time>2014-02-16T11:56:50Z</time>
      </trkpt>
      <trkpt lat="47.26916" lon="-1.66974">
        <ele>36.6</ele>
        <time>2014-02-16T11:56:55Z</time>
      </trkpt>
      <trkpt lat="47.26913" lon="-1.66988">
        <ele>37.9</ele>
        <time>2014-02-16T11:56:58Z</time>
      </trkpt>
      <trkpt lat="47.2691" lon="-1.67004">
        <ele>40.1</ele>
        <time>2014-02-16T11:57:02Z</time>
      </trkpt>
      <trkpt lat="47.26908" lon="-1.67019">
        <ele>44.3</ele>
        <time>2014-02-16T11:57:06Z</time>
      </trkpt>
      <trkpt lat="47.26908" lon="-1.67032">
        <ele>44.6</ele>
        <time>2014-02-16T11:57:09Z</time>
      </trkpt>
      <trkpt lat="47.26908" lon="-1.67049">
        <ele>44.1</ele>
        <time>2014-02-16T11:57:13Z</time>
      </trkpt>
      <trkpt lat="47.26907" lon="-1.67064">
        <ele>43.6</ele>
        <time>2014-02-16T11:57:16Z</time>
      </trkpt>
      <trkpt lat="47.26906" lon="-1.67078">
        <ele>43.4</ele>
        <time>2014-02-16T11:57:20Z</time>
      </trkpt>
      <trkpt lat="47.26904" lon="-1.67092">
        <ele>42.8</ele>
        <time>2014-02-16T11:57:25Z</time>
      </trkpt>
      <trkpt lat="47.26901" lon="-1.67107">
        <ele>42.8</ele>
        <time>2014-02-16T11:57:29Z</time>
      </trkpt>
      <trkpt lat="47.26894" lon="-1.67118">
        <ele>42.9</ele>
        <time>2014-02-16T11:57:32Z</time>
      </trkpt>
      <trkpt lat="47.26885" lon="-1.67129">
        <ele>42.6</ele>
        <time>2014-02-16T11:57:35Z</time>
      </trkpt>
      <trkpt lat="47.26876" lon="-1.67134">
        <ele>42.7</ele>
        <time>2014-02-16T11:57:38Z</time>
      </trkpt>
      <trkpt lat="47.26866" lon="-1.67136">
        <ele>42.4</ele>
        <time>2014-02-16T11:57:42Z</time>
      </trkpt>
      <trkpt lat="47.2685" lon="-1.6712">
        <ele>41.4</ele>
        <time>2014-02-16T11:57:52Z</time>
      </trkpt>
      <trkpt lat="47.26841" lon="-1.67111">
        <ele>41</ele>
        <time>2014-02-16T11:57:57Z</time>
      </trkpt>
      <trkpt lat="47.26833" lon="-1.67104">
        <ele>41.1</ele>
        <time>2014-02-16T11:58:01Z</time>
      </trkpt>
      <trkpt lat="47.26825" lon="-1.67098">
        <ele>41.3</ele>
        <time>2014-02-16T11:58:04Z</time>
      </trkpt>
      <trkpt lat="47.26816" lon="-1.67092">
        <ele>41.5</ele>
        <time>2014-02-16T11:58:08Z</time>
      </trkpt>
      <trkpt lat="47.26807" lon="-1.671">
        <ele>41.8</ele>
        <time>2014-02-16T11:58:14Z</time>
      </trkpt>
      <trkpt lat="47.26805" lon="-1.67113">
        <ele>41.8</ele>
        <time>2014-02-16T11:58:17Z</time>
      </trkpt>
      <trkpt lat="47.26797" lon="-1.67122">
        <ele>41.8</ele>
        <time>2014-02-16T11:58:22Z</time>
      </trkpt>
      <trkpt lat="47.26786" lon="-1.67126">
        <ele>41.7</ele>
        <time>2014-02-16T11:58:26Z</time>
      </trkpt>
      <trkpt lat="47.26776" lon="-1.67129">
        <ele>41.6</ele>
        <time>2014-02-16T11:58:29Z</time>
      </trkpt>
      <trkpt lat="47.26783" lon="-1.67141">
        <ele>41.1</ele>
        <time>2014-02-16T11:58:40Z</time>
      </trkpt>
      <trkpt lat="47.26793" lon="-1.67141">
        <ele>41.2</ele>
        <time>2014-02-16T11:58:43Z</time>
      </trkpt>
      <trkpt lat="47.26815" lon="-1.67143">
        <ele>41.3</ele>
        <time>2014-02-16T11:58:49Z</time>
      </trkpt>
      <trkpt lat="47.26827" lon="-1.67145">
        <ele>41</ele>
        <time>2014-02-16T11:58:52Z</time>
      </trkpt>
      <trkpt lat="47.26838" lon="-1.67146">
        <ele>40.6</ele>
        <time>2014-02-16T11:58:55Z</time>
      </trkpt>
      <trkpt lat="47.26846" lon="-1.67151">
        <ele>39.7</ele>
        <time>2014-02-16T11:59:00Z</time>
      </trkpt>
      <trkpt lat="47.2685" lon="-1.67164">
        <ele>39</ele>
        <time>2014-02-16T11:59:04Z</time>
      </trkpt>
      <trkpt lat="47.26855" lon="-1.67176">
        <ele>37.5</ele>
        <time>2014-02-16T11:59:06Z</time>
      </trkpt>
      <trkpt lat="47.26862" lon="-1.67191">
        <ele>33</ele>
        <time>2014-02-16T11:59:08Z</time>
      </trkpt>
      <trkpt lat="47.26869" lon="-1.67205">
        <ele>32.1</ele>
        <time>2014-02-16T11:59:10Z</time>
      </trkpt>
      <trkpt lat="47.26875" lon="-1.67219">
        <ele>29.9</ele>
        <time>2014-02-16T11:59:12Z</time>
      </trkpt>
      <trkpt lat="47.26876" lon="-1.67234">
        <ele>28.8</ele>
        <time>2014-02-16T11:59:14Z</time>
      </trkpt>
      <trkpt lat="47.26873" lon="-1.67249">
        <ele>28.7</ele>
        <time>2014-02-16T11:59:16Z</time>
      </trkpt>
      <trkpt lat="47.26881" lon="-1.67259">
        <ele>28.9</ele>
        <time>2014-02-16T11:59:21Z</time>
      </trkpt>
      <trkpt lat="47.26891" lon="-1.67261">
        <ele>29.1</ele>
        <time>2014-02-16T11:59:24Z</time>
      </trkpt>
      <trkpt lat="47.269" lon="-1.6726">
        <ele>31.1</ele>
        <time>2014-02-16T11:59:26Z</time>
      </trkpt>
      <trkpt lat="47.2691" lon="-1.67257">
        <ele>31.5</ele>
        <time>2014-02-16T11:59:28Z</time>
      </trkpt>
      <trkpt lat="47.26921" lon="-1.67255">
        <ele>31.4</ele>
        <time>2014-02-16T11:59:30Z</time>
      </trkpt>
      <trkpt lat="47.26932" lon="-1.67256">
        <ele>31.4</ele>
        <time>2014-02-16T11:59:32Z</time>
      </trkpt>
      <trkpt lat="47.26946" lon="-1.67259">
        <ele>32</ele>
        <time>2014-02-16T11:59:35Z</time>
      </trkpt>
      <trkpt lat="47.26958" lon="-1.67253">
        <ele>32.2</ele>
        <time>2014-02-16T11:59:38Z</time>
      </trkpt>
      <trkpt lat="47.26967" lon="-1.67248">
        <ele>32.2</ele>
        <time>2014-02-16T11:59:41Z</time>
      </trkpt>
      <trkpt lat="47.26979" lon="-1.67243">
        <ele>32.1</ele>
        <time>2014-02-16T11:59:44Z</time>
      </trkpt>
      <trkpt lat="47.27002" lon="-1.67234">
        <ele>31.7</ele>
        <time>2014-02-16T11:59:50Z</time>
      </trkpt>
      <trkpt lat="47.27013" lon="-1.67231">
        <ele>31.4</ele>
        <time>2014-02-16T11:59:53Z</time>
      </trkpt>
      <trkpt lat="47.27025" lon="-1.6723">
        <ele>31.2</ele>
        <time>2014-02-16T11:59:56Z</time>
      </trkpt>
      <trkpt lat="47.27036" lon="-1.67227">
        <ele>31.3</ele>
        <time>2014-02-16T11:59:59Z</time>
      </trkpt>
      <trkpt lat="47.27045" lon="-1.6723">
        <ele>31.4</ele>
        <time>2014-02-16T12:00:02Z</time>
      </trkpt>
      <trkpt lat="47.27052" lon="-1.67241">
        <ele>31.5</ele>
        <time>2014-02-16T12:00:05Z</time>
      </trkpt>
      <trkpt lat="47.27059" lon="-1.67253">
        <ele>31.2</ele>
        <time>2014-02-16T12:00:07Z</time>
      </trkpt>
      <trkpt lat="47.27065" lon="-1.67264">
        <ele>30.8</ele>
        <time>2014-02-16T12:00:09Z</time>
      </trkpt>
      <trkpt lat="47.27071" lon="-1.67277">
        <ele>26.9</ele>
        <time>2014-02-16T12:00:11Z</time>
      </trkpt>
      <trkpt lat="47.27075" lon="-1.67296">
        <ele>26.3</ele>
        <time>2014-02-16T12:00:14Z</time>
      </trkpt>
      <trkpt lat="47.27072" lon="-1.67311">
        <ele>24</ele>
        <time>2014-02-16T12:00:16Z</time>
      </trkpt>
      <trkpt lat="47.27065" lon="-1.67321">
        <ele>24</ele>
        <time>2014-02-16T12:00:19Z</time>
      </trkpt>
      <trkpt lat="47.27061" lon="-1.67337">
        <ele>23.9</ele>
        <time>2014-02-16T12:00:24Z</time>
      </trkpt>
      <trkpt lat="47.2706" lon="-1.67353">
        <ele>23.6</ele>
        <time>2014-02-16T12:00:28Z</time>
      </trkpt>
      <trkpt lat="47.2706" lon="-1.67367">
        <ele>23.9</ele>
        <time>2014-02-16T12:00:56Z</time>
      </trkpt>
      <trkpt lat="47.27061" lon="-1.6741">
        <ele>27.4</ele>
        <time>2014-02-16T12:02:55Z</time>
      </trkpt>
      <trkpt lat="47.27068" lon="-1.67427">
        <ele>27.6</ele>
        <time>2014-02-16T12:02:58Z</time>
      </trkpt>
      <trkpt lat="47.27071" lon="-1.67442">
        <ele>27.9</ele>
        <time>2014-02-16T12:03:01Z</time>
      </trkpt>
      <trkpt lat="47.27071" lon="-1.67457">
        <ele>28.4</ele>
        <time>2014-02-16T12:03:06Z</time>
      </trkpt>
      <trkpt lat="47.2707" lon="-1.67471">
        <ele>28.8</ele>
        <time>2014-02-16T12:03:10Z</time>
      </trkpt>
      <trkpt lat="47.27071" lon="-1.67486">
        <ele>28.9</ele>
        <time>2014-02-16T12:03:15Z</time>
      </trkpt>
      <trkpt lat="47.27075" lon="-1.67503">
        <ele>29.2</ele>
        <time>2014-02-16T12:03:19Z</time>
      </trkpt>
      <trkpt lat="47.27077" lon="-1.67519">
        <ele>29.3</ele>
        <time>2014-02-16T12:03:23Z</time>
      </trkpt>
      <trkpt lat="47.27077" lon="-1.67533">
        <ele>29.4</ele>
        <time>2014-02-16T12:03:26Z</time>
      </trkpt>
      <trkpt lat="47.2708" lon="-1.67547">
        <ele>29.6</ele>
        <time>2014-02-16T12:03:29Z</time>
      </trkpt>
      <trkpt lat="47.27086" lon="-1.67563">
        <ele>30</ele>
        <time>2014-02-16T12:03:32Z</time>
      </trkpt>
      <trkpt lat="47.27091" lon="-1.67575">
        <ele>30.1</ele>
        <time>2014-02-16T12:03:34Z</time>
      </trkpt>
      <trkpt lat="47.27097" lon="-1.67592">
        <ele>31.3</ele>
        <time>2014-02-16T12:03:37Z</time>
      </trkpt>
      <trkpt lat="47.271" lon="-1.67607">
        <ele>31.6</ele>
        <time>2014-02-16T12:03:39Z</time>
      </trkpt>
      <trkpt lat="47.27102" lon="-1.67621">
        <ele>30.9</ele>
        <time>2014-02-16T12:03:41Z</time>
      </trkpt>
      <trkpt lat="47.27105" lon="-1.67636">
        <ele>29.8</ele>
        <time>2014-02-16T12:03:43Z</time>
      </trkpt>
      <trkpt lat="47.27109" lon="-1.67655">
        <ele>27.9</ele>
        <time>2014-02-16T12:03:46Z</time>
      </trkpt>
      <trkpt lat="47.27112" lon="-1.67672">
        <ele>27.9</ele>
        <time>2014-02-16T12:03:49Z</time>
      </trkpt>
      <trkpt lat="47.27112" lon="-1.67689">
        <ele>28.1</ele>
        <time>2014-02-16T12:03:52Z</time>
      </trkpt>
      <trkpt lat="47.27109" lon="-1.67719">
        <ele>28.1</ele>
        <time>2014-02-16T12:03:58Z</time>
      </trkpt>
      <trkpt lat="47.27107" lon="-1.67735">
        <ele>28</ele>
        <time>2014-02-16T12:04:02Z</time>
      </trkpt>
      <trkpt lat="47.27102" lon="-1.67751">
        <ele>27.6</ele>
        <time>2014-02-16T12:04:06Z</time>
      </trkpt>
      <trkpt lat="47.27098" lon="-1.67764">
        <ele>27.2</ele>
        <time>2014-02-16T12:04:10Z</time>
      </trkpt>
      <trkpt lat="47.27094" lon="-1.67776">
        <ele>26.9</ele>
        <time>2014-02-16T12:04:13Z</time>
      </trkpt>
      <trkpt lat="47.2709" lon="-1.6779">
        <ele>26.5</ele>
        <time>2014-02-16T12:04:16Z</time>
      </trkpt>
      <trkpt lat="47.27083" lon="-1.67806">
        <ele>26.3</ele>
        <time>2014-02-16T12:04:19Z</time>
      </trkpt>
      <trkpt lat="47.27077" lon="-1.67823">
        <ele>26.2</ele>
        <time>2014-02-16T12:04:22Z</time>
      </trkpt>
      <trkpt lat="47.27071" lon="-1.6784">
        <ele>26.2</ele>
        <time>2014-02-16T12:04:25Z</time>
      </trkpt>
      <trkpt lat="47.27066" lon="-1.67854">
        <ele>26.2</ele>
        <time>2014-02-16T12:04:28Z</time>
      </trkpt>
      <trkpt lat="47.27061" lon="-1.67867">
        <ele>26</ele>
        <time>2014-02-16T12:04:31Z</time>
      </trkpt>
      <trkpt lat="47.27056" lon="-1.67881">
        <ele>25.7</ele>
        <time>2014-02-16T12:04:34Z</time>
      </trkpt>
      <trkpt lat="47.27052" lon="-1.67897">
        <ele>25.1</ele>
        <time>2014-02-16T12:04:38Z</time>
      </trkpt>
      <trkpt lat="47.27048" lon="-1.67909">
        <ele>24.3</ele>
        <time>2014-02-16T12:04:41Z</time>
      </trkpt>
      <trkpt lat="47.27044" lon="-1.67923">
        <ele>23.2</ele>
        <time>2014-02-16T12:04:44Z</time>
      </trkpt>
      <trkpt lat="47.27042" lon="-1.67937">
        <ele>22.7</ele>
        <time>2014-02-16T12:04:48Z</time>
      </trkpt>
      <trkpt lat="47.2704" lon="-1.67954">
        <ele>22.6</ele>
        <time>2014-02-16T12:04:52Z</time>
      </trkpt>
      <trkpt lat="47.27039" lon="-1.67973">
        <ele>23</ele>
        <time>2014-02-16T12:04:55Z</time>
      </trkpt>
      <trkpt lat="47.27038" lon="-1.68002">
        <ele>24.9</ele>
        <time>2014-02-16T12:05:01Z</time>
      </trkpt>
      <trkpt lat="47.27036" lon="-1.68016">
        <ele>25.9</ele>
        <time>2014-02-16T12:05:04Z</time>
      </trkpt>
      <trkpt lat="47.27038" lon="-1.68029">
        <ele>26.5</ele>
        <time>2014-02-16T12:05:08Z</time>
      </trkpt>
      <trkpt lat="47.27043" lon="-1.68042">
        <ele>26.7</ele>
        <time>2014-02-16T12:05:12Z</time>
      </trkpt>
      <trkpt lat="47.27047" lon="-1.68054">
        <ele>26.9</ele>
        <time>2014-02-16T12:05:14Z</time>
      </trkpt>
      <trkpt lat="47.27055" lon="-1.68071">
        <ele>27.8</ele>
        <time>2014-02-16T12:05:16Z</time>
      </trkpt>
      <trkpt lat="47.27064" lon="-1.68089">
        <ele>29.2</ele>
        <time>2014-02-16T12:05:18Z</time>
      </trkpt>
      <trkpt lat="47.27071" lon="-1.68104">
        <ele>31.3</ele>
        <time>2014-02-16T12:05:20Z</time>
      </trkpt>
      <trkpt lat="47.27076" lon="-1.68118">
        <ele>33.5</ele>
        <time>2014-02-16T12:05:22Z</time>
      </trkpt>
      <trkpt lat="47.27081" lon="-1.68131">
        <ele>33.7</ele>
        <time>2014-02-16T12:05:25Z</time>
      </trkpt>
      <trkpt lat="47.27085" lon="-1.68144">
        <ele>34</ele>
        <time>2014-02-16T12:05:27Z</time>
      </trkpt>
      <trkpt lat="47.2708" lon="-1.68158">
        <ele>34.4</ele>
        <time>2014-02-16T12:05:30Z</time>
      </trkpt>
      <trkpt lat="47.27075" lon="-1.6817">
        <ele>34.6</ele>
        <time>2014-02-16T12:05:33Z</time>
      </trkpt>
      <trkpt lat="47.27069" lon="-1.68183">
        <ele>34.5</ele>
        <time>2014-02-16T12:05:38Z</time>
      </trkpt>
      <trkpt lat="47.27065" lon="-1.68198">
        <ele>34.5</ele>
        <time>2014-02-16T12:05:42Z</time>
      </trkpt>
      <trkpt lat="47.27062" lon="-1.68211">
        <ele>34.4</ele>
        <time>2014-02-16T12:05:46Z</time>
      </trkpt>
      <trkpt lat="47.27058" lon="-1.68224">
        <ele>34.5</ele>
        <time>2014-02-16T12:05:51Z</time>
      </trkpt>
      <trkpt lat="47.27055" lon="-1.68239">
        <ele>34.8</ele>
        <time>2014-02-16T12:05:55Z</time>
      </trkpt>
      <trkpt lat="47.27052" lon="-1.68254">
        <ele>35.3</ele>
        <time>2014-02-16T12:06:00Z</time>
      </trkpt>
      <trkpt lat="47.2704" lon="-1.68283">
        <ele>36.8</ele>
        <time>2014-02-16T12:06:11Z</time>
      </trkpt>
      <trkpt lat="47.27036" lon="-1.68296">
        <ele>37.8</ele>
        <time>2014-02-16T12:06:16Z</time>
      </trkpt>
      <trkpt lat="47.27031" lon="-1.68308">
        <ele>39.3</ele>
        <time>2014-02-16T12:06:24Z</time>
      </trkpt>
      <trkpt lat="47.27025" lon="-1.68319">
        <ele>40.5</ele>
        <time>2014-02-16T12:06:31Z</time>
      </trkpt>
      <trkpt lat="47.27021" lon="-1.68331">
        <ele>40.8</ele>
        <time>2014-02-16T12:06:36Z</time>
      </trkpt>
      <trkpt lat="47.27016" lon="-1.68343">
        <ele>41.2</ele>
        <time>2014-02-16T12:06:41Z</time>
      </trkpt>
      <trkpt lat="47.27011" lon="-1.68355">
        <ele>41.2</ele>
        <time>2014-02-16T12:06:46Z</time>
      </trkpt>
      <trkpt lat="47.27006" lon="-1.68367">
        <ele>41.4</ele>
        <time>2014-02-16T12:06:52Z</time>
      </trkpt>
      <trkpt lat="47.27" lon="-1.68379">
        <ele>41.9</ele>
        <time>2014-02-16T12:06:58Z</time>
      </trkpt>
      <trkpt lat="47.26996" lon="-1.68392">
        <ele>43.3</ele>
        <time>2014-02-16T12:07:06Z</time>
      </trkpt>
      <trkpt lat="47.26989" lon="-1.68417">
        <ele>44.5</ele>
        <time>2014-02-16T12:07:25Z</time>
      </trkpt>
      <trkpt lat="47.26984" lon="-1.68429">
        <ele>44.5</ele>
        <time>2014-02-16T12:07:31Z</time>
      </trkpt>
      <trkpt lat="47.26979" lon="-1.68439">
        <ele>46.8</ele>
        <time>2014-02-16T12:08:57Z</time>
      </trkpt>
      <trkpt lat="47.26991" lon="-1.68461">
        <ele>49.6</ele>
        <time>2014-02-16T12:09:12Z</time>
      </trkpt>
      <trkpt lat="47.27" lon="-1.68467">
        <ele>49.4</ele>
        <time>2014-02-16T12:09:17Z</time>
      </trkpt>
      <trkpt lat="47.27008" lon="-1.68475">
        <ele>49.5</ele>
        <time>2014-02-16T12:09:31Z</time>
      </trkpt>
      <trkpt lat="47.27017" lon="-1.68481">
        <ele>49.4</ele>
        <time>2014-02-16T12:09:39Z</time>
      </trkpt>
      <trkpt lat="47.27026" lon="-1.68486">
        <ele>49.7</ele>
        <time>2014-02-16T12:09:48Z</time>
      </trkpt>
      <trkpt lat="47.27033" lon="-1.68497">
        <ele>50.3</ele>
        <time>2014-02-16T12:09:52Z</time>
      </trkpt>
      <trkpt lat="47.27039" lon="-1.68508">
        <ele>51.1</ele>
        <time>2014-02-16T12:09:57Z</time>
      </trkpt>
      <trkpt lat="47.27046" lon="-1.68522">
        <ele>51.9</ele>
        <time>2014-02-16T12:10:02Z</time>
      </trkpt>
      <trkpt lat="47.27067" lon="-1.68521">
        <ele>52.8</ele>
        <time>2014-02-16T12:10:11Z</time>
      </trkpt>
      <trkpt lat="47.2708" lon="-1.68516">
        <ele>52.9</ele>
        <time>2014-02-16T12:10:14Z</time>
      </trkpt>
      <trkpt lat="47.27089" lon="-1.68513">
        <ele>53.3</ele>
        <time>2014-02-16T12:10:17Z</time>
      </trkpt>
      <trkpt lat="47.271" lon="-1.68517">
        <ele>53.7</ele>
        <time>2014-02-16T12:10:21Z</time>
      </trkpt>
      <trkpt lat="47.27107" lon="-1.68532">
        <ele>53.8</ele>
        <time>2014-02-16T12:10:24Z</time>
      </trkpt>
      <trkpt lat="47.27108" lon="-1.68547">
        <ele>54.9</ele>
        <time>2014-02-16T12:10:26Z</time>
      </trkpt>
      <trkpt lat="47.27106" lon="-1.68561">
        <ele>57.2</ele>
        <time>2014-02-16T12:10:28Z</time>
      </trkpt>
      <trkpt lat="47.27101" lon="-1.68576">
        <ele>59</ele>
        <time>2014-02-16T12:10:30Z</time>
      </trkpt>
      <trkpt lat="47.27095" lon="-1.68592">
        <ele>59.3</ele>
        <time>2014-02-16T12:10:33Z</time>
      </trkpt>
      <trkpt lat="47.27089" lon="-1.68604">
        <ele>59.6</ele>
        <time>2014-02-16T12:10:36Z</time>
      </trkpt>
      <trkpt lat="47.27084" lon="-1.68616">
        <ele>60</ele>
        <time>2014-02-16T12:10:39Z</time>
      </trkpt>
      <trkpt lat="47.2708" lon="-1.6863">
        <ele>60.3</ele>
        <time>2014-02-16T12:10:42Z</time>
      </trkpt>
      <trkpt lat="47.2708" lon="-1.68644">
        <ele>60.7</ele>
        <time>2014-02-16T12:10:45Z</time>
      </trkpt>
      <trkpt lat="47.27089" lon="-1.68656">
        <ele>60.8</ele>
        <time>2014-02-16T12:10:48Z</time>
      </trkpt>
      <trkpt lat="47.27097" lon="-1.68666">
        <ele>61.1</ele>
        <time>2014-02-16T12:10:51Z</time>
      </trkpt>
      <trkpt lat="47.27106" lon="-1.68677">
        <ele>61.5</ele>
        <time>2014-02-16T12:10:54Z</time>
      </trkpt>
      <trkpt lat="47.27113" lon="-1.68687">
        <ele>62</ele>
        <time>2014-02-16T12:10:57Z</time>
      </trkpt>
      <trkpt lat="47.2712" lon="-1.68699">
        <ele>62.3</ele>
        <time>2014-02-16T12:11:01Z</time>
      </trkpt>
      <trkpt lat="47.27116" lon="-1.68714">
        <ele>62.9</ele>
        <time>2014-02-16T12:11:05Z</time>
      </trkpt>
      <trkpt lat="47.27104" lon="-1.68739">
        <ele>64.2</ele>
        <time>2014-02-16T12:11:12Z</time>
      </trkpt>
      <trkpt lat="47.27095" lon="-1.68751">
        <ele>64.6</ele>
        <time>2014-02-16T12:11:15Z</time>
      </trkpt>
      <trkpt lat="47.27087" lon="-1.68761">
        <ele>65</ele>
        <time>2014-02-16T12:11:19Z</time>
      </trkpt>
      <trkpt lat="47.27084" lon="-1.68779">
        <ele>65.7</ele>
        <time>2014-02-16T12:11:24Z</time>
      </trkpt>
      <trkpt lat="47.27084" lon="-1.68793">
        <ele>66.1</ele>
        <time>2014-02-16T12:11:28Z</time>
      </trkpt>
      <trkpt lat="47.27086" lon="-1.68807">
        <ele>66.8</ele>
        <time>2014-02-16T12:11:34Z</time>
      </trkpt>
      <trkpt lat="47.27084" lon="-1.68821">
        <ele>67</ele>
        <time>2014-02-16T12:11:39Z</time>
      </trkpt>
      <trkpt lat="47.27086" lon="-1.68838">
        <ele>67.4</ele>
        <time>2014-02-16T12:11:55Z</time>
      </trkpt>
      <trkpt lat="47.27088" lon="-1.68852">
        <ele>67.7</ele>
        <time>2014-02-16T12:11:59Z</time>
      </trkpt>
      <trkpt lat="47.27097" lon="-1.68865">
        <ele>67.7</ele>
        <time>2014-02-16T12:12:03Z</time>
      </trkpt>
      <trkpt lat="47.27107" lon="-1.68872">
        <ele>67.8</ele>
        <time>2014-02-16T12:12:06Z</time>
      </trkpt>
      <trkpt lat="47.27131" lon="-1.68871">
        <ele>69</ele>
        <time>2014-02-16T12:12:11Z</time>
      </trkpt>
      <trkpt lat="47.2714" lon="-1.6887">
        <ele>69.1</ele>
        <time>2014-02-16T12:12:13Z</time>
      </trkpt>
      <trkpt lat="47.27153" lon="-1.6887">
        <ele>68.7</ele>
        <time>2014-02-16T12:12:16Z</time>
      </trkpt>
      <trkpt lat="47.27165" lon="-1.68871">
        <ele>68.3</ele>
        <time>2014-02-16T12:12:19Z</time>
      </trkpt>
      <trkpt lat="47.27177" lon="-1.68873">
        <ele>69.1</ele>
        <time>2014-02-16T12:12:22Z</time>
      </trkpt>
      <trkpt lat="47.27187" lon="-1.68879">
        <ele>69</ele>
        <time>2014-02-16T12:12:26Z</time>
      </trkpt>
      <trkpt lat="47.27195" lon="-1.68884">
        <ele>68.7</ele>
        <time>2014-02-16T12:12:31Z</time>
      </trkpt>
      <trkpt lat="47.27204" lon="-1.6889">
        <ele>68.6</ele>
        <time>2014-02-16T12:12:36Z</time>
      </trkpt>
      <trkpt lat="47.27213" lon="-1.68896">
        <ele>67.6</ele>
        <time>2014-02-16T12:12:44Z</time>
      </trkpt>
      <trkpt lat="47.27201" lon="-1.68891">
        <ele>67.3</ele>
        <time>2014-02-16T12:12:57Z</time>
      </trkpt>
      <trkpt lat="47.27191" lon="-1.68886">
        <ele>67.2</ele>
        <time>2014-02-16T12:13:00Z</time>
      </trkpt>
      <trkpt lat="47.27182" lon="-1.6888">
        <ele>67.5</ele>
        <time>2014-02-16T12:13:03Z</time>
      </trkpt>
      <trkpt lat="47.27179" lon="-1.68866">
        <ele>67.8</ele>
        <time>2014-02-16T12:13:07Z</time>
      </trkpt>
      <trkpt lat="47.27189" lon="-1.68835">
        <ele>67.8</ele>
        <time>2014-02-16T12:13:13Z</time>
      </trkpt>
      <trkpt lat="47.27198" lon="-1.68821">
        <ele>67.6</ele>
        <time>2014-02-16T12:13:16Z</time>
      </trkpt>
      <trkpt lat="47.27205" lon="-1.68812">
        <ele>67.6</ele>
        <time>2014-02-16T12:13:18Z</time>
      </trkpt>
      <trkpt lat="47.27213" lon="-1.68801">
        <ele>65.9</ele>
        <time>2014-02-16T12:13:21Z</time>
      </trkpt>
      <trkpt lat="47.2722" lon="-1.68791">
        <ele>65</ele>
        <time>2014-02-16T12:13:23Z</time>
      </trkpt>
      <trkpt lat="47.27228" lon="-1.68777">
        <ele>62.8</ele>
        <time>2014-02-16T12:13:26Z</time>
      </trkpt>
      <trkpt lat="47.27235" lon="-1.68768">
        <ele>61</ele>
        <time>2014-02-16T12:13:28Z</time>
      </trkpt>
      <trkpt lat="47.27243" lon="-1.68758">
        <ele>60.2</ele>
        <time>2014-02-16T12:13:30Z</time>
      </trkpt>
      <trkpt lat="47.27251" lon="-1.68748">
        <ele>59.8</ele>
        <time>2014-02-16T12:13:32Z</time>
      </trkpt>
      <trkpt lat="47.27258" lon="-1.6874">
        <ele>59.6</ele>
        <time>2014-02-16T12:13:34Z</time>
      </trkpt>
      <trkpt lat="47.27266" lon="-1.68732">
        <ele>59.4</ele>
        <time>2014-02-16T12:13:36Z</time>
      </trkpt>
      <trkpt lat="47.27277" lon="-1.68723">
        <ele>58.9</ele>
        <time>2014-02-16T12:13:38Z</time>
      </trkpt>
      <trkpt lat="47.27286" lon="-1.68715">
        <ele>57.6</ele>
        <time>2014-02-16T12:13:40Z</time>
      </trkpt>
      <trkpt lat="47.27295" lon="-1.68709">
        <ele>57</ele>
        <time>2014-02-16T12:13:42Z</time>
      </trkpt>
      <trkpt lat="47.27305" lon="-1.68705">
        <ele>57</ele>
        <time>2014-02-16T12:13:44Z</time>
      </trkpt>
      <trkpt lat="47.27314" lon="-1.68701">
        <ele>57</ele>
        <time>2014-02-16T12:13:46Z</time>
      </trkpt>
      <trkpt lat="47.27324" lon="-1.68693">
        <ele>56.1</ele>
        <time>2014-02-16T12:13:48Z</time>
      </trkpt>
      <trkpt lat="47.27332" lon="-1.68683">
        <ele>54.8</ele>
        <time>2014-02-16T12:13:50Z</time>
      </trkpt>
      <trkpt lat="47.27341" lon="-1.68672">
        <ele>53.6</ele>
        <time>2014-02-16T12:13:52Z</time>
      </trkpt>
      <trkpt lat="47.27348" lon="-1.68662">
        <ele>53</ele>
        <time>2014-02-16T12:13:54Z</time>
      </trkpt>
      <trkpt lat="47.27358" lon="-1.68649">
        <ele>52.5</ele>
        <time>2014-02-16T12:13:57Z</time>
      </trkpt>
      <trkpt lat="47.27367" lon="-1.68637">
        <ele>52.1</ele>
        <time>2014-02-16T12:14:00Z</time>
      </trkpt>
      <trkpt lat="47.27376" lon="-1.68627">
        <ele>50.5</ele>
        <time>2014-02-16T12:14:03Z</time>
      </trkpt>
      <trkpt lat="47.27385" lon="-1.68614">
        <ele>49.6</ele>
        <time>2014-02-16T12:14:06Z</time>
      </trkpt>
      <trkpt lat="47.27393" lon="-1.68605">
        <ele>49.5</ele>
        <time>2014-02-16T12:14:09Z</time>
      </trkpt>
      <trkpt lat="47.27405" lon="-1.68585">
        <ele>48.8</ele>
        <time>2014-02-16T12:14:20Z</time>
      </trkpt>
      <trkpt lat="47.2741" lon="-1.68574">
        <ele>47.8</ele>
        <time>2014-02-16T12:14:29Z</time>
      </trkpt>
      <trkpt lat="47.27421" lon="-1.68572">
        <ele>46.8</ele>
        <time>2014-02-16T12:14:34Z</time>
      </trkpt>
      <trkpt lat="47.27429" lon="-1.68561">
        <ele>44.9</ele>
        <time>2014-02-16T12:14:43Z</time>
      </trkpt>
      <trkpt lat="47.27436" lon="-1.68549">
        <ele>44.1</ele>
        <time>2014-02-16T12:14:48Z</time>
      </trkpt>
      <trkpt lat="47.27445" lon="-1.68546">
        <ele>43</ele>
        <time>2014-02-16T12:14:53Z</time>
      </trkpt>
      <trkpt lat="47.27454" lon="-1.68545">
        <ele>42.1</ele>
        <time>2014-02-16T12:15:00Z</time>
      </trkpt>
      <trkpt lat="47.27447" lon="-1.68537">
        <ele>41.3</ele>
        <time>2014-02-16T12:15:20Z</time>
      </trkpt>
      <trkpt lat="47.27446" lon="-1.68511">
        <ele>40.1</ele>
        <time>2014-02-16T12:15:50Z</time>
      </trkpt>
      <trkpt lat="47.27455" lon="-1.68507">
        <ele>38.6</ele>
        <time>2014-02-16T12:16:02Z</time>
      </trkpt>
      <trkpt lat="47.27462" lon="-1.68498">
        <ele>37.6</ele>
        <time>2014-02-16T12:16:23Z</time>
      </trkpt>
      <trkpt lat="47.27472" lon="-1.68476">
        <ele>34.9</ele>
        <time>2014-02-16T12:16:47Z</time>
      </trkpt>
      <trkpt lat="47.27474" lon="-1.68463">
        <ele>35.1</ele>
        <time>2014-02-16T12:16:57Z</time>
      </trkpt>
      <trkpt lat="47.27474" lon="-1.68449">
        <ele>35.7</ele>
        <time>2014-02-16T12:17:14Z</time>
      </trkpt>
      <trkpt lat="47.27471" lon="-1.68436">
        <ele>36.4</ele>
        <time>2014-02-16T12:17:23Z</time>
      </trkpt>
      <trkpt lat="47.2747" lon="-1.68422">
        <ele>37.3</ele>
        <time>2014-02-16T12:17:31Z</time>
      </trkpt>
      <trkpt lat="47.27472" lon="-1.68397">
        <ele>44</ele>
        <time>2014-02-16T12:18:26Z</time>
      </trkpt>
      <trkpt lat="47.27478" lon="-1.68387">
        <ele>50.3</ele>
        <time>2014-02-16T12:19:02Z</time>
      </trkpt>
      <trkpt lat="47.27492" lon="-1.68369">
        <ele>54.5</ele>
        <time>2014-02-16T12:19:27Z</time>
      </trkpt>
      <trkpt lat="47.27499" lon="-1.68361">
        <ele>55.2</ele>
        <time>2014-02-16T12:19:42Z</time>
      </trkpt>
      <trkpt lat="47.27506" lon="-1.6835">
        <ele>54.9</ele>
        <time>2014-02-16T12:20:08Z</time>
      </trkpt>
      <trkpt lat="47.27508" lon="-1.68325">
        <ele>54.7</ele>
        <time>2014-02-16T12:20:21Z</time>
      </trkpt>
      <trkpt lat="47.27507" lon="-1.68312">
        <ele>54.9</ele>
        <time>2014-02-16T12:20:26Z</time>
      </trkpt>
      <trkpt lat="47.27508" lon="-1.68298">
        <ele>55.3</ele>
        <time>2014-02-16T12:20:32Z</time>
      </trkpt>
      <trkpt lat="47.27507" lon="-1.68284">
        <ele>55.4</ele>
        <time>2014-02-16T12:20:38Z</time>
      </trkpt>
      <trkpt lat="47.27506" lon="-1.68271">
        <ele>55.2</ele>
        <time>2014-02-16T12:20:44Z</time>
      </trkpt>
      <trkpt lat="47.27506" lon="-1.68256">
        <ele>55.4</ele>
        <time>2014-02-16T12:20:50Z</time>
      </trkpt>
      <trkpt lat="47.27507" lon="-1.68239">
        <ele>55.5</ele>
        <time>2014-02-16T12:20:55Z</time>
      </trkpt>
      <trkpt lat="47.27508" lon="-1.68226">
        <ele>55.3</ele>
        <time>2014-02-16T12:20:59Z</time>
      </trkpt>
      <trkpt lat="47.27509" lon="-1.68211">
        <ele>55.4</ele>
        <time>2014-02-16T12:21:03Z</time>
      </trkpt>
      <trkpt lat="47.2751" lon="-1.68196">
        <ele>55.4</ele>
        <time>2014-02-16T12:21:07Z</time>
      </trkpt>
      <trkpt lat="47.27511" lon="-1.68182">
        <ele>55.5</ele>
        <time>2014-02-16T12:21:11Z</time>
      </trkpt>
      <trkpt lat="47.27517" lon="-1.68152">
        <ele>55.5</ele>
        <time>2014-02-16T12:21:18Z</time>
      </trkpt>
      <trkpt lat="47.2752" lon="-1.68136">
        <ele>55.4</ele>
        <time>2014-02-16T12:21:21Z</time>
      </trkpt>
      <trkpt lat="47.27523" lon="-1.68124">
        <ele>55.3</ele>
        <time>2014-02-16T12:21:24Z</time>
      </trkpt>
      <trkpt lat="47.27527" lon="-1.68109">
        <ele>55.4</ele>
        <time>2014-02-16T12:21:27Z</time>
      </trkpt>
      <trkpt lat="47.2753" lon="-1.68095">
        <ele>55.4</ele>
        <time>2014-02-16T12:21:30Z</time>
      </trkpt>
      <trkpt lat="47.27531" lon="-1.6808">
        <ele>55.5</ele>
        <time>2014-02-16T12:21:34Z</time>
      </trkpt>
      <trkpt lat="47.27532" lon="-1.68062">
        <ele>55.8</ele>
        <time>2014-02-16T12:21:38Z</time>
      </trkpt>
      <trkpt lat="47.27537" lon="-1.6805">
        <ele>55.8</ele>
        <time>2014-02-16T12:21:41Z</time>
      </trkpt>
      <trkpt lat="47.27548" lon="-1.68044">
        <ele>56.1</ele>
        <time>2014-02-16T12:21:46Z</time>
      </trkpt>
      <trkpt lat="47.27554" lon="-1.68035">
        <ele>56.1</ele>
        <time>2014-02-16T12:21:49Z</time>
      </trkpt>
      <trkpt lat="47.27559" lon="-1.68023">
        <ele>56.1</ele>
        <time>2014-02-16T12:21:52Z</time>
      </trkpt>
      <trkpt lat="47.27567" lon="-1.68014">
        <ele>55.7</ele>
        <time>2014-02-16T12:21:57Z</time>
      </trkpt>
      <trkpt lat="47.27576" lon="-1.68015">
        <ele>55.6</ele>
        <time>2014-02-16T12:22:01Z</time>
      </trkpt>
      <trkpt lat="47.27587" lon="-1.68018">
        <ele>55.5</ele>
        <time>2014-02-16T12:22:04Z</time>
      </trkpt>
      <trkpt lat="47.27598" lon="-1.68019">
        <ele>55.4</ele>
        <time>2014-02-16T12:22:07Z</time>
      </trkpt>
      <trkpt lat="47.27611" lon="-1.68019">
        <ele>55.5</ele>
        <time>2014-02-16T12:22:10Z</time>
      </trkpt>
      <trkpt lat="47.27625" lon="-1.68017">
        <ele>56.1</ele>
        <time>2014-02-16T12:22:13Z</time>
      </trkpt>
      <trkpt lat="47.27641" lon="-1.68003">
        <ele>57.2</ele>
        <time>2014-02-16T12:22:17Z</time>
      </trkpt>
      <trkpt lat="47.27649" lon="-1.67994">
        <ele>57</ele>
        <time>2014-02-16T12:22:19Z</time>
      </trkpt>
      <trkpt lat="47.27657" lon="-1.67981">
        <ele>57</ele>
        <time>2014-02-16T12:22:22Z</time>
      </trkpt>
      <trkpt lat="47.27666" lon="-1.67966">
        <ele>56.4</ele>
        <time>2014-02-16T12:22:25Z</time>
      </trkpt>
      <trkpt lat="47.27672" lon="-1.67955">
        <ele>55.5</ele>
        <time>2014-02-16T12:22:27Z</time>
      </trkpt>
      <trkpt lat="47.2768" lon="-1.67944">
        <ele>54.8</ele>
        <time>2014-02-16T12:22:29Z</time>
      </trkpt>
      <trkpt lat="47.27688" lon="-1.67931">
        <ele>54.3</ele>
        <time>2014-02-16T12:22:31Z</time>
      </trkpt>
      <trkpt lat="47.27696" lon="-1.67921">
        <ele>54.4</ele>
        <time>2014-02-16T12:22:33Z</time>
      </trkpt>
      <trkpt lat="47.27702" lon="-1.67911">
        <ele>54.6</ele>
        <time>2014-02-16T12:22:35Z</time>
      </trkpt>
      <trkpt lat="47.27708" lon="-1.679">
        <ele>55.4</ele>
        <time>2014-02-16T12:22:37Z</time>
      </trkpt>
      <trkpt lat="47.27716" lon="-1.67888">
        <ele>55.4</ele>
        <time>2014-02-16T12:22:39Z</time>
      </trkpt>
      <trkpt lat="47.27724" lon="-1.67878">
        <ele>55.1</ele>
        <time>2014-02-16T12:22:41Z</time>
      </trkpt>
      <trkpt lat="47.27732" lon="-1.67868">
        <ele>54.8</ele>
        <time>2014-02-16T12:22:43Z</time>
      </trkpt>
      <trkpt lat="47.27742" lon="-1.67855">
        <ele>53.4</ele>
        <time>2014-02-16T12:22:45Z</time>
      </trkpt>
      <trkpt lat="47.27751" lon="-1.67845">
        <ele>52.2</ele>
        <time>2014-02-16T12:22:47Z</time>
      </trkpt>
      <trkpt lat="47.27759" lon="-1.67835">
        <ele>52</ele>
        <time>2014-02-16T12:22:49Z</time>
      </trkpt>
      <trkpt lat="47.27768" lon="-1.67826">
        <ele>51.3</ele>
        <time>2014-02-16T12:22:51Z</time>
      </trkpt>
      <trkpt lat="47.27775" lon="-1.67817">
        <ele>51.6</ele>
        <time>2014-02-16T12:22:53Z</time>
      </trkpt>
      <trkpt lat="47.27784" lon="-1.67807">
        <ele>51.8</ele>
        <time>2014-02-16T12:22:55Z</time>
      </trkpt>
      <trkpt lat="47.27791" lon="-1.67799">
        <ele>52.7</ele>
        <time>2014-02-16T12:22:57Z</time>
      </trkpt>
      <trkpt lat="47.27802" lon="-1.67791">
        <ele>52.9</ele>
        <time>2014-02-16T12:23:00Z</time>
      </trkpt>
      <trkpt lat="47.2781" lon="-1.67785">
        <ele>52.9</ele>
        <time>2014-02-16T12:23:02Z</time>
      </trkpt>
      <trkpt lat="47.27819" lon="-1.6778">
        <ele>53.1</ele>
        <time>2014-02-16T12:23:05Z</time>
      </trkpt>
      <trkpt lat="47.2783" lon="-1.67776">
        <ele>53.2</ele>
        <time>2014-02-16T12:23:09Z</time>
      </trkpt>
      <trkpt lat="47.2784" lon="-1.67772">
        <ele>53.2</ele>
        <time>2014-02-16T12:23:13Z</time>
      </trkpt>
      <trkpt lat="47.27851" lon="-1.67771">
        <ele>53.4</ele>
        <time>2014-02-16T12:23:16Z</time>
      </trkpt>
      <trkpt lat="47.27872" lon="-1.67775">
        <ele>53.9</ele>
        <time>2014-02-16T12:23:21Z</time>
      </trkpt>
      <trkpt lat="47.27881" lon="-1.67773">
        <ele>55</ele>
        <time>2014-02-16T12:23:23Z</time>
      </trkpt>
      <trkpt lat="47.27891" lon="-1.67769">
        <ele>55.8</ele>
        <time>2014-02-16T12:23:25Z</time>
      </trkpt>
      <trkpt lat="47.279" lon="-1.67766">
        <ele>56.1</ele>
        <time>2014-02-16T12:23:27Z</time>
      </trkpt>
      <trkpt lat="47.2791" lon="-1.67761">
        <ele>55.9</ele>
        <time>2014-02-16T12:23:30Z</time>
      </trkpt>
      <trkpt lat="47.27922" lon="-1.67756">
        <ele>56.1</ele>
        <time>2014-02-16T12:23:32Z</time>
      </trkpt>
      <trkpt lat="47.27934" lon="-1.67752">
        <ele>55.9</ele>
        <time>2014-02-16T12:23:34Z</time>
      </trkpt>
      <trkpt lat="47.27949" lon="-1.67748">
        <ele>55</ele>
        <time>2014-02-16T12:23:36Z</time>
      </trkpt>
      <trkpt lat="47.27966" lon="-1.67747">
        <ele>53.9</ele>
        <time>2014-02-16T12:23:38Z</time>
      </trkpt>
      <trkpt lat="47.27981" lon="-1.67741">
        <ele>52.5</ele>
        <time>2014-02-16T12:23:40Z</time>
      </trkpt>
      <trkpt lat="47.27991" lon="-1.67728">
        <ele>51.3</ele>
        <time>2014-02-16T12:23:42Z</time>
      </trkpt>
      <trkpt lat="47.27996" lon="-1.67708">
        <ele>51.2</ele>
        <time>2014-02-16T12:23:44Z</time>
      </trkpt>
      <trkpt lat="47.27999" lon="-1.67688">
        <ele>51.7</ele>
        <time>2014-02-16T12:23:46Z</time>
      </trkpt>
      <trkpt lat="47.28001" lon="-1.67666">
        <ele>53</ele>
        <time>2014-02-16T12:23:48Z</time>
      </trkpt>
      <trkpt lat="47.28002" lon="-1.67642">
        <ele>53.5</ele>
        <time>2014-02-16T12:23:50Z</time>
      </trkpt>
      <trkpt lat="47.28003" lon="-1.67618">
        <ele>53.7</ele>
        <time>2014-02-16T12:23:52Z</time>
      </trkpt>
      <trkpt lat="47.28003" lon="-1.67598">
        <ele>53.8</ele>
        <time>2014-02-16T12:23:54Z</time>
      </trkpt>
      <trkpt lat="47.28004" lon="-1.6758">
        <ele>54</ele>
        <time>2014-02-16T12:23:56Z</time>
      </trkpt>
      <trkpt lat="47.28005" lon="-1.67564">
        <ele>54.7</ele>
        <time>2014-02-16T12:23:58Z</time>
      </trkpt>
      <trkpt lat="47.28007" lon="-1.67547">
        <ele>55.2</ele>
        <time>2014-02-16T12:24:00Z</time>
      </trkpt>
      <trkpt lat="47.28008" lon="-1.67534">
        <ele>55.5</ele>
        <time>2014-02-16T12:24:02Z</time>
      </trkpt>
      <trkpt lat="47.28009" lon="-1.67515">
        <ele>55.9</ele>
        <time>2014-02-16T12:24:05Z</time>
      </trkpt>
      <trkpt lat="47.28011" lon="-1.67496">
        <ele>56.1</ele>
        <time>2014-02-16T12:24:08Z</time>
      </trkpt>
      <trkpt lat="47.28009" lon="-1.67482">
        <ele>56.1</ele>
        <time>2014-02-16T12:24:11Z</time>
      </trkpt>
      <trkpt lat="47.28005" lon="-1.67469">
        <ele>56.6</ele>
        <time>2014-02-16T12:29:55Z</time>
      </trkpt>
      <trkpt lat="47.27985" lon="-1.67458">
        <ele>56.9</ele>
        <time>2014-02-16T12:30:05Z</time>
      </trkpt>
      <trkpt lat="47.27974" lon="-1.67453">
        <ele>56.8</ele>
        <time>2014-02-16T12:30:09Z</time>
      </trkpt>
      <trkpt lat="47.27962" lon="-1.67449">
        <ele>56.8</ele>
        <time>2014-02-16T12:30:13Z</time>
      </trkpt>
      <trkpt lat="47.27951" lon="-1.67445">
        <ele>56.7</ele>
        <time>2014-02-16T12:30:17Z</time>
      </trkpt>
      <trkpt lat="47.27941" lon="-1.67443">
        <ele>56.7</ele>
        <time>2014-02-16T12:30:21Z</time>
      </trkpt>
      <trkpt lat="47.2793" lon="-1.67439">
        <ele>56.6</ele>
        <time>2014-02-16T12:30:25Z</time>
      </trkpt>
      <trkpt lat="47.27921" lon="-1.67436">
        <ele>56.5</ele>
        <time>2014-02-16T12:30:29Z</time>
      </trkpt>
      <trkpt lat="47.27913" lon="-1.67432">
        <ele>56.4</ele>
        <time>2014-02-16T12:30:34Z</time>
      </trkpt>
      <trkpt lat="47.27917" lon="-1.67418">
        <ele>56.4</ele>
        <time>2014-02-16T12:30:39Z</time>
      </trkpt>
      <trkpt lat="47.27922" lon="-1.67403">
        <ele>56.2</ele>
        <time>2014-02-16T12:30:42Z</time>
      </trkpt>
      <trkpt lat="47.27927" lon="-1.67386">
        <ele>56</ele>
        <time>2014-02-16T12:30:45Z</time>
      </trkpt>
      <trkpt lat="47.27932" lon="-1.67371">
        <ele>55.7</ele>
        <time>2014-02-16T12:30:48Z</time>
      </trkpt>
      <trkpt lat="47.27937" lon="-1.67358">
        <ele>55.7</ele>
        <time>2014-02-16T12:30:51Z</time>
      </trkpt>
      <trkpt lat="47.27941" lon="-1.67345">
        <ele>55.6</ele>
        <time>2014-02-16T12:30:54Z</time>
      </trkpt>
      <trkpt lat="47.27946" lon="-1.6733">
        <ele>55.6</ele>
        <time>2014-02-16T12:30:57Z</time>
      </trkpt>
      <trkpt lat="47.27954" lon="-1.67299">
        <ele>55.7</ele>
        <time>2014-02-16T12:31:04Z</time>
      </trkpt>
      <trkpt lat="47.27957" lon="-1.67285">
        <ele>55.7</ele>
        <time>2014-02-16T12:31:07Z</time>
      </trkpt>
      <trkpt lat="47.27962" lon="-1.67269">
        <ele>55.6</ele>
        <time>2014-02-16T12:31:10Z</time>
      </trkpt>
      <trkpt lat="47.27967" lon="-1.67255">
        <ele>55.5</ele>
        <time>2014-02-16T12:31:12Z</time>
      </trkpt>
      <trkpt lat="47.27971" lon="-1.67241">
        <ele>55.3</ele>
        <time>2014-02-16T12:31:14Z</time>
      </trkpt>
      <trkpt lat="47.27976" lon="-1.67228">
        <ele>55.2</ele>
        <time>2014-02-16T12:31:16Z</time>
      </trkpt>
      <trkpt lat="47.27981" lon="-1.67211">
        <ele>54.6</ele>
        <time>2014-02-16T12:31:19Z</time>
      </trkpt>
      <trkpt lat="47.27985" lon="-1.67198">
        <ele>54.3</ele>
        <time>2014-02-16T12:31:21Z</time>
      </trkpt>
      <trkpt lat="47.2799" lon="-1.67186">
        <ele>54.3</ele>
        <time>2014-02-16T12:31:23Z</time>
      </trkpt>
      <trkpt lat="47.27994" lon="-1.67171">
        <ele>54.3</ele>
        <time>2014-02-16T12:31:26Z</time>
      </trkpt>
      <trkpt lat="47.27999" lon="-1.67154">
        <ele>54.3</ele>
        <time>2014-02-16T12:31:29Z</time>
      </trkpt>
      <trkpt lat="47.28002" lon="-1.67135">
        <ele>54.5</ele>
        <time>2014-02-16T12:31:32Z</time>
      </trkpt>
      <trkpt lat="47.28006" lon="-1.67117">
        <ele>54.7</ele>
        <time>2014-02-16T12:31:35Z</time>
      </trkpt>
      <trkpt lat="47.28009" lon="-1.67105">
        <ele>54.9</ele>
        <time>2014-02-16T12:31:37Z</time>
      </trkpt>
      <trkpt lat="47.28012" lon="-1.67087">
        <ele>55.1</ele>
        <time>2014-02-16T12:31:40Z</time>
      </trkpt>
      <trkpt lat="47.28016" lon="-1.67074">
        <ele>54.9</ele>
        <time>2014-02-16T12:31:42Z</time>
      </trkpt>
      <trkpt lat="47.28018" lon="-1.67054">
        <ele>53.8</ele>
        <time>2014-02-16T12:31:45Z</time>
      </trkpt>
      <trkpt lat="47.2802" lon="-1.6704">
        <ele>54.6</ele>
        <time>2014-02-16T12:31:47Z</time>
      </trkpt>
      <trkpt lat="47.28021" lon="-1.67027">
        <ele>54.5</ele>
        <time>2014-02-16T12:31:49Z</time>
      </trkpt>
      <trkpt lat="47.28022" lon="-1.67013">
        <ele>53.7</ele>
        <time>2014-02-16T12:31:51Z</time>
      </trkpt>
      <trkpt lat="47.28023" lon="-1.66998">
        <ele>52.4</ele>
        <time>2014-02-16T12:31:53Z</time>
      </trkpt>
      <trkpt lat="47.28025" lon="-1.66984">
        <ele>51.5</ele>
        <time>2014-02-16T12:31:55Z</time>
      </trkpt>
      <trkpt lat="47.28031" lon="-1.66966">
        <ele>50.8</ele>
        <time>2014-02-16T12:31:58Z</time>
      </trkpt>
      <trkpt lat="47.28041" lon="-1.6694">
        <ele>52.3</ele>
        <time>2014-02-16T12:32:02Z</time>
      </trkpt>
      <trkpt lat="47.28045" lon="-1.66922">
        <ele>53.7</ele>
        <time>2014-02-16T12:32:05Z</time>
      </trkpt>
      <trkpt lat="47.28047" lon="-1.66909">
        <ele>54.4</ele>
        <time>2014-02-16T12:32:07Z</time>
      </trkpt>
      <trkpt lat="47.2805" lon="-1.66892">
        <ele>54.7</ele>
        <time>2014-02-16T12:32:10Z</time>
      </trkpt>
      <trkpt lat="47.28054" lon="-1.66871">
        <ele>54.7</ele>
        <time>2014-02-16T12:32:13Z</time>
      </trkpt>
      <trkpt lat="47.28057" lon="-1.66858">
        <ele>54.6</ele>
        <time>2014-02-16T12:32:15Z</time>
      </trkpt>
      <trkpt lat="47.2806" lon="-1.66845">
        <ele>54.6</ele>
        <time>2014-02-16T12:32:17Z</time>
      </trkpt>
      <trkpt lat="47.28064" lon="-1.66827">
        <ele>53.9</ele>
        <time>2014-02-16T12:32:19Z</time>
      </trkpt>
      <trkpt lat="47.28067" lon="-1.66811">
        <ele>52.9</ele>
        <time>2014-02-16T12:32:21Z</time>
      </trkpt>
      <trkpt lat="47.28071" lon="-1.66795">
        <ele>52.8</ele>
        <time>2014-02-16T12:32:23Z</time>
      </trkpt>
      <trkpt lat="47.28073" lon="-1.6678">
        <ele>54.3</ele>
        <time>2014-02-16T12:32:25Z</time>
      </trkpt>
      <trkpt lat="47.28074" lon="-1.66766">
        <ele>56.6</ele>
        <time>2014-02-16T12:32:27Z</time>
      </trkpt>
      <trkpt lat="47.28078" lon="-1.66747">
        <ele>57.3</ele>
        <time>2014-02-16T12:32:30Z</time>
      </trkpt>
      <trkpt lat="47.28081" lon="-1.66728">
        <ele>57.6</ele>
        <time>2014-02-16T12:32:33Z</time>
      </trkpt>
      <trkpt lat="47.28085" lon="-1.66707">
        <ele>57.9</ele>
        <time>2014-02-16T12:32:36Z</time>
      </trkpt>
      <trkpt lat="47.28086" lon="-1.66693">
        <ele>58.2</ele>
        <time>2014-02-16T12:32:38Z</time>
      </trkpt>
      <trkpt lat="47.28088" lon="-1.66678">
        <ele>58.8</ele>
        <time>2014-02-16T12:32:40Z</time>
      </trkpt>
      <trkpt lat="47.2809" lon="-1.66663">
        <ele>58.2</ele>
        <time>2014-02-16T12:32:42Z</time>
      </trkpt>
      <trkpt lat="47.28093" lon="-1.66649">
        <ele>57.6</ele>
        <time>2014-02-16T12:32:44Z</time>
      </trkpt>
      <trkpt lat="47.28087" lon="-1.66632">
        <ele>57.4</ele>
        <time>2014-02-16T12:32:47Z</time>
      </trkpt>
      <trkpt lat="47.28081" lon="-1.66622">
        <ele>57.5</ele>
        <time>2014-02-16T12:32:49Z</time>
      </trkpt>
      <trkpt lat="47.28073" lon="-1.66613">
        <ele>57.7</ele>
        <time>2014-02-16T12:32:51Z</time>
      </trkpt>
      <trkpt lat="47.28064" lon="-1.66603">
        <ele>58.3</ele>
        <time>2014-02-16T12:32:55Z</time>
      </trkpt>
      <trkpt lat="47.28056" lon="-1.66594">
        <ele>58.8</ele>
        <time>2014-02-16T12:32:58Z</time>
      </trkpt>
      <trkpt lat="47.28047" lon="-1.66584">
        <ele>59.2</ele>
        <time>2014-02-16T12:33:01Z</time>
      </trkpt>
      <trkpt lat="47.28031" lon="-1.66562">
        <ele>59.7</ele>
        <time>2014-02-16T12:33:07Z</time>
      </trkpt>
      <trkpt lat="47.28024" lon="-1.66549">
        <ele>60</ele>
        <time>2014-02-16T12:33:10Z</time>
      </trkpt>
      <trkpt lat="47.28016" lon="-1.66538">
        <ele>60.3</ele>
        <time>2014-02-16T12:33:13Z</time>
      </trkpt>
      <trkpt lat="47.28007" lon="-1.66528">
        <ele>60.7</ele>
        <time>2014-02-16T12:33:16Z</time>
      </trkpt>
      <trkpt lat="47.27997" lon="-1.66519">
        <ele>61</ele>
        <time>2014-02-16T12:33:19Z</time>
      </trkpt>
      <trkpt lat="47.27989" lon="-1.66511">
        <ele>61.2</ele>
        <time>2014-02-16T12:33:22Z</time>
      </trkpt>
      <trkpt lat="47.27988" lon="-1.66495">
        <ele>61.3</ele>
        <time>2014-02-16T12:33:27Z</time>
      </trkpt>
      <trkpt lat="47.27997" lon="-1.66488">
        <ele>61</ele>
        <time>2014-02-16T12:33:30Z</time>
      </trkpt>
      <trkpt lat="47.28009" lon="-1.66482">
        <ele>60.5</ele>
        <time>2014-02-16T12:33:34Z</time>
      </trkpt>
      <trkpt lat="47.28017" lon="-1.66478">
        <ele>60.3</ele>
        <time>2014-02-16T12:33:36Z</time>
      </trkpt>
      <trkpt lat="47.28029" lon="-1.66474">
        <ele>60</ele>
        <time>2014-02-16T12:33:39Z</time>
      </trkpt>
      <trkpt lat="47.28041" lon="-1.66468">
        <ele>59.9</ele>
        <time>2014-02-16T12:33:42Z</time>
      </trkpt>
      <trkpt lat="47.28052" lon="-1.66462">
        <ele>59.3</ele>
        <time>2014-02-16T12:33:45Z</time>
      </trkpt>
      <trkpt lat="47.28061" lon="-1.66457">
        <ele>58.6</ele>
        <time>2014-02-16T12:33:47Z</time>
      </trkpt>
      <trkpt lat="47.28072" lon="-1.66452">
        <ele>59</ele>
        <time>2014-02-16T12:33:49Z</time>
      </trkpt>
      <trkpt lat="47.28082" lon="-1.66446">
        <ele>59.4</ele>
        <time>2014-02-16T12:33:51Z</time>
      </trkpt>
      <trkpt lat="47.28092" lon="-1.6644">
        <ele>60.1</ele>
        <time>2014-02-16T12:33:53Z</time>
      </trkpt>
      <trkpt lat="47.28104" lon="-1.66431">
        <ele>60.5</ele>
        <time>2014-02-16T12:33:56Z</time>
      </trkpt>
      <trkpt lat="47.28113" lon="-1.66424">
        <ele>60.4</ele>
        <time>2014-02-16T12:33:59Z</time>
      </trkpt>
      <trkpt lat="47.28123" lon="-1.66416">
        <ele>60.3</ele>
        <time>2014-02-16T12:34:02Z</time>
      </trkpt>
      <trkpt lat="47.28141" lon="-1.664">
        <ele>60.1</ele>
        <time>2014-02-16T12:34:08Z</time>
      </trkpt>
      <trkpt lat="47.28149" lon="-1.66394">
        <ele>60.5</ele>
        <time>2014-02-16T12:34:10Z</time>
      </trkpt>
      <trkpt lat="47.28158" lon="-1.66386">
        <ele>60.9</ele>
        <time>2014-02-16T12:34:12Z</time>
      </trkpt>
      <trkpt lat="47.2817" lon="-1.66377">
        <ele>59.9</ele>
        <time>2014-02-16T12:34:15Z</time>
      </trkpt>
      <trkpt lat="47.28178" lon="-1.66364">
        <ele>58.4</ele>
        <time>2014-02-16T12:34:18Z</time>
      </trkpt>
      <trkpt lat="47.28177" lon="-1.66344">
        <ele>57.9</ele>
        <time>2014-02-16T12:34:21Z</time>
      </trkpt>
      <trkpt lat="47.28174" lon="-1.66329">
        <ele>57.9</ele>
        <time>2014-02-16T12:34:23Z</time>
      </trkpt>
      <trkpt lat="47.2817" lon="-1.6631">
        <ele>58.3</ele>
        <time>2014-02-16T12:34:25Z</time>
      </trkpt>
      <trkpt lat="47.28166" lon="-1.66291">
        <ele>59.8</ele>
        <time>2014-02-16T12:34:27Z</time>
      </trkpt>
      <trkpt lat="47.28162" lon="-1.66271">
        <ele>61.3</ele>
        <time>2014-02-16T12:34:29Z</time>
      </trkpt>
      <trkpt lat="47.28157" lon="-1.6625">
        <ele>61.8</ele>
        <time>2014-02-16T12:34:31Z</time>
      </trkpt>
      <trkpt lat="47.28153" lon="-1.66229">
        <ele>61.6</ele>
        <time>2014-02-16T12:34:33Z</time>
      </trkpt>
      <trkpt lat="47.28148" lon="-1.66211">
        <ele>61.4</ele>
        <time>2014-02-16T12:34:35Z</time>
      </trkpt>
      <trkpt lat="47.28144" lon="-1.66192">
        <ele>61.7</ele>
        <time>2014-02-16T12:34:37Z</time>
      </trkpt>
      <trkpt lat="47.28139" lon="-1.66175">
        <ele>62.4</ele>
        <time>2014-02-16T12:34:39Z</time>
      </trkpt>
      <trkpt lat="47.28135" lon="-1.66158">
        <ele>62.8</ele>
        <time>2014-02-16T12:34:41Z</time>
      </trkpt>
      <trkpt lat="47.28132" lon="-1.6614">
        <ele>63.6</ele>
        <time>2014-02-16T12:34:43Z</time>
      </trkpt>
      <trkpt lat="47.28129" lon="-1.66123">
        <ele>63.6</ele>
        <time>2014-02-16T12:34:45Z</time>
      </trkpt>
      <trkpt lat="47.28126" lon="-1.66109">
        <ele>62.8</ele>
        <time>2014-02-16T12:34:47Z</time>
      </trkpt>
      <trkpt lat="47.28123" lon="-1.66094">
        <ele>62.5</ele>
        <time>2014-02-16T12:34:51Z</time>
      </trkpt>
      <trkpt lat="47.28113" lon="-1.66091">
        <ele>62.5</ele>
        <time>2014-02-16T12:35:13Z</time>
      </trkpt>
      <trkpt lat="47.2809" lon="-1.66088">
        <ele>61.6</ele>
        <time>2014-02-16T12:35:22Z</time>
      </trkpt>
      <trkpt lat="47.28081" lon="-1.66089">
        <ele>61.1</ele>
        <time>2014-02-16T12:35:24Z</time>
      </trkpt>
      <trkpt lat="47.28072" lon="-1.6609">
        <ele>60.5</ele>
        <time>2014-02-16T12:35:26Z</time>
      </trkpt>
      <trkpt lat="47.28058" lon="-1.66091">
        <ele>60.8</ele>
        <time>2014-02-16T12:35:29Z</time>
      </trkpt>
      <trkpt lat="47.28046" lon="-1.66092">
        <ele>60.9</ele>
        <time>2014-02-16T12:35:32Z</time>
      </trkpt>
      <trkpt lat="47.28033" lon="-1.66091">
        <ele>60.7</ele>
        <time>2014-02-16T12:35:35Z</time>
      </trkpt>
      <trkpt lat="47.2802" lon="-1.66091">
        <ele>60.7</ele>
        <time>2014-02-16T12:35:38Z</time>
      </trkpt>
      <trkpt lat="47.28006" lon="-1.66091">
        <ele>61.1</ele>
        <time>2014-02-16T12:35:41Z</time>
      </trkpt>
      <trkpt lat="47.27993" lon="-1.66091">
        <ele>62.3</ele>
        <time>2014-02-16T12:35:44Z</time>
      </trkpt>
      <trkpt lat="47.2798" lon="-1.66091">
        <ele>63.4</ele>
        <time>2014-02-16T12:35:47Z</time>
      </trkpt>
      <trkpt lat="47.27967" lon="-1.66092">
        <ele>64.5</ele>
        <time>2014-02-16T12:35:50Z</time>
      </trkpt>
      <trkpt lat="47.27955" lon="-1.66091">
        <ele>64.6</ele>
        <time>2014-02-16T12:35:53Z</time>
      </trkpt>
      <trkpt lat="47.27945" lon="-1.66084">
        <ele>64.4</ele>
        <time>2014-02-16T12:35:56Z</time>
      </trkpt>
      <trkpt lat="47.27938" lon="-1.66072">
        <ele>64.2</ele>
        <time>2014-02-16T12:35:59Z</time>
      </trkpt>
      <trkpt lat="47.27934" lon="-1.66056">
        <ele>64</ele>
        <time>2014-02-16T12:36:02Z</time>
      </trkpt>
      <trkpt lat="47.2793" lon="-1.66036">
        <ele>63.8</ele>
        <time>2014-02-16T12:36:05Z</time>
      </trkpt>
      <trkpt lat="47.27925" lon="-1.66019">
        <ele>64.4</ele>
        <time>2014-02-16T12:36:07Z</time>
      </trkpt>
      <trkpt lat="47.27922" lon="-1.66004">
        <ele>64.7</ele>
        <time>2014-02-16T12:36:10Z</time>
      </trkpt>
      <trkpt lat="47.27924" lon="-1.65987">
        <ele>64.8</ele>
        <time>2014-02-16T12:36:13Z</time>
      </trkpt>
      <trkpt lat="47.27925" lon="-1.65969">
        <ele>64.6</ele>
        <time>2014-02-16T12:36:16Z</time>
      </trkpt>
      <trkpt lat="47.27924" lon="-1.65934">
        <ele>63.9</ele>
        <time>2014-02-16T12:36:22Z</time>
      </trkpt>
      <trkpt lat="47.27922" lon="-1.65918">
        <ele>63.7</ele>
        <time>2014-02-16T12:36:25Z</time>
      </trkpt>
      <trkpt lat="47.2792" lon="-1.65904">
        <ele>63.4</ele>
        <time>2014-02-16T12:36:28Z</time>
      </trkpt>
      <trkpt lat="47.27916" lon="-1.65884">
        <ele>62.1</ele>
        <time>2014-02-16T12:36:31Z</time>
      </trkpt>
      <trkpt lat="47.27914" lon="-1.6587">
        <ele>62.2</ele>
        <time>2014-02-16T12:36:33Z</time>
      </trkpt>
      <trkpt lat="47.27913" lon="-1.65856">
        <ele>62.5</ele>
        <time>2014-02-16T12:36:35Z</time>
      </trkpt>
      <trkpt lat="47.27913" lon="-1.65839">
        <ele>62.6</ele>
        <time>2014-02-16T12:36:38Z</time>
      </trkpt>
      <trkpt lat="47.27913" lon="-1.65822">
        <ele>62.6</ele>
        <time>2014-02-16T12:36:41Z</time>
      </trkpt>
      <trkpt lat="47.27914" lon="-1.65808">
        <ele>62.6</ele>
        <time>2014-02-16T12:36:43Z</time>
      </trkpt>
      <trkpt lat="47.27916" lon="-1.6579">
        <ele>61.9</ele>
        <time>2014-02-16T12:36:46Z</time>
      </trkpt>
      <trkpt lat="47.27916" lon="-1.6577">
        <ele>61.2</ele>
        <time>2014-02-16T12:36:49Z</time>
      </trkpt>
      <trkpt lat="47.27916" lon="-1.65754">
        <ele>60.1</ele>
        <time>2014-02-16T12:36:51Z</time>
      </trkpt>
      <trkpt lat="47.27916" lon="-1.6574">
        <ele>59.1</ele>
        <time>2014-02-16T12:36:53Z</time>
      </trkpt>
      <trkpt lat="47.27916" lon="-1.65725">
        <ele>59.1</ele>
        <time>2014-02-16T12:36:55Z</time>
      </trkpt>
      <trkpt lat="47.27916" lon="-1.6571">
        <ele>58.9</ele>
        <time>2014-02-16T12:36:57Z</time>
      </trkpt>
      <trkpt lat="47.27916" lon="-1.65695">
        <ele>58.9</ele>
        <time>2014-02-16T12:36:59Z</time>
      </trkpt>
      <trkpt lat="47.27917" lon="-1.65679">
        <ele>58.5</ele>
        <time>2014-02-16T12:37:01Z</time>
      </trkpt>
      <trkpt lat="47.27919" lon="-1.65663">
        <ele>58.1</ele>
        <time>2014-02-16T12:37:04Z</time>
      </trkpt>
      <trkpt lat="47.27919" lon="-1.65645">
        <ele>58</ele>
        <time>2014-02-16T12:37:07Z</time>
      </trkpt>
      <trkpt lat="47.27918" lon="-1.6563">
        <ele>58.1</ele>
        <time>2014-02-16T12:37:10Z</time>
      </trkpt>
      <trkpt lat="47.27916" lon="-1.65617">
        <ele>58.4</ele>
        <time>2014-02-16T12:37:12Z</time>
      </trkpt>
      <trkpt lat="47.27914" lon="-1.65603">
        <ele>58.4</ele>
        <time>2014-02-16T12:37:14Z</time>
      </trkpt>
      <trkpt lat="47.27911" lon="-1.65586">
        <ele>58.2</ele>
        <time>2014-02-16T12:37:17Z</time>
      </trkpt>
      <trkpt lat="47.27906" lon="-1.65551">
        <ele>57.8</ele>
        <time>2014-02-16T12:37:24Z</time>
      </trkpt>
      <trkpt lat="47.27902" lon="-1.65531">
        <ele>57.6</ele>
        <time>2014-02-16T12:37:27Z</time>
      </trkpt>
      <trkpt lat="47.27899" lon="-1.65514">
        <ele>57.4</ele>
        <time>2014-02-16T12:37:30Z</time>
      </trkpt>
      <trkpt lat="47.27895" lon="-1.65501">
        <ele>57.5</ele>
        <time>2014-02-16T12:37:33Z</time>
      </trkpt>
      <trkpt lat="47.27888" lon="-1.65487">
        <ele>57.8</ele>
        <time>2014-02-16T12:37:37Z</time>
      </trkpt>
      <trkpt lat="47.2788" lon="-1.65475">
        <ele>57.9</ele>
        <time>2014-02-16T12:37:40Z</time>
      </trkpt>
      <trkpt lat="47.27871" lon="-1.65466">
        <ele>58.1</ele>
        <time>2014-02-16T12:37:44Z</time>
      </trkpt>
      <trkpt lat="47.27861" lon="-1.65461">
        <ele>58.2</ele>
        <time>2014-02-16T12:37:47Z</time>
      </trkpt>
      <trkpt lat="47.27851" lon="-1.65459">
        <ele>58.2</ele>
        <time>2014-02-16T12:37:51Z</time>
      </trkpt>
      <trkpt lat="47.27841" lon="-1.6546">
        <ele>58.1</ele>
        <time>2014-02-16T12:37:55Z</time>
      </trkpt>
      <trkpt lat="47.27831" lon="-1.65461">
        <ele>58</ele>
        <time>2014-02-16T12:38:00Z</time>
      </trkpt>
      <trkpt lat="47.2782" lon="-1.65461">
        <ele>57.9</ele>
        <time>2014-02-16T12:38:05Z</time>
      </trkpt>
      <trkpt lat="47.27809" lon="-1.65458">
        <ele>58.1</ele>
        <time>2014-02-16T12:38:09Z</time>
      </trkpt>
      <trkpt lat="47.27798" lon="-1.65456">
        <ele>58.4</ele>
        <time>2014-02-16T12:38:13Z</time>
      </trkpt>
      <trkpt lat="47.27789" lon="-1.65454">
        <ele>58.6</ele>
        <time>2014-02-16T12:38:17Z</time>
      </trkpt>
      <trkpt lat="47.27778" lon="-1.65452">
        <ele>58.7</ele>
        <time>2014-02-16T12:38:22Z</time>
      </trkpt>
      <trkpt lat="47.27757" lon="-1.65445">
        <ele>58.9</ele>
        <time>2014-02-16T12:38:34Z</time>
      </trkpt>
      <trkpt lat="47.27748" lon="-1.65444">
        <ele>59.3</ele>
        <time>2014-02-16T12:39:15Z</time>
      </trkpt>
      <trkpt lat="47.27737" lon="-1.65446">
        <ele>59.5</ele>
        <time>2014-02-16T12:39:20Z</time>
      </trkpt>
      <trkpt lat="47.27727" lon="-1.65446">
        <ele>59.8</ele>
        <time>2014-02-16T12:39:25Z</time>
      </trkpt>
      <trkpt lat="47.2771" lon="-1.65431">
        <ele>60</ele>
        <time>2014-02-16T12:39:36Z</time>
      </trkpt>
      <trkpt lat="47.27705" lon="-1.65417">
        <ele>59.5</ele>
        <time>2014-02-16T12:39:43Z</time>
      </trkpt>
      <trkpt lat="47.27702" lon="-1.65402">
        <ele>59.4</ele>
        <time>2014-02-16T12:39:47Z</time>
      </trkpt>
      <trkpt lat="47.27698" lon="-1.65388">
        <ele>59.4</ele>
        <time>2014-02-16T12:39:50Z</time>
      </trkpt>
      <trkpt lat="47.27694" lon="-1.65375">
        <ele>59.2</ele>
        <time>2014-02-16T12:39:54Z</time>
      </trkpt>
      <trkpt lat="47.2769" lon="-1.6536">
        <ele>59</ele>
        <time>2014-02-16T12:39:59Z</time>
      </trkpt>
      <trkpt lat="47.27683" lon="-1.65351">
        <ele>58.6</ele>
        <time>2014-02-16T12:40:05Z</time>
      </trkpt>
      <trkpt lat="47.27672" lon="-1.65346">
        <ele>57.6</ele>
        <time>2014-02-16T12:40:15Z</time>
      </trkpt>
      <trkpt lat="47.27664" lon="-1.65343">
        <ele>57.4</ele>
        <time>2014-02-16T12:40:20Z</time>
      </trkpt>
      <trkpt lat="47.27653" lon="-1.65337">
        <ele>56.8</ele>
        <time>2014-02-16T12:40:25Z</time>
      </trkpt>
      <trkpt lat="47.27645" lon="-1.6533">
        <ele>56.5</ele>
        <time>2014-02-16T12:40:28Z</time>
      </trkpt>
      <trkpt lat="47.27638" lon="-1.65303">
        <ele>55.8</ele>
        <time>2014-02-16T12:40:39Z</time>
      </trkpt>
      <trkpt lat="47.27636" lon="-1.65288">
        <ele>55.8</ele>
        <time>2014-02-16T12:40:45Z</time>
      </trkpt>
      <trkpt lat="47.27636" lon="-1.65274">
        <ele>55.5</ele>
        <time>2014-02-16T12:40:54Z</time>
      </trkpt>
      <trkpt lat="47.27632" lon="-1.65262">
        <ele>55.7</ele>
        <time>2014-02-16T12:41:00Z</time>
      </trkpt>
      <trkpt lat="47.27624" lon="-1.65253">
        <ele>56.3</ele>
        <time>2014-02-16T12:41:04Z</time>
      </trkpt>
      <trkpt lat="47.27616" lon="-1.65242">
        <ele>56.8</ele>
        <time>2014-02-16T12:41:07Z</time>
      </trkpt>
      <trkpt lat="47.27609" lon="-1.65234">
        <ele>57.3</ele>
        <time>2014-02-16T12:41:11Z</time>
      </trkpt>
      <trkpt lat="47.27601" lon="-1.65221">
        <ele>57.8</ele>
        <time>2014-02-16T12:41:15Z</time>
      </trkpt>
      <trkpt lat="47.27596" lon="-1.65209">
        <ele>58.3</ele>
        <time>2014-02-16T12:41:18Z</time>
      </trkpt>
      <trkpt lat="47.27591" lon="-1.65198">
        <ele>59</ele>
        <time>2014-02-16T12:41:21Z</time>
      </trkpt>
      <trkpt lat="47.27584" lon="-1.65185">
        <ele>59.4</ele>
        <time>2014-02-16T12:41:24Z</time>
      </trkpt>
      <trkpt lat="47.27579" lon="-1.65172">
        <ele>59.7</ele>
        <time>2014-02-16T12:41:27Z</time>
      </trkpt>
      <trkpt lat="47.27574" lon="-1.65154">
        <ele>59.7</ele>
        <time>2014-02-16T12:41:30Z</time>
      </trkpt>
      <trkpt lat="47.27563" lon="-1.65127">
        <ele>59.4</ele>
        <time>2014-02-16T12:41:35Z</time>
      </trkpt>
      <trkpt lat="47.27555" lon="-1.65114">
        <ele>59.2</ele>
        <time>2014-02-16T12:41:38Z</time>
      </trkpt>
      <trkpt lat="47.27552" lon="-1.65095">
        <ele>58.9</ele>
        <time>2014-02-16T12:41:41Z</time>
      </trkpt>
      <trkpt lat="47.2755" lon="-1.65079">
        <ele>58.7</ele>
        <time>2014-02-16T12:41:44Z</time>
      </trkpt>
      <trkpt lat="47.27547" lon="-1.65062">
        <ele>58.5</ele>
        <time>2014-02-16T12:41:47Z</time>
      </trkpt>
      <trkpt lat="47.27543" lon="-1.65045">
        <ele>58.2</ele>
        <time>2014-02-16T12:41:50Z</time>
      </trkpt>
      <trkpt lat="47.27539" lon="-1.65027">
        <ele>58.3</ele>
        <time>2014-02-16T12:41:53Z</time>
      </trkpt>
      <trkpt lat="47.27535" lon="-1.6501">
        <ele>59.6</ele>
        <time>2014-02-16T12:41:56Z</time>
      </trkpt>
      <trkpt lat="47.27531" lon="-1.64994">
        <ele>60.1</ele>
        <time>2014-02-16T12:41:59Z</time>
      </trkpt>
      <trkpt lat="47.27528" lon="-1.64976">
        <ele>60.2</ele>
        <time>2014-02-16T12:42:02Z</time>
      </trkpt>
      <trkpt lat="47.27528" lon="-1.64958">
        <ele>60.4</ele>
        <time>2014-02-16T12:42:05Z</time>
      </trkpt>
      <trkpt lat="47.27528" lon="-1.6494">
        <ele>61.4</ele>
        <time>2014-02-16T12:42:08Z</time>
      </trkpt>
      <trkpt lat="47.27529" lon="-1.64925">
        <ele>62</ele>
        <time>2014-02-16T12:42:10Z</time>
      </trkpt>
      <trkpt lat="47.27529" lon="-1.64911">
        <ele>62.2</ele>
        <time>2014-02-16T12:42:12Z</time>
      </trkpt>
      <trkpt lat="47.27528" lon="-1.64898">
        <ele>61.6</ele>
        <time>2014-02-16T12:42:14Z</time>
      </trkpt>
      <trkpt lat="47.27526" lon="-1.64877">
        <ele>61.1</ele>
        <time>2014-02-16T12:42:17Z</time>
      </trkpt>
      <trkpt lat="47.27524" lon="-1.64861">
        <ele>60.8</ele>
        <time>2014-02-16T12:42:19Z</time>
      </trkpt>
      <trkpt lat="47.27522" lon="-1.64844">
        <ele>60.5</ele>
        <time>2014-02-16T12:42:21Z</time>
      </trkpt>
      <trkpt lat="47.27521" lon="-1.64829">
        <ele>60.3</ele>
        <time>2014-02-16T12:42:23Z</time>
      </trkpt>
      <trkpt lat="47.27522" lon="-1.64815">
        <ele>60.1</ele>
        <time>2014-02-16T12:42:25Z</time>
      </trkpt>
      <trkpt lat="47.27524" lon="-1.64802">
        <ele>60</ele>
        <time>2014-02-16T12:42:27Z</time>
      </trkpt>
      <trkpt lat="47.27528" lon="-1.64788">
        <ele>59.6</ele>
        <time>2014-02-16T12:42:29Z</time>
      </trkpt>
      <trkpt lat="47.27533" lon="-1.64771">
        <ele>59.7</ele>
        <time>2014-02-16T12:42:32Z</time>
      </trkpt>
      <trkpt lat="47.27541" lon="-1.64738">
        <ele>58.8</ele>
        <time>2014-02-16T12:42:37Z</time>
      </trkpt>
      <trkpt lat="47.27543" lon="-1.64722">
        <ele>58.4</ele>
        <time>2014-02-16T12:42:39Z</time>
      </trkpt>
      <trkpt lat="47.27545" lon="-1.64705">
        <ele>57.6</ele>
        <time>2014-02-16T12:42:41Z</time>
      </trkpt>
      <trkpt lat="47.27546" lon="-1.64687">
        <ele>56.8</ele>
        <time>2014-02-16T12:42:43Z</time>
      </trkpt>
      <trkpt lat="47.27547" lon="-1.64667">
        <ele>56</ele>
        <time>2014-02-16T12:42:45Z</time>
      </trkpt>
      <trkpt lat="47.27549" lon="-1.64645">
        <ele>54.5</ele>
        <time>2014-02-16T12:42:47Z</time>
      </trkpt>
      <trkpt lat="47.27553" lon="-1.64623">
        <ele>52.9</ele>
        <time>2014-02-16T12:42:49Z</time>
      </trkpt>
      <trkpt lat="47.27556" lon="-1.646">
        <ele>51.4</ele>
        <time>2014-02-16T12:42:51Z</time>
      </trkpt>
      <trkpt lat="47.2756" lon="-1.64578">
        <ele>50.6</ele>
        <time>2014-02-16T12:42:53Z</time>
      </trkpt>
      <trkpt lat="47.27563" lon="-1.64555">
        <ele>49.8</ele>
        <time>2014-02-16T12:42:55Z</time>
      </trkpt>
      <trkpt lat="47.27565" lon="-1.64534">
        <ele>49.8</ele>
        <time>2014-02-16T12:42:57Z</time>
      </trkpt>
      <trkpt lat="47.27565" lon="-1.64515">
        <ele>49.7</ele>
        <time>2014-02-16T12:42:59Z</time>
      </trkpt>
      <trkpt lat="47.27563" lon="-1.64499">
        <ele>50.8</ele>
        <time>2014-02-16T12:43:01Z</time>
      </trkpt>
      <trkpt lat="47.27561" lon="-1.64483">
        <ele>52.3</ele>
        <time>2014-02-16T12:43:04Z</time>
      </trkpt>
      <trkpt lat="47.27558" lon="-1.64468">
        <ele>52.5</ele>
        <time>2014-02-16T12:43:08Z</time>
      </trkpt>
      <trkpt lat="47.27557" lon="-1.64453">
        <ele>52.9</ele>
        <time>2014-02-16T12:43:12Z</time>
      </trkpt>
      <trkpt lat="47.27546" lon="-1.64454">
        <ele>53.1</ele>
        <time>2014-02-16T12:43:19Z</time>
      </trkpt>
      <trkpt lat="47.27532" lon="-1.64462">
        <ele>53.3</ele>
        <time>2014-02-16T12:43:22Z</time>
      </trkpt>
      <trkpt lat="47.27522" lon="-1.64468">
        <ele>53.4</ele>
        <time>2014-02-16T12:43:24Z</time>
      </trkpt>
      <trkpt lat="47.27512" lon="-1.64473">
        <ele>53.2</ele>
        <time>2014-02-16T12:43:26Z</time>
      </trkpt>
      <trkpt lat="47.27501" lon="-1.6448">
        <ele>53.1</ele>
        <time>2014-02-16T12:43:29Z</time>
      </trkpt>
      <trkpt lat="47.27492" lon="-1.64486">
        <ele>53</ele>
        <time>2014-02-16T12:43:32Z</time>
      </trkpt>
      <trkpt lat="47.27482" lon="-1.6449">
        <ele>52.8</ele>
        <time>2014-02-16T12:43:36Z</time>
      </trkpt>
      <trkpt lat="47.27462" lon="-1.64495">
        <ele>52.3</ele>
        <time>2014-02-16T12:43:42Z</time>
      </trkpt>
      <trkpt lat="47.27451" lon="-1.64497">
        <ele>52.3</ele>
        <time>2014-02-16T12:43:45Z</time>
      </trkpt>
      <trkpt lat="47.27441" lon="-1.64498">
        <ele>52.3</ele>
        <time>2014-02-16T12:43:48Z</time>
      </trkpt>
      <trkpt lat="47.27429" lon="-1.64498">
        <ele>52.3</ele>
        <time>2014-02-16T12:43:51Z</time>
      </trkpt>
      <trkpt lat="47.27419" lon="-1.64496">
        <ele>52.2</ele>
        <time>2014-02-16T12:43:54Z</time>
      </trkpt>
      <trkpt lat="47.2741" lon="-1.64497">
        <ele>52.1</ele>
        <time>2014-02-16T12:43:57Z</time>
      </trkpt>
      <trkpt lat="47.274" lon="-1.645">
        <ele>51.8</ele>
        <time>2014-02-16T12:44:00Z</time>
      </trkpt>
      <trkpt lat="47.2739" lon="-1.64504">
        <ele>51.6</ele>
        <time>2014-02-16T12:44:04Z</time>
      </trkpt>
      <trkpt lat="47.2738" lon="-1.6451">
        <ele>51.4</ele>
        <time>2014-02-16T12:44:07Z</time>
      </trkpt>
      <trkpt lat="47.27369" lon="-1.64518">
        <ele>51.3</ele>
        <time>2014-02-16T12:44:10Z</time>
      </trkpt>
      <trkpt lat="47.27359" lon="-1.64526">
        <ele>51</ele>
        <time>2014-02-16T12:44:13Z</time>
      </trkpt>
      <trkpt lat="47.27348" lon="-1.64531">
        <ele>50.5</ele>
        <time>2014-02-16T12:44:16Z</time>
      </trkpt>
      <trkpt lat="47.27338" lon="-1.64535">
        <ele>50.4</ele>
        <time>2014-02-16T12:44:19Z</time>
      </trkpt>
      <trkpt lat="47.27327" lon="-1.64538">
        <ele>50.3</ele>
        <time>2014-02-16T12:44:22Z</time>
      </trkpt>
      <trkpt lat="47.27317" lon="-1.6454">
        <ele>50.2</ele>
        <time>2014-02-16T12:44:25Z</time>
      </trkpt>
      <trkpt lat="47.27307" lon="-1.6454">
        <ele>50</ele>
        <time>2014-02-16T12:44:28Z</time>
      </trkpt>
      <trkpt lat="47.27296" lon="-1.6454">
        <ele>49.7</ele>
        <time>2014-02-16T12:44:33Z</time>
      </trkpt>
      <trkpt lat="47.27286" lon="-1.6454">
        <ele>49.3</ele>
        <time>2014-02-16T12:44:38Z</time>
      </trkpt>
      <trkpt lat="47.27266" lon="-1.64537">
        <ele>48.4</ele>
        <time>2014-02-16T12:44:48Z</time>
      </trkpt>
      <trkpt lat="47.27256" lon="-1.64535">
        <ele>48.1</ele>
        <time>2014-02-16T12:44:52Z</time>
      </trkpt>
      <trkpt lat="47.27246" lon="-1.64535">
        <ele>47.8</ele>
        <time>2014-02-16T12:44:56Z</time>
      </trkpt>
      <trkpt lat="47.27236" lon="-1.64535">
        <ele>47.5</ele>
        <time>2014-02-16T12:45:00Z</time>
      </trkpt>
      <trkpt lat="47.27225" lon="-1.64536">
        <ele>47.5</ele>
        <time>2014-02-16T12:45:04Z</time>
      </trkpt>
      <trkpt lat="47.27216" lon="-1.64537">
        <ele>47.4</ele>
        <time>2014-02-16T12:45:07Z</time>
      </trkpt>
      <trkpt lat="47.27204" lon="-1.64538">
        <ele>47.3</ele>
        <time>2014-02-16T12:45:11Z</time>
      </trkpt>
      <trkpt lat="47.27192" lon="-1.64539">
        <ele>47.3</ele>
        <time>2014-02-16T12:45:15Z</time>
      </trkpt>
      <trkpt lat="47.2718" lon="-1.64539">
        <ele>47.2</ele>
        <time>2014-02-16T12:45:19Z</time>
      </trkpt>
      <trkpt lat="47.2717" lon="-1.6454">
        <ele>47</ele>
        <time>2014-02-16T12:45:22Z</time>
      </trkpt>
      <trkpt lat="47.27159" lon="-1.6454">
        <ele>46.9</ele>
        <time>2014-02-16T12:45:26Z</time>
      </trkpt>
      <trkpt lat="47.27147" lon="-1.6454">
        <ele>46.5</ele>
        <time>2014-02-16T12:45:30Z</time>
      </trkpt>
      <trkpt lat="47.27138" lon="-1.64541">
        <ele>46.3</ele>
        <time>2014-02-16T12:45:33Z</time>
      </trkpt>
      <trkpt lat="47.27127" lon="-1.64543">
        <ele>46.1</ele>
        <time>2014-02-16T12:45:37Z</time>
      </trkpt>
      <trkpt lat="47.27117" lon="-1.64546">
        <ele>45.5</ele>
        <time>2014-02-16T12:45:41Z</time>
      </trkpt>
      <trkpt lat="47.27099" lon="-1.6454">
        <ele>44.1</ele>
        <time>2014-02-16T12:45:49Z</time>
      </trkpt>
      <trkpt lat="47.27093" lon="-1.64529">
        <ele>42.9</ele>
        <time>2014-02-16T12:46:05Z</time>
      </trkpt>
      <trkpt lat="47.27085" lon="-1.64517">
        <ele>42.7</ele>
        <time>2014-02-16T12:46:16Z</time>
      </trkpt>
      <trkpt lat="47.27077" lon="-1.64504">
        <ele>42.6</ele>
        <time>2014-02-16T12:46:22Z</time>
      </trkpt>
      <trkpt lat="47.27071" lon="-1.64493">
        <ele>42.1</ele>
        <time>2014-02-16T12:46:27Z</time>
      </trkpt>
      <trkpt lat="47.27069" lon="-1.6448">
        <ele>36.7</ele>
        <time>2014-02-16T12:48:52Z</time>
      </trkpt>
      <trkpt lat="47.27066" lon="-1.64479">
        <ele>33</ele>
        <time>2014-02-16T12:54:39Z</time>
      </trkpt>
      <trkpt lat="47.27072" lon="-1.64489">
        <ele>27.1</ele>
        <time>2014-02-16T12:56:11Z</time>
      </trkpt>
      <trkpt lat="47.27046" lon="-1.64466">
        <ele>16.5</ele>
        <time>2014-02-16T12:58:31Z</time>
      </trkpt>
      <trkpt lat="47.27041" lon="-1.64454">
        <ele>16</ele>
        <time>2014-02-16T12:58:35Z</time>
      </trkpt>
      <trkpt lat="47.27037" lon="-1.64441">
        <ele>15.9</ele>
        <time>2014-02-16T12:58:39Z</time>
      </trkpt>
      <trkpt lat="47.27034" lon="-1.64423">
        <ele>16.5</ele>
        <time>2014-02-16T12:58:42Z</time>
      </trkpt>
      <trkpt lat="47.27034" lon="-1.64407">
        <ele>16.7</ele>
        <time>2014-02-16T12:58:45Z</time>
      </trkpt>
      <trkpt lat="47.27036" lon="-1.64393">
        <ele>17</ele>
        <time>2014-02-16T12:58:48Z</time>
      </trkpt>
      <trkpt lat="47.27037" lon="-1.6438">
        <ele>17.5</ele>
        <time>2014-02-16T12:58:52Z</time>
      </trkpt>
      <trkpt lat="47.27035" lon="-1.64366">
        <ele>18</ele>
        <time>2014-02-16T12:58:57Z</time>
      </trkpt>
      <trkpt lat="47.27034" lon="-1.64351">
        <ele>18.4</ele>
        <time>2014-02-16T12:59:02Z</time>
      </trkpt>
      <trkpt lat="47.27036" lon="-1.64338">
        <ele>18.5</ele>
        <time>2014-02-16T12:59:05Z</time>
      </trkpt>
      <trkpt lat="47.27032" lon="-1.64319">
        <ele>19.4</ele>
        <time>2014-02-16T12:59:08Z</time>
      </trkpt>
      <trkpt lat="47.27029" lon="-1.64303">
        <ele>20.1</ele>
        <time>2014-02-16T12:59:10Z</time>
      </trkpt>
      <trkpt lat="47.27024" lon="-1.64286">
        <ele>21.1</ele>
        <time>2014-02-16T12:59:13Z</time>
      </trkpt>
      <trkpt lat="47.27018" lon="-1.6427">
        <ele>22</ele>
        <time>2014-02-16T12:59:16Z</time>
      </trkpt>
      <trkpt lat="47.27015" lon="-1.64258">
        <ele>22.5</ele>
        <time>2014-02-16T12:59:18Z</time>
      </trkpt>
      <trkpt lat="47.27011" lon="-1.64244">
        <ele>23.3</ele>
        <time>2014-02-16T12:59:21Z</time>
      </trkpt>
      <trkpt lat="47.27006" lon="-1.64231">
        <ele>24.4</ele>
        <time>2014-02-16T12:59:26Z</time>
      </trkpt>
      <trkpt lat="47.26988" lon="-1.6421">
        <ele>24.7</ele>
        <time>2014-02-16T12:59:32Z</time>
      </trkpt>
      <trkpt lat="47.26982" lon="-1.64199">
        <ele>24.6</ele>
        <time>2014-02-16T12:59:33Z</time>
      </trkpt>
      <trkpt lat="47.26973" lon="-1.64181">
        <ele>24.2</ele>
        <time>2014-02-16T12:59:35Z</time>
      </trkpt>
      <trkpt lat="47.26967" lon="-1.64168">
        <ele>24.2</ele>
        <time>2014-02-16T12:59:37Z</time>
      </trkpt>
      <trkpt lat="47.26959" lon="-1.64155">
        <ele>24.1</ele>
        <time>2014-02-16T12:59:40Z</time>
      </trkpt>
      <trkpt lat="47.26953" lon="-1.64146">
        <ele>24.2</ele>
        <time>2014-02-16T12:59:43Z</time>
      </trkpt>
      <trkpt lat="47.26944" lon="-1.64134">
        <ele>25</ele>
        <time>2014-02-16T12:59:47Z</time>
      </trkpt>
      <trkpt lat="47.26936" lon="-1.64123">
        <ele>25.7</ele>
        <time>2014-02-16T12:59:52Z</time>
      </trkpt>
      <trkpt lat="47.26929" lon="-1.64107">
        <ele>25.9</ele>
        <time>2014-02-16T12:59:54Z</time>
      </trkpt>
      <trkpt lat="47.26925" lon="-1.64092">
        <ele>26.4</ele>
        <time>2014-02-16T12:59:57Z</time>
      </trkpt>
      <trkpt lat="47.26923" lon="-1.64079">
        <ele>26.7</ele>
        <time>2014-02-16T13:00:01Z</time>
      </trkpt>
      <trkpt lat="47.26918" lon="-1.64063">
        <ele>26.9</ele>
        <time>2014-02-16T13:00:06Z</time>
      </trkpt>
      <trkpt lat="47.26921" lon="-1.6405">
        <ele>27.2</ele>
        <time>2014-02-16T13:00:10Z</time>
      </trkpt>
      <trkpt lat="47.2692" lon="-1.64037">
        <ele>26.5</ele>
        <time>2014-02-16T13:00:23Z</time>
      </trkpt>
      <trkpt lat="47.26921" lon="-1.64024">
        <ele>30.6</ele>
        <time>2014-02-16T13:00:56Z</time>
      </trkpt>
      <trkpt lat="47.26927" lon="-1.64">
        <ele>31.1</ele>
        <time>2014-02-16T13:01:29Z</time>
      </trkpt>
      <trkpt lat="47.26922" lon="-1.63988">
        <ele>30.5</ele>
        <time>2014-02-16T13:01:36Z</time>
      </trkpt>
      <trkpt lat="47.26915" lon="-1.63979">
        <ele>30.2</ele>
        <time>2014-02-16T13:01:40Z</time>
      </trkpt>
      <trkpt lat="47.26909" lon="-1.63969">
        <ele>29.8</ele>
        <time>2014-02-16T13:01:48Z</time>
      </trkpt>
      <trkpt lat="47.26908" lon="-1.63955">
        <ele>29.1</ele>
        <time>2014-02-16T13:02:02Z</time>
      </trkpt>
      <trkpt lat="47.26905" lon="-1.63929">
        <ele>29.9</ele>
        <time>2014-02-16T13:02:30Z</time>
      </trkpt>
      <trkpt lat="47.26899" lon="-1.63917">
        <ele>29.7</ele>
        <time>2014-02-16T13:02:42Z</time>
      </trkpt>
      <trkpt lat="47.26893" lon="-1.63907">
        <ele>31.4</ele>
        <time>2014-02-16T13:02:54Z</time>
      </trkpt>
      <trkpt lat="47.26884" lon="-1.63903">
        <ele>33</ele>
        <time>2014-02-16T13:03:09Z</time>
      </trkpt>
      <trkpt lat="47.26866" lon="-1.63893">
        <ele>32.6</ele>
        <time>2014-02-16T13:03:23Z</time>
      </trkpt>
      <trkpt lat="47.26857" lon="-1.63893">
        <ele>32.4</ele>
        <time>2014-02-16T13:03:41Z</time>
      </trkpt>
      <trkpt lat="47.26848" lon="-1.63893">
        <ele>31.8</ele>
        <time>2014-02-16T13:03:50Z</time>
      </trkpt>
      <trkpt lat="47.26839" lon="-1.63889">
        <ele>31.8</ele>
        <time>2014-02-16T13:03:56Z</time>
      </trkpt>
      <trkpt lat="47.26832" lon="-1.63879">
        <ele>33.5</ele>
        <time>2014-02-16T13:04:12Z</time>
      </trkpt>
      <trkpt lat="47.26814" lon="-1.63882">
        <ele>30.3</ele>
        <time>2014-02-16T13:04:56Z</time>
      </trkpt>
      <trkpt lat="47.26807" lon="-1.63892">
        <ele>29.5</ele>
        <time>2014-02-16T13:05:01Z</time>
      </trkpt>
      <trkpt lat="47.26803" lon="-1.63904">
        <ele>28.7</ele>
        <time>2014-02-16T13:05:06Z</time>
      </trkpt>
      <trkpt lat="47.26794" lon="-1.63909">
        <ele>27.8</ele>
        <time>2014-02-16T13:05:11Z</time>
      </trkpt>
      <trkpt lat="47.26785" lon="-1.6392">
        <ele>26.5</ele>
        <time>2014-02-16T13:05:15Z</time>
      </trkpt>
      <trkpt lat="47.26769" lon="-1.63932">
        <ele>23.7</ele>
        <time>2014-02-16T13:05:22Z</time>
      </trkpt>
      <trkpt lat="47.26759" lon="-1.63932">
        <ele>22.5</ele>
        <time>2014-02-16T13:05:25Z</time>
      </trkpt>
      <trkpt lat="47.2675" lon="-1.63927">
        <ele>20.7</ele>
        <time>2014-02-16T13:05:30Z</time>
      </trkpt>
      <trkpt lat="47.26742" lon="-1.6392">
        <ele>18.6</ele>
        <time>2014-02-16T13:05:38Z</time>
      </trkpt>
      <trkpt lat="47.26735" lon="-1.63908">
        <ele>18</ele>
        <time>2014-02-16T13:05:44Z</time>
      </trkpt>
      <trkpt lat="47.26725" lon="-1.63902">
        <ele>17.6</ele>
        <time>2014-02-16T13:05:47Z</time>
      </trkpt>
      <trkpt lat="47.26723" lon="-1.63888">
        <ele>16.9</ele>
        <time>2014-02-16T13:05:52Z</time>
      </trkpt>
      <trkpt lat="47.26726" lon="-1.63873">
        <ele>15.5</ele>
        <time>2014-02-16T13:06:00Z</time>
      </trkpt>
      <trkpt lat="47.26728" lon="-1.63858">
        <ele>14.3</ele>
        <time>2014-02-16T13:06:05Z</time>
      </trkpt>
      <trkpt lat="47.2673" lon="-1.63845">
        <ele>14.1</ele>
        <time>2014-02-16T13:06:09Z</time>
      </trkpt>
      <trkpt lat="47.26731" lon="-1.63831">
        <ele>14.4</ele>
        <time>2014-02-16T13:06:13Z</time>
      </trkpt>
      <trkpt lat="47.2673" lon="-1.63816">
        <ele>14.9</ele>
        <time>2014-02-16T13:06:18Z</time>
      </trkpt>
      <trkpt lat="47.26734" lon="-1.63786">
        <ele>15</ele>
        <time>2014-02-16T13:06:25Z</time>
      </trkpt>
      <trkpt lat="47.26736" lon="-1.63771">
        <ele>15.3</ele>
        <time>2014-02-16T13:06:28Z</time>
      </trkpt>
      <trkpt lat="47.26738" lon="-1.63757">
        <ele>15.6</ele>
        <time>2014-02-16T13:06:31Z</time>
      </trkpt>
      <trkpt lat="47.26741" lon="-1.63743">
        <ele>15.7</ele>
        <time>2014-02-16T13:06:34Z</time>
      </trkpt>
      <trkpt lat="47.26745" lon="-1.6373">
        <ele>15.8</ele>
        <time>2014-02-16T13:06:37Z</time>
      </trkpt>
      <trkpt lat="47.2675" lon="-1.63717">
        <ele>15.7</ele>
        <time>2014-02-16T13:06:41Z</time>
      </trkpt>
      <trkpt lat="47.26757" lon="-1.63701">
        <ele>15.7</ele>
        <time>2014-02-16T13:06:44Z</time>
      </trkpt>
      <trkpt lat="47.26764" lon="-1.6369">
        <ele>15.7</ele>
        <time>2014-02-16T13:06:47Z</time>
      </trkpt>
      <trkpt lat="47.2677" lon="-1.63681">
        <ele>15.7</ele>
        <time>2014-02-16T13:06:50Z</time>
      </trkpt>
      <trkpt lat="47.26772" lon="-1.63667">
        <ele>15.7</ele>
        <time>2014-02-16T13:06:53Z</time>
      </trkpt>
      <trkpt lat="47.26771" lon="-1.63649">
        <ele>15.6</ele>
        <time>2014-02-16T13:06:57Z</time>
      </trkpt>
      <trkpt lat="47.26772" lon="-1.63633">
        <ele>15.7</ele>
        <time>2014-02-16T13:07:00Z</time>
      </trkpt>
      <trkpt lat="47.26777" lon="-1.63621">
        <ele>15.9</ele>
        <time>2014-02-16T13:07:03Z</time>
      </trkpt>
      <trkpt lat="47.26787" lon="-1.63612">
        <ele>16.3</ele>
        <time>2014-02-16T13:07:07Z</time>
      </trkpt>
      <trkpt lat="47.26798" lon="-1.63604">
        <ele>16.5</ele>
        <time>2014-02-16T13:07:10Z</time>
      </trkpt>
      <trkpt lat="47.26808" lon="-1.63597">
        <ele>16.5</ele>
        <time>2014-02-16T13:07:13Z</time>
      </trkpt>
      <trkpt lat="47.26816" lon="-1.63587">
        <ele>16.4</ele>
        <time>2014-02-16T13:07:17Z</time>
      </trkpt>
      <trkpt lat="47.26825" lon="-1.63575">
        <ele>16.2</ele>
        <time>2014-02-16T13:07:22Z</time>
      </trkpt>
      <trkpt lat="47.26835" lon="-1.63547">
        <ele>16</ele>
        <time>2014-02-16T13:07:28Z</time>
      </trkpt>
      <trkpt lat="47.26839" lon="-1.63533">
        <ele>16</ele>
        <time>2014-02-16T13:07:31Z</time>
      </trkpt>
      <trkpt lat="47.26845" lon="-1.63518">
        <ele>15.9</ele>
        <time>2014-02-16T13:07:35Z</time>
      </trkpt>
      <trkpt lat="47.26849" lon="-1.63505">
        <ele>15.9</ele>
        <time>2014-02-16T13:07:38Z</time>
      </trkpt>
      <trkpt lat="47.26853" lon="-1.63492">
        <ele>16</ele>
        <time>2014-02-16T13:07:41Z</time>
      </trkpt>
      <trkpt lat="47.26859" lon="-1.63478">
        <ele>16.4</ele>
        <time>2014-02-16T13:07:45Z</time>
      </trkpt>
      <trkpt lat="47.26865" lon="-1.63462">
        <ele>16.9</ele>
        <time>2014-02-16T13:07:48Z</time>
      </trkpt>
      <trkpt lat="47.26869" lon="-1.63449">
        <ele>17.3</ele>
        <time>2014-02-16T13:07:51Z</time>
      </trkpt>
      <trkpt lat="47.26874" lon="-1.63436">
        <ele>17.7</ele>
        <time>2014-02-16T13:07:54Z</time>
      </trkpt>
      <trkpt lat="47.26877" lon="-1.63424">
        <ele>18</ele>
        <time>2014-02-16T13:07:57Z</time>
      </trkpt>
      <trkpt lat="47.26879" lon="-1.6341">
        <ele>18.2</ele>
        <time>2014-02-16T13:08:00Z</time>
      </trkpt>
      <trkpt lat="47.26879" lon="-1.63397">
        <ele>18.6</ele>
        <time>2014-02-16T13:08:03Z</time>
      </trkpt>
      <trkpt lat="47.26879" lon="-1.63377">
        <ele>18.4</ele>
        <time>2014-02-16T13:08:06Z</time>
      </trkpt>
      <trkpt lat="47.26881" lon="-1.63364">
        <ele>18</ele>
        <time>2014-02-16T13:08:08Z</time>
      </trkpt>
      <trkpt lat="47.2689" lon="-1.63355">
        <ele>17.7</ele>
        <time>2014-02-16T13:08:13Z</time>
      </trkpt>
      <trkpt lat="47.26893" lon="-1.63341">
        <ele>17.3</ele>
        <time>2014-02-16T13:08:18Z</time>
      </trkpt>
      <trkpt lat="47.26895" lon="-1.63327">
        <ele>17</ele>
        <time>2014-02-16T13:08:22Z</time>
      </trkpt>
      <trkpt lat="47.26899" lon="-1.63312">
        <ele>16.7</ele>
        <time>2014-02-16T13:08:25Z</time>
      </trkpt>
      <trkpt lat="47.26905" lon="-1.63284">
        <ele>16.9</ele>
        <time>2014-02-16T13:08:31Z</time>
      </trkpt>
      <trkpt lat="47.26907" lon="-1.63269">
        <ele>17.8</ele>
        <time>2014-02-16T13:08:37Z</time>
      </trkpt>
      <trkpt lat="47.2691" lon="-1.63253">
        <ele>17.7</ele>
        <time>2014-02-16T13:08:41Z</time>
      </trkpt>
      <trkpt lat="47.26912" lon="-1.63239">
        <ele>17.4</ele>
        <time>2014-02-16T13:08:44Z</time>
      </trkpt>
      <trkpt lat="47.26913" lon="-1.63226">
        <ele>17.6</ele>
        <time>2014-02-16T13:08:47Z</time>
      </trkpt>
      <trkpt lat="47.26914" lon="-1.63211">
        <ele>17.5</ele>
        <time>2014-02-16T13:08:50Z</time>
      </trkpt>
      <trkpt lat="47.26911" lon="-1.63192">
        <ele>17.3</ele>
        <time>2014-02-16T13:08:53Z</time>
      </trkpt>
      <trkpt lat="47.26907" lon="-1.63179">
        <ele>17.5</ele>
        <time>2014-02-16T13:08:54Z</time>
      </trkpt>
      <trkpt lat="47.26899" lon="-1.6316">
        <ele>18.6</ele>
        <time>2014-02-16T13:08:56Z</time>
      </trkpt>
      <trkpt lat="47.26894" lon="-1.63145">
        <ele>20.6</ele>
        <time>2014-02-16T13:08:58Z</time>
      </trkpt>
      <trkpt lat="47.2689" lon="-1.63132">
        <ele>21</ele>
        <time>2014-02-16T13:09:00Z</time>
      </trkpt>
      <trkpt lat="47.26887" lon="-1.63119">
        <ele>21</ele>
        <time>2014-02-16T13:09:02Z</time>
      </trkpt>
      <trkpt lat="47.26882" lon="-1.63102">
        <ele>21</ele>
        <time>2014-02-16T13:09:05Z</time>
      </trkpt>
      <trkpt lat="47.26876" lon="-1.63086">
        <ele>21</ele>
        <time>2014-02-16T13:09:08Z</time>
      </trkpt>
      <trkpt lat="47.26868" lon="-1.63075">
        <ele>21</ele>
        <time>2014-02-16T13:09:11Z</time>
      </trkpt>
      <trkpt lat="47.26857" lon="-1.63061">
        <ele>21</ele>
        <time>2014-02-16T13:09:14Z</time>
      </trkpt>
      <trkpt lat="47.26847" lon="-1.63049">
        <ele>19.9</ele>
        <time>2014-02-16T13:09:17Z</time>
      </trkpt>
      <trkpt lat="47.26839" lon="-1.63043">
        <ele>19</ele>
        <time>2014-02-16T13:09:19Z</time>
      </trkpt>
      <trkpt lat="47.26826" lon="-1.63036">
        <ele>18.5</ele>
        <time>2014-02-16T13:09:22Z</time>
      </trkpt>
      <trkpt lat="47.26817" lon="-1.63032">
        <ele>16.2</ele>
        <time>2014-02-16T13:09:24Z</time>
      </trkpt>
      <trkpt lat="47.26806" lon="-1.63031">
        <ele>17.2</ele>
        <time>2014-02-16T13:09:27Z</time>
      </trkpt>
      <trkpt lat="47.26784" lon="-1.63024">
        <ele>13.9</ele>
        <time>2014-02-16T13:09:32Z</time>
      </trkpt>
      <trkpt lat="47.26773" lon="-1.63017">
        <ele>13.1</ele>
        <time>2014-02-16T13:09:35Z</time>
      </trkpt>
      <trkpt lat="47.26767" lon="-1.63003">
        <ele>12</ele>
        <time>2014-02-16T13:09:38Z</time>
      </trkpt>
      <trkpt lat="47.26763" lon="-1.62991">
        <ele>11.6</ele>
        <time>2014-02-16T13:09:40Z</time>
      </trkpt>
      <trkpt lat="47.26761" lon="-1.62972">
        <ele>11.4</ele>
        <time>2014-02-16T13:09:43Z</time>
      </trkpt>
      <trkpt lat="47.26766" lon="-1.62954">
        <ele>12.1</ele>
        <time>2014-02-16T13:09:46Z</time>
      </trkpt>
      <trkpt lat="47.2677" lon="-1.62941">
        <ele>13.7</ele>
        <time>2014-02-16T13:09:48Z</time>
      </trkpt>
      <trkpt lat="47.26773" lon="-1.62928">
        <ele>13.6</ele>
        <time>2014-02-16T13:09:50Z</time>
      </trkpt>
      <trkpt lat="47.26777" lon="-1.62914">
        <ele>12.2</ele>
        <time>2014-02-16T13:09:52Z</time>
      </trkpt>
      <trkpt lat="47.26781" lon="-1.62902">
        <ele>11</ele>
        <time>2014-02-16T13:09:54Z</time>
      </trkpt>
      <trkpt lat="47.26786" lon="-1.62883">
        <ele>9.8</ele>
        <time>2014-02-16T13:09:57Z</time>
      </trkpt>
      <trkpt lat="47.26788" lon="-1.62869">
        <ele>8.6</ele>
        <time>2014-02-16T13:09:59Z</time>
      </trkpt>
      <trkpt lat="47.26786" lon="-1.6285">
        <ele>9.5</ele>
        <time>2014-02-16T13:10:02Z</time>
      </trkpt>
      <trkpt lat="47.26784" lon="-1.62837">
        <ele>9.3</ele>
        <time>2014-02-16T13:10:04Z</time>
      </trkpt>
      <trkpt lat="47.26781" lon="-1.62823">
        <ele>8.8</ele>
        <time>2014-02-16T13:10:06Z</time>
      </trkpt>
      <trkpt lat="47.26779" lon="-1.62809">
        <ele>9.5</ele>
        <time>2014-02-16T13:10:08Z</time>
      </trkpt>
      <trkpt lat="47.2678" lon="-1.62792">
        <ele>9.8</ele>
        <time>2014-02-16T13:10:11Z</time>
      </trkpt>
      <trkpt lat="47.2678" lon="-1.62774">
        <ele>10.1</ele>
        <time>2014-02-16T13:10:14Z</time>
      </trkpt>
      <trkpt lat="47.2678" lon="-1.62759">
        <ele>10.1</ele>
        <time>2014-02-16T13:10:16Z</time>
      </trkpt>
      <trkpt lat="47.2678" lon="-1.62743">
        <ele>10.2</ele>
        <time>2014-02-16T13:10:18Z</time>
      </trkpt>
      <trkpt lat="47.26779" lon="-1.62727">
        <ele>9.8</ele>
        <time>2014-02-16T13:10:20Z</time>
      </trkpt>
      <trkpt lat="47.26778" lon="-1.62712">
        <ele>9.6</ele>
        <time>2014-02-16T13:10:22Z</time>
      </trkpt>
      <trkpt lat="47.26777" lon="-1.62695">
        <ele>9.2</ele>
        <time>2014-02-16T13:10:24Z</time>
      </trkpt>
      <trkpt lat="47.26777" lon="-1.62681">
        <ele>8.8</ele>
        <time>2014-02-16T13:10:26Z</time>
      </trkpt>
      <trkpt lat="47.26776" lon="-1.62664">
        <ele>9.1</ele>
        <time>2014-02-16T13:10:28Z</time>
      </trkpt>
      <trkpt lat="47.26777" lon="-1.62635">
        <ele>10.4</ele>
        <time>2014-02-16T13:10:32Z</time>
      </trkpt>
      <trkpt lat="47.26778" lon="-1.62617">
        <ele>9.8</ele>
        <time>2014-02-16T13:10:34Z</time>
      </trkpt>
      <trkpt lat="47.26779" lon="-1.62602">
        <ele>9.7</ele>
        <time>2014-02-16T13:10:36Z</time>
      </trkpt>
      <trkpt lat="47.26778" lon="-1.62586">
        <ele>9.5</ele>
        <time>2014-02-16T13:10:38Z</time>
      </trkpt>
      <trkpt lat="47.26778" lon="-1.6257">
        <ele>9.1</ele>
        <time>2014-02-16T13:10:40Z</time>
      </trkpt>
      <trkpt lat="47.2678" lon="-1.62551">
        <ele>7.8</ele>
        <time>2014-02-16T13:10:42Z</time>
      </trkpt>
      <trkpt lat="47.26781" lon="-1.62536">
        <ele>7.2</ele>
        <time>2014-02-16T13:10:44Z</time>
      </trkpt>
      <trkpt lat="47.2678" lon="-1.62518">
        <ele>6.7</ele>
        <time>2014-02-16T13:10:47Z</time>
      </trkpt>
      <trkpt lat="47.26779" lon="-1.62504">
        <ele>7.4</ele>
        <time>2014-02-16T13:10:49Z</time>
      </trkpt>
      <trkpt lat="47.26779" lon="-1.62489">
        <ele>8.7</ele>
        <time>2014-02-16T13:10:51Z</time>
      </trkpt>
      <trkpt lat="47.26782" lon="-1.62475">
        <ele>10.3</ele>
        <time>2014-02-16T13:10:53Z</time>
      </trkpt>
      <trkpt lat="47.26784" lon="-1.62462">
        <ele>10.5</ele>
        <time>2014-02-16T13:10:55Z</time>
      </trkpt>
      <trkpt lat="47.26786" lon="-1.62444">
        <ele>10.9</ele>
        <time>2014-02-16T13:10:58Z</time>
      </trkpt>
      <trkpt lat="47.26787" lon="-1.6243">
        <ele>10.7</ele>
        <time>2014-02-16T13:11:00Z</time>
      </trkpt>
      <trkpt lat="47.26789" lon="-1.62415">
        <ele>10.6</ele>
        <time>2014-02-16T13:11:03Z</time>
      </trkpt>
      <trkpt lat="47.26792" lon="-1.62397">
        <ele>10.6</ele>
        <time>2014-02-16T13:11:06Z</time>
      </trkpt>
      <trkpt lat="47.26795" lon="-1.62381">
        <ele>10.5</ele>
        <time>2014-02-16T13:11:09Z</time>
      </trkpt>
      <trkpt lat="47.26791" lon="-1.62368">
        <ele>10.4</ele>
        <time>2014-02-16T13:11:13Z</time>
      </trkpt>
      <trkpt lat="47.26785" lon="-1.62359">
        <ele>10.3</ele>
        <time>2014-02-16T13:11:15Z</time>
      </trkpt>
      <trkpt lat="47.26779" lon="-1.62347">
        <ele>10.4</ele>
        <time>2014-02-16T13:11:17Z</time>
      </trkpt>
      <trkpt lat="47.26773" lon="-1.62334">
        <ele>12.5</ele>
        <time>2014-02-16T13:11:19Z</time>
      </trkpt>
      <trkpt lat="47.26766" lon="-1.62322">
        <ele>13.7</ele>
        <time>2014-02-16T13:11:22Z</time>
      </trkpt>
      <trkpt lat="47.26761" lon="-1.6231">
        <ele>14.2</ele>
        <time>2014-02-16T13:11:27Z</time>
      </trkpt>
      <trkpt lat="47.26762" lon="-1.62295">
        <ele>14.4</ele>
        <time>2014-02-16T13:11:31Z</time>
      </trkpt>
      <trkpt lat="47.26774" lon="-1.62271">
        <ele>14.4</ele>
        <time>2014-02-16T13:11:38Z</time>
      </trkpt>
      <trkpt lat="47.26767" lon="-1.6226">
        <ele>13.8</ele>
        <time>2014-02-16T13:11:47Z</time>
      </trkpt>
      <trkpt lat="47.26762" lon="-1.62246">
        <ele>13.8</ele>
        <time>2014-02-16T13:11:51Z</time>
      </trkpt>
      <trkpt lat="47.26759" lon="-1.62228">
        <ele>14.1</ele>
        <time>2014-02-16T13:11:54Z</time>
      </trkpt>
      <trkpt lat="47.26758" lon="-1.62215">
        <ele>14.1</ele>
        <time>2014-02-16T13:11:56Z</time>
      </trkpt>
      <trkpt lat="47.26757" lon="-1.62198">
        <ele>14.1</ele>
        <time>2014-02-16T13:11:59Z</time>
      </trkpt>
      <trkpt lat="47.26759" lon="-1.62184">
        <ele>14</ele>
        <time>2014-02-16T13:12:02Z</time>
      </trkpt>
      <trkpt lat="47.26759" lon="-1.62169">
        <ele>13.9</ele>
        <time>2014-02-16T13:12:04Z</time>
      </trkpt>
      <trkpt lat="47.26757" lon="-1.62146">
        <ele>13.8</ele>
        <time>2014-02-16T13:12:07Z</time>
      </trkpt>
      <trkpt lat="47.26754" lon="-1.62129">
        <ele>13.7</ele>
        <time>2014-02-16T13:12:09Z</time>
      </trkpt>
      <trkpt lat="47.26752" lon="-1.62112">
        <ele>13.6</ele>
        <time>2014-02-16T13:12:12Z</time>
      </trkpt>
      <trkpt lat="47.2675" lon="-1.62097">
        <ele>13.2</ele>
        <time>2014-02-16T13:12:14Z</time>
      </trkpt>
      <trkpt lat="47.26748" lon="-1.62077">
        <ele>12.9</ele>
        <time>2014-02-16T13:12:17Z</time>
      </trkpt>
      <trkpt lat="47.26746" lon="-1.62062">
        <ele>13.3</ele>
        <time>2014-02-16T13:12:22Z</time>
      </trkpt>
      <trkpt lat="47.26743" lon="-1.62049">
        <ele>13.5</ele>
        <time>2014-02-16T13:12:25Z</time>
      </trkpt>
      <trkpt lat="47.26742" lon="-1.62033">
        <ele>13.7</ele>
        <time>2014-02-16T13:12:28Z</time>
      </trkpt>
      <trkpt lat="47.26744" lon="-1.62016">
        <ele>15.2</ele>
        <time>2014-02-16T13:12:31Z</time>
      </trkpt>
      <trkpt lat="47.26745" lon="-1.61998">
        <ele>16.1</ele>
        <time>2014-02-16T13:12:34Z</time>
      </trkpt>
      <trkpt lat="47.26745" lon="-1.61965">
        <ele>17.2</ele>
        <time>2014-02-16T13:12:39Z</time>
      </trkpt>
      <trkpt lat="47.26747" lon="-1.61949">
        <ele>17.7</ele>
        <time>2014-02-16T13:12:41Z</time>
      </trkpt>
      <trkpt lat="47.26747" lon="-1.61935">
        <ele>17.7</ele>
        <time>2014-02-16T13:12:43Z</time>
      </trkpt>
      <trkpt lat="47.26749" lon="-1.61921">
        <ele>17.6</ele>
        <time>2014-02-16T13:12:45Z</time>
      </trkpt>
      <trkpt lat="47.26751" lon="-1.61904">
        <ele>17.3</ele>
        <time>2014-02-16T13:12:48Z</time>
      </trkpt>
      <trkpt lat="47.26754" lon="-1.61888">
        <ele>15.1</ele>
        <time>2014-02-16T13:12:51Z</time>
      </trkpt>
      <trkpt lat="47.26758" lon="-1.6187">
        <ele>13.9</ele>
        <time>2014-02-16T13:12:54Z</time>
      </trkpt>
      <trkpt lat="47.26757" lon="-1.61851">
        <ele>11.3</ele>
        <time>2014-02-16T13:12:57Z</time>
      </trkpt>
      <trkpt lat="47.2675" lon="-1.61836">
        <ele>10.9</ele>
        <time>2014-02-16T13:13:00Z</time>
      </trkpt>
      <trkpt lat="47.26741" lon="-1.61825">
        <ele>12.2</ele>
        <time>2014-02-16T13:13:03Z</time>
      </trkpt>
      <trkpt lat="47.26732" lon="-1.61818">
        <ele>13</ele>
        <time>2014-02-16T13:13:05Z</time>
      </trkpt>
      <trkpt lat="47.26722" lon="-1.61809">
        <ele>13.4</ele>
        <time>2014-02-16T13:13:07Z</time>
      </trkpt>
      <trkpt lat="47.26714" lon="-1.61803">
        <ele>14.1</ele>
        <time>2014-02-16T13:13:09Z</time>
      </trkpt>
      <trkpt lat="47.26704" lon="-1.61798">
        <ele>15.5</ele>
        <time>2014-02-16T13:13:11Z</time>
      </trkpt>
      <trkpt lat="47.26692" lon="-1.61793">
        <ele>17.8</ele>
        <time>2014-02-16T13:13:13Z</time>
      </trkpt>
      <trkpt lat="47.2668" lon="-1.61787">
        <ele>20.4</ele>
        <time>2014-02-16T13:13:15Z</time>
      </trkpt>
      <trkpt lat="47.26667" lon="-1.6178">
        <ele>21.3</ele>
        <time>2014-02-16T13:13:17Z</time>
      </trkpt>
      <trkpt lat="47.26654" lon="-1.61773">
        <ele>21.4</ele>
        <time>2014-02-16T13:13:19Z</time>
      </trkpt>
      <trkpt lat="47.26642" lon="-1.61767">
        <ele>21.4</ele>
        <time>2014-02-16T13:13:21Z</time>
      </trkpt>
      <trkpt lat="47.26631" lon="-1.61761">
        <ele>21.5</ele>
        <time>2014-02-16T13:13:23Z</time>
      </trkpt>
      <trkpt lat="47.26621" lon="-1.61755">
        <ele>21.6</ele>
        <time>2014-02-16T13:13:25Z</time>
      </trkpt>
      <trkpt lat="47.26612" lon="-1.61747">
        <ele>22.2</ele>
        <time>2014-02-16T13:13:27Z</time>
      </trkpt>
      <trkpt lat="47.26603" lon="-1.61738">
        <ele>23.3</ele>
        <time>2014-02-16T13:13:29Z</time>
      </trkpt>
      <trkpt lat="47.26592" lon="-1.61726">
        <ele>23.2</ele>
        <time>2014-02-16T13:13:31Z</time>
      </trkpt>
      <trkpt lat="47.26585" lon="-1.61713">
        <ele>23.2</ele>
        <time>2014-02-16T13:13:33Z</time>
      </trkpt>
      <trkpt lat="47.26579" lon="-1.61701">
        <ele>23.8</ele>
        <time>2014-02-16T13:13:35Z</time>
      </trkpt>
      <trkpt lat="47.26568" lon="-1.61677">
        <ele>24</ele>
        <time>2014-02-16T13:13:39Z</time>
      </trkpt>
      <trkpt lat="47.26562" lon="-1.61665">
        <ele>23.5</ele>
        <time>2014-02-16T13:13:41Z</time>
      </trkpt>
      <trkpt lat="47.26556" lon="-1.61655">
        <ele>22.7</ele>
        <time>2014-02-16T13:13:43Z</time>
      </trkpt>
      <trkpt lat="47.26551" lon="-1.61643">
        <ele>21.8</ele>
        <time>2014-02-16T13:13:45Z</time>
      </trkpt>
      <trkpt lat="47.26545" lon="-1.6163">
        <ele>21</ele>
        <time>2014-02-16T13:13:47Z</time>
      </trkpt>
      <trkpt lat="47.26538" lon="-1.61618">
        <ele>20.4</ele>
        <time>2014-02-16T13:13:49Z</time>
      </trkpt>
      <trkpt lat="47.26528" lon="-1.61608">
        <ele>20.4</ele>
        <time>2014-02-16T13:13:52Z</time>
      </trkpt>
      <trkpt lat="47.26518" lon="-1.61603">
        <ele>20.5</ele>
        <time>2014-02-16T13:13:54Z</time>
      </trkpt>
      <trkpt lat="47.26508" lon="-1.61598">
        <ele>21.4</ele>
        <time>2014-02-16T13:13:56Z</time>
      </trkpt>
      <trkpt lat="47.26498" lon="-1.61594">
        <ele>22.3</ele>
        <time>2014-02-16T13:13:58Z</time>
      </trkpt>
      <trkpt lat="47.26489" lon="-1.61589">
        <ele>22.6</ele>
        <time>2014-02-16T13:14:00Z</time>
      </trkpt>
      <trkpt lat="47.26478" lon="-1.61583">
        <ele>23</ele>
        <time>2014-02-16T13:14:02Z</time>
      </trkpt>
      <trkpt lat="47.26469" lon="-1.61579">
        <ele>23</ele>
        <time>2014-02-16T13:14:04Z</time>
      </trkpt>
      <trkpt lat="47.26456" lon="-1.61574">
        <ele>22.7</ele>
        <time>2014-02-16T13:14:07Z</time>
      </trkpt>
      <trkpt lat="47.26446" lon="-1.61563">
        <ele>22.6</ele>
        <time>2014-02-16T13:14:10Z</time>
      </trkpt>
      <trkpt lat="47.26437" lon="-1.61546">
        <ele>20.5</ele>
        <time>2014-02-16T13:14:12Z</time>
      </trkpt>
      <trkpt lat="47.26426" lon="-1.61527">
        <ele>19.2</ele>
        <time>2014-02-16T13:14:14Z</time>
      </trkpt>
      <trkpt lat="47.26416" lon="-1.61513">
        <ele>18.5</ele>
        <time>2014-02-16T13:14:16Z</time>
      </trkpt>
      <trkpt lat="47.26408" lon="-1.61505">
        <ele>18.7</ele>
        <time>2014-02-16T13:14:18Z</time>
      </trkpt>
      <trkpt lat="47.26399" lon="-1.61498">
        <ele>18.7</ele>
        <time>2014-02-16T13:14:20Z</time>
      </trkpt>
      <trkpt lat="47.26391" lon="-1.61491">
        <ele>19.3</ele>
        <time>2014-02-16T13:14:22Z</time>
      </trkpt>
      <trkpt lat="47.26383" lon="-1.61479">
        <ele>19.9</ele>
        <time>2014-02-16T13:14:24Z</time>
      </trkpt>
      <trkpt lat="47.26377" lon="-1.61467">
        <ele>20.1</ele>
        <time>2014-02-16T13:14:26Z</time>
      </trkpt>
      <trkpt lat="47.2637" lon="-1.61451">
        <ele>19.3</ele>
        <time>2014-02-16T13:14:28Z</time>
      </trkpt>
      <trkpt lat="47.26365" lon="-1.61438">
        <ele>17.1</ele>
        <time>2014-02-16T13:14:30Z</time>
      </trkpt>
      <trkpt lat="47.26362" lon="-1.61425">
        <ele>16.3</ele>
        <time>2014-02-16T13:14:32Z</time>
      </trkpt>
      <trkpt lat="47.26364" lon="-1.61408">
        <ele>16.1</ele>
        <time>2014-02-16T13:14:35Z</time>
      </trkpt>
      <trkpt lat="47.26366" lon="-1.61395">
        <ele>15.1</ele>
        <time>2014-02-16T13:14:37Z</time>
      </trkpt>
      <trkpt lat="47.26372" lon="-1.61362">
        <ele>13.8</ele>
        <time>2014-02-16T13:14:42Z</time>
      </trkpt>
      <trkpt lat="47.26374" lon="-1.61345">
        <ele>12.5</ele>
        <time>2014-02-16T13:14:45Z</time>
      </trkpt>
      <trkpt lat="47.26376" lon="-1.61328">
        <ele>11.4</ele>
        <time>2014-02-16T13:14:48Z</time>
      </trkpt>
      <trkpt lat="47.2638" lon="-1.61308">
        <ele>10</ele>
        <time>2014-02-16T13:14:51Z</time>
      </trkpt>
      <trkpt lat="47.26383" lon="-1.61291">
        <ele>10.4</ele>
        <time>2014-02-16T13:14:54Z</time>
      </trkpt>
      <trkpt lat="47.26386" lon="-1.61275">
        <ele>10.3</ele>
        <time>2014-02-16T13:14:57Z</time>
      </trkpt>
      <trkpt lat="47.26391" lon="-1.61259">
        <ele>10.2</ele>
        <time>2014-02-16T13:15:00Z</time>
      </trkpt>
      <trkpt lat="47.26396" lon="-1.61248">
        <ele>10</ele>
        <time>2014-02-16T13:15:02Z</time>
      </trkpt>
      <trkpt lat="47.26404" lon="-1.61236">
        <ele>9.7</ele>
        <time>2014-02-16T13:15:05Z</time>
      </trkpt>
      <trkpt lat="47.26415" lon="-1.61226">
        <ele>9.7</ele>
        <time>2014-02-16T13:15:08Z</time>
      </trkpt>
      <trkpt lat="47.26424" lon="-1.6122">
        <ele>9.6</ele>
        <time>2014-02-16T13:15:11Z</time>
      </trkpt>
      <trkpt lat="47.26434" lon="-1.61212">
        <ele>9.3</ele>
        <time>2014-02-16T13:15:14Z</time>
      </trkpt>
      <trkpt lat="47.26443" lon="-1.61198">
        <ele>6.4</ele>
        <time>2014-02-16T13:15:17Z</time>
      </trkpt>
      <trkpt lat="47.26449" lon="-1.61187">
        <ele>4.5</ele>
        <time>2014-02-16T13:15:19Z</time>
      </trkpt>
      <trkpt lat="47.26453" lon="-1.61175">
        <ele>4.2</ele>
        <time>2014-02-16T13:15:21Z</time>
      </trkpt>
      <trkpt lat="47.26457" lon="-1.6116">
        <ele>4.1</ele>
        <time>2014-02-16T13:15:23Z</time>
      </trkpt>
      <trkpt lat="47.26464" lon="-1.61146">
        <ele>4</ele>
        <time>2014-02-16T13:15:26Z</time>
      </trkpt>
      <trkpt lat="47.2647" lon="-1.61129">
        <ele>4.9</ele>
        <time>2014-02-16T13:15:29Z</time>
      </trkpt>
      <trkpt lat="47.26476" lon="-1.61113">
        <ele>6</ele>
        <time>2014-02-16T13:15:32Z</time>
      </trkpt>
      <trkpt lat="47.26477" lon="-1.611">
        <ele>6.9</ele>
        <time>2014-02-16T13:15:34Z</time>
      </trkpt>
      <trkpt lat="47.26477" lon="-1.6108">
        <ele>8.5</ele>
        <time>2014-02-16T13:15:37Z</time>
      </trkpt>
      <trkpt lat="47.26477" lon="-1.61065">
        <ele>8.7</ele>
        <time>2014-02-16T13:15:39Z</time>
      </trkpt>
      <trkpt lat="47.26477" lon="-1.61035">
        <ele>7.4</ele>
        <time>2014-02-16T13:15:43Z</time>
      </trkpt>
      <trkpt lat="47.26476" lon="-1.6102">
        <ele>6.7</ele>
        <time>2014-02-16T13:15:45Z</time>
      </trkpt>
      <trkpt lat="47.26475" lon="-1.61006">
        <ele>6.2</ele>
        <time>2014-02-16T13:15:47Z</time>
      </trkpt>
      <trkpt lat="47.26471" lon="-1.60988">
        <ele>6.4</ele>
        <time>2014-02-16T13:15:50Z</time>
      </trkpt>
      <trkpt lat="47.26468" lon="-1.60975">
        <ele>5.9</ele>
        <time>2014-02-16T13:15:52Z</time>
      </trkpt>
      <trkpt lat="47.26463" lon="-1.60962">
        <ele>4.5</ele>
        <time>2014-02-16T13:15:54Z</time>
      </trkpt>
      <trkpt lat="47.26456" lon="-1.60949">
        <ele>2</ele>
        <time>2014-02-16T13:15:56Z</time>
      </trkpt>
      <trkpt lat="47.2645" lon="-1.60938">
        <ele>0.9</ele>
        <time>2014-02-16T13:15:58Z</time>
      </trkpt>
      <trkpt lat="47.26444" lon="-1.60928">
        <ele>0.7</ele>
        <time>2014-02-16T13:16:00Z</time>
      </trkpt>
      <trkpt lat="47.26437" lon="-1.60918">
        <ele>2.1</ele>
        <time>2014-02-16T13:16:02Z</time>
      </trkpt>
      <trkpt lat="47.26431" lon="-1.60908">
        <ele>3.3</ele>
        <time>2014-02-16T13:16:04Z</time>
      </trkpt>
      <trkpt lat="47.26424" lon="-1.60897">
        <ele>5.2</ele>
        <time>2014-02-16T13:16:06Z</time>
      </trkpt>
      <trkpt lat="47.26415" lon="-1.60884">
        <ele>6.4</ele>
        <time>2014-02-16T13:16:09Z</time>
      </trkpt>
      <trkpt lat="47.26408" lon="-1.60874">
        <ele>6.6</ele>
        <time>2014-02-16T13:16:11Z</time>
      </trkpt>
      <trkpt lat="47.26402" lon="-1.60861">
        <ele>7.6</ele>
        <time>2014-02-16T13:16:13Z</time>
      </trkpt>
      <trkpt lat="47.26398" lon="-1.60848">
        <ele>7.9</ele>
        <time>2014-02-16T13:16:15Z</time>
      </trkpt>
      <trkpt lat="47.26394" lon="-1.60835">
        <ele>8.7</ele>
        <time>2014-02-16T13:16:17Z</time>
      </trkpt>
      <trkpt lat="47.2639" lon="-1.60819">
        <ele>8.7</ele>
        <time>2014-02-16T13:16:19Z</time>
      </trkpt>
      <trkpt lat="47.26384" lon="-1.60807">
        <ele>7.9</ele>
        <time>2014-02-16T13:16:21Z</time>
      </trkpt>
      <trkpt lat="47.26374" lon="-1.60808">
        <ele>7.5</ele>
        <time>2014-02-16T13:16:24Z</time>
      </trkpt>
      <trkpt lat="47.26366" lon="-1.60814">
        <ele>6.2</ele>
        <time>2014-02-16T13:16:26Z</time>
      </trkpt>
      <trkpt lat="47.26356" lon="-1.60822">
        <ele>4.8</ele>
        <time>2014-02-16T13:16:28Z</time>
      </trkpt>
      <trkpt lat="47.26348" lon="-1.60831">
        <ele>4.4</ele>
        <time>2014-02-16T13:16:30Z</time>
      </trkpt>
      <trkpt lat="47.26341" lon="-1.60843">
        <ele>4.6</ele>
        <time>2014-02-16T13:16:33Z</time>
      </trkpt>
      <trkpt lat="47.26332" lon="-1.60855">
        <ele>4.6</ele>
        <time>2014-02-16T13:16:36Z</time>
      </trkpt>
      <trkpt lat="47.26329" lon="-1.6084">
        <ele>5.2</ele>
        <time>2014-02-16T13:16:45Z</time>
      </trkpt>
      <trkpt lat="47.2634" lon="-1.60809">
        <ele>6.6</ele>
        <time>2014-02-16T13:16:50Z</time>
      </trkpt>
      <trkpt lat="47.26344" lon="-1.60794">
        <ele>9.7</ele>
        <time>2014-02-16T13:16:52Z</time>
      </trkpt>
      <trkpt lat="47.26349" lon="-1.60781">
        <ele>11.5</ele>
        <time>2014-02-16T13:16:54Z</time>
      </trkpt>
      <trkpt lat="47.26354" lon="-1.60768">
        <ele>11.6</ele>
        <time>2014-02-16T13:16:56Z</time>
      </trkpt>
      <trkpt lat="47.26357" lon="-1.60752">
        <ele>10.8</ele>
        <time>2014-02-16T13:16:58Z</time>
      </trkpt>
      <trkpt lat="47.2636" lon="-1.60735">
        <ele>9.8</ele>
        <time>2014-02-16T13:17:00Z</time>
      </trkpt>
      <trkpt lat="47.26363" lon="-1.60718">
        <ele>10.2</ele>
        <time>2014-02-16T13:17:02Z</time>
      </trkpt>
      <trkpt lat="47.26369" lon="-1.60703">
        <ele>10.4</ele>
        <time>2014-02-16T13:17:05Z</time>
      </trkpt>
      <trkpt lat="47.26371" lon="-1.60687">
        <ele>10</ele>
        <time>2014-02-16T13:17:09Z</time>
      </trkpt>
      <trkpt lat="47.26366" lon="-1.60674">
        <ele>9.5</ele>
        <time>2014-02-16T13:17:13Z</time>
      </trkpt>
      <trkpt lat="47.2636" lon="-1.60665">
        <ele>9.2</ele>
        <time>2014-02-16T13:17:17Z</time>
      </trkpt>
      <trkpt lat="47.26352" lon="-1.60657">
        <ele>9</ele>
        <time>2014-02-16T13:17:20Z</time>
      </trkpt>
      <trkpt lat="47.26341" lon="-1.60647">
        <ele>8.6</ele>
        <time>2014-02-16T13:17:23Z</time>
      </trkpt>
      <trkpt lat="47.26331" lon="-1.60636">
        <ele>8.3</ele>
        <time>2014-02-16T13:17:25Z</time>
      </trkpt>
      <trkpt lat="47.26324" lon="-1.60621">
        <ele>7.8</ele>
        <time>2014-02-16T13:17:28Z</time>
      </trkpt>
      <trkpt lat="47.2632" lon="-1.60608">
        <ele>7.5</ele>
        <time>2014-02-16T13:17:30Z</time>
      </trkpt>
      <trkpt lat="47.26318" lon="-1.6059">
        <ele>7.2</ele>
        <time>2014-02-16T13:17:33Z</time>
      </trkpt>
      <trkpt lat="47.26317" lon="-1.60573">
        <ele>7</ele>
        <time>2014-02-16T13:17:36Z</time>
      </trkpt>
      <trkpt lat="47.26317" lon="-1.60555">
        <ele>6.7</ele>
        <time>2014-02-16T13:17:39Z</time>
      </trkpt>
      <trkpt lat="47.26319" lon="-1.60536">
        <ele>6.7</ele>
        <time>2014-02-16T13:17:42Z</time>
      </trkpt>
      <trkpt lat="47.2632" lon="-1.60523">
        <ele>6.8</ele>
        <time>2014-02-16T13:17:44Z</time>
      </trkpt>
      <trkpt lat="47.26323" lon="-1.60508">
        <ele>7.7</ele>
        <time>2014-02-16T13:17:46Z</time>
      </trkpt>
      <trkpt lat="47.26327" lon="-1.60476">
        <ele>9.4</ele>
        <time>2014-02-16T13:17:51Z</time>
      </trkpt>
      <trkpt lat="47.2633" lon="-1.60462">
        <ele>9.6</ele>
        <time>2014-02-16T13:17:53Z</time>
      </trkpt>
      <trkpt lat="47.26332" lon="-1.60446">
        <ele>9.6</ele>
        <time>2014-02-16T13:17:56Z</time>
      </trkpt>
      <trkpt lat="47.26333" lon="-1.60427">
        <ele>9.2</ele>
        <time>2014-02-16T13:17:59Z</time>
      </trkpt>
      <trkpt lat="47.26334" lon="-1.60409">
        <ele>8.9</ele>
        <time>2014-02-16T13:18:02Z</time>
      </trkpt>
      <trkpt lat="47.26336" lon="-1.60392">
        <ele>8.9</ele>
        <time>2014-02-16T13:18:05Z</time>
      </trkpt>
      <trkpt lat="47.26338" lon="-1.60376">
        <ele>8.7</ele>
        <time>2014-02-16T13:18:08Z</time>
      </trkpt>
      <trkpt lat="47.2634" lon="-1.60359">
        <ele>8.5</ele>
        <time>2014-02-16T13:18:11Z</time>
      </trkpt>
      <trkpt lat="47.26343" lon="-1.60341">
        <ele>8.1</ele>
        <time>2014-02-16T13:18:13Z</time>
      </trkpt>
      <trkpt lat="47.26345" lon="-1.60326">
        <ele>7.4</ele>
        <time>2014-02-16T13:18:15Z</time>
      </trkpt>
      <trkpt lat="47.26348" lon="-1.60309">
        <ele>6.7</ele>
        <time>2014-02-16T13:18:17Z</time>
      </trkpt>
      <trkpt lat="47.26351" lon="-1.60295">
        <ele>6.6</ele>
        <time>2014-02-16T13:18:19Z</time>
      </trkpt>
      <trkpt lat="47.26351" lon="-1.6028">
        <ele>5.8</ele>
        <time>2014-02-16T13:18:21Z</time>
      </trkpt>
      <trkpt lat="47.26352" lon="-1.60265">
        <ele>5.3</ele>
        <time>2014-02-16T13:18:23Z</time>
      </trkpt>
      <trkpt lat="47.26352" lon="-1.60249">
        <ele>4.2</ele>
        <time>2014-02-16T13:18:25Z</time>
      </trkpt>
      <trkpt lat="47.26348" lon="-1.60234">
        <ele>2.3</ele>
        <time>2014-02-16T13:18:27Z</time>
      </trkpt>
      <trkpt lat="47.26342" lon="-1.60221">
        <ele>1.8</ele>
        <time>2014-02-16T13:18:29Z</time>
      </trkpt>
      <trkpt lat="47.26332" lon="-1.60208">
        <ele>1.5</ele>
        <time>2014-02-16T13:18:32Z</time>
      </trkpt>
      <trkpt lat="47.26324" lon="-1.60197">
        <ele>1</ele>
        <time>2014-02-16T13:18:34Z</time>
      </trkpt>
      <trkpt lat="47.26314" lon="-1.60185">
        <ele>1.1</ele>
        <time>2014-02-16T13:18:37Z</time>
      </trkpt>
      <trkpt lat="47.26308" lon="-1.60175">
        <ele>1.2</ele>
        <time>2014-02-16T13:18:39Z</time>
      </trkpt>
      <trkpt lat="47.26302" lon="-1.60162">
        <ele>1.1</ele>
        <time>2014-02-16T13:18:41Z</time>
      </trkpt>
      <trkpt lat="47.26296" lon="-1.6015">
        <ele>0.9</ele>
        <time>2014-02-16T13:18:43Z</time>
      </trkpt>
      <trkpt lat="47.2629" lon="-1.60139">
        <ele>0.8</ele>
        <time>2014-02-16T13:18:45Z</time>
      </trkpt>
      <trkpt lat="47.26284" lon="-1.60125">
        <ele>-0.9</ele>
        <time>2014-02-16T13:18:47Z</time>
      </trkpt>
      <trkpt lat="47.26268" lon="-1.60098">
        <ele>-2.5</ele>
        <time>2014-02-16T13:18:51Z</time>
      </trkpt>
      <trkpt lat="47.26257" lon="-1.60087">
        <ele>0.8</ele>
        <time>2014-02-16T13:18:54Z</time>
      </trkpt>
      <trkpt lat="47.26246" lon="-1.60087">
        <ele>2.5</ele>
        <time>2014-02-16T13:18:57Z</time>
      </trkpt>
      <trkpt lat="47.26236" lon="-1.60089">
        <ele>3.7</ele>
        <time>2014-02-16T13:19:00Z</time>
      </trkpt>
      <trkpt lat="47.26226" lon="-1.60094">
        <ele>4.8</ele>
        <time>2014-02-16T13:19:03Z</time>
      </trkpt>
      <trkpt lat="47.26216" lon="-1.60097">
        <ele>5.1</ele>
        <time>2014-02-16T13:19:06Z</time>
      </trkpt>
      <trkpt lat="47.26207" lon="-1.6009">
        <ele>5.1</ele>
        <time>2014-02-16T13:19:09Z</time>
      </trkpt>
      <trkpt lat="47.26202" lon="-1.60079">
        <ele>5.4</ele>
        <time>2014-02-16T13:19:12Z</time>
      </trkpt>
      <trkpt lat="47.26203" lon="-1.60059">
        <ele>5.4</ele>
        <time>2014-02-16T13:19:15Z</time>
      </trkpt>
      <trkpt lat="47.26205" lon="-1.60042">
        <ele>5.4</ele>
        <time>2014-02-16T13:19:18Z</time>
      </trkpt>
      <trkpt lat="47.26209" lon="-1.60026">
        <ele>4.7</ele>
        <time>2014-02-16T13:19:21Z</time>
      </trkpt>
      <trkpt lat="47.26215" lon="-1.60012">
        <ele>4.4</ele>
        <time>2014-02-16T13:19:24Z</time>
      </trkpt>
      <trkpt lat="47.26222" lon="-1.59998">
        <ele>4.4</ele>
        <time>2014-02-16T13:19:27Z</time>
      </trkpt>
      <trkpt lat="47.26228" lon="-1.59983">
        <ele>1.9</ele>
        <time>2014-02-16T13:19:30Z</time>
      </trkpt>
      <trkpt lat="47.26237" lon="-1.5997">
        <ele>0.3</ele>
        <time>2014-02-16T13:19:33Z</time>
      </trkpt>
      <trkpt lat="47.26243" lon="-1.59958">
        <ele>0.5</ele>
        <time>2014-02-16T13:19:35Z</time>
      </trkpt>
      <trkpt lat="47.26249" lon="-1.59946">
        <ele>2.9</ele>
        <time>2014-02-16T13:19:37Z</time>
      </trkpt>
      <trkpt lat="47.26253" lon="-1.59933">
        <ele>3.2</ele>
        <time>2014-02-16T13:19:39Z</time>
      </trkpt>
      <trkpt lat="47.26256" lon="-1.59915">
        <ele>3.5</ele>
        <time>2014-02-16T13:19:42Z</time>
      </trkpt>
      <trkpt lat="47.26257" lon="-1.59898">
        <ele>3.7</ele>
        <time>2014-02-16T13:19:45Z</time>
      </trkpt>
      <trkpt lat="47.2626" lon="-1.59883">
        <ele>4.3</ele>
        <time>2014-02-16T13:19:48Z</time>
      </trkpt>
      <trkpt lat="47.2626" lon="-1.59853">
        <ele>4.3</ele>
        <time>2014-02-16T13:19:52Z</time>
      </trkpt>
      <trkpt lat="47.26259" lon="-1.59838">
        <ele>4</ele>
        <time>2014-02-16T13:19:54Z</time>
      </trkpt>
      <trkpt lat="47.26256" lon="-1.5982">
        <ele>1.9</ele>
        <time>2014-02-16T13:19:57Z</time>
      </trkpt>
      <trkpt lat="47.26254" lon="-1.59805">
        <ele>1.7</ele>
        <time>2014-02-16T13:20:00Z</time>
      </trkpt>
      <trkpt lat="47.26251" lon="-1.5979">
        <ele>1.7</ele>
        <time>2014-02-16T13:20:04Z</time>
      </trkpt>
      <trkpt lat="47.26244" lon="-1.59776">
        <ele>2</ele>
        <time>2014-02-16T13:20:08Z</time>
      </trkpt>
      <trkpt lat="47.26236" lon="-1.59765">
        <ele>2.3</ele>
        <time>2014-02-16T13:20:10Z</time>
      </trkpt>
      <trkpt lat="47.26229" lon="-1.59755">
        <ele>2.5</ele>
        <time>2014-02-16T13:20:12Z</time>
      </trkpt>
      <trkpt lat="47.26219" lon="-1.59744">
        <ele>2.9</ele>
        <time>2014-02-16T13:20:15Z</time>
      </trkpt>
      <trkpt lat="47.2621" lon="-1.59734">
        <ele>3.2</ele>
        <time>2014-02-16T13:20:18Z</time>
      </trkpt>
      <trkpt lat="47.262" lon="-1.59728">
        <ele>3.6</ele>
        <time>2014-02-16T13:20:21Z</time>
      </trkpt>
      <trkpt lat="47.26187" lon="-1.59724">
        <ele>6.5</ele>
        <time>2014-02-16T13:20:24Z</time>
      </trkpt>
      <trkpt lat="47.26177" lon="-1.59723">
        <ele>7.1</ele>
        <time>2014-02-16T13:20:26Z</time>
      </trkpt>
      <trkpt lat="47.26166" lon="-1.59722">
        <ele>6.4</ele>
        <time>2014-02-16T13:20:29Z</time>
      </trkpt>
      <trkpt lat="47.26157" lon="-1.5972">
        <ele>5.4</ele>
        <time>2014-02-16T13:20:31Z</time>
      </trkpt>
      <trkpt lat="47.26144" lon="-1.59717">
        <ele>4.2</ele>
        <time>2014-02-16T13:20:34Z</time>
      </trkpt>
      <trkpt lat="47.26134" lon="-1.59715">
        <ele>4</ele>
        <time>2014-02-16T13:20:36Z</time>
      </trkpt>
      <trkpt lat="47.26122" lon="-1.59711">
        <ele>4.3</ele>
        <time>2014-02-16T13:20:39Z</time>
      </trkpt>
      <trkpt lat="47.26113" lon="-1.59708">
        <ele>4.1</ele>
        <time>2014-02-16T13:20:41Z</time>
      </trkpt>
      <trkpt lat="47.26103" lon="-1.59706">
        <ele>3.7</ele>
        <time>2014-02-16T13:20:43Z</time>
      </trkpt>
      <trkpt lat="47.26092" lon="-1.59704">
        <ele>4</ele>
        <time>2014-02-16T13:20:46Z</time>
      </trkpt>
      <trkpt lat="47.26081" lon="-1.59701">
        <ele>4</ele>
        <time>2014-02-16T13:20:49Z</time>
      </trkpt>
      <trkpt lat="47.26058" lon="-1.59687">
        <ele>3.8</ele>
        <time>2014-02-16T13:20:55Z</time>
      </trkpt>
      <trkpt lat="47.26049" lon="-1.59679">
        <ele>3.8</ele>
        <time>2014-02-16T13:20:57Z</time>
      </trkpt>
      <trkpt lat="47.26041" lon="-1.5967">
        <ele>5.4</ele>
        <time>2014-02-16T13:20:59Z</time>
      </trkpt>
      <trkpt lat="47.26032" lon="-1.5966">
        <ele>7.6</ele>
        <time>2014-02-16T13:21:02Z</time>
      </trkpt>
      <trkpt lat="47.26024" lon="-1.59652">
        <ele>7.6</ele>
        <time>2014-02-16T13:21:04Z</time>
      </trkpt>
      <trkpt lat="47.26017" lon="-1.59644">
        <ele>7.8</ele>
        <time>2014-02-16T13:21:06Z</time>
      </trkpt>
      <trkpt lat="47.26007" lon="-1.59634">
        <ele>8.3</ele>
        <time>2014-02-16T13:21:09Z</time>
      </trkpt>
      <trkpt lat="47.25996" lon="-1.59621">
        <ele>8.4</ele>
        <time>2014-02-16T13:21:12Z</time>
      </trkpt>
      <trkpt lat="47.25989" lon="-1.59605">
        <ele>8.5</ele>
        <time>2014-02-16T13:21:15Z</time>
      </trkpt>
      <trkpt lat="47.25983" lon="-1.59591">
        <ele>7.8</ele>
        <time>2014-02-16T13:21:17Z</time>
      </trkpt>
      <trkpt lat="47.2598" lon="-1.59578">
        <ele>5.4</ele>
        <time>2014-02-16T13:21:19Z</time>
      </trkpt>
      <trkpt lat="47.25977" lon="-1.59563">
        <ele>3</ele>
        <time>2014-02-16T13:21:21Z</time>
      </trkpt>
      <trkpt lat="47.25977" lon="-1.59548">
        <ele>2.6</ele>
        <time>2014-02-16T13:21:24Z</time>
      </trkpt>
      <trkpt lat="47.25978" lon="-1.59532">
        <ele>2.2</ele>
        <time>2014-02-16T13:21:27Z</time>
      </trkpt>
      <trkpt lat="47.25979" lon="-1.59515">
        <ele>2</ele>
        <time>2014-02-16T13:21:30Z</time>
      </trkpt>
      <trkpt lat="47.2598" lon="-1.595">
        <ele>2.1</ele>
        <time>2014-02-16T13:21:33Z</time>
      </trkpt>
      <trkpt lat="47.25978" lon="-1.59484">
        <ele>2.2</ele>
        <time>2014-02-16T13:21:36Z</time>
      </trkpt>
      <trkpt lat="47.25974" lon="-1.59468">
        <ele>2.2</ele>
        <time>2014-02-16T13:21:39Z</time>
      </trkpt>
      <trkpt lat="47.25973" lon="-1.59451">
        <ele>2</ele>
        <time>2014-02-16T13:21:42Z</time>
      </trkpt>
      <trkpt lat="47.25975" lon="-1.59435">
        <ele>1.9</ele>
        <time>2014-02-16T13:21:45Z</time>
      </trkpt>
      <trkpt lat="47.25983" lon="-1.59418">
        <ele>1.2</ele>
        <time>2014-02-16T13:21:48Z</time>
      </trkpt>
      <trkpt lat="47.25989" lon="-1.59405">
        <ele>0.7</ele>
        <time>2014-02-16T13:21:50Z</time>
      </trkpt>
      <trkpt lat="47.26002" lon="-1.59381">
        <ele>0.5</ele>
        <time>2014-02-16T13:21:55Z</time>
      </trkpt>
      <trkpt lat="47.26008" lon="-1.5937">
        <ele>1.1</ele>
        <time>2014-02-16T13:21:57Z</time>
      </trkpt>
      <trkpt lat="47.26013" lon="-1.59357">
        <ele>1.3</ele>
        <time>2014-02-16T13:22:00Z</time>
      </trkpt>
      <trkpt lat="47.26019" lon="-1.59343">
        <ele>1.3</ele>
        <time>2014-02-16T13:22:03Z</time>
      </trkpt>
      <trkpt lat="47.26025" lon="-1.59328">
        <ele>1.2</ele>
        <time>2014-02-16T13:22:06Z</time>
      </trkpt>
      <trkpt lat="47.26029" lon="-1.59313">
        <ele>1.2</ele>
        <time>2014-02-16T13:22:09Z</time>
      </trkpt>
      <trkpt lat="47.26029" lon="-1.59295">
        <ele>1.3</ele>
        <time>2014-02-16T13:22:12Z</time>
      </trkpt>
      <trkpt lat="47.26027" lon="-1.5928">
        <ele>1.2</ele>
        <time>2014-02-16T13:22:15Z</time>
      </trkpt>
      <trkpt lat="47.26025" lon="-1.59263">
        <ele>1</ele>
        <time>2014-02-16T13:22:18Z</time>
      </trkpt>
      <trkpt lat="47.26025" lon="-1.59245">
        <ele>0.8</ele>
        <time>2014-02-16T13:22:21Z</time>
      </trkpt>
      <trkpt lat="47.26021" lon="-1.59227">
        <ele>0.5</ele>
        <time>2014-02-16T13:22:24Z</time>
      </trkpt>
      <trkpt lat="47.26013" lon="-1.59219">
        <ele>0.5</ele>
        <time>2014-02-16T13:22:27Z</time>
      </trkpt>
      <trkpt lat="47.26003" lon="-1.59215">
        <ele>1.1</ele>
        <time>2014-02-16T13:22:29Z</time>
      </trkpt>
      <trkpt lat="47.25992" lon="-1.5921">
        <ele>1.4</ele>
        <time>2014-02-16T13:22:31Z</time>
      </trkpt>
      <trkpt lat="47.25978" lon="-1.59204">
        <ele>9.8</ele>
        <time>2014-02-16T13:22:33Z</time>
      </trkpt>
      <trkpt lat="47.25964" lon="-1.59196">
        <ele>-0.7</ele>
        <time>2014-02-16T13:22:35Z</time>
      </trkpt>
      <trkpt lat="47.25951" lon="-1.5919">
        <ele>-0.1</ele>
        <time>2014-02-16T13:22:37Z</time>
      </trkpt>
      <trkpt lat="47.25941" lon="-1.59189">
        <ele>0.4</ele>
        <time>2014-02-16T13:22:39Z</time>
      </trkpt>
      <trkpt lat="47.25931" lon="-1.5919">
        <ele>1.1</ele>
        <time>2014-02-16T13:22:42Z</time>
      </trkpt>
      <trkpt lat="47.25921" lon="-1.59199">
        <ele>2.3</ele>
        <time>2014-02-16T13:22:45Z</time>
      </trkpt>
      <trkpt lat="47.25914" lon="-1.59208">
        <ele>2.2</ele>
        <time>2014-02-16T13:22:47Z</time>
      </trkpt>
      <trkpt lat="47.25906" lon="-1.59223">
        <ele>1.9</ele>
        <time>2014-02-16T13:22:49Z</time>
      </trkpt>
      <trkpt lat="47.259" lon="-1.5924">
        <ele>1.4</ele>
        <time>2014-02-16T13:22:52Z</time>
      </trkpt>
      <trkpt lat="47.25885" lon="-1.59262">
        <ele>0.8</ele>
        <time>2014-02-16T13:22:58Z</time>
      </trkpt>
      <trkpt lat="47.25875" lon="-1.59267">
        <ele>0.5</ele>
        <time>2014-02-16T13:23:01Z</time>
      </trkpt>
      <trkpt lat="47.25863" lon="-1.59268">
        <ele>-1.2</ele>
        <time>2014-02-16T13:23:04Z</time>
      </trkpt>
      <trkpt lat="47.25851" lon="-1.59266">
        <ele>-2.6</ele>
        <time>2014-02-16T13:23:07Z</time>
      </trkpt>
      <trkpt lat="47.25843" lon="-1.59261">
        <ele>-4.1</ele>
        <time>2014-02-16T13:23:09Z</time>
      </trkpt>
      <trkpt lat="47.25834" lon="-1.59255">
        <ele>-3.9</ele>
        <time>2014-02-16T13:23:11Z</time>
      </trkpt>
      <trkpt lat="47.25826" lon="-1.59244">
        <ele>-4</ele>
        <time>2014-02-16T13:23:14Z</time>
      </trkpt>
      <trkpt lat="47.25818" lon="-1.59233">
        <ele>-3.9</ele>
        <time>2014-02-16T13:23:17Z</time>
      </trkpt>
      <trkpt lat="47.25811" lon="-1.59223">
        <ele>-3.6</ele>
        <time>2014-02-16T13:23:20Z</time>
      </trkpt>
      <trkpt lat="47.25805" lon="-1.5921">
        <ele>-2.9</ele>
        <time>2014-02-16T13:23:23Z</time>
      </trkpt>
      <trkpt lat="47.25798" lon="-1.59196">
        <ele>-1.8</ele>
        <time>2014-02-16T13:23:27Z</time>
      </trkpt>
      <trkpt lat="47.2579" lon="-1.59184">
        <ele>-0.6</ele>
        <time>2014-02-16T13:23:30Z</time>
      </trkpt>
      <trkpt lat="47.25783" lon="-1.59172">
        <ele>0.6</ele>
        <time>2014-02-16T13:23:33Z</time>
      </trkpt>
      <trkpt lat="47.25774" lon="-1.5916">
        <ele>2.2</ele>
        <time>2014-02-16T13:23:37Z</time>
      </trkpt>
      <trkpt lat="47.25766" lon="-1.59151">
        <ele>3</ele>
        <time>2014-02-16T13:23:40Z</time>
      </trkpt>
      <trkpt lat="47.25756" lon="-1.59142">
        <ele>3.6</ele>
        <time>2014-02-16T13:23:43Z</time>
      </trkpt>
      <trkpt lat="47.25746" lon="-1.59135">
        <ele>4.1</ele>
        <time>2014-02-16T13:23:47Z</time>
      </trkpt>
      <trkpt lat="47.25735" lon="-1.5913">
        <ele>4.1</ele>
        <time>2014-02-16T13:23:51Z</time>
      </trkpt>
      <trkpt lat="47.25724" lon="-1.59125">
        <ele>4.5</ele>
        <time>2014-02-16T13:23:56Z</time>
      </trkpt>
      <trkpt lat="47.25704" lon="-1.59119">
        <ele>5.4</ele>
        <time>2014-02-16T13:24:10Z</time>
      </trkpt>
      <trkpt lat="47.25696" lon="-1.59125">
        <ele>5.6</ele>
        <time>2014-02-16T13:24:25Z</time>
      </trkpt>
      <trkpt lat="47.25689" lon="-1.59134">
        <ele>3.7</ele>
        <time>2014-02-16T13:24:54Z</time>
      </trkpt>
      <trkpt lat="47.2568" lon="-1.5914">
        <ele>5.4</ele>
        <time>2014-02-16T13:25:09Z</time>
      </trkpt>
      <trkpt lat="47.25665" lon="-1.59157">
        <ele>9.1</ele>
        <time>2014-02-16T13:25:36Z</time>
      </trkpt>
      <trkpt lat="47.25656" lon="-1.59164">
        <ele>10.9</ele>
        <time>2014-02-16T13:25:46Z</time>
      </trkpt>
      <trkpt lat="47.25648" lon="-1.5917">
        <ele>11.8</ele>
        <time>2014-02-16T13:25:55Z</time>
      </trkpt>
      <trkpt lat="47.25649" lon="-1.59183">
        <ele>14.1</ele>
        <time>2014-02-16T13:26:18Z</time>
      </trkpt>
      <trkpt lat="47.25659" lon="-1.59208">
        <ele>15.6</ele>
        <time>2014-02-16T13:26:29Z</time>
      </trkpt>
      <trkpt lat="47.25664" lon="-1.5922">
        <ele>15.8</ele>
        <time>2014-02-16T13:26:32Z</time>
      </trkpt>
      <trkpt lat="47.25669" lon="-1.59234">
        <ele>16.5</ele>
        <time>2014-02-16T13:26:36Z</time>
      </trkpt>
      <trkpt lat="47.25675" lon="-1.59248">
        <ele>17.3</ele>
        <time>2014-02-16T13:26:39Z</time>
      </trkpt>
      <trkpt lat="47.25681" lon="-1.59258">
        <ele>17.8</ele>
        <time>2014-02-16T13:26:41Z</time>
      </trkpt>
      <trkpt lat="47.25689" lon="-1.59273">
        <ele>18.3</ele>
        <time>2014-02-16T13:26:44Z</time>
      </trkpt>
      <trkpt lat="47.25697" lon="-1.59285">
        <ele>18.7</ele>
        <time>2014-02-16T13:26:47Z</time>
      </trkpt>
      <trkpt lat="47.25706" lon="-1.59298">
        <ele>19</ele>
        <time>2014-02-16T13:26:51Z</time>
      </trkpt>
      <trkpt lat="47.25713" lon="-1.59309">
        <ele>19</ele>
        <time>2014-02-16T13:26:54Z</time>
      </trkpt>
      <trkpt lat="47.25719" lon="-1.5932">
        <ele>19</ele>
        <time>2014-02-16T13:26:57Z</time>
      </trkpt>
      <trkpt lat="47.25725" lon="-1.59333">
        <ele>19.2</ele>
        <time>2014-02-16T13:27:01Z</time>
      </trkpt>
      <trkpt lat="47.25731" lon="-1.59348">
        <ele>18.8</ele>
        <time>2014-02-16T13:27:05Z</time>
      </trkpt>
      <trkpt lat="47.25728" lon="-1.59368">
        <ele>18.6</ele>
        <time>2014-02-16T13:27:08Z</time>
      </trkpt>
      <trkpt lat="47.25721" lon="-1.59379">
        <ele>18.8</ele>
        <time>2014-02-16T13:27:11Z</time>
      </trkpt>
      <trkpt lat="47.25711" lon="-1.59389">
        <ele>19</ele>
        <time>2014-02-16T13:27:14Z</time>
      </trkpt>
      <trkpt lat="47.25701" lon="-1.59397">
        <ele>19.3</ele>
        <time>2014-02-16T13:27:17Z</time>
      </trkpt>
      <trkpt lat="47.25692" lon="-1.59403">
        <ele>19.7</ele>
        <time>2014-02-16T13:27:20Z</time>
      </trkpt>
      <trkpt lat="47.25674" lon="-1.59419">
        <ele>20.7</ele>
        <time>2014-02-16T13:27:27Z</time>
      </trkpt>
      <trkpt lat="47.25664" lon="-1.59427">
        <ele>21.2</ele>
        <time>2014-02-16T13:27:30Z</time>
      </trkpt>
      <trkpt lat="47.25654" lon="-1.59437">
        <ele>21.9</ele>
        <time>2014-02-16T13:27:34Z</time>
      </trkpt>
      <trkpt lat="47.25647" lon="-1.59444">
        <ele>22.4</ele>
        <time>2014-02-16T13:27:37Z</time>
      </trkpt>
      <trkpt lat="47.25636" lon="-1.59453">
        <ele>23.1</ele>
        <time>2014-02-16T13:27:41Z</time>
      </trkpt>
      <trkpt lat="47.25629" lon="-1.59461">
        <ele>23.6</ele>
        <time>2014-02-16T13:27:44Z</time>
      </trkpt>
      <trkpt lat="47.25621" lon="-1.59468">
        <ele>24</ele>
        <time>2014-02-16T13:27:47Z</time>
      </trkpt>
      <trkpt lat="47.25612" lon="-1.59475">
        <ele>24.5</ele>
        <time>2014-02-16T13:27:50Z</time>
      </trkpt>
      <trkpt lat="47.25602" lon="-1.59483">
        <ele>25.2</ele>
        <time>2014-02-16T13:27:54Z</time>
      </trkpt>
      <trkpt lat="47.25595" lon="-1.59492">
        <ele>25.8</ele>
        <time>2014-02-16T13:27:57Z</time>
      </trkpt>
      <trkpt lat="47.25585" lon="-1.59502">
        <ele>26.6</ele>
        <time>2014-02-16T13:28:01Z</time>
      </trkpt>
      <trkpt lat="47.25577" lon="-1.5951">
        <ele>27.2</ele>
        <time>2014-02-16T13:28:04Z</time>
      </trkpt>
      <trkpt lat="47.25569" lon="-1.59517">
        <ele>27.6</ele>
        <time>2014-02-16T13:28:07Z</time>
      </trkpt>
      <trkpt lat="47.25559" lon="-1.59525">
        <ele>28</ele>
        <time>2014-02-16T13:28:10Z</time>
      </trkpt>
      <trkpt lat="47.25551" lon="-1.59531">
        <ele>28.4</ele>
        <time>2014-02-16T13:28:13Z</time>
      </trkpt>
      <trkpt lat="47.25543" lon="-1.59539">
        <ele>28.9</ele>
        <time>2014-02-16T13:28:16Z</time>
      </trkpt>
      <trkpt lat="47.25532" lon="-1.59548">
        <ele>29.7</ele>
        <time>2014-02-16T13:28:20Z</time>
      </trkpt>
      <trkpt lat="47.25524" lon="-1.59556">
        <ele>30.4</ele>
        <time>2014-02-16T13:28:23Z</time>
      </trkpt>
      <trkpt lat="47.25507" lon="-1.59569">
        <ele>32.1</ele>
        <time>2014-02-16T13:28:29Z</time>
      </trkpt>
      <trkpt lat="47.25497" lon="-1.59578">
        <ele>32.8</ele>
        <time>2014-02-16T13:28:32Z</time>
      </trkpt>
      <trkpt lat="47.25487" lon="-1.59588">
        <ele>33.3</ele>
        <time>2014-02-16T13:28:35Z</time>
      </trkpt>
      <trkpt lat="47.2548" lon="-1.59598">
        <ele>33.7</ele>
        <time>2014-02-16T13:28:38Z</time>
      </trkpt>
      <trkpt lat="47.25473" lon="-1.59607">
        <ele>34.1</ele>
        <time>2014-02-16T13:28:41Z</time>
      </trkpt>
      <trkpt lat="47.25464" lon="-1.59616">
        <ele>34.4</ele>
        <time>2014-02-16T13:28:44Z</time>
      </trkpt>
      <trkpt lat="47.25456" lon="-1.59624">
        <ele>34.7</ele>
        <time>2014-02-16T13:28:47Z</time>
      </trkpt>
      <trkpt lat="47.25448" lon="-1.59632">
        <ele>35</ele>
        <time>2014-02-16T13:28:50Z</time>
      </trkpt>
      <trkpt lat="47.2544" lon="-1.5964">
        <ele>35.1</ele>
        <time>2014-02-16T13:28:53Z</time>
      </trkpt>
      <trkpt lat="47.25432" lon="-1.59648">
        <ele>35.4</ele>
        <time>2014-02-16T13:28:56Z</time>
      </trkpt>
      <trkpt lat="47.25425" lon="-1.59656">
        <ele>35.7</ele>
        <time>2014-02-16T13:28:59Z</time>
      </trkpt>
      <trkpt lat="47.25415" lon="-1.59665">
        <ele>35.9</ele>
        <time>2014-02-16T13:29:02Z</time>
      </trkpt>
      <trkpt lat="47.25408" lon="-1.59676">
        <ele>36.1</ele>
        <time>2014-02-16T13:29:05Z</time>
      </trkpt>
      <trkpt lat="47.25405" lon="-1.59692">
        <ele>36.2</ele>
        <time>2014-02-16T13:29:08Z</time>
      </trkpt>
      <trkpt lat="47.25396" lon="-1.59705">
        <ele>36.6</ele>
        <time>2014-02-16T13:29:12Z</time>
      </trkpt>
      <trkpt lat="47.25385" lon="-1.5971">
        <ele>36.7</ele>
        <time>2014-02-16T13:29:15Z</time>
      </trkpt>
      <trkpt lat="47.25375" lon="-1.59713">
        <ele>36.9</ele>
        <time>2014-02-16T13:29:18Z</time>
      </trkpt>
      <trkpt lat="47.25365" lon="-1.59716">
        <ele>37.1</ele>
        <time>2014-02-16T13:29:21Z</time>
      </trkpt>
      <trkpt lat="47.25355" lon="-1.5972">
        <ele>37.3</ele>
        <time>2014-02-16T13:29:24Z</time>
      </trkpt>
      <trkpt lat="47.25333" lon="-1.59727">
        <ele>38.8</ele>
        <time>2014-02-16T13:29:30Z</time>
      </trkpt>
      <trkpt lat="47.25322" lon="-1.59734">
        <ele>38.9</ele>
        <time>2014-02-16T13:29:33Z</time>
      </trkpt>
      <trkpt lat="47.25313" lon="-1.5974">
        <ele>39.1</ele>
        <time>2014-02-16T13:29:36Z</time>
      </trkpt>
      <trkpt lat="47.25301" lon="-1.59745">
        <ele>39.2</ele>
        <time>2014-02-16T13:29:39Z</time>
      </trkpt>
      <trkpt lat="47.25291" lon="-1.59752">
        <ele>40.3</ele>
        <time>2014-02-16T13:29:42Z</time>
      </trkpt>
      <trkpt lat="47.25281" lon="-1.59759">
        <ele>40.3</ele>
        <time>2014-02-16T13:29:45Z</time>
      </trkpt>
      <trkpt lat="47.25271" lon="-1.59764">
        <ele>40.2</ele>
        <time>2014-02-16T13:29:48Z</time>
      </trkpt>
      <trkpt lat="47.25262" lon="-1.59769">
        <ele>40.2</ele>
        <time>2014-02-16T13:29:51Z</time>
      </trkpt>
      <trkpt lat="47.2525" lon="-1.59775">
        <ele>40.2</ele>
        <time>2014-02-16T13:29:54Z</time>
      </trkpt>
      <trkpt lat="47.25239" lon="-1.59782">
        <ele>40</ele>
        <time>2014-02-16T13:29:57Z</time>
      </trkpt>
      <trkpt lat="47.25228" lon="-1.5979">
        <ele>39.3</ele>
        <time>2014-02-16T13:30:00Z</time>
      </trkpt>
      <trkpt lat="47.25217" lon="-1.59796">
        <ele>39.6</ele>
        <time>2014-02-16T13:30:03Z</time>
      </trkpt>
      <trkpt lat="47.25205" lon="-1.59803">
        <ele>40.1</ele>
        <time>2014-02-16T13:30:06Z</time>
      </trkpt>
      <trkpt lat="47.25192" lon="-1.59809">
        <ele>40.3</ele>
        <time>2014-02-16T13:30:09Z</time>
      </trkpt>
      <trkpt lat="47.2518" lon="-1.59816">
        <ele>40.3</ele>
        <time>2014-02-16T13:30:12Z</time>
      </trkpt>
      <trkpt lat="47.25168" lon="-1.59822">
        <ele>40</ele>
        <time>2014-02-16T13:30:15Z</time>
      </trkpt>
      <trkpt lat="47.25158" lon="-1.59828">
        <ele>40.2</ele>
        <time>2014-02-16T13:30:18Z</time>
      </trkpt>
      <trkpt lat="47.25147" lon="-1.59835">
        <ele>41</ele>
        <time>2014-02-16T13:30:21Z</time>
      </trkpt>
      <trkpt lat="47.25135" lon="-1.59842">
        <ele>42.1</ele>
        <time>2014-02-16T13:30:24Z</time>
      </trkpt>
      <trkpt lat="47.25127" lon="-1.59846">
        <ele>42.3</ele>
        <time>2014-02-16T13:30:26Z</time>
      </trkpt>
      <trkpt lat="47.25106" lon="-1.59854">
        <ele>43</ele>
        <time>2014-02-16T13:30:31Z</time>
      </trkpt>
      <trkpt lat="47.25093" lon="-1.59859">
        <ele>41.9</ele>
        <time>2014-02-16T13:30:34Z</time>
      </trkpt>
      <trkpt lat="47.25082" lon="-1.59864">
        <ele>41.8</ele>
        <time>2014-02-16T13:30:37Z</time>
      </trkpt>
      <trkpt lat="47.25072" lon="-1.59869">
        <ele>42.3</ele>
        <time>2014-02-16T13:30:40Z</time>
      </trkpt>
      <trkpt lat="47.2506" lon="-1.59877">
        <ele>42.1</ele>
        <time>2014-02-16T13:30:43Z</time>
      </trkpt>
      <trkpt lat="47.25048" lon="-1.59885">
        <ele>42.3</ele>
        <time>2014-02-16T13:30:46Z</time>
      </trkpt>
      <trkpt lat="47.2504" lon="-1.59893">
        <ele>42.8</ele>
        <time>2014-02-16T13:30:48Z</time>
      </trkpt>
      <trkpt lat="47.25033" lon="-1.59902">
        <ele>43.1</ele>
        <time>2014-02-16T13:30:50Z</time>
      </trkpt>
      <trkpt lat="47.25026" lon="-1.59911">
        <ele>43</ele>
        <time>2014-02-16T13:30:53Z</time>
      </trkpt>
      <trkpt lat="47.25015" lon="-1.59911">
        <ele>42.9</ele>
        <time>2014-02-16T13:30:56Z</time>
      </trkpt>
      <trkpt lat="47.25005" lon="-1.59917">
        <ele>42.9</ele>
        <time>2014-02-16T13:30:59Z</time>
      </trkpt>
      <trkpt lat="47.24995" lon="-1.59928">
        <ele>44</ele>
        <time>2014-02-16T13:31:02Z</time>
      </trkpt>
      <trkpt lat="47.24986" lon="-1.5994">
        <ele>45.6</ele>
        <time>2014-02-16T13:31:05Z</time>
      </trkpt>
      <trkpt lat="47.24977" lon="-1.59954">
        <ele>45.9</ele>
        <time>2014-02-16T13:31:08Z</time>
      </trkpt>
      <trkpt lat="47.24969" lon="-1.59963">
        <ele>44.5</ele>
        <time>2014-02-16T13:31:10Z</time>
      </trkpt>
      <trkpt lat="47.24962" lon="-1.59972">
        <ele>44.1</ele>
        <time>2014-02-16T13:31:12Z</time>
      </trkpt>
      <trkpt lat="47.24955" lon="-1.59981">
        <ele>43.6</ele>
        <time>2014-02-16T13:31:14Z</time>
      </trkpt>
      <trkpt lat="47.24946" lon="-1.59993">
        <ele>43.6</ele>
        <time>2014-02-16T13:31:17Z</time>
      </trkpt>
      <trkpt lat="47.24937" lon="-1.60006">
        <ele>43.6</ele>
        <time>2014-02-16T13:31:20Z</time>
      </trkpt>
      <trkpt lat="47.24928" lon="-1.60018">
        <ele>43.8</ele>
        <time>2014-02-16T13:31:23Z</time>
      </trkpt>
      <trkpt lat="47.2492" lon="-1.60031">
        <ele>44.2</ele>
        <time>2014-02-16T13:31:26Z</time>
      </trkpt>
      <trkpt lat="47.24913" lon="-1.60041">
        <ele>44.3</ele>
        <time>2014-02-16T13:31:29Z</time>
      </trkpt>
      <trkpt lat="47.249" lon="-1.60064">
        <ele>44.4</ele>
        <time>2014-02-16T13:31:35Z</time>
      </trkpt>
      <trkpt lat="47.24891" lon="-1.60073">
        <ele>44.4</ele>
        <time>2014-02-16T13:31:38Z</time>
      </trkpt>
      <trkpt lat="47.24881" lon="-1.60081">
        <ele>44.5</ele>
        <time>2014-02-16T13:31:41Z</time>
      </trkpt>
      <trkpt lat="47.24872" lon="-1.60091">
        <ele>44.4</ele>
        <time>2014-02-16T13:31:44Z</time>
      </trkpt>
      <trkpt lat="47.24864" lon="-1.60102">
        <ele>44.4</ele>
        <time>2014-02-16T13:31:47Z</time>
      </trkpt>
      <trkpt lat="47.24857" lon="-1.60115">
        <ele>44.3</ele>
        <time>2014-02-16T13:31:50Z</time>
      </trkpt>
      <trkpt lat="47.24848" lon="-1.60128">
        <ele>44.4</ele>
        <time>2014-02-16T13:31:53Z</time>
      </trkpt>
      <trkpt lat="47.24841" lon="-1.60138">
        <ele>44.4</ele>
        <time>2014-02-16T13:31:56Z</time>
      </trkpt>
      <trkpt lat="47.24833" lon="-1.6015">
        <ele>44.4</ele>
        <time>2014-02-16T13:31:59Z</time>
      </trkpt>
      <trkpt lat="47.24824" lon="-1.60158">
        <ele>44.4</ele>
        <time>2014-02-16T13:32:02Z</time>
      </trkpt>
      <trkpt lat="47.24815" lon="-1.60169">
        <ele>44.5</ele>
        <time>2014-02-16T13:32:05Z</time>
      </trkpt>
      <trkpt lat="47.24807" lon="-1.60182">
        <ele>44.7</ele>
        <time>2014-02-16T13:32:08Z</time>
      </trkpt>
      <trkpt lat="47.24799" lon="-1.60194">
        <ele>44.7</ele>
        <time>2014-02-16T13:32:11Z</time>
      </trkpt>
      <trkpt lat="47.24793" lon="-1.60205">
        <ele>44.5</ele>
        <time>2014-02-16T13:32:14Z</time>
      </trkpt>
      <trkpt lat="47.24788" lon="-1.60217">
        <ele>44.3</ele>
        <time>2014-02-16T13:32:17Z</time>
      </trkpt>
      <trkpt lat="47.2478" lon="-1.60227">
        <ele>43.8</ele>
        <time>2014-02-16T13:32:20Z</time>
      </trkpt>
      <trkpt lat="47.24774" lon="-1.60237">
        <ele>43.5</ele>
        <time>2014-02-16T13:32:23Z</time>
      </trkpt>
      <trkpt lat="47.24768" lon="-1.60247">
        <ele>43.4</ele>
        <time>2014-02-16T13:32:26Z</time>
      </trkpt>
      <trkpt lat="47.24762" lon="-1.60259">
        <ele>43.6</ele>
        <time>2014-02-16T13:32:29Z</time>
      </trkpt>
      <trkpt lat="47.24755" lon="-1.60272">
        <ele>43.9</ele>
        <time>2014-02-16T13:32:32Z</time>
      </trkpt>
      <trkpt lat="47.24737" lon="-1.60293">
        <ele>46.1</ele>
        <time>2014-02-16T13:32:38Z</time>
      </trkpt>
      <trkpt lat="47.24729" lon="-1.60305">
        <ele>46.2</ele>
        <time>2014-02-16T13:32:41Z</time>
      </trkpt>
      <trkpt lat="47.24721" lon="-1.60318">
        <ele>46.4</ele>
        <time>2014-02-16T13:32:44Z</time>
      </trkpt>
      <trkpt lat="47.24716" lon="-1.6033">
        <ele>46.6</ele>
        <time>2014-02-16T13:32:47Z</time>
      </trkpt>
      <trkpt lat="47.24709" lon="-1.60345">
        <ele>46.9</ele>
        <time>2014-02-16T13:32:50Z</time>
      </trkpt>
      <trkpt lat="47.24701" lon="-1.60357">
        <ele>47.3</ele>
        <time>2014-02-16T13:32:53Z</time>
      </trkpt>
      <trkpt lat="47.24693" lon="-1.60368">
        <ele>47.7</ele>
        <time>2014-02-16T13:32:56Z</time>
      </trkpt>
      <trkpt lat="47.24684" lon="-1.60382">
        <ele>47.7</ele>
        <time>2014-02-16T13:32:59Z</time>
      </trkpt>
      <trkpt lat="47.24676" lon="-1.60392">
        <ele>47.6</ele>
        <time>2014-02-16T13:33:02Z</time>
      </trkpt>
      <trkpt lat="47.2467" lon="-1.60405">
        <ele>47.8</ele>
        <time>2014-02-16T13:33:05Z</time>
      </trkpt>
      <trkpt lat="47.2467" lon="-1.60423">
        <ele>48.1</ele>
        <time>2014-02-16T13:33:10Z</time>
      </trkpt>
      <trkpt lat="47.24666" lon="-1.6044">
        <ele>48.3</ele>
        <time>2014-02-16T13:33:13Z</time>
      </trkpt>
      <trkpt lat="47.2466" lon="-1.6045">
        <ele>48.3</ele>
        <time>2014-02-16T13:33:15Z</time>
      </trkpt>
      <trkpt lat="47.24651" lon="-1.60462">
        <ele>48.3</ele>
        <time>2014-02-16T13:33:18Z</time>
      </trkpt>
      <trkpt lat="47.24641" lon="-1.60476">
        <ele>47</ele>
        <time>2014-02-16T13:33:21Z</time>
      </trkpt>
      <trkpt lat="47.24632" lon="-1.60486">
        <ele>47.2</ele>
        <time>2014-02-16T13:33:23Z</time>
      </trkpt>
      <trkpt lat="47.24625" lon="-1.60496">
        <ele>47.2</ele>
        <time>2014-02-16T13:33:25Z</time>
      </trkpt>
      <trkpt lat="47.2462" lon="-1.60507">
        <ele>47.6</ele>
        <time>2014-02-16T13:33:27Z</time>
      </trkpt>
      <trkpt lat="47.24611" lon="-1.60521">
        <ele>47.8</ele>
        <time>2014-02-16T13:33:30Z</time>
      </trkpt>
      <trkpt lat="47.24604" lon="-1.60536">
        <ele>47</ele>
        <time>2014-02-16T13:33:33Z</time>
      </trkpt>
      <trkpt lat="47.24589" lon="-1.60553">
        <ele>46.7</ele>
        <time>2014-02-16T13:33:39Z</time>
      </trkpt>
      <trkpt lat="47.24578" lon="-1.60562">
        <ele>46.4</ele>
        <time>2014-02-16T13:33:42Z</time>
      </trkpt>
      <trkpt lat="47.24566" lon="-1.6057">
        <ele>45.9</ele>
        <time>2014-02-16T13:33:45Z</time>
      </trkpt>
      <trkpt lat="47.24556" lon="-1.60576">
        <ele>45.4</ele>
        <time>2014-02-16T13:33:47Z</time>
      </trkpt>
      <trkpt lat="47.24545" lon="-1.60583">
        <ele>44.7</ele>
        <time>2014-02-16T13:33:49Z</time>
      </trkpt>
      <trkpt lat="47.24537" lon="-1.60591">
        <ele>43.9</ele>
        <time>2014-02-16T13:33:51Z</time>
      </trkpt>
      <trkpt lat="47.24532" lon="-1.60604">
        <ele>43.9</ele>
        <time>2014-02-16T13:33:54Z</time>
      </trkpt>
      <trkpt lat="47.24524" lon="-1.60626">
        <ele>42.4</ele>
        <time>2014-02-16T13:33:55Z</time>
      </trkpt>
      <trkpt lat="47.24518" lon="-1.60662">
        <ele>42</ele>
        <time>2014-02-16T13:33:57Z</time>
      </trkpt>
      <trkpt lat="47.24525" lon="-1.60672">
        <ele>42.1</ele>
        <time>2014-02-16T13:33:58Z</time>
      </trkpt>
      <trkpt lat="47.24532" lon="-1.60686">
        <ele>43</ele>
        <time>2014-02-16T13:34:00Z</time>
      </trkpt>
      <trkpt lat="47.24524" lon="-1.60697">
        <ele>45.4</ele>
        <time>2014-02-16T13:34:03Z</time>
      </trkpt>
      <trkpt lat="47.24515" lon="-1.60711">
        <ele>45.8</ele>
        <time>2014-02-16T13:34:06Z</time>
      </trkpt>
      <trkpt lat="47.24505" lon="-1.6072">
        <ele>46.9</ele>
        <time>2014-02-16T13:34:09Z</time>
      </trkpt>
      <trkpt lat="47.24494" lon="-1.60723">
        <ele>47.5</ele>
        <time>2014-02-16T13:34:12Z</time>
      </trkpt>
      <trkpt lat="47.24484" lon="-1.60723">
        <ele>47.2</ele>
        <time>2014-02-16T13:34:15Z</time>
      </trkpt>
      <trkpt lat="47.24475" lon="-1.60717">
        <ele>47.2</ele>
        <time>2014-02-16T13:34:17Z</time>
      </trkpt>
      <trkpt lat="47.24467" lon="-1.60708">
        <ele>46.6</ele>
        <time>2014-02-16T13:34:19Z</time>
      </trkpt>
      <trkpt lat="47.24456" lon="-1.60701">
        <ele>45.5</ele>
        <time>2014-02-16T13:34:21Z</time>
      </trkpt>
      <trkpt lat="47.24444" lon="-1.60696">
        <ele>44.5</ele>
        <time>2014-02-16T13:34:24Z</time>
      </trkpt>
      <trkpt lat="47.24431" lon="-1.60692">
        <ele>45.8</ele>
        <time>2014-02-16T13:34:27Z</time>
      </trkpt>
      <trkpt lat="47.24419" lon="-1.60685">
        <ele>46.7</ele>
        <time>2014-02-16T13:34:30Z</time>
      </trkpt>
      <trkpt lat="47.2441" lon="-1.60676">
        <ele>46.9</ele>
        <time>2014-02-16T13:34:33Z</time>
      </trkpt>
      <trkpt lat="47.24399" lon="-1.6068">
        <ele>46.7</ele>
        <time>2014-02-16T13:34:37Z</time>
      </trkpt>
      <trkpt lat="47.24385" lon="-1.607">
        <ele>39.4</ele>
        <time>2014-02-16T13:34:43Z</time>
      </trkpt>
      <trkpt lat="47.24376" lon="-1.60706">
        <ele>38.2</ele>
        <time>2014-02-16T13:34:45Z</time>
      </trkpt>
      <trkpt lat="47.24365" lon="-1.60714">
        <ele>36</ele>
        <time>2014-02-16T13:34:47Z</time>
      </trkpt>
      <trkpt lat="47.24356" lon="-1.60721">
        <ele>35.7</ele>
        <time>2014-02-16T13:34:49Z</time>
      </trkpt>
      <trkpt lat="47.24347" lon="-1.60726">
        <ele>36.1</ele>
        <time>2014-02-16T13:34:51Z</time>
      </trkpt>
      <trkpt lat="47.24335" lon="-1.60734">
        <ele>35.8</ele>
        <time>2014-02-16T13:34:54Z</time>
      </trkpt>
      <trkpt lat="47.24324" lon="-1.60744">
        <ele>36.9</ele>
        <time>2014-02-16T13:34:57Z</time>
      </trkpt>
      <trkpt lat="47.24314" lon="-1.60752">
        <ele>37.2</ele>
        <time>2014-02-16T13:35:00Z</time>
      </trkpt>
      <trkpt lat="47.24304" lon="-1.60759">
        <ele>37.4</ele>
        <time>2014-02-16T13:35:03Z</time>
      </trkpt>
      <trkpt lat="47.24295" lon="-1.60767">
        <ele>38.2</ele>
        <time>2014-02-16T13:35:05Z</time>
      </trkpt>
      <trkpt lat="47.24286" lon="-1.60773">
        <ele>39.2</ele>
        <time>2014-02-16T13:35:07Z</time>
      </trkpt>
      <trkpt lat="47.24278" lon="-1.60779">
        <ele>39.9</ele>
        <time>2014-02-16T13:35:09Z</time>
      </trkpt>
      <trkpt lat="47.24267" lon="-1.60788">
        <ele>40.5</ele>
        <time>2014-02-16T13:35:12Z</time>
      </trkpt>
      <trkpt lat="47.24255" lon="-1.60798">
        <ele>40.4</ele>
        <time>2014-02-16T13:35:15Z</time>
      </trkpt>
      <trkpt lat="47.24246" lon="-1.60805">
        <ele>40.5</ele>
        <time>2014-02-16T13:35:17Z</time>
      </trkpt>
      <trkpt lat="47.24238" lon="-1.60814">
        <ele>39.4</ele>
        <time>2014-02-16T13:35:19Z</time>
      </trkpt>
      <trkpt lat="47.24229" lon="-1.60825">
        <ele>39.3</ele>
        <time>2014-02-16T13:35:21Z</time>
      </trkpt>
      <trkpt lat="47.24221" lon="-1.60834">
        <ele>39.6</ele>
        <time>2014-02-16T13:35:23Z</time>
      </trkpt>
      <trkpt lat="47.24211" lon="-1.6084">
        <ele>39.2</ele>
        <time>2014-02-16T13:35:25Z</time>
      </trkpt>
      <trkpt lat="47.24201" lon="-1.60844">
        <ele>39.5</ele>
        <time>2014-02-16T13:35:27Z</time>
      </trkpt>
      <trkpt lat="47.24191" lon="-1.60848">
        <ele>40.1</ele>
        <time>2014-02-16T13:35:29Z</time>
      </trkpt>
      <trkpt lat="47.24181" lon="-1.60853">
        <ele>40.6</ele>
        <time>2014-02-16T13:35:31Z</time>
      </trkpt>
      <trkpt lat="47.2417" lon="-1.6086">
        <ele>41.7</ele>
        <time>2014-02-16T13:35:33Z</time>
      </trkpt>
      <trkpt lat="47.2416" lon="-1.60867">
        <ele>41.8</ele>
        <time>2014-02-16T13:35:35Z</time>
      </trkpt>
      <trkpt lat="47.2415" lon="-1.60874">
        <ele>41.7</ele>
        <time>2014-02-16T13:35:37Z</time>
      </trkpt>
      <trkpt lat="47.2414" lon="-1.60883">
        <ele>41.8</ele>
        <time>2014-02-16T13:35:39Z</time>
      </trkpt>
      <trkpt lat="47.24118" lon="-1.60897">
        <ele>42.1</ele>
        <time>2014-02-16T13:35:43Z</time>
      </trkpt>
      <trkpt lat="47.24107" lon="-1.60905">
        <ele>42.4</ele>
        <time>2014-02-16T13:35:45Z</time>
      </trkpt>
      <trkpt lat="47.24097" lon="-1.60911">
        <ele>41.4</ele>
        <time>2014-02-16T13:35:47Z</time>
      </trkpt>
      <trkpt lat="47.24086" lon="-1.60917">
        <ele>40.4</ele>
        <time>2014-02-16T13:35:49Z</time>
      </trkpt>
      <trkpt lat="47.24075" lon="-1.60924">
        <ele>39.3</ele>
        <time>2014-02-16T13:35:51Z</time>
      </trkpt>
      <trkpt lat="47.24064" lon="-1.60931">
        <ele>38.7</ele>
        <time>2014-02-16T13:35:53Z</time>
      </trkpt>
      <trkpt lat="47.24053" lon="-1.60939">
        <ele>38.4</ele>
        <time>2014-02-16T13:35:55Z</time>
      </trkpt>
      <trkpt lat="47.24043" lon="-1.60946">
        <ele>37.6</ele>
        <time>2014-02-16T13:35:57Z</time>
      </trkpt>
      <trkpt lat="47.24031" lon="-1.60958">
        <ele>38.3</ele>
        <time>2014-02-16T13:35:59Z</time>
      </trkpt>
      <trkpt lat="47.24019" lon="-1.60966">
        <ele>38.3</ele>
        <time>2014-02-16T13:36:01Z</time>
      </trkpt>
      <trkpt lat="47.24008" lon="-1.60974">
        <ele>37.2</ele>
        <time>2014-02-16T13:36:03Z</time>
      </trkpt>
      <trkpt lat="47.23996" lon="-1.60982">
        <ele>36.5</ele>
        <time>2014-02-16T13:36:05Z</time>
      </trkpt>
      <trkpt lat="47.23984" lon="-1.60991">
        <ele>36.4</ele>
        <time>2014-02-16T13:36:07Z</time>
      </trkpt>
      <trkpt lat="47.23972" lon="-1.61002">
        <ele>36.9</ele>
        <time>2014-02-16T13:36:09Z</time>
      </trkpt>
      <trkpt lat="47.23962" lon="-1.61011">
        <ele>36.4</ele>
        <time>2014-02-16T13:36:11Z</time>
      </trkpt>
      <trkpt lat="47.23951" lon="-1.6102">
        <ele>35.6</ele>
        <time>2014-02-16T13:36:13Z</time>
      </trkpt>
      <trkpt lat="47.2394" lon="-1.61027">
        <ele>35.2</ele>
        <time>2014-02-16T13:36:15Z</time>
      </trkpt>
      <trkpt lat="47.2393" lon="-1.61034">
        <ele>34.8</ele>
        <time>2014-02-16T13:36:17Z</time>
      </trkpt>
      <trkpt lat="47.2392" lon="-1.61042">
        <ele>34.3</ele>
        <time>2014-02-16T13:36:19Z</time>
      </trkpt>
      <trkpt lat="47.23911" lon="-1.61051">
        <ele>33.7</ele>
        <time>2014-02-16T13:36:21Z</time>
      </trkpt>
      <trkpt lat="47.23902" lon="-1.6106">
        <ele>33</ele>
        <time>2014-02-16T13:36:23Z</time>
      </trkpt>
      <trkpt lat="47.23892" lon="-1.6107">
        <ele>33.2</ele>
        <time>2014-02-16T13:36:25Z</time>
      </trkpt>
      <trkpt lat="47.23883" lon="-1.61078">
        <ele>33.9</ele>
        <time>2014-02-16T13:36:27Z</time>
      </trkpt>
      <trkpt lat="47.23875" lon="-1.61085">
        <ele>33.7</ele>
        <time>2014-02-16T13:36:29Z</time>
      </trkpt>
      <trkpt lat="47.23866" lon="-1.61093">
        <ele>32.7</ele>
        <time>2014-02-16T13:36:31Z</time>
      </trkpt>
      <trkpt lat="47.23857" lon="-1.61101">
        <ele>31.5</ele>
        <time>2014-02-16T13:36:33Z</time>
      </trkpt>
      <trkpt lat="47.23847" lon="-1.61109">
        <ele>29.9</ele>
        <time>2014-02-16T13:36:35Z</time>
      </trkpt>
      <trkpt lat="47.23838" lon="-1.61116">
        <ele>27</ele>
        <time>2014-02-16T13:36:37Z</time>
      </trkpt>
      <trkpt lat="47.23828" lon="-1.61125">
        <ele>24.2</ele>
        <time>2014-02-16T13:36:39Z</time>
      </trkpt>
      <trkpt lat="47.23816" lon="-1.61135">
        <ele>22.9</ele>
        <time>2014-02-16T13:36:41Z</time>
      </trkpt>
      <trkpt lat="47.23792" lon="-1.61156">
        <ele>22.2</ele>
        <time>2014-02-16T13:36:45Z</time>
      </trkpt>
      <trkpt lat="47.2378" lon="-1.61167">
        <ele>22</ele>
        <time>2014-02-16T13:36:47Z</time>
      </trkpt>
      <trkpt lat="47.23768" lon="-1.61178">
        <ele>21.1</ele>
        <time>2014-02-16T13:36:49Z</time>
      </trkpt>
      <trkpt lat="47.23756" lon="-1.61188">
        <ele>20.2</ele>
        <time>2014-02-16T13:36:51Z</time>
      </trkpt>
      <trkpt lat="47.23746" lon="-1.61196">
        <ele>19</ele>
        <time>2014-02-16T13:36:53Z</time>
      </trkpt>
      <trkpt lat="47.23737" lon="-1.61204">
        <ele>18.8</ele>
        <time>2014-02-16T13:36:55Z</time>
      </trkpt>
      <trkpt lat="47.2373" lon="-1.61216">
        <ele>17.5</ele>
        <time>2014-02-16T13:36:57Z</time>
      </trkpt>
      <trkpt lat="47.23725" lon="-1.61228">
        <ele>16.5</ele>
        <time>2014-02-16T13:36:59Z</time>
      </trkpt>
      <trkpt lat="47.23717" lon="-1.61237">
        <ele>16.4</ele>
        <time>2014-02-16T13:37:04Z</time>
      </trkpt>
      <trkpt lat="47.23707" lon="-1.61234">
        <ele>16.1</ele>
        <time>2014-02-16T13:37:08Z</time>
      </trkpt>
      <trkpt lat="47.2371" lon="-1.61217">
        <ele>15.3</ele>
        <time>2014-02-16T13:37:22Z</time>
      </trkpt>
      <trkpt lat="47.23705" lon="-1.61204">
        <ele>15.4</ele>
        <time>2014-02-16T13:37:34Z</time>
      </trkpt>
      <trkpt lat="47.237" lon="-1.61222">
        <ele>12.9</ele>
        <time>2014-02-16T13:37:42Z</time>
      </trkpt>
      <trkpt lat="47.23696" lon="-1.61246">
        <ele>10.9</ele>
        <time>2014-02-16T13:37:47Z</time>
      </trkpt>
      <trkpt lat="47.23687" lon="-1.61235">
        <ele>10.4</ele>
        <time>2014-02-16T13:37:50Z</time>
      </trkpt>
      <trkpt lat="47.2368" lon="-1.61222">
        <ele>10.1</ele>
        <time>2014-02-16T13:37:53Z</time>
      </trkpt>
      <trkpt lat="47.23675" lon="-1.61209">
        <ele>10.1</ele>
        <time>2014-02-16T13:37:56Z</time>
      </trkpt>
      <trkpt lat="47.23669" lon="-1.61197">
        <ele>10.1</ele>
        <time>2014-02-16T13:37:59Z</time>
      </trkpt>
      <trkpt lat="47.23662" lon="-1.61183">
        <ele>10</ele>
        <time>2014-02-16T13:38:02Z</time>
      </trkpt>
      <trkpt lat="47.23657" lon="-1.61172">
        <ele>9.6</ele>
        <time>2014-02-16T13:38:04Z</time>
      </trkpt>
      <trkpt lat="47.23651" lon="-1.61157">
        <ele>9.1</ele>
        <time>2014-02-16T13:38:06Z</time>
      </trkpt>
      <trkpt lat="47.23648" lon="-1.61143">
        <ele>8.8</ele>
        <time>2014-02-16T13:38:08Z</time>
      </trkpt>
      <trkpt lat="47.23649" lon="-1.61126">
        <ele>8.6</ele>
        <time>2014-02-16T13:38:10Z</time>
      </trkpt>
      <trkpt lat="47.23651" lon="-1.6111">
        <ele>8.4</ele>
        <time>2014-02-16T13:38:12Z</time>
      </trkpt>
      <trkpt lat="47.23654" lon="-1.61094">
        <ele>8.3</ele>
        <time>2014-02-16T13:38:15Z</time>
      </trkpt>
      <trkpt lat="47.23657" lon="-1.61079">
        <ele>8.2</ele>
        <time>2014-02-16T13:38:19Z</time>
      </trkpt>
      <trkpt lat="47.2366" lon="-1.6106">
        <ele>8.6</ele>
        <time>2014-02-16T13:38:23Z</time>
      </trkpt>
      <trkpt lat="47.23662" lon="-1.61044">
        <ele>8.7</ele>
        <time>2014-02-16T13:38:25Z</time>
      </trkpt>
      <trkpt lat="47.23665" lon="-1.61027">
        <ele>8.8</ele>
        <time>2014-02-16T13:38:28Z</time>
      </trkpt>
      <trkpt lat="47.23666" lon="-1.61014">
        <ele>8.8</ele>
        <time>2014-02-16T13:38:31Z</time>
      </trkpt>
      <trkpt lat="47.23663" lon="-1.60999">
        <ele>8.8</ele>
        <time>2014-02-16T13:38:34Z</time>
      </trkpt>
      <trkpt lat="47.23659" lon="-1.60983">
        <ele>8.7</ele>
        <time>2014-02-16T13:38:37Z</time>
      </trkpt>
      <trkpt lat="47.23659" lon="-1.60967">
        <ele>8.5</ele>
        <time>2014-02-16T13:38:39Z</time>
      </trkpt>
      <trkpt lat="47.2366" lon="-1.60954">
        <ele>8.4</ele>
        <time>2014-02-16T13:38:41Z</time>
      </trkpt>
      <trkpt lat="47.23659" lon="-1.60936">
        <ele>8</ele>
        <time>2014-02-16T13:38:44Z</time>
      </trkpt>
      <trkpt lat="47.23646" lon="-1.60911">
        <ele>6.9</ele>
        <time>2014-02-16T13:38:49Z</time>
      </trkpt>
      <trkpt lat="47.23634" lon="-1.60902">
        <ele>5</ele>
        <time>2014-02-16T13:38:52Z</time>
      </trkpt>
      <trkpt lat="47.23627" lon="-1.60888">
        <ele>3.3</ele>
        <time>2014-02-16T13:39:02Z</time>
      </trkpt>
      <trkpt lat="47.23626" lon="-1.60874">
        <ele>3.3</ele>
        <time>2014-02-16T13:39:08Z</time>
      </trkpt>
      <trkpt lat="47.23627" lon="-1.6086">
        <ele>3.5</ele>
        <time>2014-02-16T13:39:13Z</time>
      </trkpt>
      <trkpt lat="47.23629" lon="-1.60843">
        <ele>3.5</ele>
        <time>2014-02-16T13:39:17Z</time>
      </trkpt>
      <trkpt lat="47.23626" lon="-1.60827">
        <ele>3.8</ele>
        <time>2014-02-16T13:39:21Z</time>
      </trkpt>
      <trkpt lat="47.2362" lon="-1.60818">
        <ele>4.1</ele>
        <time>2014-02-16T13:39:24Z</time>
      </trkpt>
      <trkpt lat="47.23611" lon="-1.60811">
        <ele>4.6</ele>
        <time>2014-02-16T13:39:27Z</time>
      </trkpt>
      <trkpt lat="47.23599" lon="-1.60803">
        <ele>5.1</ele>
        <time>2014-02-16T13:39:30Z</time>
      </trkpt>
      <trkpt lat="47.23588" lon="-1.60797">
        <ele>5.8</ele>
        <time>2014-02-16T13:39:33Z</time>
      </trkpt>
      <trkpt lat="47.23579" lon="-1.60791">
        <ele>6.5</ele>
        <time>2014-02-16T13:39:36Z</time>
      </trkpt>
      <trkpt lat="47.23571" lon="-1.60783">
        <ele>7.1</ele>
        <time>2014-02-16T13:39:40Z</time>
      </trkpt>
      <trkpt lat="47.23563" lon="-1.60771">
        <ele>7.6</ele>
        <time>2014-02-16T13:39:44Z</time>
      </trkpt>
      <trkpt lat="47.23556" lon="-1.60761">
        <ele>7.9</ele>
        <time>2014-02-16T13:39:47Z</time>
      </trkpt>
      <trkpt lat="47.23543" lon="-1.60734">
        <ele>8.4</ele>
        <time>2014-02-16T13:39:53Z</time>
      </trkpt>
      <trkpt lat="47.23537" lon="-1.60719">
        <ele>8.7</ele>
        <time>2014-02-16T13:39:56Z</time>
      </trkpt>
      <trkpt lat="47.23533" lon="-1.60707">
        <ele>9.2</ele>
        <time>2014-02-16T13:39:59Z</time>
      </trkpt>
      <trkpt lat="47.23527" lon="-1.60694">
        <ele>10</ele>
        <time>2014-02-16T13:40:04Z</time>
      </trkpt>
      <trkpt lat="47.23521" lon="-1.60681">
        <ele>10.3</ele>
        <time>2014-02-16T13:40:07Z</time>
      </trkpt>
      <trkpt lat="47.23518" lon="-1.60665">
        <ele>10.4</ele>
        <time>2014-02-16T13:40:09Z</time>
      </trkpt>
      <trkpt lat="47.23515" lon="-1.60642">
        <ele>10.5</ele>
        <time>2014-02-16T13:40:11Z</time>
      </trkpt>
      <trkpt lat="47.23511" lon="-1.60621">
        <ele>9.6</ele>
        <time>2014-02-16T13:40:13Z</time>
      </trkpt>
      <trkpt lat="47.23506" lon="-1.60604">
        <ele>7.8</ele>
        <time>2014-02-16T13:40:15Z</time>
      </trkpt>
      <trkpt lat="47.23502" lon="-1.60587">
        <ele>6.3</ele>
        <time>2014-02-16T13:40:17Z</time>
      </trkpt>
      <trkpt lat="47.23498" lon="-1.60574">
        <ele>6.1</ele>
        <time>2014-02-16T13:40:21Z</time>
      </trkpt>
      <trkpt lat="47.23495" lon="-1.60561">
        <ele>5.8</ele>
        <time>2014-02-16T13:40:24Z</time>
      </trkpt>
      <trkpt lat="47.23493" lon="-1.60547">
        <ele>5.6</ele>
        <time>2014-02-16T13:40:27Z</time>
      </trkpt>
      <trkpt lat="47.2349" lon="-1.60533">
        <ele>5.4</ele>
        <time>2014-02-16T13:40:31Z</time>
      </trkpt>
      <trkpt lat="47.23485" lon="-1.60522">
        <ele>5</ele>
        <time>2014-02-16T13:40:35Z</time>
      </trkpt>
      <trkpt lat="47.23477" lon="-1.60514">
        <ele>5.4</ele>
        <time>2014-02-16T13:40:40Z</time>
      </trkpt>
      <trkpt lat="47.23469" lon="-1.60508">
        <ele>5.7</ele>
        <time>2014-02-16T13:40:47Z</time>
      </trkpt>
      <trkpt lat="47.2346" lon="-1.60502">
        <ele>5.8</ele>
        <time>2014-02-16T13:40:51Z</time>
      </trkpt>
      <trkpt lat="47.23445" lon="-1.60488">
        <ele>6.6</ele>
        <time>2014-02-16T13:41:00Z</time>
      </trkpt>
      <trkpt lat="47.23437" lon="-1.6048">
        <ele>6.9</ele>
        <time>2014-02-16T13:41:05Z</time>
      </trkpt>
      <trkpt lat="47.2343" lon="-1.6047">
        <ele>7</ele>
        <time>2014-02-16T13:41:10Z</time>
      </trkpt>
      <trkpt lat="47.23423" lon="-1.6046">
        <ele>7.6</ele>
        <time>2014-02-16T13:41:15Z</time>
      </trkpt>
      <trkpt lat="47.23414" lon="-1.60454">
        <ele>8.2</ele>
        <time>2014-02-16T13:41:19Z</time>
      </trkpt>
      <trkpt lat="47.23406" lon="-1.60446">
        <ele>8.9</ele>
        <time>2014-02-16T13:41:23Z</time>
      </trkpt>
      <trkpt lat="47.23399" lon="-1.60437">
        <ele>9.6</ele>
        <time>2014-02-16T13:41:27Z</time>
      </trkpt>
      <trkpt lat="47.23392" lon="-1.60426">
        <ele>10.3</ele>
        <time>2014-02-16T13:41:31Z</time>
      </trkpt>
      <trkpt lat="47.23385" lon="-1.60414">
        <ele>10.9</ele>
        <time>2014-02-16T13:41:35Z</time>
      </trkpt>
      <trkpt lat="47.2338" lon="-1.60402">
        <ele>11.3</ele>
        <time>2014-02-16T13:41:38Z</time>
      </trkpt>
      <trkpt lat="47.23373" lon="-1.60391">
        <ele>11.7</ele>
        <time>2014-02-16T13:41:41Z</time>
      </trkpt>
      <trkpt lat="47.23367" lon="-1.6038">
        <ele>11.9</ele>
        <time>2014-02-16T13:41:44Z</time>
      </trkpt>
      <trkpt lat="47.23356" lon="-1.60374">
        <ele>12.3</ele>
        <time>2014-02-16T13:41:48Z</time>
      </trkpt>
      <trkpt lat="47.23347" lon="-1.60375">
        <ele>12.7</ele>
        <time>2014-02-16T13:41:51Z</time>
      </trkpt>
      <trkpt lat="47.23335" lon="-1.6038">
        <ele>14.6</ele>
        <time>2014-02-16T13:41:54Z</time>
      </trkpt>
      <trkpt lat="47.23316" lon="-1.60394">
        <ele>15.2</ele>
        <time>2014-02-16T13:42:00Z</time>
      </trkpt>
      <trkpt lat="47.23307" lon="-1.604">
        <ele>15.4</ele>
        <time>2014-02-16T13:42:03Z</time>
      </trkpt>
      <trkpt lat="47.23299" lon="-1.60407">
        <ele>15.5</ele>
        <time>2014-02-16T13:42:06Z</time>
      </trkpt>
      <trkpt lat="47.2329" lon="-1.60416">
        <ele>15.6</ele>
        <time>2014-02-16T13:42:09Z</time>
      </trkpt>
      <trkpt lat="47.2328" lon="-1.6041">
        <ele>15.5</ele>
        <time>2014-02-16T13:42:15Z</time>
      </trkpt>
      <trkpt lat="47.23272" lon="-1.604">
        <ele>15.8</ele>
        <time>2014-02-16T13:42:19Z</time>
      </trkpt>
      <trkpt lat="47.23262" lon="-1.60388">
        <ele>16</ele>
        <time>2014-02-16T13:42:22Z</time>
      </trkpt>
      <trkpt lat="47.23254" lon="-1.60379">
        <ele>16.4</ele>
        <time>2014-02-16T13:42:25Z</time>
      </trkpt>
      <trkpt lat="47.23245" lon="-1.60382">
        <ele>16.7</ele>
        <time>2014-02-16T13:42:28Z</time>
      </trkpt>
      <trkpt lat="47.23239" lon="-1.60394">
        <ele>17.2</ele>
        <time>2014-02-16T13:42:35Z</time>
      </trkpt>
      <trkpt lat="47.23231" lon="-1.60403">
        <ele>17.7</ele>
        <time>2014-02-16T13:42:40Z</time>
      </trkpt>
      <trkpt lat="47.23225" lon="-1.60414">
        <ele>18.2</ele>
        <time>2014-02-16T13:42:44Z</time>
      </trkpt>
      <trkpt lat="47.23219" lon="-1.60426">
        <ele>18.8</ele>
        <time>2014-02-16T13:42:48Z</time>
      </trkpt>
      <trkpt lat="47.23214" lon="-1.60438">
        <ele>19.4</ele>
        <time>2014-02-16T13:42:52Z</time>
      </trkpt>
      <trkpt lat="47.23208" lon="-1.6045">
        <ele>19.9</ele>
        <time>2014-02-16T13:42:57Z</time>
      </trkpt>
      <trkpt lat="47.23192" lon="-1.60469">
        <ele>20.5</ele>
        <time>2014-02-16T13:43:06Z</time>
      </trkpt>
      <trkpt lat="47.23187" lon="-1.6048">
        <ele>21</ele>
        <time>2014-02-16T13:43:10Z</time>
      </trkpt>
      <trkpt lat="47.23181" lon="-1.60492">
        <ele>21.9</ele>
        <time>2014-02-16T13:43:15Z</time>
      </trkpt>
      <trkpt lat="47.23174" lon="-1.60502">
        <ele>22.6</ele>
        <time>2014-02-16T13:43:20Z</time>
      </trkpt>
      <trkpt lat="47.23168" lon="-1.60516">
        <ele>22.5</ele>
        <time>2014-02-16T13:43:25Z</time>
      </trkpt>
      <trkpt lat="47.23161" lon="-1.60529">
        <ele>22.3</ele>
        <time>2014-02-16T13:43:31Z</time>
      </trkpt>
      <trkpt lat="47.2315" lon="-1.60533">
        <ele>22</ele>
        <time>2014-02-16T13:43:35Z</time>
      </trkpt>
      <trkpt lat="47.23138" lon="-1.60534">
        <ele>22.2</ele>
        <time>2014-02-16T13:43:38Z</time>
      </trkpt>
      <trkpt lat="47.23127" lon="-1.60534">
        <ele>22.2</ele>
        <time>2014-02-16T13:43:42Z</time>
      </trkpt>
      <trkpt lat="47.23117" lon="-1.60531">
        <ele>22.7</ele>
        <time>2014-02-16T13:43:49Z</time>
      </trkpt>
      <trkpt lat="47.2311" lon="-1.6052">
        <ele>22.9</ele>
        <time>2014-02-16T13:43:54Z</time>
      </trkpt>
      <trkpt lat="47.231" lon="-1.6051">
        <ele>23.3</ele>
        <time>2014-02-16T13:43:58Z</time>
      </trkpt>
      <trkpt lat="47.23087" lon="-1.60532">
        <ele>24.2</ele>
        <time>2014-02-16T13:44:08Z</time>
      </trkpt>
      <trkpt lat="47.23082" lon="-1.60543">
        <ele>24.8</ele>
        <time>2014-02-16T13:44:13Z</time>
      </trkpt>
      <trkpt lat="47.23072" lon="-1.60548">
        <ele>25.3</ele>
        <time>2014-02-16T13:44:18Z</time>
      </trkpt>
      <trkpt lat="47.23062" lon="-1.60542">
        <ele>25.6</ele>
        <time>2014-02-16T13:44:23Z</time>
      </trkpt>
      <trkpt lat="47.23053" lon="-1.60545">
        <ele>26.6</ele>
        <time>2014-02-16T13:44:29Z</time>
      </trkpt>
      <trkpt lat="47.23046" lon="-1.60554">
        <ele>26.8</ele>
        <time>2014-02-16T13:44:33Z</time>
      </trkpt>
      <trkpt lat="47.23037" lon="-1.60554">
        <ele>26.9</ele>
        <time>2014-02-16T13:44:36Z</time>
      </trkpt>
      <trkpt lat="47.23026" lon="-1.60561">
        <ele>27.1</ele>
        <time>2014-02-16T13:44:39Z</time>
      </trkpt>
      <trkpt lat="47.23016" lon="-1.6057">
        <ele>27.1</ele>
        <time>2014-02-16T13:44:42Z</time>
      </trkpt>
      <trkpt lat="47.23005" lon="-1.60578">
        <ele>27.1</ele>
        <time>2014-02-16T13:44:46Z</time>
      </trkpt>
      <trkpt lat="47.23003" lon="-1.60592">
        <ele>27.5</ele>
        <time>2014-02-16T13:44:52Z</time>
      </trkpt>
      <trkpt lat="47.23008" lon="-1.60606">
        <ele>27.7</ele>
        <time>2014-02-16T13:44:56Z</time>
      </trkpt>
      <trkpt lat="47.23014" lon="-1.60622">
        <ele>27.9</ele>
        <time>2014-02-16T13:44:59Z</time>
      </trkpt>
      <trkpt lat="47.23025" lon="-1.60648">
        <ele>28.8</ele>
        <time>2014-02-16T13:45:05Z</time>
      </trkpt>
      <trkpt lat="47.2303" lon="-1.6066">
        <ele>28.8</ele>
        <time>2014-02-16T13:45:08Z</time>
      </trkpt>
      <trkpt lat="47.23036" lon="-1.60674">
        <ele>28.5</ele>
        <time>2014-02-16T13:45:12Z</time>
      </trkpt>
      <trkpt lat="47.23041" lon="-1.60689">
        <ele>28.2</ele>
        <time>2014-02-16T13:45:16Z</time>
      </trkpt>
      <trkpt lat="47.23046" lon="-1.60701">
        <ele>28.4</ele>
        <time>2014-02-16T13:45:22Z</time>
      </trkpt>
      <trkpt lat="47.23052" lon="-1.60713">
        <ele>28.7</ele>
        <time>2014-02-16T13:45:29Z</time>
      </trkpt>
      <trkpt lat="47.23057" lon="-1.60727">
        <ele>29.2</ele>
        <time>2014-02-16T13:45:34Z</time>
      </trkpt>
      <trkpt lat="47.23061" lon="-1.60742">
        <ele>29.1</ele>
        <time>2014-02-16T13:45:40Z</time>
      </trkpt>
      <trkpt lat="47.2307" lon="-1.60749">
        <ele>29.1</ele>
        <time>2014-02-16T13:45:45Z</time>
      </trkpt>
      <trkpt lat="47.23079" lon="-1.6074">
        <ele>29.3</ele>
        <time>2014-02-16T13:45:50Z</time>
      </trkpt>
      <trkpt lat="47.23081" lon="-1.60724">
        <ele>29.3</ele>
        <time>2014-02-16T13:45:54Z</time>
      </trkpt>
      <trkpt lat="47.23079" lon="-1.60708">
        <ele>29.4</ele>
        <time>2014-02-16T13:45:58Z</time>
      </trkpt>
      <trkpt lat="47.23076" lon="-1.60693">
        <ele>29.6</ele>
        <time>2014-02-16T13:46:01Z</time>
      </trkpt>
      <trkpt lat="47.23076" lon="-1.60665">
        <ele>29.8</ele>
        <time>2014-02-16T13:46:09Z</time>
      </trkpt>
      <trkpt lat="47.23081" lon="-1.60652">
        <ele>30</ele>
        <time>2014-02-16T13:46:27Z</time>
      </trkpt>
      <trkpt lat="47.23089" lon="-1.6065">
        <ele>29.1</ele>
        <time>2014-02-16T13:47:06Z</time>
      </trkpt>
      <trkpt lat="47.2307" lon="-1.60639">
        <ele>57.825061</ele>
        <time>2014-02-16T10:08:36Z</time>
      </trkpt>
      <trkpt lat="47.2307" lon="-1.60639">
        <ele>64.74208</ele>
        <time>2014-02-16T10:08:37Z</time>
      </trkpt>
      <trkpt lat="47.2308" lon="-1.60691">
        <ele>66.400001</ele>
        <time>2014-02-16T10:10:21Z</time>
      </trkpt>
      <trkpt lat="47.23072" lon="-1.6068">
        <ele>29.5</ele>
        <time>2014-02-16T10:12:15Z</time>
      </trkpt>
      <trkpt lat="47.23062" lon="-1.60681">
        <ele>35.7</ele>
        <time>2014-02-16T10:13:23Z</time>
      </trkpt>
      <trkpt lat="47.23067" lon="-1.60694">
        <ele>36.799999</ele>
        <time>2014-02-16T10:13:29Z</time>
      </trkpt>
      <trkpt lat="47.23072" lon="-1.60707">
        <ele>37.299999</ele>
        <time>2014-02-16T10:13:33Z</time>
      </trkpt>
      <trkpt lat="47.23074" lon="-1.60721">
        <ele>37.5</ele>
        <time>2014-02-16T10:13:38Z</time>
      </trkpt>
      <trkpt lat="47.23079" lon="-1.60736">
        <ele>37.599998</ele>
        <time>2014-02-16T10:13:42Z</time>
      </trkpt>
      <trkpt lat="47.23084" lon="-1.60748">
        <ele>37.5</ele>
        <time>2014-02-16T10:13:47Z</time>
      </trkpt>
      <trkpt lat="47.23093" lon="-1.60745">
        <ele>37.400001</ele>
        <time>2014-02-16T10:13:52Z</time>
      </trkpt>
      <trkpt lat="47.23103" lon="-1.60736">
        <ele>37.2</ele>
        <time>2014-02-16T10:13:56Z</time>
      </trkpt>
      <trkpt lat="47.23113" lon="-1.60729">
        <ele>37.099998</ele>
        <time>2014-02-16T10:14:00Z</time>
      </trkpt>
      <trkpt lat="47.23121" lon="-1.60722">
        <ele>36.900001</ele>
        <time>2014-02-16T10:14:03Z</time>
      </trkpt>
      <trkpt lat="47.23129" lon="-1.60716">
        <ele>37</ele>
        <time>2014-02-16T10:14:06Z</time>
      </trkpt>
      <trkpt lat="47.23139" lon="-1.6071">
        <ele>37</ele>
        <time>2014-02-16T10:14:09Z</time>
      </trkpt>
      <trkpt lat="47.23149" lon="-1.60707">
        <ele>37</ele>
        <time>2014-02-16T10:14:13Z</time>
      </trkpt>
      <trkpt lat="47.23159" lon="-1.6072">
        <ele>36.799999</ele>
        <time>2014-02-16T10:14:16Z</time>
      </trkpt>
      <trkpt lat="47.23165" lon="-1.60733">
        <ele>36.799999</ele>
        <time>2014-02-16T10:14:19Z</time>
      </trkpt>
      <trkpt lat="47.2317" lon="-1.60746">
        <ele>36.799999</ele>
        <time>2014-02-16T10:14:22Z</time>
      </trkpt>
      <trkpt lat="47.23174" lon="-1.60759">
        <ele>36.599998</ele>
        <time>2014-02-16T10:14:25Z</time>
      </trkpt>
      <trkpt lat="47.23185" lon="-1.60765">
        <ele>36.400001</ele>
        <time>2014-02-16T10:14:29Z</time>
      </trkpt>
      <trkpt lat="47.23194" lon="-1.60771">
        <ele>36.099998</ele>
        <time>2014-02-16T10:14:32Z</time>
      </trkpt>
      <trkpt lat="47.23203" lon="-1.60779">
        <ele>35.900001</ele>
        <time>2014-02-16T10:14:35Z</time>
      </trkpt>
      <trkpt lat="47.23214" lon="-1.60788">
        <ele>35.799999</ele>
        <time>2014-02-16T10:14:38Z</time>
      </trkpt>
      <trkpt lat="47.23222" lon="-1.60798">
        <ele>35.7</ele>
        <time>2014-02-16T10:14:41Z</time>
      </trkpt>
      <trkpt lat="47.23233" lon="-1.60807">
        <ele>35.400001</ele>
        <time>2014-02-16T10:14:44Z</time>
      </trkpt>
      <trkpt lat="47.23241" lon="-1.60815">
        <ele>35.299999</ele>
        <time>2014-02-16T10:14:47Z</time>
      </trkpt>
      <trkpt lat="47.2325" lon="-1.60824">
        <ele>34.599998</ele>
        <time>2014-02-16T10:14:53Z</time>
      </trkpt>
      <trkpt lat="47.23259" lon="-1.60828">
        <ele>34.400001</ele>
        <time>2014-02-16T10:14:57Z</time>
      </trkpt>
      <trkpt lat="47.23254" lon="-1.60839">
        <ele>34.2</ele>
        <time>2014-02-16T10:15:03Z</time>
      </trkpt>
      <trkpt lat="47.23244" lon="-1.60846">
        <ele>34.2</ele>
        <time>2014-02-16T10:15:07Z</time>
      </trkpt>
      <trkpt lat="47.23235" lon="-1.60852">
        <ele>34.2</ele>
        <time>2014-02-16T10:15:09Z</time>
      </trkpt>
      <trkpt lat="47.23224" lon="-1.60858">
        <ele>34.2</ele>
        <time>2014-02-16T10:15:12Z</time>
      </trkpt>
      <trkpt lat="47.23215" lon="-1.60868">
        <ele>33.900001</ele>
        <time>2014-02-16T10:15:16Z</time>
      </trkpt>
      <trkpt lat="47.23209" lon="-1.60879">
        <ele>33.799999</ele>
        <time>2014-02-16T10:15:19Z</time>
      </trkpt>
      <trkpt lat="47.23199" lon="-1.60884">
        <ele>33.799999</ele>
        <time>2014-02-16T10:15:23Z</time>
      </trkpt>
      <trkpt lat="47.23188" lon="-1.60891">
        <ele>33.599998</ele>
        <time>2014-02-16T10:15:27Z</time>
      </trkpt>
      <trkpt lat="47.23178" lon="-1.6091">
        <ele>34.599998</ele>
        <time>2014-02-16T10:15:40Z</time>
      </trkpt>
      <trkpt lat="47.23185" lon="-1.60921">
        <ele>34.900001</ele>
        <time>2014-02-16T10:15:43Z</time>
      </trkpt>
      <trkpt lat="47.23191" lon="-1.60932">
        <ele>35.099998</ele>
        <time>2014-02-16T10:15:46Z</time>
      </trkpt>
      <trkpt lat="47.23198" lon="-1.60947">
        <ele>35.5</ele>
        <time>2014-02-16T10:15:50Z</time>
      </trkpt>
      <trkpt lat="47.23204" lon="-1.60958">
        <ele>35.599998</ele>
        <time>2014-02-16T10:15:53Z</time>
      </trkpt>
      <trkpt lat="47.23211" lon="-1.6097">
        <ele>35.7</ele>
        <time>2014-02-16T10:15:56Z</time>
      </trkpt>
      <trkpt lat="47.23217" lon="-1.60983">
        <ele>35.900001</ele>
        <time>2014-02-16T10:15:59Z</time>
      </trkpt>
      <trkpt lat="47.23221" lon="-1.60997">
        <ele>36</ele>
        <time>2014-02-16T10:16:02Z</time>
      </trkpt>
      <trkpt lat="47.23222" lon="-1.61011">
        <ele>36.099998</ele>
        <time>2014-02-16T10:16:05Z</time>
      </trkpt>
      <trkpt lat="47.2322" lon="-1.6103">
        <ele>36.099998</ele>
        <time>2014-02-16T10:16:08Z</time>
      </trkpt>
      <trkpt lat="47.23217" lon="-1.61046">
        <ele>36.2</ele>
        <time>2014-02-16T10:16:11Z</time>
      </trkpt>
      <trkpt lat="47.23212" lon="-1.6106">
        <ele>36.299999</ele>
        <time>2014-02-16T10:16:14Z</time>
      </trkpt>
      <trkpt lat="47.23205" lon="-1.61073">
        <ele>36.299999</ele>
        <time>2014-02-16T10:16:17Z</time>
      </trkpt>
      <trkpt lat="47.23199" lon="-1.61083">
        <ele>36.299999</ele>
        <time>2014-02-16T10:16:19Z</time>
      </trkpt>
      <trkpt lat="47.2319" lon="-1.61092">
        <ele>36.299999</ele>
        <time>2014-02-16T10:16:22Z</time>
      </trkpt>
      <trkpt lat="47.2318" lon="-1.61098">
        <ele>36.400001</ele>
        <time>2014-02-16T10:16:26Z</time>
      </trkpt>
      <trkpt lat="47.2317" lon="-1.61103">
        <ele>35.900001</ele>
        <time>2014-02-16T10:16:29Z</time>
      </trkpt>
      <trkpt lat="47.23148" lon="-1.61116">
        <ele>36.900001</ele>
        <time>2014-02-16T10:16:35Z</time>
      </trkpt>
      <trkpt lat="47.23138" lon="-1.61123">
        <ele>37.099998</ele>
        <time>2014-02-16T10:16:38Z</time>
      </trkpt>
      <trkpt lat="47.2313" lon="-1.6113">
        <ele>37.2</ele>
        <time>2014-02-16T10:16:41Z</time>
      </trkpt>
      <trkpt lat="47.2312" lon="-1.61139">
        <ele>37.2</ele>
        <time>2014-02-16T10:16:45Z</time>
      </trkpt>
      <trkpt lat="47.2311" lon="-1.61147">
        <ele>37</ele>
        <time>2014-02-16T10:16:48Z</time>
      </trkpt>
      <trkpt lat="47.23101" lon="-1.61154">
        <ele>36.799999</ele>
        <time>2014-02-16T10:16:51Z</time>
      </trkpt>
      <trkpt lat="47.23096" lon="-1.61169">
        <ele>36.400001</ele>
        <time>2014-02-16T10:16:55Z</time>
      </trkpt>
      <trkpt lat="47.23099" lon="-1.61185">
        <ele>36.2</ele>
        <time>2014-02-16T10:16:58Z</time>
      </trkpt>
      <trkpt lat="47.23103" lon="-1.61199">
        <ele>35.799999</ele>
        <time>2014-02-16T10:17:02Z</time>
      </trkpt>
      <trkpt lat="47.23108" lon="-1.6121">
        <ele>35.299999</ele>
        <time>2014-02-16T10:17:05Z</time>
      </trkpt>
      <trkpt lat="47.23114" lon="-1.61225">
        <ele>34.7</ele>
        <time>2014-02-16T10:17:08Z</time>
      </trkpt>
      <trkpt lat="47.23119" lon="-1.61239">
        <ele>34</ele>
        <time>2014-02-16T10:17:11Z</time>
      </trkpt>
      <trkpt lat="47.23124" lon="-1.61256">
        <ele>33.599998</ele>
        <time>2014-02-16T10:17:14Z</time>
      </trkpt>
      <trkpt lat="47.23127" lon="-1.61272">
        <ele>33.099998</ele>
        <time>2014-02-16T10:17:17Z</time>
      </trkpt>
      <trkpt lat="47.23131" lon="-1.61286">
        <ele>32.799999</ele>
        <time>2014-02-16T10:17:20Z</time>
      </trkpt>
      <trkpt lat="47.23135" lon="-1.61303">
        <ele>32.400001</ele>
        <time>2014-02-16T10:17:23Z</time>
      </trkpt>
      <trkpt lat="47.23139" lon="-1.6132">
        <ele>28.399999</ele>
        <time>2014-02-16T10:17:26Z</time>
      </trkpt>
      <trkpt lat="47.23143" lon="-1.61332">
        <ele>27.2</ele>
        <time>2014-02-16T10:17:28Z</time>
      </trkpt>
      <trkpt lat="47.23148" lon="-1.61345">
        <ele>27.299999</ele>
        <time>2014-02-16T10:17:30Z</time>
      </trkpt>
      <trkpt lat="47.23158" lon="-1.61374">
        <ele>27.1</ele>
        <time>2014-02-16T10:17:35Z</time>
      </trkpt>
      <trkpt lat="47.23163" lon="-1.61386">
        <ele>27.7</ele>
        <time>2014-02-16T10:17:37Z</time>
      </trkpt>
      <trkpt lat="47.23169" lon="-1.61396">
        <ele>28.399999</ele>
        <time>2014-02-16T10:17:39Z</time>
      </trkpt>
      <trkpt lat="47.23178" lon="-1.61409">
        <ele>29.799999</ele>
        <time>2014-02-16T10:17:42Z</time>
      </trkpt>
      <trkpt lat="47.23187" lon="-1.61423">
        <ele>30.6</ele>
        <time>2014-02-16T10:17:45Z</time>
      </trkpt>
      <trkpt lat="47.23191" lon="-1.6144">
        <ele>30.7</ele>
        <time>2014-02-16T10:17:48Z</time>
      </trkpt>
      <trkpt lat="47.23201" lon="-1.61447">
        <ele>30.899999</ele>
        <time>2014-02-16T10:17:52Z</time>
      </trkpt>
      <trkpt lat="47.23212" lon="-1.61441">
        <ele>31.799999</ele>
        <time>2014-02-16T10:17:55Z</time>
      </trkpt>
      <trkpt lat="47.23224" lon="-1.61435">
        <ele>32.2</ele>
        <time>2014-02-16T10:17:58Z</time>
      </trkpt>
      <trkpt lat="47.23236" lon="-1.61427">
        <ele>33.2</ele>
        <time>2014-02-16T10:18:01Z</time>
      </trkpt>
      <trkpt lat="47.23247" lon="-1.61419">
        <ele>35.400001</ele>
        <time>2014-02-16T10:18:04Z</time>
      </trkpt>
      <trkpt lat="47.23259" lon="-1.61414">
        <ele>35.599998</ele>
        <time>2014-02-16T10:18:07Z</time>
      </trkpt>
      <trkpt lat="47.23266" lon="-1.61426">
        <ele>35.400001</ele>
        <time>2014-02-16T10:18:11Z</time>
      </trkpt>
      <trkpt lat="47.23269" lon="-1.6144">
        <ele>35.099998</ele>
        <time>2014-02-16T10:18:14Z</time>
      </trkpt>
      <trkpt lat="47.2327" lon="-1.61453">
        <ele>34.900001</ele>
        <time>2014-02-16T10:18:16Z</time>
      </trkpt>
      <trkpt lat="47.23271" lon="-1.61466">
        <ele>34.7</ele>
        <time>2014-02-16T10:18:18Z</time>
      </trkpt>
      <trkpt lat="47.23273" lon="-1.61482">
        <ele>34.599998</ele>
        <time>2014-02-16T10:18:20Z</time>
      </trkpt>
      <trkpt lat="47.23273" lon="-1.61498">
        <ele>34.5</ele>
        <time>2014-02-16T10:18:22Z</time>
      </trkpt>
      <trkpt lat="47.23274" lon="-1.61512">
        <ele>34.400001</ele>
        <time>2014-02-16T10:18:24Z</time>
      </trkpt>
      <trkpt lat="47.23275" lon="-1.61531">
        <ele>33.299999</ele>
        <time>2014-02-16T10:18:27Z</time>
      </trkpt>
      <trkpt lat="47.23278" lon="-1.61545">
        <ele>33.299999</ele>
        <time>2014-02-16T10:18:29Z</time>
      </trkpt>
      <trkpt lat="47.23282" lon="-1.61563">
        <ele>34.799999</ele>
        <time>2014-02-16T10:18:32Z</time>
      </trkpt>
      <trkpt lat="47.23293" lon="-1.61592">
        <ele>34.799999</ele>
        <time>2014-02-16T10:18:37Z</time>
      </trkpt>
      <trkpt lat="47.23301" lon="-1.61607">
        <ele>35.900001</ele>
        <time>2014-02-16T10:18:40Z</time>
      </trkpt>
      <trkpt lat="47.23307" lon="-1.61618">
        <ele>36.400001</ele>
        <time>2014-02-16T10:18:42Z</time>
      </trkpt>
      <trkpt lat="47.23312" lon="-1.61628">
        <ele>37.400001</ele>
        <time>2014-02-16T10:18:44Z</time>
      </trkpt>
      <trkpt lat="47.23319" lon="-1.61638">
        <ele>37.599998</ele>
        <time>2014-02-16T10:18:46Z</time>
      </trkpt>
      <trkpt lat="47.23326" lon="-1.61648">
        <ele>37.2</ele>
        <time>2014-02-16T10:18:48Z</time>
      </trkpt>
      <trkpt lat="47.23335" lon="-1.61662">
        <ele>37</ele>
        <time>2014-02-16T10:18:51Z</time>
      </trkpt>
      <trkpt lat="47.23343" lon="-1.61675">
        <ele>37.5</ele>
        <time>2014-02-16T10:18:54Z</time>
      </trkpt>
      <trkpt lat="47.23349" lon="-1.61686">
        <ele>38</ele>
        <time>2014-02-16T10:18:56Z</time>
      </trkpt>
      <trkpt lat="47.23359" lon="-1.61702">
        <ele>38.599998</ele>
        <time>2014-02-16T10:18:59Z</time>
      </trkpt>
      <trkpt lat="47.23365" lon="-1.61713">
        <ele>38.599998</ele>
        <time>2014-02-16T10:19:01Z</time>
      </trkpt>
      <trkpt lat="47.2337" lon="-1.61725">
        <ele>37.799999</ele>
        <time>2014-02-16T10:19:03Z</time>
      </trkpt>
      <trkpt lat="47.23378" lon="-1.61733">
        <ele>37.7</ele>
        <time>2014-02-16T10:19:06Z</time>
      </trkpt>
      <trkpt lat="47.23387" lon="-1.61725">
        <ele>36.799999</ele>
        <time>2014-02-16T10:19:09Z</time>
      </trkpt>
      <trkpt lat="47.23397" lon="-1.61719">
        <ele>35.099998</ele>
        <time>2014-02-16T10:19:11Z</time>
      </trkpt>
      <trkpt lat="47.23408" lon="-1.61716">
        <ele>34.099998</ele>
        <time>2014-02-16T10:19:13Z</time>
      </trkpt>
      <trkpt lat="47.2342" lon="-1.61715">
        <ele>34</ele>
        <time>2014-02-16T10:19:15Z</time>
      </trkpt>
      <trkpt lat="47.23433" lon="-1.61716">
        <ele>35.299999</ele>
        <time>2014-02-16T10:19:17Z</time>
      </trkpt>
      <trkpt lat="47.23447" lon="-1.61718">
        <ele>36.299999</ele>
        <time>2014-02-16T10:19:19Z</time>
      </trkpt>
      <trkpt lat="47.23459" lon="-1.61722">
        <ele>36.7</ele>
        <time>2014-02-16T10:19:21Z</time>
      </trkpt>
      <trkpt lat="47.23469" lon="-1.61729">
        <ele>35.900001</ele>
        <time>2014-02-16T10:19:23Z</time>
      </trkpt>
      <trkpt lat="47.23475" lon="-1.6174">
        <ele>35.2</ele>
        <time>2014-02-16T10:19:27Z</time>
      </trkpt>
      <trkpt lat="47.23484" lon="-1.61747">
        <ele>34.7</ele>
        <time>2014-02-16T10:19:31Z</time>
      </trkpt>
      <trkpt lat="47.23495" lon="-1.61745">
        <ele>33.7</ele>
        <time>2014-02-16T10:19:34Z</time>
      </trkpt>
      <trkpt lat="47.23515" lon="-1.61726">
        <ele>32.5</ele>
        <time>2014-02-16T10:19:38Z</time>
      </trkpt>
      <trkpt lat="47.23526" lon="-1.61714">
        <ele>32.5</ele>
        <time>2014-02-16T10:19:40Z</time>
      </trkpt>
      <trkpt lat="47.23536" lon="-1.61703">
        <ele>32.400001</ele>
        <time>2014-02-16T10:19:42Z</time>
      </trkpt>
      <trkpt lat="47.23546" lon="-1.61692">
        <ele>32.400001</ele>
        <time>2014-02-16T10:19:44Z</time>
      </trkpt>
      <trkpt lat="47.23555" lon="-1.61682">
        <ele>31.899999</ele>
        <time>2014-02-16T10:19:46Z</time>
      </trkpt>
      <trkpt lat="47.23565" lon="-1.61671">
        <ele>30.7</ele>
        <time>2014-02-16T10:19:48Z</time>
      </trkpt>
      <trkpt lat="47.23574" lon="-1.61659">
        <ele>29.6</ele>
        <time>2014-02-16T10:19:50Z</time>
      </trkpt>
      <trkpt lat="47.23582" lon="-1.61644">
        <ele>29.5</ele>
        <time>2014-02-16T10:19:52Z</time>
      </trkpt>
      <trkpt lat="47.23589" lon="-1.61629">
        <ele>29.899999</ele>
        <time>2014-02-16T10:19:54Z</time>
      </trkpt>
      <trkpt lat="47.23596" lon="-1.61615">
        <ele>29.2</ele>
        <time>2014-02-16T10:19:57Z</time>
      </trkpt>
      <trkpt lat="47.23604" lon="-1.61601">
        <ele>29.299999</ele>
        <time>2014-02-16T10:20:00Z</time>
      </trkpt>
      <trkpt lat="47.23604" lon="-1.61587">
        <ele>29.1</ele>
        <time>2014-02-16T10:20:03Z</time>
      </trkpt>
      <trkpt lat="47.23611" lon="-1.61572">
        <ele>28.5</ele>
        <time>2014-02-16T10:20:06Z</time>
      </trkpt>
      <trkpt lat="47.23618" lon="-1.61563">
        <ele>28.1</ele>
        <time>2014-02-16T10:20:09Z</time>
      </trkpt>
      <trkpt lat="47.23623" lon="-1.61552">
        <ele>27.899999</ele>
        <time>2014-02-16T10:20:12Z</time>
      </trkpt>
      <trkpt lat="47.23634" lon="-1.61531">
        <ele>25.899999</ele>
        <time>2014-02-16T10:20:25Z</time>
      </trkpt>
      <trkpt lat="47.23647" lon="-1.61531">
        <ele>25</ele>
        <time>2014-02-16T10:20:28Z</time>
      </trkpt>
      <trkpt lat="47.23657" lon="-1.6153">
        <ele>20</ele>
        <time>2014-02-16T10:20:30Z</time>
      </trkpt>
      <trkpt lat="47.23672" lon="-1.61529">
        <ele>16.6</ele>
        <time>2014-02-16T10:20:32Z</time>
      </trkpt>
      <trkpt lat="47.23681" lon="-1.61523">
        <ele>16.399999</ele>
        <time>2014-02-16T10:20:34Z</time>
      </trkpt>
      <trkpt lat="47.23692" lon="-1.61514">
        <ele>16.2</ele>
        <time>2014-02-16T10:20:37Z</time>
      </trkpt>
      <trkpt lat="47.23713" lon="-1.61505">
        <ele>16.299999</ele>
        <time>2014-02-16T10:20:43Z</time>
      </trkpt>
      <trkpt lat="47.23724" lon="-1.61502">
        <ele>15.899999</ele>
        <time>2014-02-16T10:20:48Z</time>
      </trkpt>
      <trkpt lat="47.23735" lon="-1.61508">
        <ele>15.6</ele>
        <time>2014-02-16T10:20:52Z</time>
      </trkpt>
      <trkpt lat="47.23744" lon="-1.61519">
        <ele>15.3</ele>
        <time>2014-02-16T10:20:56Z</time>
      </trkpt>
      <trkpt lat="47.23751" lon="-1.6153">
        <ele>15</ele>
        <time>2014-02-16T10:21:01Z</time>
      </trkpt>
      <trkpt lat="47.2376" lon="-1.61537">
        <ele>14.8</ele>
        <time>2014-02-16T10:21:07Z</time>
      </trkpt>
      <trkpt lat="47.23769" lon="-1.61543">
        <ele>14.5</ele>
        <time>2014-02-16T10:21:11Z</time>
      </trkpt>
      <trkpt lat="47.23776" lon="-1.61552">
        <ele>14.1</ele>
        <time>2014-02-16T10:21:15Z</time>
      </trkpt>
      <trkpt lat="47.23782" lon="-1.6157">
        <ele>13.5</ele>
        <time>2014-02-16T10:21:39Z</time>
      </trkpt>
      <trkpt lat="47.23773" lon="-1.61604">
        <ele>14.1</ele>
        <time>2014-02-16T10:21:52Z</time>
      </trkpt>
      <trkpt lat="47.23768" lon="-1.61617">
        <ele>14.3</ele>
        <time>2014-02-16T10:21:58Z</time>
      </trkpt>
      <trkpt lat="47.23765" lon="-1.61629">
        <ele>14.199999</ele>
        <time>2014-02-16T10:22:02Z</time>
      </trkpt>
      <trkpt lat="47.23763" lon="-1.61643">
        <ele>14.199999</ele>
        <time>2014-02-16T10:22:07Z</time>
      </trkpt>
      <trkpt lat="47.23759" lon="-1.61664">
        <ele>16.2</ele>
        <time>2014-02-16T10:22:35Z</time>
      </trkpt>
      <trkpt lat="47.23758" lon="-1.61679">
        <ele>17.299999</ele>
        <time>2014-02-16T10:22:51Z</time>
      </trkpt>
      <trkpt lat="47.23773" lon="-1.61707">
        <ele>18</ele>
        <time>2014-02-16T10:23:10Z</time>
      </trkpt>
      <trkpt lat="47.23776" lon="-1.61721">
        <ele>18.5</ele>
        <time>2014-02-16T10:23:18Z</time>
      </trkpt>
      <trkpt lat="47.23776" lon="-1.61735">
        <ele>19.1</ele>
        <time>2014-02-16T10:23:23Z</time>
      </trkpt>
      <trkpt lat="47.23773" lon="-1.6175">
        <ele>19.6</ele>
        <time>2014-02-16T10:23:28Z</time>
      </trkpt>
      <trkpt lat="47.23777" lon="-1.61763">
        <ele>19.399999</ele>
        <time>2014-02-16T10:23:34Z</time>
      </trkpt>
      <trkpt lat="47.23783" lon="-1.61775">
        <ele>18.7</ele>
        <time>2014-02-16T10:23:41Z</time>
      </trkpt>
      <trkpt lat="47.23789" lon="-1.6179">
        <ele>17.6</ele>
        <time>2014-02-16T10:23:49Z</time>
      </trkpt>
      <trkpt lat="47.23793" lon="-1.61804">
        <ele>16.6</ele>
        <time>2014-02-16T10:23:53Z</time>
      </trkpt>
      <trkpt lat="47.23806" lon="-1.61824">
        <ele>15</ele>
        <time>2014-02-16T10:24:00Z</time>
      </trkpt>
      <trkpt lat="47.23815" lon="-1.61834">
        <ele>14.1</ele>
        <time>2014-02-16T10:24:07Z</time>
      </trkpt>
      <trkpt lat="47.23818" lon="-1.61849">
        <ele>13.199999</ele>
        <time>2014-02-16T10:24:11Z</time>
      </trkpt>
      <trkpt lat="47.23818" lon="-1.61864">
        <ele>11.8</ele>
        <time>2014-02-16T10:24:16Z</time>
      </trkpt>
      <trkpt lat="47.23825" lon="-1.61874">
        <ele>10.1</ele>
        <time>2014-02-16T10:24:21Z</time>
      </trkpt>
      <trkpt lat="47.23829" lon="-1.61889">
        <ele>9.3</ele>
        <time>2014-02-16T10:24:23Z</time>
      </trkpt>
      <trkpt lat="47.23831" lon="-1.6191">
        <ele>11.6</ele>
        <time>2014-02-16T10:24:52Z</time>
      </trkpt>
      <trkpt lat="47.23839" lon="-1.61919">
        <ele>12.3</ele>
        <time>2014-02-16T10:24:56Z</time>
      </trkpt>
      <trkpt lat="47.23854" lon="-1.61937">
        <ele>12.1</ele>
        <time>2014-02-16T10:25:07Z</time>
      </trkpt>
      <trkpt lat="47.23865" lon="-1.61945">
        <ele>11.899999</ele>
        <time>2014-02-16T10:25:11Z</time>
      </trkpt>
      <trkpt lat="47.23875" lon="-1.61952">
        <ele>12.1</ele>
        <time>2014-02-16T10:25:15Z</time>
      </trkpt>
      <trkpt lat="47.23885" lon="-1.61957">
        <ele>12.699999</ele>
        <time>2014-02-16T10:25:20Z</time>
      </trkpt>
      <trkpt lat="47.23894" lon="-1.6196">
        <ele>12.899999</ele>
        <time>2014-02-16T10:25:23Z</time>
      </trkpt>
      <trkpt lat="47.23903" lon="-1.61963">
        <ele>13</ele>
        <time>2014-02-16T10:25:26Z</time>
      </trkpt>
      <trkpt lat="47.23913" lon="-1.61963">
        <ele>13.1</ele>
        <time>2014-02-16T10:25:29Z</time>
      </trkpt>
      <trkpt lat="47.23923" lon="-1.61965">
        <ele>13.399999</ele>
        <time>2014-02-16T10:25:34Z</time>
      </trkpt>
      <trkpt lat="47.23933" lon="-1.61969">
        <ele>14.1</ele>
        <time>2014-02-16T10:25:41Z</time>
      </trkpt>
      <trkpt lat="47.23943" lon="-1.61973">
        <ele>14.6</ele>
        <time>2014-02-16T10:25:47Z</time>
      </trkpt>
      <trkpt lat="47.2395" lon="-1.61982">
        <ele>15.399999</ele>
        <time>2014-02-16T10:25:52Z</time>
      </trkpt>
      <trkpt lat="47.23957" lon="-1.61991">
        <ele>15.8</ele>
        <time>2014-02-16T10:25:56Z</time>
      </trkpt>
      <trkpt lat="47.23965" lon="-1.61998">
        <ele>16.1</ele>
        <time>2014-02-16T10:25:59Z</time>
      </trkpt>
      <trkpt lat="47.23981" lon="-1.62016">
        <ele>16.1</ele>
        <time>2014-02-16T10:26:05Z</time>
      </trkpt>
      <trkpt lat="47.23987" lon="-1.62026">
        <ele>15.3</ele>
        <time>2014-02-16T10:26:08Z</time>
      </trkpt>
      <trkpt lat="47.23993" lon="-1.62039">
        <ele>14.1</ele>
        <time>2014-02-16T10:26:11Z</time>
      </trkpt>
      <trkpt lat="47.23999" lon="-1.62049">
        <ele>12.5</ele>
        <time>2014-02-16T10:26:15Z</time>
      </trkpt>
      <trkpt lat="47.24007" lon="-1.62059">
        <ele>10.199999</ele>
        <time>2014-02-16T10:26:22Z</time>
      </trkpt>
      <trkpt lat="47.24007" lon="-1.62073">
        <ele>7.8</ele>
        <time>2014-02-16T10:26:29Z</time>
      </trkpt>
      <trkpt lat="47.24011" lon="-1.62087">
        <ele>5.5</ele>
        <time>2014-02-16T10:26:36Z</time>
      </trkpt>
      <trkpt lat="47.24013" lon="-1.62102">
        <ele>6</ele>
        <time>2014-02-16T10:26:39Z</time>
      </trkpt>
      <trkpt lat="47.24014" lon="-1.62117">
        <ele>7</ele>
        <time>2014-02-16T10:26:43Z</time>
      </trkpt>
      <trkpt lat="47.24014" lon="-1.6213">
        <ele>7.4</ele>
        <time>2014-02-16T10:26:46Z</time>
      </trkpt>
      <trkpt lat="47.24013" lon="-1.62148">
        <ele>7.9</ele>
        <time>2014-02-16T10:26:50Z</time>
      </trkpt>
      <trkpt lat="47.24013" lon="-1.62163">
        <ele>8.399999</ele>
        <time>2014-02-16T10:26:53Z</time>
      </trkpt>
      <trkpt lat="47.24013" lon="-1.62176">
        <ele>8.899999</ele>
        <time>2014-02-16T10:26:56Z</time>
      </trkpt>
      <trkpt lat="47.24015" lon="-1.62191">
        <ele>9.5</ele>
        <time>2014-02-16T10:26:59Z</time>
      </trkpt>
      <trkpt lat="47.24016" lon="-1.62208">
        <ele>10</ele>
        <time>2014-02-16T10:27:02Z</time>
      </trkpt>
      <trkpt lat="47.24015" lon="-1.62242">
        <ele>10.399999</ele>
        <time>2014-02-16T10:27:08Z</time>
      </trkpt>
      <trkpt lat="47.24014" lon="-1.6226">
        <ele>10.8</ele>
        <time>2014-02-16T10:27:11Z</time>
      </trkpt>
      <trkpt lat="47.24016" lon="-1.62278">
        <ele>11</ele>
        <time>2014-02-16T10:27:14Z</time>
      </trkpt>
      <trkpt lat="47.24016" lon="-1.62294">
        <ele>11.199999</ele>
        <time>2014-02-16T10:27:17Z</time>
      </trkpt>
      <trkpt lat="47.24014" lon="-1.62308">
        <ele>11.5</ele>
        <time>2014-02-16T10:27:20Z</time>
      </trkpt>
      <trkpt lat="47.24013" lon="-1.62321">
        <ele>11.8</ele>
        <time>2014-02-16T10:27:23Z</time>
      </trkpt>
      <trkpt lat="47.24013" lon="-1.62337">
        <ele>12.1</ele>
        <time>2014-02-16T10:27:26Z</time>
      </trkpt>
      <trkpt lat="47.24013" lon="-1.62353">
        <ele>11.5</ele>
        <time>2014-02-16T10:27:31Z</time>
      </trkpt>
      <trkpt lat="47.24015" lon="-1.6237">
        <ele>11.199999</ele>
        <time>2014-02-16T10:27:34Z</time>
      </trkpt>
      <trkpt lat="47.24013" lon="-1.62388">
        <ele>11</ele>
        <time>2014-02-16T10:27:38Z</time>
      </trkpt>
      <trkpt lat="47.24013" lon="-1.62402">
        <ele>10.8</ele>
        <time>2014-02-16T10:27:41Z</time>
      </trkpt>
      <trkpt lat="47.24017" lon="-1.62413">
        <ele>10.899999</ele>
        <time>2014-02-16T10:27:44Z</time>
      </trkpt>
      <trkpt lat="47.24015" lon="-1.62427">
        <ele>11.1</ele>
        <time>2014-02-16T10:27:49Z</time>
      </trkpt>
      <trkpt lat="47.24012" lon="-1.62439">
        <ele>11.3</ele>
        <time>2014-02-16T10:27:56Z</time>
      </trkpt>
      <trkpt lat="47.24012" lon="-1.62453">
        <ele>11.699999</ele>
        <time>2014-02-16T10:28:06Z</time>
      </trkpt>
      <trkpt lat="47.24025" lon="-1.62474">
        <ele>12.6</ele>
        <time>2014-02-16T10:28:26Z</time>
      </trkpt>
      <trkpt lat="47.24033" lon="-1.62484">
        <ele>12.6</ele>
        <time>2014-02-16T10:28:29Z</time>
      </trkpt>
      <trkpt lat="47.24042" lon="-1.62493">
        <ele>12.899999</ele>
        <time>2014-02-16T10:28:33Z</time>
      </trkpt>
      <trkpt lat="47.24048" lon="-1.62504">
        <ele>13.3</ele>
        <time>2014-02-16T10:28:36Z</time>
      </trkpt>
      <trkpt lat="47.24054" lon="-1.62515">
        <ele>13.399999</ele>
        <time>2014-02-16T10:28:40Z</time>
      </trkpt>
      <trkpt lat="47.24061" lon="-1.62525">
        <ele>13.3</ele>
        <time>2014-02-16T10:28:43Z</time>
      </trkpt>
      <trkpt lat="47.24069" lon="-1.62537">
        <ele>13.199999</ele>
        <time>2014-02-16T10:28:46Z</time>
      </trkpt>
      <trkpt lat="47.24078" lon="-1.62541">
        <ele>13</ele>
        <time>2014-02-16T10:28:50Z</time>
      </trkpt>
      <trkpt lat="47.24088" lon="-1.62544">
        <ele>12.8</ele>
        <time>2014-02-16T10:28:54Z</time>
      </trkpt>
      <trkpt lat="47.24095" lon="-1.62554">
        <ele>12.899999</ele>
        <time>2014-02-16T10:28:57Z</time>
      </trkpt>
      <trkpt lat="47.24099" lon="-1.62569">
        <ele>13.3</ele>
        <time>2014-02-16T10:29:01Z</time>
      </trkpt>
      <trkpt lat="47.24095" lon="-1.62584">
        <ele>13.699999</ele>
        <time>2014-02-16T10:29:05Z</time>
      </trkpt>
      <trkpt lat="47.24092" lon="-1.62598">
        <ele>14.199999</ele>
        <time>2014-02-16T10:29:09Z</time>
      </trkpt>
      <trkpt lat="47.24083" lon="-1.62627">
        <ele>14.5</ele>
        <time>2014-02-16T10:29:16Z</time>
      </trkpt>
      <trkpt lat="47.24077" lon="-1.62639">
        <ele>14.6</ele>
        <time>2014-02-16T10:29:20Z</time>
      </trkpt>
      <trkpt lat="47.24072" lon="-1.6265">
        <ele>14.899999</ele>
        <time>2014-02-16T10:29:24Z</time>
      </trkpt>
      <trkpt lat="47.24066" lon="-1.62662">
        <ele>14.6</ele>
        <time>2014-02-16T10:29:32Z</time>
      </trkpt>
      <trkpt lat="47.24062" lon="-1.62676">
        <ele>14.5</ele>
        <time>2014-02-16T10:29:37Z</time>
      </trkpt>
      <trkpt lat="47.24059" lon="-1.62691">
        <ele>14.3</ele>
        <time>2014-02-16T10:29:42Z</time>
      </trkpt>
      <trkpt lat="47.24055" lon="-1.62703">
        <ele>13.6</ele>
        <time>2014-02-16T10:29:52Z</time>
      </trkpt>
      <trkpt lat="47.24046" lon="-1.62711">
        <ele>12.899999</ele>
        <time>2014-02-16T10:30:00Z</time>
      </trkpt>
      <trkpt lat="47.24039" lon="-1.62722">
        <ele>12.6</ele>
        <time>2014-02-16T10:30:06Z</time>
      </trkpt>
      <trkpt lat="47.24037" lon="-1.62737">
        <ele>12.899999</ele>
        <time>2014-02-16T10:30:13Z</time>
      </trkpt>
      <trkpt lat="47.24053" lon="-1.62749">
        <ele>14.699999</ele>
        <time>2014-02-16T10:30:24Z</time>
      </trkpt>
      <trkpt lat="47.24065" lon="-1.62747">
        <ele>14.8</ele>
        <time>2014-02-16T10:30:26Z</time>
      </trkpt>
      <trkpt lat="47.24076" lon="-1.62755">
        <ele>15.3</ele>
        <time>2014-02-16T10:30:29Z</time>
      </trkpt>
      <trkpt lat="47.2408" lon="-1.6277">
        <ele>15.699999</ele>
        <time>2014-02-16T10:30:33Z</time>
      </trkpt>
      <trkpt lat="47.24081" lon="-1.62786">
        <ele>15.899999</ele>
        <time>2014-02-16T10:30:37Z</time>
      </trkpt>
      <trkpt lat="47.24083" lon="-1.628">
        <ele>15.699999</ele>
        <time>2014-02-16T10:30:40Z</time>
      </trkpt>
      <trkpt lat="47.24084" lon="-1.62815">
        <ele>15.3</ele>
        <time>2014-02-16T10:30:44Z</time>
      </trkpt>
      <trkpt lat="47.24084" lon="-1.62828">
        <ele>15.199999</ele>
        <time>2014-02-16T10:30:47Z</time>
      </trkpt>
      <trkpt lat="47.24083" lon="-1.62842">
        <ele>15.199999</ele>
        <time>2014-02-16T10:30:50Z</time>
      </trkpt>
      <trkpt lat="47.24081" lon="-1.62857">
        <ele>15.199999</ele>
        <time>2014-02-16T10:30:52Z</time>
      </trkpt>
      <trkpt lat="47.24079" lon="-1.62877">
        <ele>15.399999</ele>
        <time>2014-02-16T10:30:55Z</time>
      </trkpt>
      <trkpt lat="47.24079" lon="-1.62896">
        <ele>15.5</ele>
        <time>2014-02-16T10:30:58Z</time>
      </trkpt>
      <trkpt lat="47.2408" lon="-1.62913">
        <ele>15.5</ele>
        <time>2014-02-16T10:31:01Z</time>
      </trkpt>
      <trkpt lat="47.2408" lon="-1.6293">
        <ele>15.8</ele>
        <time>2014-02-16T10:31:04Z</time>
      </trkpt>
      <trkpt lat="47.2408" lon="-1.62944">
        <ele>16.1</ele>
        <time>2014-02-16T10:31:07Z</time>
      </trkpt>
      <trkpt lat="47.24079" lon="-1.62959">
        <ele>16.5</ele>
        <time>2014-02-16T10:31:10Z</time>
      </trkpt>
      <trkpt lat="47.24076" lon="-1.62976">
        <ele>17</ele>
        <time>2014-02-16T10:31:13Z</time>
      </trkpt>
      <trkpt lat="47.24071" lon="-1.62993">
        <ele>17.5</ele>
        <time>2014-02-16T10:31:16Z</time>
      </trkpt>
      <trkpt lat="47.24061" lon="-1.63019">
        <ele>18.7</ele>
        <time>2014-02-16T10:31:23Z</time>
      </trkpt>
      <trkpt lat="47.24059" lon="-1.63032">
        <ele>19</ele>
        <time>2014-02-16T10:31:26Z</time>
      </trkpt>
      <trkpt lat="47.24057" lon="-1.63048">
        <ele>19.2</ele>
        <time>2014-02-16T10:31:29Z</time>
      </trkpt>
      <trkpt lat="47.24057" lon="-1.63062">
        <ele>19.299999</ele>
        <time>2014-02-16T10:31:31Z</time>
      </trkpt>
      <trkpt lat="47.2406" lon="-1.63076">
        <ele>19.7</ele>
        <time>2014-02-16T10:31:34Z</time>
      </trkpt>
      <trkpt lat="47.24064" lon="-1.6309">
        <ele>19.799999</ele>
        <time>2014-02-16T10:31:37Z</time>
      </trkpt>
      <trkpt lat="47.24069" lon="-1.63107">
        <ele>20</ele>
        <time>2014-02-16T10:31:40Z</time>
      </trkpt>
      <trkpt lat="47.24073" lon="-1.63119">
        <ele>20.2</ele>
        <time>2014-02-16T10:31:43Z</time>
      </trkpt>
      <trkpt lat="47.24077" lon="-1.63133">
        <ele>20.399999</ele>
        <time>2014-02-16T10:31:46Z</time>
      </trkpt>
      <trkpt lat="47.24079" lon="-1.63149">
        <ele>20.899999</ele>
        <time>2014-02-16T10:31:49Z</time>
      </trkpt>
      <trkpt lat="47.24083" lon="-1.63164">
        <ele>21.799999</ele>
        <time>2014-02-16T10:31:53Z</time>
      </trkpt>
      <trkpt lat="47.24085" lon="-1.63178">
        <ele>22.299999</ele>
        <time>2014-02-16T10:31:56Z</time>
      </trkpt>
      <trkpt lat="47.24087" lon="-1.63192">
        <ele>22.799999</ele>
        <time>2014-02-16T10:31:59Z</time>
      </trkpt>
      <trkpt lat="47.24088" lon="-1.63207">
        <ele>23.399999</ele>
        <time>2014-02-16T10:32:02Z</time>
      </trkpt>
      <trkpt lat="47.24089" lon="-1.63221">
        <ele>23.899999</ele>
        <time>2014-02-16T10:32:05Z</time>
      </trkpt>
      <trkpt lat="47.24093" lon="-1.63237">
        <ele>24.299999</ele>
        <time>2014-02-16T10:32:09Z</time>
      </trkpt>
      <trkpt lat="47.24103" lon="-1.6324">
        <ele>24.2</ele>
        <time>2014-02-16T10:32:15Z</time>
      </trkpt>
      <trkpt lat="47.24113" lon="-1.63238">
        <ele>24</ele>
        <time>2014-02-16T10:32:20Z</time>
      </trkpt>
      <trkpt lat="47.24134" lon="-1.63231">
        <ele>23.2</ele>
        <time>2014-02-16T10:32:28Z</time>
      </trkpt>
      <trkpt lat="47.24144" lon="-1.63229">
        <ele>22.899999</ele>
        <time>2014-02-16T10:32:33Z</time>
      </trkpt>
      <trkpt lat="47.24154" lon="-1.63233">
        <ele>22.2</ele>
        <time>2014-02-16T10:32:38Z</time>
      </trkpt>
      <trkpt lat="47.24166" lon="-1.63239">
        <ele>21.7</ele>
        <time>2014-02-16T10:32:42Z</time>
      </trkpt>
      <trkpt lat="47.24175" lon="-1.63246">
        <ele>21.5</ele>
        <time>2014-02-16T10:32:46Z</time>
      </trkpt>
      <trkpt lat="47.24181" lon="-1.63258">
        <ele>21.1</ele>
        <time>2014-02-16T10:32:51Z</time>
      </trkpt>
      <trkpt lat="47.24188" lon="-1.63269">
        <ele>20.7</ele>
        <time>2014-02-16T10:32:59Z</time>
      </trkpt>
      <trkpt lat="47.24194" lon="-1.63281">
        <ele>20.299999</ele>
        <time>2014-02-16T10:33:08Z</time>
      </trkpt>
      <trkpt lat="47.24203" lon="-1.63286">
        <ele>21.299999</ele>
        <time>2014-02-16T10:33:20Z</time>
      </trkpt>
      <trkpt lat="47.24205" lon="-1.63271">
        <ele>21.7</ele>
        <time>2014-02-16T10:33:36Z</time>
      </trkpt>
      <trkpt lat="47.24219" lon="-1.63259">
        <ele>23.299999</ele>
        <time>2014-02-16T10:34:46Z</time>
      </trkpt>
      <trkpt lat="47.24202" lon="-1.6329">
        <ele>23.5</ele>
        <time>2014-02-16T10:37:49Z</time>
      </trkpt>
      <trkpt lat="47.24204" lon="-1.63303">
        <ele>23.6</ele>
        <time>2014-02-16T10:38:06Z</time>
      </trkpt>
      <trkpt lat="47.24202" lon="-1.63304">
        <ele>23.7</ele>
        <time>2014-02-16T10:38:54Z</time>
      </trkpt>
      <trkpt lat="47.24199" lon="-1.63317">
        <ele>22.299999</ele>
        <time>2014-02-16T10:39:08Z</time>
      </trkpt>
      <trkpt lat="47.24205" lon="-1.63341">
        <ele>20.799999</ele>
        <time>2014-02-16T10:41:06Z</time>
      </trkpt>
      <trkpt lat="47.24215" lon="-1.63364">
        <ele>19.1</ele>
        <time>2014-02-16T10:41:52Z</time>
      </trkpt>
      <trkpt lat="47.24219" lon="-1.63378">
        <ele>19.899999</ele>
        <time>2014-02-16T10:42:09Z</time>
      </trkpt>
      <trkpt lat="47.2423" lon="-1.63397">
        <ele>20.5</ele>
        <time>2014-02-16T10:42:29Z</time>
      </trkpt>
      <trkpt lat="47.24234" lon="-1.6341">
        <ele>21.299999</ele>
        <time>2014-02-16T10:42:36Z</time>
      </trkpt>
      <trkpt lat="47.24238" lon="-1.63422">
        <ele>21.6</ele>
        <time>2014-02-16T10:42:44Z</time>
      </trkpt>
      <trkpt lat="47.24239" lon="-1.63437">
        <ele>21.7</ele>
        <time>2014-02-16T10:42:50Z</time>
      </trkpt>
      <trkpt lat="47.24246" lon="-1.63449">
        <ele>21.5</ele>
        <time>2014-02-16T10:42:56Z</time>
      </trkpt>
      <trkpt lat="47.24247" lon="-1.63463">
        <ele>21.6</ele>
        <time>2014-02-16T10:43:03Z</time>
      </trkpt>
      <trkpt lat="47.2424" lon="-1.63471">
        <ele>21.5</ele>
        <time>2014-02-16T10:43:08Z</time>
      </trkpt>
      <trkpt lat="47.24231" lon="-1.63476">
        <ele>22</ele>
        <time>2014-02-16T10:43:15Z</time>
      </trkpt>
      <trkpt lat="47.24226" lon="-1.63495">
        <ele>22.6</ele>
        <time>2014-02-16T10:44:01Z</time>
      </trkpt>
      <trkpt lat="47.24223" lon="-1.6351">
        <ele>22.7</ele>
        <time>2014-02-16T10:44:08Z</time>
      </trkpt>
      <trkpt lat="47.24225" lon="-1.63524">
        <ele>23</ele>
        <time>2014-02-16T10:44:14Z</time>
      </trkpt>
      <trkpt lat="47.24233" lon="-1.63531">
        <ele>23.5</ele>
        <time>2014-02-16T10:44:20Z</time>
      </trkpt>
      <trkpt lat="47.24242" lon="-1.63557">
        <ele>24.6</ele>
        <time>2014-02-16T10:44:32Z</time>
      </trkpt>
      <trkpt lat="47.24244" lon="-1.63572">
        <ele>25.2</ele>
        <time>2014-02-16T10:44:40Z</time>
      </trkpt>
      <trkpt lat="47.24247" lon="-1.63585">
        <ele>25.399999</ele>
        <time>2014-02-16T10:44:47Z</time>
      </trkpt>
      <trkpt lat="47.24251" lon="-1.63596">
        <ele>25.5</ele>
        <time>2014-02-16T10:44:51Z</time>
      </trkpt>
      <trkpt lat="47.24259" lon="-1.63607">
        <ele>25.399999</ele>
        <time>2014-02-16T10:44:58Z</time>
      </trkpt>
      <trkpt lat="47.24268" lon="-1.63612">
        <ele>25.299999</ele>
        <time>2014-02-16T10:45:03Z</time>
      </trkpt>
      <trkpt lat="47.24274" lon="-1.63624">
        <ele>25.5</ele>
        <time>2014-02-16T10:45:14Z</time>
      </trkpt>
      <trkpt lat="47.24282" lon="-1.63631">
        <ele>25.5</ele>
        <time>2014-02-16T10:45:21Z</time>
      </trkpt>
      <trkpt lat="47.24299" lon="-1.63621">
        <ele>25</ele>
        <time>2014-02-16T10:46:28Z</time>
      </trkpt>
      <trkpt lat="47.24318" lon="-1.63619">
        <ele>23.7</ele>
        <time>2014-02-16T10:47:49Z</time>
      </trkpt>
      <trkpt lat="47.24333" lon="-1.63611">
        <ele>21</ele>
        <time>2014-02-16T10:49:45Z</time>
      </trkpt>
      <trkpt lat="47.24344" lon="-1.63575">
        <ele>19.899999</ele>
        <time>2014-02-16T10:51:49Z</time>
      </trkpt>
      <trkpt lat="47.24346" lon="-1.6356">
        <ele>20</ele>
        <time>2014-02-16T10:51:59Z</time>
      </trkpt>
      <trkpt lat="47.2435" lon="-1.63548">
        <ele>19.899999</ele>
        <time>2014-02-16T10:52:11Z</time>
      </trkpt>
      <trkpt lat="47.24357" lon="-1.63539">
        <ele>19</ele>
        <time>2014-02-16T10:52:17Z</time>
      </trkpt>
      <trkpt lat="47.24365" lon="-1.6353">
        <ele>18.7</ele>
        <time>2014-02-16T10:52:24Z</time>
      </trkpt>
      <trkpt lat="47.24374" lon="-1.63528">
        <ele>18.799999</ele>
        <time>2014-02-16T10:52:30Z</time>
      </trkpt>
      <trkpt lat="47.24384" lon="-1.6353">
        <ele>19.399999</ele>
        <time>2014-02-16T10:52:42Z</time>
      </trkpt>
      <trkpt lat="47.24386" lon="-1.63556">
        <ele>20.2</ele>
        <time>2014-02-16T10:53:19Z</time>
      </trkpt>
      <trkpt lat="47.24387" lon="-1.6357">
        <ele>19.5</ele>
        <time>2014-02-16T10:53:23Z</time>
      </trkpt>
      <trkpt lat="47.24391" lon="-1.63585">
        <ele>18.5</ele>
        <time>2014-02-16T10:53:26Z</time>
      </trkpt>
      <trkpt lat="47.24394" lon="-1.63598">
        <ele>17.5</ele>
        <time>2014-02-16T10:53:29Z</time>
      </trkpt>
      <trkpt lat="47.24396" lon="-1.63613">
        <ele>17.399999</ele>
        <time>2014-02-16T10:53:33Z</time>
      </trkpt>
      <trkpt lat="47.24399" lon="-1.63627">
        <ele>18</ele>
        <time>2014-02-16T10:53:41Z</time>
      </trkpt>
      <trkpt lat="47.24401" lon="-1.63641">
        <ele>18.899999</ele>
        <time>2014-02-16T10:53:51Z</time>
      </trkpt>
      <trkpt lat="47.24411" lon="-1.63656">
        <ele>20.6</ele>
        <time>2014-02-16T10:54:17Z</time>
      </trkpt>
      <trkpt lat="47.2442" lon="-1.6365">
        <ele>22.399999</ele>
        <time>2014-02-16T10:54:56Z</time>
      </trkpt>
      <trkpt lat="47.24417" lon="-1.63679">
        <ele>20.299999</ele>
        <time>2014-02-16T10:55:44Z</time>
      </trkpt>
      <trkpt lat="47.24414" lon="-1.63693">
        <ele>20.2</ele>
        <time>2014-02-16T10:55:48Z</time>
      </trkpt>
      <trkpt lat="47.24412" lon="-1.63709">
        <ele>20.399999</ele>
        <time>2014-02-16T10:55:52Z</time>
      </trkpt>
      <trkpt lat="47.24414" lon="-1.63727">
        <ele>20.799999</ele>
        <time>2014-02-16T10:55:55Z</time>
      </trkpt>
      <trkpt lat="47.24422" lon="-1.63736">
        <ele>21.299999</ele>
        <time>2014-02-16T10:55:59Z</time>
      </trkpt>
      <trkpt lat="47.24439" lon="-1.6375">
        <ele>19.299999</ele>
        <time>2014-02-16T10:56:11Z</time>
      </trkpt>
      <trkpt lat="47.24443" lon="-1.63763">
        <ele>19.399999</ele>
        <time>2014-02-16T10:56:16Z</time>
      </trkpt>
      <trkpt lat="47.24444" lon="-1.63779">
        <ele>18.399999</ele>
        <time>2014-02-16T10:56:24Z</time>
      </trkpt>
      <trkpt lat="47.24442" lon="-1.63795">
        <ele>18.1</ele>
        <time>2014-02-16T10:56:28Z</time>
      </trkpt>
      <trkpt lat="47.24438" lon="-1.63807">
        <ele>17.799999</ele>
        <time>2014-02-16T10:56:30Z</time>
      </trkpt>
      <trkpt lat="47.2443" lon="-1.63818">
        <ele>17.5</ele>
        <time>2014-02-16T10:56:32Z</time>
      </trkpt>
      <trkpt lat="47.24425" lon="-1.63832">
        <ele>16.899999</ele>
        <time>2014-02-16T10:56:35Z</time>
      </trkpt>
      <trkpt lat="47.24428" lon="-1.63848">
        <ele>16.2</ele>
        <time>2014-02-16T10:56:38Z</time>
      </trkpt>
      <trkpt lat="47.24432" lon="-1.63861">
        <ele>15.699999</ele>
        <time>2014-02-16T10:56:41Z</time>
      </trkpt>
      <trkpt lat="47.24436" lon="-1.6388">
        <ele>15.699999</ele>
        <time>2014-02-16T10:56:44Z</time>
      </trkpt>
      <trkpt lat="47.2444" lon="-1.63895">
        <ele>16.7</ele>
        <time>2014-02-16T10:56:46Z</time>
      </trkpt>
      <trkpt lat="47.24446" lon="-1.63913">
        <ele>17.2</ele>
        <time>2014-02-16T10:56:49Z</time>
      </trkpt>
      <trkpt lat="47.2445" lon="-1.63927">
        <ele>16.799999</ele>
        <time>2014-02-16T10:56:51Z</time>
      </trkpt>
      <trkpt lat="47.24455" lon="-1.63941">
        <ele>16.6</ele>
        <time>2014-02-16T10:56:53Z</time>
      </trkpt>
      <trkpt lat="47.24459" lon="-1.63953">
        <ele>16.299999</ele>
        <time>2014-02-16T10:56:55Z</time>
      </trkpt>
      <trkpt lat="47.24464" lon="-1.63967">
        <ele>15.1</ele>
        <time>2014-02-16T10:56:57Z</time>
      </trkpt>
      <trkpt lat="47.24469" lon="-1.63985">
        <ele>14.5</ele>
        <time>2014-02-16T10:56:59Z</time>
      </trkpt>
      <trkpt lat="47.24474" lon="-1.64">
        <ele>14.399999</ele>
        <time>2014-02-16T10:57:01Z</time>
      </trkpt>
      <trkpt lat="47.24484" lon="-1.64029">
        <ele>15</ele>
        <time>2014-02-16T10:57:05Z</time>
      </trkpt>
      <trkpt lat="47.24489" lon="-1.64042">
        <ele>14.899999</ele>
        <time>2014-02-16T10:57:07Z</time>
      </trkpt>
      <trkpt lat="47.24495" lon="-1.64056">
        <ele>13</ele>
        <time>2014-02-16T10:57:09Z</time>
      </trkpt>
      <trkpt lat="47.24499" lon="-1.6407">
        <ele>12.6</ele>
        <time>2014-02-16T10:57:11Z</time>
      </trkpt>
      <trkpt lat="47.24506" lon="-1.6408">
        <ele>13.699999</ele>
        <time>2014-02-16T10:57:13Z</time>
      </trkpt>
      <trkpt lat="47.24512" lon="-1.64093">
        <ele>15.1</ele>
        <time>2014-02-16T10:57:15Z</time>
      </trkpt>
      <trkpt lat="47.24518" lon="-1.64106">
        <ele>16.799999</ele>
        <time>2014-02-16T10:57:17Z</time>
      </trkpt>
      <trkpt lat="47.24524" lon="-1.64119">
        <ele>18.899999</ele>
        <time>2014-02-16T10:57:19Z</time>
      </trkpt>
      <trkpt lat="47.2453" lon="-1.64132">
        <ele>21.399999</ele>
        <time>2014-02-16T10:57:21Z</time>
      </trkpt>
      <trkpt lat="47.24538" lon="-1.64146">
        <ele>22.6</ele>
        <time>2014-02-16T10:57:24Z</time>
      </trkpt>
      <trkpt lat="47.24543" lon="-1.64158">
        <ele>22</ele>
        <time>2014-02-16T10:57:26Z</time>
      </trkpt>
      <trkpt lat="47.2455" lon="-1.64172">
        <ele>21.399999</ele>
        <time>2014-02-16T10:57:29Z</time>
      </trkpt>
      <trkpt lat="47.24556" lon="-1.64185">
        <ele>21.5</ele>
        <time>2014-02-16T10:57:32Z</time>
      </trkpt>
      <trkpt lat="47.24562" lon="-1.64197">
        <ele>23.1</ele>
        <time>2014-02-16T10:57:34Z</time>
      </trkpt>
      <trkpt lat="47.2457" lon="-1.64211">
        <ele>24.1</ele>
        <time>2014-02-16T10:57:36Z</time>
      </trkpt>
      <trkpt lat="47.24577" lon="-1.64222">
        <ele>23.799999</ele>
        <time>2014-02-16T10:57:38Z</time>
      </trkpt>
      <trkpt lat="47.24584" lon="-1.64239">
        <ele>23.5</ele>
        <time>2014-02-16T10:57:41Z</time>
      </trkpt>
      <trkpt lat="47.24589" lon="-1.6425">
        <ele>22.899999</ele>
        <time>2014-02-16T10:57:43Z</time>
      </trkpt>
      <trkpt lat="47.24592" lon="-1.64264">
        <ele>22.6</ele>
        <time>2014-02-16T10:57:45Z</time>
      </trkpt>
      <trkpt lat="47.24595" lon="-1.64278">
        <ele>21.5</ele>
        <time>2014-02-16T10:57:47Z</time>
      </trkpt>
      <trkpt lat="47.24601" lon="-1.64295">
        <ele>18</ele>
        <time>2014-02-16T10:57:50Z</time>
      </trkpt>
      <trkpt lat="47.24608" lon="-1.6431">
        <ele>15.8</ele>
        <time>2014-02-16T10:57:53Z</time>
      </trkpt>
      <trkpt lat="47.24614" lon="-1.64325">
        <ele>15.899999</ele>
        <time>2014-02-16T10:57:56Z</time>
      </trkpt>
      <trkpt lat="47.24618" lon="-1.64338">
        <ele>16</ele>
        <time>2014-02-16T10:57:58Z</time>
      </trkpt>
      <trkpt lat="47.24621" lon="-1.64357">
        <ele>18</ele>
        <time>2014-02-16T10:58:01Z</time>
      </trkpt>
      <trkpt lat="47.24625" lon="-1.64369">
        <ele>18.299999</ele>
        <time>2014-02-16T10:58:03Z</time>
      </trkpt>
      <trkpt lat="47.2464" lon="-1.64395">
        <ele>20.2</ele>
        <time>2014-02-16T10:58:08Z</time>
      </trkpt>
      <trkpt lat="47.24645" lon="-1.6441">
        <ele>21.299999</ele>
        <time>2014-02-16T10:58:11Z</time>
      </trkpt>
      <trkpt lat="47.24649" lon="-1.6443">
        <ele>21.7</ele>
        <time>2014-02-16T10:58:14Z</time>
      </trkpt>
      <trkpt lat="47.24651" lon="-1.64443">
        <ele>21.6</ele>
        <time>2014-02-16T10:58:16Z</time>
      </trkpt>
      <trkpt lat="47.24654" lon="-1.64456">
        <ele>21</ele>
        <time>2014-02-16T10:58:18Z</time>
      </trkpt>
      <trkpt lat="47.2466" lon="-1.64467">
        <ele>20.899999</ele>
        <time>2014-02-16T10:58:20Z</time>
      </trkpt>
      <trkpt lat="47.24667" lon="-1.64478">
        <ele>19.299999</ele>
        <time>2014-02-16T10:58:22Z</time>
      </trkpt>
      <trkpt lat="47.24675" lon="-1.6449">
        <ele>19.799999</ele>
        <time>2014-02-16T10:58:24Z</time>
      </trkpt>
      <trkpt lat="47.24681" lon="-1.645">
        <ele>21.1</ele>
        <time>2014-02-16T10:58:26Z</time>
      </trkpt>
      <trkpt lat="47.24688" lon="-1.6451">
        <ele>22.899999</ele>
        <time>2014-02-16T10:58:28Z</time>
      </trkpt>
      <trkpt lat="47.24694" lon="-1.6452">
        <ele>24.299999</ele>
        <time>2014-02-16T10:58:30Z</time>
      </trkpt>
      <trkpt lat="47.24702" lon="-1.64526">
        <ele>25.899999</ele>
        <time>2014-02-16T10:58:32Z</time>
      </trkpt>
      <trkpt lat="47.24713" lon="-1.64534">
        <ele>27.7</ele>
        <time>2014-02-16T10:58:35Z</time>
      </trkpt>
      <trkpt lat="47.24723" lon="-1.64543">
        <ele>27.899999</ele>
        <time>2014-02-16T10:58:38Z</time>
      </trkpt>
      <trkpt lat="47.24731" lon="-1.64552">
        <ele>28.2</ele>
        <time>2014-02-16T10:58:41Z</time>
      </trkpt>
      <trkpt lat="47.24737" lon="-1.64567">
        <ele>28</ele>
        <time>2014-02-16T10:58:45Z</time>
      </trkpt>
      <trkpt lat="47.24747" lon="-1.64571">
        <ele>28</ele>
        <time>2014-02-16T10:58:51Z</time>
      </trkpt>
      <trkpt lat="47.24757" lon="-1.64571">
        <ele>27.799999</ele>
        <time>2014-02-16T10:58:54Z</time>
      </trkpt>
      <trkpt lat="47.24768" lon="-1.64575">
        <ele>27.6</ele>
        <time>2014-02-16T10:58:57Z</time>
      </trkpt>
      <trkpt lat="47.2478" lon="-1.64581">
        <ele>27.7</ele>
        <time>2014-02-16T10:59:00Z</time>
      </trkpt>
      <trkpt lat="47.2479" lon="-1.64584">
        <ele>28.299999</ele>
        <time>2014-02-16T10:59:02Z</time>
      </trkpt>
      <trkpt lat="47.24803" lon="-1.64589">
        <ele>28.1</ele>
        <time>2014-02-16T10:59:05Z</time>
      </trkpt>
      <trkpt lat="47.24816" lon="-1.64611">
        <ele>26.2</ele>
        <time>2014-02-16T10:59:42Z</time>
      </trkpt>
      <trkpt lat="47.24815" lon="-1.64625">
        <ele>26</ele>
        <time>2014-02-16T10:59:47Z</time>
      </trkpt>
      <trkpt lat="47.24816" lon="-1.6464">
        <ele>25.899999</ele>
        <time>2014-02-16T10:59:53Z</time>
      </trkpt>
      <trkpt lat="47.24807" lon="-1.64646">
        <ele>25.1</ele>
        <time>2014-02-16T11:00:44Z</time>
      </trkpt>
      <trkpt lat="47.24803" lon="-1.64671">
        <ele>24.899999</ele>
        <time>2014-02-16T11:01:36Z</time>
      </trkpt>
      <trkpt lat="47.24803" lon="-1.64658">
        <ele>24.5</ele>
        <time>2014-02-16T11:02:14Z</time>
      </trkpt>
      <trkpt lat="47.24806" lon="-1.64671">
        <ele>25.899999</ele>
        <time>2014-02-16T11:03:41Z</time>
      </trkpt>
      <trkpt lat="47.24809" lon="-1.64699">
        <ele>24.299999</ele>
        <time>2014-02-16T11:03:56Z</time>
      </trkpt>
      <trkpt lat="47.24815" lon="-1.6471">
        <ele>24.2</ele>
        <time>2014-02-16T11:04:01Z</time>
      </trkpt>
      <trkpt lat="47.24822" lon="-1.64719">
        <ele>24.399999</ele>
        <time>2014-02-16T11:04:10Z</time>
      </trkpt>
      <trkpt lat="47.24823" lon="-1.64733">
        <ele>25.1</ele>
        <time>2014-02-16T11:04:38Z</time>
      </trkpt>
      <trkpt lat="47.24819" lon="-1.64747">
        <ele>25.1</ele>
        <time>2014-02-16T11:04:46Z</time>
      </trkpt>
      <trkpt lat="47.24812" lon="-1.64773">
        <ele>26.1</ele>
        <time>2014-02-16T11:04:59Z</time>
      </trkpt>
      <trkpt lat="47.2481" lon="-1.64787">
        <ele>26.299999</ele>
        <time>2014-02-16T11:05:05Z</time>
      </trkpt>
      <trkpt lat="47.24812" lon="-1.648">
        <ele>26.5</ele>
        <time>2014-02-16T11:05:14Z</time>
      </trkpt>
      <trkpt lat="47.2481" lon="-1.64813">
        <ele>25.2</ele>
        <time>2014-02-16T11:05:23Z</time>
      </trkpt>
      <trkpt lat="47.24806" lon="-1.64827">
        <ele>23.799999</ele>
        <time>2014-02-16T11:05:33Z</time>
      </trkpt>
      <trkpt lat="47.248" lon="-1.64838">
        <ele>23.399999</ele>
        <time>2014-02-16T11:05:40Z</time>
      </trkpt>
      <trkpt lat="47.24794" lon="-1.64849">
        <ele>23.5</ele>
        <time>2014-02-16T11:05:48Z</time>
      </trkpt>
      <trkpt lat="47.24779" lon="-1.64867">
        <ele>25.7</ele>
        <time>2014-02-16T11:06:13Z</time>
      </trkpt>
      <trkpt lat="47.24777" lon="-1.64881">
        <ele>26.1</ele>
        <time>2014-02-16T11:06:26Z</time>
      </trkpt>
      <trkpt lat="47.24774" lon="-1.64894">
        <ele>26.6</ele>
        <time>2014-02-16T11:06:33Z</time>
      </trkpt>
      <trkpt lat="47.24772" lon="-1.64908">
        <ele>26.7</ele>
        <time>2014-02-16T11:06:43Z</time>
      </trkpt>
      <trkpt lat="47.24763" lon="-1.64911">
        <ele>27</ele>
        <time>2014-02-16T11:06:59Z</time>
      </trkpt>
      <trkpt lat="47.24781" lon="-1.64943">
        <ele>51.2</ele>
        <time>2014-02-16T11:11:09Z</time>
      </trkpt>
      <trkpt lat="47.24772" lon="-1.64949">
        <ele>41.299999</ele>
        <time>2014-02-16T11:11:17Z</time>
      </trkpt>
      <trkpt lat="47.24767" lon="-1.64965">
        <ele>30</ele>
        <time>2014-02-16T11:11:29Z</time>
      </trkpt>
      <trkpt lat="47.24769" lon="-1.64981">
        <ele>24.399999</ele>
        <time>2014-02-16T11:11:36Z</time>
      </trkpt>
      <trkpt lat="47.2477" lon="-1.64995">
        <ele>24.2</ele>
        <time>2014-02-16T11:11:45Z</time>
      </trkpt>
      <trkpt lat="47.24774" lon="-1.65006">
        <ele>25.299999</ele>
        <time>2014-02-16T11:11:52Z</time>
      </trkpt>
      <trkpt lat="47.2478" lon="-1.65018">
        <ele>26.7</ele>
        <time>2014-02-16T11:12:00Z</time>
      </trkpt>
      <trkpt lat="47.24784" lon="-1.65031">
        <ele>27.299999</ele>
        <time>2014-02-16T11:12:07Z</time>
      </trkpt>
      <trkpt lat="47.24782" lon="-1.65046">
        <ele>27.299999</ele>
        <time>2014-02-16T11:12:16Z</time>
      </trkpt>
      <trkpt lat="47.2478" lon="-1.65074">
        <ele>29.5</ele>
        <time>2014-02-16T11:12:48Z</time>
      </trkpt>
      <trkpt lat="47.24787" lon="-1.65082">
        <ele>29.5</ele>
        <time>2014-02-16T11:13:05Z</time>
      </trkpt>
      <trkpt lat="47.24785" lon="-1.65095">
        <ele>27.299999</ele>
        <time>2014-02-16T11:13:29Z</time>
      </trkpt>
      <trkpt lat="47.24798" lon="-1.65091">
        <ele>26.6</ele>
        <time>2014-02-16T11:13:58Z</time>
      </trkpt>
      <trkpt lat="47.24801" lon="-1.65079">
        <ele>26.1</ele>
        <time>2014-02-16T11:14:08Z</time>
      </trkpt>
      <trkpt lat="47.24799" lon="-1.65065">
        <ele>21.899999</ele>
        <time>2014-02-16T11:14:34Z</time>
      </trkpt>
      <trkpt lat="47.24805" lon="-1.65042">
        <ele>20.799999</ele>
        <time>2014-02-16T11:15:04Z</time>
      </trkpt>
      <trkpt lat="47.24804" lon="-1.65056">
        <ele>21.899999</ele>
        <time>2014-02-16T11:15:39Z</time>
      </trkpt>
      <trkpt lat="47.24812" lon="-1.65082">
        <ele>22.2</ele>
        <time>2014-02-16T11:15:59Z</time>
      </trkpt>
      <trkpt lat="47.24807" lon="-1.65094">
        <ele>23.6</ele>
        <time>2014-02-16T11:16:05Z</time>
      </trkpt>
      <trkpt lat="47.24805" lon="-1.65107">
        <ele>24.7</ele>
        <time>2014-02-16T11:16:46Z</time>
      </trkpt>
      <trkpt lat="47.24798" lon="-1.65132">
        <ele>23.899999</ele>
        <time>2014-02-16T11:19:10Z</time>
      </trkpt>
      <trkpt lat="47.24782" lon="-1.65144">
        <ele>23.899999</ele>
        <time>2014-02-16T11:19:34Z</time>
      </trkpt>
      <trkpt lat="47.24771" lon="-1.65146">
        <ele>24.5</ele>
        <time>2014-02-16T11:19:41Z</time>
      </trkpt>
      <trkpt lat="47.24761" lon="-1.65148">
        <ele>25.5</ele>
        <time>2014-02-16T11:19:48Z</time>
      </trkpt>
      <trkpt lat="47.24753" lon="-1.65153">
        <ele>25.399999</ele>
        <time>2014-02-16T11:19:55Z</time>
      </trkpt>
      <trkpt lat="47.24743" lon="-1.65157">
        <ele>25.5</ele>
        <time>2014-02-16T11:20:02Z</time>
      </trkpt>
      <trkpt lat="47.24734" lon="-1.65163">
        <ele>26.1</ele>
        <time>2014-02-16T11:20:08Z</time>
      </trkpt>
      <trkpt lat="47.24738" lon="-1.65177">
        <ele>28.299999</ele>
        <time>2014-02-16T11:20:50Z</time>
      </trkpt>
      <trkpt lat="47.24747" lon="-1.652">
        <ele>28.399999</ele>
        <time>2014-02-16T11:21:05Z</time>
      </trkpt>
      <trkpt lat="47.24752" lon="-1.65211">
        <ele>27.399999</ele>
        <time>2014-02-16T11:21:28Z</time>
      </trkpt>
      <trkpt lat="47.24758" lon="-1.65223">
        <ele>27.6</ele>
        <time>2014-02-16T11:21:35Z</time>
      </trkpt>
      <trkpt lat="47.24759" lon="-1.65236">
        <ele>27.899999</ele>
        <time>2014-02-16T11:21:46Z</time>
      </trkpt>
      <trkpt lat="47.2475" lon="-1.65245">
        <ele>28.6</ele>
        <time>2014-02-16T11:22:06Z</time>
      </trkpt>
      <trkpt lat="47.24734" lon="-1.65261">
        <ele>29.7</ele>
        <time>2014-02-16T11:22:17Z</time>
      </trkpt>
      <trkpt lat="47.24729" lon="-1.65272">
        <ele>29.899999</ele>
        <time>2014-02-16T11:22:21Z</time>
      </trkpt>
      <trkpt lat="47.24722" lon="-1.65284">
        <ele>30</ele>
        <time>2014-02-16T11:22:27Z</time>
      </trkpt>
      <trkpt lat="47.24721" lon="-1.65299">
        <ele>30.5</ele>
        <time>2014-02-16T11:22:33Z</time>
      </trkpt>
      <trkpt lat="47.24719" lon="-1.65314">
        <ele>30.7</ele>
        <time>2014-02-16T11:22:38Z</time>
      </trkpt>
      <trkpt lat="47.2472" lon="-1.65329">
        <ele>30.899999</ele>
        <time>2014-02-16T11:22:44Z</time>
      </trkpt>
      <trkpt lat="47.24723" lon="-1.65344">
        <ele>31.1</ele>
        <time>2014-02-16T11:22:49Z</time>
      </trkpt>
      <trkpt lat="47.24727" lon="-1.65358">
        <ele>30.799999</ele>
        <time>2014-02-16T11:22:53Z</time>
      </trkpt>
      <trkpt lat="47.24728" lon="-1.65373">
        <ele>30.299999</ele>
        <time>2014-02-16T11:22:57Z</time>
      </trkpt>
      <trkpt lat="47.24729" lon="-1.65387">
        <ele>30.399999</ele>
        <time>2014-02-16T11:23:01Z</time>
      </trkpt>
      <trkpt lat="47.24731" lon="-1.654">
        <ele>30.7</ele>
        <time>2014-02-16T11:23:04Z</time>
      </trkpt>
      <trkpt lat="47.24734" lon="-1.65413">
        <ele>31.1</ele>
        <time>2014-02-16T11:23:07Z</time>
      </trkpt>
      <trkpt lat="47.24745" lon="-1.65444">
        <ele>31.799999</ele>
        <time>2014-02-16T11:23:13Z</time>
      </trkpt>
      <trkpt lat="47.24743" lon="-1.65459">
        <ele>32.099998</ele>
        <time>2014-02-16T11:23:16Z</time>
      </trkpt>
      <trkpt lat="47.24735" lon="-1.65471">
        <ele>32.400001</ele>
        <time>2014-02-16T11:23:19Z</time>
      </trkpt>
      <trkpt lat="47.24728" lon="-1.65486">
        <ele>32.900001</ele>
        <time>2014-02-16T11:23:23Z</time>
      </trkpt>
      <trkpt lat="47.24727" lon="-1.65502">
        <ele>33.2</ele>
        <time>2014-02-16T11:23:26Z</time>
      </trkpt>
      <trkpt lat="47.24729" lon="-1.6552">
        <ele>33.599998</ele>
        <time>2014-02-16T11:23:29Z</time>
      </trkpt>
      <trkpt lat="47.24733" lon="-1.65538">
        <ele>34.2</ele>
        <time>2014-02-16T11:23:33Z</time>
      </trkpt>
      <trkpt lat="47.24736" lon="-1.65553">
        <ele>34.599998</ele>
        <time>2014-02-16T11:23:36Z</time>
      </trkpt>
      <trkpt lat="47.24739" lon="-1.65567">
        <ele>35.099998</ele>
        <time>2014-02-16T11:23:39Z</time>
      </trkpt>
      <trkpt lat="47.24744" lon="-1.65582">
        <ele>35.599998</ele>
        <time>2014-02-16T11:23:42Z</time>
      </trkpt>
      <trkpt lat="47.24751" lon="-1.65598">
        <ele>35.799999</ele>
        <time>2014-02-16T11:23:45Z</time>
      </trkpt>
      <trkpt lat="47.24756" lon="-1.65616">
        <ele>37.900001</ele>
        <time>2014-02-16T11:23:48Z</time>
      </trkpt>
      <trkpt lat="47.24758" lon="-1.65632">
        <ele>38.299999</ele>
        <time>2014-02-16T11:23:50Z</time>
      </trkpt>
      <trkpt lat="47.2476" lon="-1.65647">
        <ele>38.799999</ele>
        <time>2014-02-16T11:23:52Z</time>
      </trkpt>
      <trkpt lat="47.24762" lon="-1.65664">
        <ele>39.7</ele>
        <time>2014-02-16T11:23:55Z</time>
      </trkpt>
      <trkpt lat="47.24762" lon="-1.65681">
        <ele>41.299999</ele>
        <time>2014-02-16T11:23:58Z</time>
      </trkpt>
      <trkpt lat="47.24759" lon="-1.65698">
        <ele>41.799999</ele>
        <time>2014-02-16T11:24:01Z</time>
      </trkpt>
      <trkpt lat="47.24763" lon="-1.65711">
        <ele>42</ele>
        <time>2014-02-16T11:24:06Z</time>
      </trkpt>
      <trkpt lat="47.24772" lon="-1.65705">
        <ele>41.900001</ele>
        <time>2014-02-16T11:24:09Z</time>
      </trkpt>
      <trkpt lat="47.24787" lon="-1.65684">
        <ele>41.5</ele>
        <time>2014-02-16T11:24:15Z</time>
      </trkpt>
      <trkpt lat="47.24795" lon="-1.65674">
        <ele>41.299999</ele>
        <time>2014-02-16T11:24:18Z</time>
      </trkpt>
      <trkpt lat="47.24805" lon="-1.65663">
        <ele>39.900001</ele>
        <time>2014-02-16T11:24:21Z</time>
      </trkpt>
      <trkpt lat="47.24814" lon="-1.65654">
        <ele>39.299999</ele>
        <time>2014-02-16T11:24:23Z</time>
      </trkpt>
      <trkpt lat="47.24823" lon="-1.65645">
        <ele>38.2</ele>
        <time>2014-02-16T11:24:25Z</time>
      </trkpt>
      <trkpt lat="47.24835" lon="-1.65636">
        <ele>36.599998</ele>
        <time>2014-02-16T11:24:27Z</time>
      </trkpt>
      <trkpt lat="47.24846" lon="-1.65629">
        <ele>35.099998</ele>
        <time>2014-02-16T11:24:29Z</time>
      </trkpt>
      <trkpt lat="47.24859" lon="-1.65624">
        <ele>34.7</ele>
        <time>2014-02-16T11:24:31Z</time>
      </trkpt>
      <trkpt lat="47.24871" lon="-1.65619">
        <ele>32.900001</ele>
        <time>2014-02-16T11:24:33Z</time>
      </trkpt>
      <trkpt lat="47.24883" lon="-1.65615">
        <ele>32.7</ele>
        <time>2014-02-16T11:24:35Z</time>
      </trkpt>
      <trkpt lat="47.24897" lon="-1.65611">
        <ele>32.099998</ele>
        <time>2014-02-16T11:24:37Z</time>
      </trkpt>
      <trkpt lat="47.24911" lon="-1.65607">
        <ele>32.2</ele>
        <time>2014-02-16T11:24:39Z</time>
      </trkpt>
      <trkpt lat="47.24926" lon="-1.65605">
        <ele>33.400001</ele>
        <time>2014-02-16T11:24:41Z</time>
      </trkpt>
      <trkpt lat="47.2494" lon="-1.65606">
        <ele>33.599998</ele>
        <time>2014-02-16T11:24:43Z</time>
      </trkpt>
      <trkpt lat="47.24955" lon="-1.6561">
        <ele>32.5</ele>
        <time>2014-02-16T11:24:45Z</time>
      </trkpt>
      <trkpt lat="47.24971" lon="-1.65616">
        <ele>30.399999</ele>
        <time>2014-02-16T11:24:47Z</time>
      </trkpt>
      <trkpt lat="47.24987" lon="-1.65622">
        <ele>29.899999</ele>
        <time>2014-02-16T11:24:49Z</time>
      </trkpt>
      <trkpt lat="47.25004" lon="-1.6563">
        <ele>29.5</ele>
        <time>2014-02-16T11:24:51Z</time>
      </trkpt>
      <trkpt lat="47.25013" lon="-1.65634">
        <ele>29.899999</ele>
        <time>2014-02-16T11:24:52Z</time>
      </trkpt>
      <trkpt lat="47.25023" lon="-1.65638">
        <ele>29.1</ele>
        <time>2014-02-16T11:24:53Z</time>
      </trkpt>
      <trkpt lat="47.25035" lon="-1.65643">
        <ele>28.1</ele>
        <time>2014-02-16T11:24:54Z</time>
      </trkpt>
      <trkpt lat="47.25044" lon="-1.65647">
        <ele>27</ele>
        <time>2014-02-16T11:24:55Z</time>
      </trkpt>
      <trkpt lat="47.2506" lon="-1.65653">
        <ele>26</ele>
        <time>2014-02-16T11:24:57Z</time>
      </trkpt>
      <trkpt lat="47.25071" lon="-1.65659">
        <ele>25.1</ele>
        <time>2014-02-16T11:24:59Z</time>
      </trkpt>
      <trkpt lat="47.25082" lon="-1.65665">
        <ele>24.299999</ele>
        <time>2014-02-16T11:25:01Z</time>
      </trkpt>
      <trkpt lat="47.25091" lon="-1.65671">
        <ele>23.899999</ele>
        <time>2014-02-16T11:25:03Z</time>
      </trkpt>
      <trkpt lat="47.25102" lon="-1.65676">
        <ele>23.799999</ele>
        <time>2014-02-16T11:25:05Z</time>
      </trkpt>
      <trkpt lat="47.25112" lon="-1.65679">
        <ele>24.799999</ele>
        <time>2014-02-16T11:25:07Z</time>
      </trkpt>
      <trkpt lat="47.25122" lon="-1.65682">
        <ele>25.799999</ele>
        <time>2014-02-16T11:25:09Z</time>
      </trkpt>
      <trkpt lat="47.25131" lon="-1.65684">
        <ele>26</ele>
        <time>2014-02-16T11:25:11Z</time>
      </trkpt>
      <trkpt lat="47.25155" lon="-1.65691">
        <ele>26.2</ele>
        <time>2014-02-16T11:25:17Z</time>
      </trkpt>
      <trkpt lat="47.25164" lon="-1.65693">
        <ele>26.299999</ele>
        <time>2014-02-16T11:25:20Z</time>
      </trkpt>
      <trkpt lat="47.25176" lon="-1.65695">
        <ele>26.399999</ele>
        <time>2014-02-16T11:25:23Z</time>
      </trkpt>
      <trkpt lat="47.25182" lon="-1.65706">
        <ele>26.7</ele>
        <time>2014-02-16T11:25:27Z</time>
      </trkpt>
      <trkpt lat="47.25185" lon="-1.65719">
        <ele>26.899999</ele>
        <time>2014-02-16T11:25:30Z</time>
      </trkpt>
      <trkpt lat="47.25191" lon="-1.65735">
        <ele>27.1</ele>
        <time>2014-02-16T11:25:33Z</time>
      </trkpt>
      <trkpt lat="47.25197" lon="-1.65752">
        <ele>27.1</ele>
        <time>2014-02-16T11:25:36Z</time>
      </trkpt>
      <trkpt lat="47.25201" lon="-1.65765">
        <ele>27.6</ele>
        <time>2014-02-16T11:25:38Z</time>
      </trkpt>
      <trkpt lat="47.25206" lon="-1.65779">
        <ele>27.1</ele>
        <time>2014-02-16T11:25:40Z</time>
      </trkpt>
      <trkpt lat="47.25211" lon="-1.65792">
        <ele>27.299999</ele>
        <time>2014-02-16T11:25:42Z</time>
      </trkpt>
      <trkpt lat="47.25215" lon="-1.65808">
        <ele>27.7</ele>
        <time>2014-02-16T11:25:44Z</time>
      </trkpt>
      <trkpt lat="47.25219" lon="-1.65825">
        <ele>30.799999</ele>
        <time>2014-02-16T11:25:47Z</time>
      </trkpt>
      <trkpt lat="47.25222" lon="-1.65839">
        <ele>31.2</ele>
        <time>2014-02-16T11:25:50Z</time>
      </trkpt>
      <trkpt lat="47.25232" lon="-1.65838">
        <ele>32.5</ele>
        <time>2014-02-16T11:25:57Z</time>
      </trkpt>
      <trkpt lat="47.25242" lon="-1.65833">
        <ele>34.099998</ele>
        <time>2014-02-16T11:26:03Z</time>
      </trkpt>
      <trkpt lat="47.25233" lon="-1.65838">
        <ele>36.299999</ele>
        <time>2014-02-16T11:26:13Z</time>
      </trkpt>
      <trkpt lat="47.25216" lon="-1.65848">
        <ele>38.2</ele>
        <time>2014-02-16T11:26:37Z</time>
      </trkpt>
      <trkpt lat="47.25222" lon="-1.65863">
        <ele>38.400001</ele>
        <time>2014-02-16T11:26:41Z</time>
      </trkpt>
      <trkpt lat="47.25227" lon="-1.65875">
        <ele>38.5</ele>
        <time>2014-02-16T11:26:44Z</time>
      </trkpt>
      <trkpt lat="47.25231" lon="-1.65889">
        <ele>38.7</ele>
        <time>2014-02-16T11:26:47Z</time>
      </trkpt>
      <trkpt lat="47.25235" lon="-1.65902">
        <ele>38.799999</ele>
        <time>2014-02-16T11:26:50Z</time>
      </trkpt>
      <trkpt lat="47.25239" lon="-1.65916">
        <ele>39.099998</ele>
        <time>2014-02-16T11:26:53Z</time>
      </trkpt>
      <trkpt lat="47.25244" lon="-1.65932">
        <ele>39.299999</ele>
        <time>2014-02-16T11:26:56Z</time>
      </trkpt>
      <trkpt lat="47.25249" lon="-1.65946">
        <ele>39.299999</ele>
        <time>2014-02-16T11:26:59Z</time>
      </trkpt>
      <trkpt lat="47.25253" lon="-1.65959">
        <ele>39.599998</ele>
        <time>2014-02-16T11:27:02Z</time>
      </trkpt>
      <trkpt lat="47.25259" lon="-1.65974">
        <ele>40</ele>
        <time>2014-02-16T11:27:06Z</time>
      </trkpt>
      <trkpt lat="47.25264" lon="-1.65986">
        <ele>40.400001</ele>
        <time>2014-02-16T11:27:09Z</time>
      </trkpt>
      <trkpt lat="47.25271" lon="-1.65998">
        <ele>40.599998</ele>
        <time>2014-02-16T11:27:12Z</time>
      </trkpt>
      <trkpt lat="47.25278" lon="-1.6601">
        <ele>40.799999</ele>
        <time>2014-02-16T11:27:15Z</time>
      </trkpt>
      <trkpt lat="47.25291" lon="-1.66038">
        <ele>41.2</ele>
        <time>2014-02-16T11:27:21Z</time>
      </trkpt>
      <trkpt lat="47.25297" lon="-1.6605">
        <ele>41.400001</ele>
        <time>2014-02-16T11:27:24Z</time>
      </trkpt>
      <trkpt lat="47.25302" lon="-1.66062">
        <ele>41.400001</ele>
        <time>2014-02-16T11:27:27Z</time>
      </trkpt>
      <trkpt lat="47.25308" lon="-1.66073">
        <ele>41.599998</ele>
        <time>2014-02-16T11:27:30Z</time>
      </trkpt>
      <trkpt lat="47.25315" lon="-1.66084">
        <ele>41.7</ele>
        <time>2014-02-16T11:27:33Z</time>
      </trkpt>
      <trkpt lat="47.25321" lon="-1.66095">
        <ele>41.599998</ele>
        <time>2014-02-16T11:27:36Z</time>
      </trkpt>
      <trkpt lat="47.25324" lon="-1.6611">
        <ele>41.400001</ele>
        <time>2014-02-16T11:27:40Z</time>
      </trkpt>
      <trkpt lat="47.25323" lon="-1.66127">
        <ele>41.099998</ele>
        <time>2014-02-16T11:27:43Z</time>
      </trkpt>
      <trkpt lat="47.25322" lon="-1.66144">
        <ele>40.799999</ele>
        <time>2014-02-16T11:27:46Z</time>
      </trkpt>
      <trkpt lat="47.25321" lon="-1.66164">
        <ele>40.7</ele>
        <time>2014-02-16T11:27:49Z</time>
      </trkpt>
      <trkpt lat="47.2532" lon="-1.66183">
        <ele>39.299999</ele>
        <time>2014-02-16T11:27:52Z</time>
      </trkpt>
      <trkpt lat="47.25321" lon="-1.66201">
        <ele>37.900001</ele>
        <time>2014-02-16T11:27:55Z</time>
      </trkpt>
      <trkpt lat="47.25321" lon="-1.66217">
        <ele>37.799999</ele>
        <time>2014-02-16T11:27:58Z</time>
      </trkpt>
      <trkpt lat="47.25321" lon="-1.66234">
        <ele>37.7</ele>
        <time>2014-02-16T11:28:01Z</time>
      </trkpt>
      <trkpt lat="47.25322" lon="-1.66253">
        <ele>37.299999</ele>
        <time>2014-02-16T11:28:04Z</time>
      </trkpt>
      <trkpt lat="47.25322" lon="-1.66267">
        <ele>37.5</ele>
        <time>2014-02-16T11:28:06Z</time>
      </trkpt>
      <trkpt lat="47.25322" lon="-1.66284">
        <ele>37.599998</ele>
        <time>2014-02-16T11:28:09Z</time>
      </trkpt>
      <trkpt lat="47.25322" lon="-1.66297">
        <ele>37.7</ele>
        <time>2014-02-16T11:28:12Z</time>
      </trkpt>
      <trkpt lat="47.25322" lon="-1.6631">
        <ele>38</ele>
        <time>2014-02-16T11:28:16Z</time>
      </trkpt>
      <trkpt lat="47.25325" lon="-1.66338">
        <ele>37.7</ele>
        <time>2014-02-16T11:28:25Z</time>
      </trkpt>
      <trkpt lat="47.25326" lon="-1.66353">
        <ele>37.5</ele>
        <time>2014-02-16T11:28:29Z</time>
      </trkpt>
      <trkpt lat="47.25326" lon="-1.66368">
        <ele>37.099998</ele>
        <time>2014-02-16T11:28:33Z</time>
      </trkpt>
      <trkpt lat="47.25326" lon="-1.66383">
        <ele>36.900001</ele>
        <time>2014-02-16T11:28:37Z</time>
      </trkpt>
      <trkpt lat="47.25326" lon="-1.66397">
        <ele>36.900001</ele>
        <time>2014-02-16T11:28:40Z</time>
      </trkpt>
      <trkpt lat="47.25327" lon="-1.66413">
        <ele>36.599998</ele>
        <time>2014-02-16T11:28:44Z</time>
      </trkpt>
      <trkpt lat="47.2533" lon="-1.66428">
        <ele>36.799999</ele>
        <time>2014-02-16T11:28:48Z</time>
      </trkpt>
      <trkpt lat="47.25333" lon="-1.66443">
        <ele>37.099998</ele>
        <time>2014-02-16T11:28:52Z</time>
      </trkpt>
      <trkpt lat="47.25334" lon="-1.66459">
        <ele>37.2</ele>
        <time>2014-02-16T11:28:56Z</time>
      </trkpt>
      <trkpt lat="47.25337" lon="-1.66474">
        <ele>38</ele>
        <time>2014-02-16T11:29:00Z</time>
      </trkpt>
      <trkpt lat="47.25352" lon="-1.6648">
        <ele>37.099998</ele>
        <time>2014-02-16T11:29:20Z</time>
      </trkpt>
      <trkpt lat="47.25371" lon="-1.66481">
        <ele>34.7</ele>
        <time>2014-02-16T11:29:26Z</time>
      </trkpt>
      <trkpt lat="47.2538" lon="-1.66483">
        <ele>33.599998</ele>
        <time>2014-02-16T11:29:29Z</time>
      </trkpt>
      <trkpt lat="47.25391" lon="-1.66482">
        <ele>31.899999</ele>
        <time>2014-02-16T11:29:32Z</time>
      </trkpt>
      <trkpt lat="47.25399" lon="-1.66477">
        <ele>29.799999</ele>
        <time>2014-02-16T11:29:36Z</time>
      </trkpt>
      <trkpt lat="47.25408" lon="-1.66467">
        <ele>26.6</ele>
        <time>2014-02-16T11:29:44Z</time>
      </trkpt>
      <trkpt lat="47.25417" lon="-1.66456">
        <ele>25.399999</ele>
        <time>2014-02-16T11:29:47Z</time>
      </trkpt>
      <trkpt lat="47.25425" lon="-1.66449">
        <ele>25</ele>
        <time>2014-02-16T11:29:49Z</time>
      </trkpt>
      <trkpt lat="47.25434" lon="-1.66442">
        <ele>25</ele>
        <time>2014-02-16T11:29:51Z</time>
      </trkpt>
      <trkpt lat="47.25442" lon="-1.66437">
        <ele>25.2</ele>
        <time>2014-02-16T11:29:53Z</time>
      </trkpt>
      <trkpt lat="47.25451" lon="-1.66431">
        <ele>25.399999</ele>
        <time>2014-02-16T11:29:55Z</time>
      </trkpt>
      <trkpt lat="47.2546" lon="-1.66425">
        <ele>25.7</ele>
        <time>2014-02-16T11:29:57Z</time>
      </trkpt>
      <trkpt lat="47.25468" lon="-1.6642">
        <ele>26.299999</ele>
        <time>2014-02-16T11:29:59Z</time>
      </trkpt>
      <trkpt lat="47.25479" lon="-1.66413">
        <ele>27.399999</ele>
        <time>2014-02-16T11:30:03Z</time>
      </trkpt>
      <trkpt lat="47.25487" lon="-1.66402">
        <ele>28.299999</ele>
        <time>2014-02-16T11:30:06Z</time>
      </trkpt>
      <trkpt lat="47.25494" lon="-1.66393">
        <ele>29.2</ele>
        <time>2014-02-16T11:30:09Z</time>
      </trkpt>
      <trkpt lat="47.255" lon="-1.66379">
        <ele>30</ele>
        <time>2014-02-16T11:30:13Z</time>
      </trkpt>
      <trkpt lat="47.25509" lon="-1.66369">
        <ele>31</ele>
        <time>2014-02-16T11:30:17Z</time>
      </trkpt>
      <trkpt lat="47.25516" lon="-1.66361">
        <ele>31.6</ele>
        <time>2014-02-16T11:30:22Z</time>
      </trkpt>
      <trkpt lat="47.25527" lon="-1.66332">
        <ele>32.900001</ele>
        <time>2014-02-16T11:30:31Z</time>
      </trkpt>
      <trkpt lat="47.25534" lon="-1.6632">
        <ele>33.2</ele>
        <time>2014-02-16T11:30:34Z</time>
      </trkpt>
      <trkpt lat="47.25542" lon="-1.66306">
        <ele>33.5</ele>
        <time>2014-02-16T11:30:37Z</time>
      </trkpt>
      <trkpt lat="47.25549" lon="-1.66293">
        <ele>34.099998</ele>
        <time>2014-02-16T11:30:40Z</time>
      </trkpt>
      <trkpt lat="47.25556" lon="-1.66282">
        <ele>34.799999</ele>
        <time>2014-02-16T11:30:43Z</time>
      </trkpt>
      <trkpt lat="47.25561" lon="-1.66271">
        <ele>35.400001</ele>
        <time>2014-02-16T11:30:46Z</time>
      </trkpt>
      <trkpt lat="47.25567" lon="-1.6626">
        <ele>35.7</ele>
        <time>2014-02-16T11:30:49Z</time>
      </trkpt>
      <trkpt lat="47.25573" lon="-1.66246">
        <ele>36.2</ele>
        <time>2014-02-16T11:30:52Z</time>
      </trkpt>
      <trkpt lat="47.25578" lon="-1.66233">
        <ele>36.599998</ele>
        <time>2014-02-16T11:30:55Z</time>
      </trkpt>
      <trkpt lat="47.25583" lon="-1.66221">
        <ele>37.099998</ele>
        <time>2014-02-16T11:30:58Z</time>
      </trkpt>
      <trkpt lat="47.25591" lon="-1.6621">
        <ele>37.599998</ele>
        <time>2014-02-16T11:31:01Z</time>
      </trkpt>
      <trkpt lat="47.25598" lon="-1.66197">
        <ele>38</ele>
        <time>2014-02-16T11:31:04Z</time>
      </trkpt>
      <trkpt lat="47.25604" lon="-1.66183">
        <ele>38.2</ele>
        <time>2014-02-16T11:31:08Z</time>
      </trkpt>
      <trkpt lat="47.2561" lon="-1.6617">
        <ele>38.2</ele>
        <time>2014-02-16T11:31:13Z</time>
      </trkpt>
      <trkpt lat="47.25617" lon="-1.66158">
        <ele>38.599998</ele>
        <time>2014-02-16T11:31:18Z</time>
      </trkpt>
      <trkpt lat="47.25621" lon="-1.66146">
        <ele>39.099998</ele>
        <time>2014-02-16T11:31:25Z</time>
      </trkpt>
      <trkpt lat="47.25634" lon="-1.66119">
        <ele>39.299999</ele>
        <time>2014-02-16T11:31:34Z</time>
      </trkpt>
      <trkpt lat="47.25639" lon="-1.66107">
        <ele>39.299999</ele>
        <time>2014-02-16T11:31:38Z</time>
      </trkpt>
      <trkpt lat="47.25645" lon="-1.66094">
        <ele>39.400001</ele>
        <time>2014-02-16T11:31:42Z</time>
      </trkpt>
      <trkpt lat="47.25651" lon="-1.6608">
        <ele>39.299999</ele>
        <time>2014-02-16T11:31:46Z</time>
      </trkpt>
      <trkpt lat="47.25658" lon="-1.66068">
        <ele>39.5</ele>
        <time>2014-02-16T11:31:50Z</time>
      </trkpt>
      <trkpt lat="47.25665" lon="-1.66056">
        <ele>39.799999</ele>
        <time>2014-02-16T11:31:54Z</time>
      </trkpt>
      <trkpt lat="47.25673" lon="-1.66045">
        <ele>40.099998</ele>
        <time>2014-02-16T11:31:59Z</time>
      </trkpt>
      <trkpt lat="47.2568" lon="-1.66033">
        <ele>40.5</ele>
        <time>2014-02-16T11:32:03Z</time>
      </trkpt>
      <trkpt lat="47.25686" lon="-1.66023">
        <ele>40.799999</ele>
        <time>2014-02-16T11:32:06Z</time>
      </trkpt>
      <trkpt lat="47.25692" lon="-1.66008">
        <ele>41.099998</ele>
        <time>2014-02-16T11:32:09Z</time>
      </trkpt>
      <trkpt lat="47.25698" lon="-1.65997">
        <ele>41.400001</ele>
        <time>2014-02-16T11:32:12Z</time>
      </trkpt>
      <trkpt lat="47.25703" lon="-1.65985">
        <ele>41.900001</ele>
        <time>2014-02-16T11:32:15Z</time>
      </trkpt>
      <trkpt lat="47.2571" lon="-1.6597">
        <ele>42.599998</ele>
        <time>2014-02-16T11:32:19Z</time>
      </trkpt>
      <trkpt lat="47.25715" lon="-1.65957">
        <ele>43</ele>
        <time>2014-02-16T11:32:22Z</time>
      </trkpt>
      <trkpt lat="47.2572" lon="-1.65943">
        <ele>43.599998</ele>
        <time>2014-02-16T11:32:25Z</time>
      </trkpt>
      <trkpt lat="47.25726" lon="-1.65928">
        <ele>44.400001</ele>
        <time>2014-02-16T11:32:29Z</time>
      </trkpt>
      <trkpt lat="47.2574" lon="-1.659">
        <ele>45.799999</ele>
        <time>2014-02-16T11:32:35Z</time>
      </trkpt>
      <trkpt lat="47.25746" lon="-1.65889">
        <ele>46.2</ele>
        <time>2014-02-16T11:32:37Z</time>
      </trkpt>
      <trkpt lat="47.25751" lon="-1.65877">
        <ele>46.599998</ele>
        <time>2014-02-16T11:32:40Z</time>
      </trkpt>
      <trkpt lat="47.25759" lon="-1.65863">
        <ele>47.2</ele>
        <time>2014-02-16T11:32:44Z</time>
      </trkpt>
      <trkpt lat="47.25765" lon="-1.65852">
        <ele>47.7</ele>
        <time>2014-02-16T11:32:47Z</time>
      </trkpt>
      <trkpt lat="47.2577" lon="-1.65841">
        <ele>48.099998</ele>
        <time>2014-02-16T11:32:50Z</time>
      </trkpt>
      <trkpt lat="47.25777" lon="-1.6583">
        <ele>48.400001</ele>
        <time>2014-02-16T11:32:53Z</time>
      </trkpt>
      <trkpt lat="47.25784" lon="-1.6582">
        <ele>48.599998</ele>
        <time>2014-02-16T11:32:57Z</time>
      </trkpt>
      <trkpt lat="47.25789" lon="-1.65809">
        <ele>48.900001</ele>
        <time>2014-02-16T11:33:02Z</time>
      </trkpt>
      <trkpt lat="47.25796" lon="-1.65797">
        <ele>49.2</ele>
        <time>2014-02-16T11:33:07Z</time>
      </trkpt>
      <trkpt lat="47.25801" lon="-1.65786">
        <ele>49.599998</ele>
        <time>2014-02-16T11:33:11Z</time>
      </trkpt>
      <trkpt lat="47.25808" lon="-1.65772">
        <ele>50</ele>
        <time>2014-02-16T11:33:15Z</time>
      </trkpt>
      <trkpt lat="47.25814" lon="-1.6576">
        <ele>50.400001</ele>
        <time>2014-02-16T11:33:20Z</time>
      </trkpt>
      <trkpt lat="47.25818" lon="-1.65747">
        <ele>51.099998</ele>
        <time>2014-02-16T11:33:25Z</time>
      </trkpt>
      <trkpt lat="47.25823" lon="-1.65735">
        <ele>51.799999</ele>
        <time>2014-02-16T11:33:29Z</time>
      </trkpt>
      <trkpt lat="47.25829" lon="-1.65723">
        <ele>52.099998</ele>
        <time>2014-02-16T11:33:33Z</time>
      </trkpt>
      <trkpt lat="47.25841" lon="-1.65696">
        <ele>53.400001</ele>
        <time>2014-02-16T11:33:41Z</time>
      </trkpt>
      <trkpt lat="47.25848" lon="-1.65682">
        <ele>53.900001</ele>
        <time>2014-02-16T11:33:46Z</time>
      </trkpt>
      <trkpt lat="47.25854" lon="-1.65671">
        <ele>54.599998</ele>
        <time>2014-02-16T11:33:50Z</time>
      </trkpt>
      <trkpt lat="47.2586" lon="-1.65659">
        <ele>55</ele>
        <time>2014-02-16T11:33:54Z</time>
      </trkpt>
      <trkpt lat="47.25866" lon="-1.65647">
        <ele>55.400001</ele>
        <time>2014-02-16T11:33:57Z</time>
      </trkpt>
      <trkpt lat="47.25871" lon="-1.65634">
        <ele>55.900001</ele>
        <time>2014-02-16T11:34:01Z</time>
      </trkpt>
      <trkpt lat="47.25877" lon="-1.65621">
        <ele>56.5</ele>
        <time>2014-02-16T11:34:05Z</time>
      </trkpt>
      <trkpt lat="47.25883" lon="-1.65608">
        <ele>57</ele>
        <time>2014-02-16T11:34:09Z</time>
      </trkpt>
      <trkpt lat="47.2589" lon="-1.65595">
        <ele>57.5</ele>
        <time>2014-02-16T11:34:13Z</time>
      </trkpt>
      <trkpt lat="47.25896" lon="-1.65584">
        <ele>57.799999</ele>
        <time>2014-02-16T11:34:16Z</time>
      </trkpt>
      <trkpt lat="47.25903" lon="-1.65571">
        <ele>58.2</ele>
        <time>2014-02-16T11:34:20Z</time>
      </trkpt>
      <trkpt lat="47.25909" lon="-1.6556">
        <ele>58.400001</ele>
        <time>2014-02-16T11:34:23Z</time>
      </trkpt>
      <trkpt lat="47.25916" lon="-1.65547">
        <ele>58.299999</ele>
        <time>2014-02-16T11:34:26Z</time>
      </trkpt>
      <trkpt lat="47.25922" lon="-1.65537">
        <ele>58.099998</ele>
        <time>2014-02-16T11:34:29Z</time>
      </trkpt>
      <trkpt lat="47.25928" lon="-1.65526">
        <ele>58.2</ele>
        <time>2014-02-16T11:34:33Z</time>
      </trkpt>
      <trkpt lat="47.25934" lon="-1.65514">
        <ele>57.900001</ele>
        <time>2014-02-16T11:34:41Z</time>
      </trkpt>
      <trkpt lat="47.25945" lon="-1.6549">
        <ele>59</ele>
        <time>2014-02-16T11:34:57Z</time>
      </trkpt>
      <trkpt lat="47.25954" lon="-1.65486">
        <ele>59</ele>
        <time>2014-02-16T11:35:05Z</time>
      </trkpt>
      <trkpt lat="47.25963" lon="-1.65494">
        <ele>59.400001</ele>
        <time>2014-02-16T11:35:10Z</time>
      </trkpt>
      <trkpt lat="47.25967" lon="-1.65506">
        <ele>59.599998</ele>
        <time>2014-02-16T11:35:15Z</time>
      </trkpt>
      <trkpt lat="47.25968" lon="-1.6552">
        <ele>60.7</ele>
        <time>2014-02-16T11:35:27Z</time>
      </trkpt>
      <trkpt lat="47.25966" lon="-1.65534">
        <ele>63.099998</ele>
        <time>2014-02-16T11:38:56Z</time>
      </trkpt>
      <trkpt lat="47.26009" lon="-1.65792">
        <ele>75.900001</ele>
        <time>2014-02-16T11:40:08Z</time>
      </trkpt>
      <trkpt lat="47.26013" lon="-1.65806">
        <ele>71.300003</ele>
        <time>2014-02-16T11:40:10Z</time>
      </trkpt>
      <trkpt lat="47.26016" lon="-1.65819">
        <ele>70.800003</ele>
        <time>2014-02-16T11:40:12Z</time>
      </trkpt>
      <trkpt lat="47.2602" lon="-1.65835">
        <ele>72.199996</ele>
        <time>2014-02-16T11:40:15Z</time>
      </trkpt>
      <trkpt lat="47.26023" lon="-1.65849">
        <ele>72.5</ele>
        <time>2014-02-16T11:40:18Z</time>
      </trkpt>
      <trkpt lat="47.26027" lon="-1.65865">
        <ele>74.5</ele>
        <time>2014-02-16T11:40:21Z</time>
      </trkpt>
      <trkpt lat="47.2603" lon="-1.65882">
        <ele>72.099998</ele>
        <time>2014-02-16T11:40:24Z</time>
      </trkpt>
      <trkpt lat="47.26033" lon="-1.65897">
        <ele>68.5</ele>
        <time>2014-02-16T11:40:27Z</time>
      </trkpt>
      <trkpt lat="47.26042" lon="-1.65907">
        <ele>68.099998</ele>
        <time>2014-02-16T11:40:31Z</time>
      </trkpt>
      <trkpt lat="47.26054" lon="-1.65907">
        <ele>68.199996</ele>
        <time>2014-02-16T11:40:36Z</time>
      </trkpt>
      <trkpt lat="47.26066" lon="-1.65903">
        <ele>68</ele>
        <time>2014-02-16T11:40:39Z</time>
      </trkpt>
      <trkpt lat="47.26078" lon="-1.65896">
        <ele>67.5</ele>
        <time>2014-02-16T11:40:42Z</time>
      </trkpt>
      <trkpt lat="47.26089" lon="-1.6589">
        <ele>67</ele>
        <time>2014-02-16T11:40:45Z</time>
      </trkpt>
      <trkpt lat="47.26098" lon="-1.65885">
        <ele>66.599998</ele>
        <time>2014-02-16T11:40:48Z</time>
      </trkpt>
      <trkpt lat="47.26109" lon="-1.65882">
        <ele>66.199996</ele>
        <time>2014-02-16T11:40:52Z</time>
      </trkpt>
      <trkpt lat="47.26119" lon="-1.65883">
        <ele>66.099998</ele>
        <time>2014-02-16T11:40:56Z</time>
      </trkpt>
      <trkpt lat="47.26128" lon="-1.65885">
        <ele>66.300003</ele>
        <time>2014-02-16T11:40:59Z</time>
      </trkpt>
      <trkpt lat="47.26138" lon="-1.65888">
        <ele>66.199996</ele>
        <time>2014-02-16T11:41:01Z</time>
      </trkpt>
      <trkpt lat="47.26149" lon="-1.65891">
        <ele>66</ele>
        <time>2014-02-16T11:41:04Z</time>
      </trkpt>
      <trkpt lat="47.26169" lon="-1.65902">
        <ele>65.300003</ele>
        <time>2014-02-16T11:41:11Z</time>
      </trkpt>
      <trkpt lat="47.26179" lon="-1.65903">
        <ele>64.900001</ele>
        <time>2014-02-16T11:41:14Z</time>
      </trkpt>
      <trkpt lat="47.2619" lon="-1.65902">
        <ele>64.599998</ele>
        <time>2014-02-16T11:41:17Z</time>
      </trkpt>
      <trkpt lat="47.26201" lon="-1.65898">
        <ele>64.300003</ele>
        <time>2014-02-16T11:41:20Z</time>
      </trkpt>
      <trkpt lat="47.26213" lon="-1.65894">
        <ele>64</ele>
        <time>2014-02-16T11:41:23Z</time>
      </trkpt>
      <trkpt lat="47.26225" lon="-1.65889">
        <ele>64</ele>
        <time>2014-02-16T11:41:26Z</time>
      </trkpt>
      <trkpt lat="47.26236" lon="-1.65884">
        <ele>63.900001</ele>
        <time>2014-02-16T11:41:29Z</time>
      </trkpt>
      <trkpt lat="47.26247" lon="-1.65878">
        <ele>63.400001</ele>
        <time>2014-02-16T11:41:32Z</time>
      </trkpt>
      <trkpt lat="47.26256" lon="-1.65872">
        <ele>63.099998</ele>
        <time>2014-02-16T11:41:36Z</time>
      </trkpt>
      <trkpt lat="47.26264" lon="-1.65864">
        <ele>62.299999</ele>
        <time>2014-02-16T11:41:58Z</time>
      </trkpt>
      <trkpt lat="47.26259" lon="-1.65852">
        <ele>62.2</ele>
        <time>2014-02-16T11:42:13Z</time>
      </trkpt>
      <trkpt lat="47.26257" lon="-1.65817">
        <ele>60.599998</ele>
        <time>2014-02-16T11:42:44Z</time>
      </trkpt>
      <trkpt lat="47.26258" lon="-1.65801">
        <ele>61.900001</ele>
        <time>2014-02-16T11:42:47Z</time>
      </trkpt>
      <trkpt lat="47.26263" lon="-1.65784">
        <ele>62.2</ele>
        <time>2014-02-16T11:42:50Z</time>
      </trkpt>
      <trkpt lat="47.26266" lon="-1.6577">
        <ele>62.2</ele>
        <time>2014-02-16T11:42:52Z</time>
      </trkpt>
      <trkpt lat="47.2627" lon="-1.65753">
        <ele>63.5</ele>
        <time>2014-02-16T11:42:55Z</time>
      </trkpt>
      <trkpt lat="47.26275" lon="-1.65738">
        <ele>63.400001</ele>
        <time>2014-02-16T11:42:58Z</time>
      </trkpt>
      <trkpt lat="47.26278" lon="-1.65725">
        <ele>63.5</ele>
        <time>2014-02-16T11:43:01Z</time>
      </trkpt>
      <trkpt lat="47.26283" lon="-1.65713">
        <ele>63.599998</ele>
        <time>2014-02-16T11:43:04Z</time>
      </trkpt>
      <trkpt lat="47.26293" lon="-1.65712">
        <ele>63.2</ele>
        <time>2014-02-16T11:43:08Z</time>
      </trkpt>
      <trkpt lat="47.26304" lon="-1.65714">
        <ele>62.900001</ele>
        <time>2014-02-16T11:43:11Z</time>
      </trkpt>
      <trkpt lat="47.26318" lon="-1.65717">
        <ele>61.7</ele>
        <time>2014-02-16T11:43:14Z</time>
      </trkpt>
      <trkpt lat="47.26338" lon="-1.65722">
        <ele>60.900001</ele>
        <time>2014-02-16T11:43:18Z</time>
      </trkpt>
      <trkpt lat="47.26348" lon="-1.65722">
        <ele>61.299999</ele>
        <time>2014-02-16T11:43:20Z</time>
      </trkpt>
      <trkpt lat="47.26359" lon="-1.65719">
        <ele>60.5</ele>
        <time>2014-02-16T11:43:22Z</time>
      </trkpt>
      <trkpt lat="47.2637" lon="-1.65714">
        <ele>59.400001</ele>
        <time>2014-02-16T11:43:24Z</time>
      </trkpt>
      <trkpt lat="47.26382" lon="-1.65708">
        <ele>57.900001</ele>
        <time>2014-02-16T11:43:26Z</time>
      </trkpt>
      <trkpt lat="47.26392" lon="-1.65704">
        <ele>55.799999</ele>
        <time>2014-02-16T11:43:28Z</time>
      </trkpt>
      <trkpt lat="47.26405" lon="-1.65701">
        <ele>55.400001</ele>
        <time>2014-02-16T11:43:31Z</time>
      </trkpt>
      <trkpt lat="47.26418" lon="-1.65706">
        <ele>54.5</ele>
        <time>2014-02-16T11:43:34Z</time>
      </trkpt>
      <trkpt lat="47.26427" lon="-1.65717">
        <ele>54.7</ele>
        <time>2014-02-16T11:43:36Z</time>
      </trkpt>
      <trkpt lat="47.26432" lon="-1.65729">
        <ele>54.299999</ele>
        <time>2014-02-16T11:43:38Z</time>
      </trkpt>
      <trkpt lat="47.2644" lon="-1.65738">
        <ele>52.799999</ele>
        <time>2014-02-16T11:43:55Z</time>
      </trkpt>
      <trkpt lat="47.2645" lon="-1.65745">
        <ele>52.299999</ele>
        <time>2014-02-16T11:43:59Z</time>
      </trkpt>
      <trkpt lat="47.2646" lon="-1.65752">
        <ele>51.799999</ele>
        <time>2014-02-16T11:44:03Z</time>
      </trkpt>
      <trkpt lat="47.26469" lon="-1.65763">
        <ele>51.400001</ele>
        <time>2014-02-16T11:44:08Z</time>
      </trkpt>
      <trkpt lat="47.26476" lon="-1.65779">
        <ele>50.5</ele>
        <time>2014-02-16T11:44:13Z</time>
      </trkpt>
      <trkpt lat="47.26481" lon="-1.65793">
        <ele>49.900001</ele>
        <time>2014-02-16T11:44:15Z</time>
      </trkpt>
      <trkpt lat="47.26495" lon="-1.65819">
        <ele>48.299999</ele>
        <time>2014-02-16T11:44:20Z</time>
      </trkpt>
      <trkpt lat="47.26502" lon="-1.65832">
        <ele>47</ele>
        <time>2014-02-16T11:44:23Z</time>
      </trkpt>
      <trkpt lat="47.2651" lon="-1.65838">
        <ele>45.799999</ele>
        <time>2014-02-16T11:44:26Z</time>
      </trkpt>
      <trkpt lat="47.26517" lon="-1.65848">
        <ele>44.2</ele>
        <time>2014-02-16T11:44:30Z</time>
      </trkpt>
      <trkpt lat="47.26523" lon="-1.65862">
        <ele>42.7</ele>
        <time>2014-02-16T11:44:35Z</time>
      </trkpt>
      <trkpt lat="47.26523" lon="-1.65878">
        <ele>41.5</ele>
        <time>2014-02-16T11:44:39Z</time>
      </trkpt>
      <trkpt lat="47.26519" lon="-1.65891">
        <ele>40.2</ele>
        <time>2014-02-16T11:44:43Z</time>
      </trkpt>
      <trkpt lat="47.26518" lon="-1.65907">
        <ele>39.2</ele>
        <time>2014-02-16T11:44:46Z</time>
      </trkpt>
      <trkpt lat="47.2652" lon="-1.65924">
        <ele>38</ele>
        <time>2014-02-16T11:44:49Z</time>
      </trkpt>
      <trkpt lat="47.26524" lon="-1.65938">
        <ele>36.799999</ele>
        <time>2014-02-16T11:44:52Z</time>
      </trkpt>
      <trkpt lat="47.26525" lon="-1.65953">
        <ele>35.799999</ele>
        <time>2014-02-16T11:44:55Z</time>
      </trkpt>
      <trkpt lat="47.26524" lon="-1.6597">
        <ele>35.299999</ele>
        <time>2014-02-16T11:44:58Z</time>
      </trkpt>
      <trkpt lat="47.26525" lon="-1.65984">
        <ele>35</ele>
        <time>2014-02-16T11:45:02Z</time>
      </trkpt>
      <trkpt lat="47.26525" lon="-1.66">
        <ele>35.299999</ele>
        <time>2014-02-16T11:45:06Z</time>
      </trkpt>
      <trkpt lat="47.26529" lon="-1.66015">
        <ele>35.400001</ele>
        <time>2014-02-16T11:45:10Z</time>
      </trkpt>
      <trkpt lat="47.26536" lon="-1.66027">
        <ele>35</ele>
        <time>2014-02-16T11:45:14Z</time>
      </trkpt>
      <trkpt lat="47.26549" lon="-1.66031">
        <ele>34</ele>
        <time>2014-02-16T11:45:18Z</time>
      </trkpt>
      <trkpt lat="47.26568" lon="-1.66033">
        <ele>32.2</ele>
        <time>2014-02-16T11:45:22Z</time>
      </trkpt>
      <trkpt lat="47.26576" lon="-1.6604">
        <ele>31.7</ele>
        <time>2014-02-16T11:45:24Z</time>
      </trkpt>
      <trkpt lat="47.26588" lon="-1.66051">
        <ele>31.2</ele>
        <time>2014-02-16T11:45:26Z</time>
      </trkpt>
      <trkpt lat="47.26597" lon="-1.66056">
        <ele>30.6</ele>
        <time>2014-02-16T11:45:28Z</time>
      </trkpt>
      <trkpt lat="47.26606" lon="-1.66062">
        <ele>27.299999</ele>
        <time>2014-02-16T11:45:30Z</time>
      </trkpt>
      <trkpt lat="47.26614" lon="-1.66068">
        <ele>26.899999</ele>
        <time>2014-02-16T11:45:32Z</time>
      </trkpt>
      <trkpt lat="47.26623" lon="-1.66076">
        <ele>26.2</ele>
        <time>2014-02-16T11:45:35Z</time>
      </trkpt>
      <trkpt lat="47.26632" lon="-1.66088">
        <ele>25.799999</ele>
        <time>2014-02-16T11:45:38Z</time>
      </trkpt>
      <trkpt lat="47.26638" lon="-1.66099">
        <ele>25.799999</ele>
        <time>2014-02-16T11:45:40Z</time>
      </trkpt>
      <trkpt lat="47.26642" lon="-1.66117">
        <ele>26.399999</ele>
        <time>2014-02-16T11:45:43Z</time>
      </trkpt>
      <trkpt lat="47.26643" lon="-1.66133">
        <ele>27.299999</ele>
        <time>2014-02-16T11:45:46Z</time>
      </trkpt>
      <trkpt lat="47.26641" lon="-1.66147">
        <ele>28.299999</ele>
        <time>2014-02-16T11:45:49Z</time>
      </trkpt>
      <trkpt lat="47.26641" lon="-1.66162">
        <ele>29.7</ele>
        <time>2014-02-16T11:45:55Z</time>
      </trkpt>
      <trkpt lat="47.26641" lon="-1.66177">
        <ele>30.2</ele>
        <time>2014-02-16T11:45:59Z</time>
      </trkpt>
      <trkpt lat="47.26642" lon="-1.66191">
        <ele>30.5</ele>
        <time>2014-02-16T11:46:01Z</time>
      </trkpt>
      <trkpt lat="47.26643" lon="-1.66206">
        <ele>30.7</ele>
        <time>2014-02-16T11:46:06Z</time>
      </trkpt>
      <trkpt lat="47.26646" lon="-1.66224">
        <ele>31.1</ele>
        <time>2014-02-16T11:46:10Z</time>
      </trkpt>
      <trkpt lat="47.26649" lon="-1.6624">
        <ele>31.2</ele>
        <time>2014-02-16T11:46:13Z</time>
      </trkpt>
      <trkpt lat="47.26652" lon="-1.66255">
        <ele>31.399999</ele>
        <time>2014-02-16T11:46:16Z</time>
      </trkpt>
      <trkpt lat="47.26654" lon="-1.66269">
        <ele>31.6</ele>
        <time>2014-02-16T11:46:19Z</time>
      </trkpt>
      <trkpt lat="47.26663" lon="-1.66292">
        <ele>31.899999</ele>
        <time>2014-02-16T11:47:04Z</time>
      </trkpt>
      <trkpt lat="47.26654" lon="-1.66292">
        <ele>34</ele>
        <time>2014-02-16T11:47:41Z</time>
      </trkpt>
      <trkpt lat="47.26652" lon="-1.66249">
        <ele>34.2</ele>
        <time>2014-02-16T11:48:58Z</time>
      </trkpt>
      <trkpt lat="47.2665" lon="-1.66233">
        <ele>33.900001</ele>
        <time>2014-02-16T11:49:01Z</time>
      </trkpt>
      <trkpt lat="47.26648" lon="-1.66214">
        <ele>33.599998</ele>
        <time>2014-02-16T11:49:04Z</time>
      </trkpt>
      <trkpt lat="47.26646" lon="-1.66195">
        <ele>33.2</ele>
        <time>2014-02-16T11:49:07Z</time>
      </trkpt>
      <trkpt lat="47.26645" lon="-1.66177">
        <ele>32.7</ele>
        <time>2014-02-16T11:49:10Z</time>
      </trkpt>
      <trkpt lat="47.26642" lon="-1.66162">
        <ele>32.099998</ele>
        <time>2014-02-16T11:49:13Z</time>
      </trkpt>
      <trkpt lat="47.26633" lon="-1.66159">
        <ele>31.2</ele>
        <time>2014-02-16T11:49:17Z</time>
      </trkpt>
      <trkpt lat="47.26623" lon="-1.66159">
        <ele>28.2</ele>
        <time>2014-02-16T11:50:15Z</time>
      </trkpt>
      <trkpt lat="47.26608" lon="-1.66178">
        <ele>30.2</ele>
        <time>2014-02-16T11:50:46Z</time>
      </trkpt>
      <trkpt lat="47.2661" lon="-1.66191">
        <ele>29.6</ele>
        <time>2014-02-16T11:50:50Z</time>
      </trkpt>
      <trkpt lat="47.26615" lon="-1.66206">
        <ele>29.2</ele>
        <time>2014-02-16T11:50:56Z</time>
      </trkpt>
      <trkpt lat="47.26611" lon="-1.66219">
        <ele>29.2</ele>
        <time>2014-02-16T11:51:01Z</time>
      </trkpt>
      <trkpt lat="47.26604" lon="-1.6623">
        <ele>29.2</ele>
        <time>2014-02-16T11:51:07Z</time>
      </trkpt>
      <trkpt lat="47.26598" lon="-1.66243">
        <ele>29</ele>
        <time>2014-02-16T11:51:14Z</time>
      </trkpt>
      <trkpt lat="47.26598" lon="-1.66259">
        <ele>28.799999</ele>
        <time>2014-02-16T11:51:19Z</time>
      </trkpt>
      <trkpt lat="47.26606" lon="-1.66286">
        <ele>28.299999</ele>
        <time>2014-02-16T11:51:25Z</time>
      </trkpt>
      <trkpt lat="47.26612" lon="-1.663">
        <ele>28.2</ele>
        <time>2014-02-16T11:51:30Z</time>
      </trkpt>
      <trkpt lat="47.26616" lon="-1.66316">
        <ele>28.2</ele>
        <time>2014-02-16T11:51:34Z</time>
      </trkpt>
      <trkpt lat="47.26619" lon="-1.66329">
        <ele>28.2</ele>
        <time>2014-02-16T11:51:37Z</time>
      </trkpt>
      <trkpt lat="47.26623" lon="-1.66344">
        <ele>28.1</ele>
        <time>2014-02-16T11:51:40Z</time>
      </trkpt>
      <trkpt lat="47.26627" lon="-1.66356">
        <ele>28</ele>
        <time>2014-02-16T11:51:44Z</time>
      </trkpt>
      <trkpt lat="47.26631" lon="-1.6637">
        <ele>27.7</ele>
        <time>2014-02-16T11:51:50Z</time>
      </trkpt>
      <trkpt lat="47.26636" lon="-1.66384">
        <ele>27.899999</ele>
        <time>2014-02-16T11:51:55Z</time>
      </trkpt>
      <trkpt lat="47.26638" lon="-1.66399">
        <ele>28.799999</ele>
        <time>2014-02-16T11:52:00Z</time>
      </trkpt>
      <trkpt lat="47.26644" lon="-1.66411">
        <ele>29.7</ele>
        <time>2014-02-16T11:52:06Z</time>
      </trkpt>
      <trkpt lat="47.26643" lon="-1.66426">
        <ele>29.399999</ele>
        <time>2014-02-16T11:52:19Z</time>
      </trkpt>
      <trkpt lat="47.26649" lon="-1.66438">
        <ele>29.2</ele>
        <time>2014-02-16T11:52:25Z</time>
      </trkpt>
      <trkpt lat="47.26658" lon="-1.66463">
        <ele>28.399999</ele>
        <time>2014-02-16T11:52:40Z</time>
      </trkpt>
      <trkpt lat="47.26661" lon="-1.66477">
        <ele>28.399999</ele>
        <time>2014-02-16T11:52:46Z</time>
      </trkpt>
      <trkpt lat="47.26665" lon="-1.66491">
        <ele>28.399999</ele>
        <time>2014-02-16T11:52:50Z</time>
      </trkpt>
      <trkpt lat="47.26668" lon="-1.66504">
        <ele>28.7</ele>
        <time>2014-02-16T11:52:54Z</time>
      </trkpt>
      <trkpt lat="47.26669" lon="-1.66519">
        <ele>28.6</ele>
        <time>2014-02-16T11:52:59Z</time>
      </trkpt>
      <trkpt lat="47.26668" lon="-1.66534">
        <ele>28.799999</ele>
        <time>2014-02-16T11:53:05Z</time>
      </trkpt>
      <trkpt lat="47.26671" lon="-1.66549">
        <ele>29.299999</ele>
        <time>2014-02-16T11:53:11Z</time>
      </trkpt>
      <trkpt lat="47.26676" lon="-1.66561">
        <ele>29.6</ele>
        <time>2014-02-16T11:53:15Z</time>
      </trkpt>
      <trkpt lat="47.26683" lon="-1.66571">
        <ele>30</ele>
        <time>2014-02-16T11:53:19Z</time>
      </trkpt>
      <trkpt lat="47.26689" lon="-1.66583">
        <ele>30.299999</ele>
        <time>2014-02-16T11:53:24Z</time>
      </trkpt>
      <trkpt lat="47.26694" lon="-1.66596">
        <ele>30.6</ele>
        <time>2014-02-16T11:53:28Z</time>
      </trkpt>
      <trkpt lat="47.2671" lon="-1.66603">
        <ele>29.6</ele>
        <time>2014-02-16T11:54:13Z</time>
      </trkpt>
      <trkpt lat="47.26719" lon="-1.6661">
        <ele>28.899999</ele>
        <time>2014-02-16T11:54:31Z</time>
      </trkpt>
      <trkpt lat="47.26738" lon="-1.66614">
        <ele>30.1</ele>
        <time>2014-02-16T11:54:55Z</time>
      </trkpt>
      <trkpt lat="47.26748" lon="-1.66611">
        <ele>30.5</ele>
        <time>2014-02-16T11:55:00Z</time>
      </trkpt>
      <trkpt lat="47.26758" lon="-1.66607">
        <ele>30.399999</ele>
        <time>2014-02-16T11:55:06Z</time>
      </trkpt>
      <trkpt lat="47.26766" lon="-1.66617">
        <ele>30.899999</ele>
        <time>2014-02-16T11:55:12Z</time>
      </trkpt>
      <trkpt lat="47.26773" lon="-1.66631">
        <ele>30.799999</ele>
        <time>2014-02-16T11:55:16Z</time>
      </trkpt>
      <trkpt lat="47.26779" lon="-1.66642">
        <ele>30.299999</ele>
        <time>2014-02-16T11:55:19Z</time>
      </trkpt>
      <trkpt lat="47.26785" lon="-1.66655">
        <ele>28.899999</ele>
        <time>2014-02-16T11:55:23Z</time>
      </trkpt>
      <trkpt lat="47.26789" lon="-1.66668">
        <ele>28.799999</ele>
        <time>2014-02-16T11:55:26Z</time>
      </trkpt>
      <trkpt lat="47.26795" lon="-1.66682">
        <ele>29</ele>
        <time>2014-02-16T11:55:30Z</time>
      </trkpt>
      <trkpt lat="47.268" lon="-1.66695">
        <ele>29.6</ele>
        <time>2014-02-16T11:55:34Z</time>
      </trkpt>
      <trkpt lat="47.26811" lon="-1.6672">
        <ele>30.399999</ele>
        <time>2014-02-16T11:55:40Z</time>
      </trkpt>
      <trkpt lat="47.26819" lon="-1.66733">
        <ele>30.5</ele>
        <time>2014-02-16T11:55:43Z</time>
      </trkpt>
      <trkpt lat="47.26828" lon="-1.66745">
        <ele>30.299999</ele>
        <time>2014-02-16T11:55:47Z</time>
      </trkpt>
      <trkpt lat="47.26834" lon="-1.66755">
        <ele>30.1</ele>
        <time>2014-02-16T11:55:50Z</time>
      </trkpt>
      <trkpt lat="47.26843" lon="-1.66767">
        <ele>29.299999</ele>
        <time>2014-02-16T11:55:54Z</time>
      </trkpt>
      <trkpt lat="47.26854" lon="-1.66775">
        <ele>28.899999</ele>
        <time>2014-02-16T11:55:58Z</time>
      </trkpt>
      <trkpt lat="47.26864" lon="-1.66783">
        <ele>29</ele>
        <time>2014-02-16T11:56:01Z</time>
      </trkpt>
      <trkpt lat="47.26871" lon="-1.66793">
        <ele>29</ele>
        <time>2014-02-16T11:56:03Z</time>
      </trkpt>
      <trkpt lat="47.26881" lon="-1.66803">
        <ele>29</ele>
        <time>2014-02-16T11:56:06Z</time>
      </trkpt>
      <trkpt lat="47.2689" lon="-1.66812">
        <ele>29</ele>
        <time>2014-02-16T11:56:09Z</time>
      </trkpt>
      <trkpt lat="47.269" lon="-1.66821">
        <ele>29.1</ele>
        <time>2014-02-16T11:56:12Z</time>
      </trkpt>
      <trkpt lat="47.26908" lon="-1.66832">
        <ele>29.399999</ele>
        <time>2014-02-16T11:56:16Z</time>
      </trkpt>
      <trkpt lat="47.26913" lon="-1.66845">
        <ele>29.7</ele>
        <time>2014-02-16T11:56:19Z</time>
      </trkpt>
      <trkpt lat="47.26918" lon="-1.66859">
        <ele>30.1</ele>
        <time>2014-02-16T11:56:24Z</time>
      </trkpt>
      <trkpt lat="47.26923" lon="-1.66871">
        <ele>30.399999</ele>
        <time>2014-02-16T11:56:28Z</time>
      </trkpt>
      <trkpt lat="47.26928" lon="-1.66884">
        <ele>30.7</ele>
        <time>2014-02-16T11:56:31Z</time>
      </trkpt>
      <trkpt lat="47.26933" lon="-1.66896">
        <ele>30.799999</ele>
        <time>2014-02-16T11:56:34Z</time>
      </trkpt>
      <trkpt lat="47.26935" lon="-1.66911">
        <ele>31.2</ele>
        <time>2014-02-16T11:56:38Z</time>
      </trkpt>
      <trkpt lat="47.26928" lon="-1.66945">
        <ele>33.299999</ele>
        <time>2014-02-16T11:56:46Z</time>
      </trkpt>
      <trkpt lat="47.26922" lon="-1.66956">
        <ele>34.799999</ele>
        <time>2014-02-16T11:56:50Z</time>
      </trkpt>
      <trkpt lat="47.26916" lon="-1.66974">
        <ele>36.599998</ele>
        <time>2014-02-16T11:56:55Z</time>
      </trkpt>
      <trkpt lat="47.26913" lon="-1.66988">
        <ele>37.900001</ele>
        <time>2014-02-16T11:56:58Z</time>
      </trkpt>
      <trkpt lat="47.2691" lon="-1.67004">
        <ele>40.099998</ele>
        <time>2014-02-16T11:57:02Z</time>
      </trkpt>
      <trkpt lat="47.26908" lon="-1.67019">
        <ele>44.299999</ele>
        <time>2014-02-16T11:57:06Z</time>
      </trkpt>
      <trkpt lat="47.26908" lon="-1.67032">
        <ele>44.599998</ele>
        <time>2014-02-16T11:57:09Z</time>
      </trkpt>
      <trkpt lat="47.26908" lon="-1.67049">
        <ele>44.099998</ele>
        <time>2014-02-16T11:57:13Z</time>
      </trkpt>
      <trkpt lat="47.26907" lon="-1.67064">
        <ele>43.599998</ele>
        <time>2014-02-16T11:57:16Z</time>
      </trkpt>
      <trkpt lat="47.26906" lon="-1.67078">
        <ele>43.400001</ele>
        <time>2014-02-16T11:57:20Z</time>
      </trkpt>
      <trkpt lat="47.26904" lon="-1.67092">
        <ele>42.799999</ele>
        <time>2014-02-16T11:57:25Z</time>
      </trkpt>
      <trkpt lat="47.26901" lon="-1.67107">
        <ele>42.799999</ele>
        <time>2014-02-16T11:57:29Z</time>
      </trkpt>
      <trkpt lat="47.26894" lon="-1.67118">
        <ele>42.900001</ele>
        <time>2014-02-16T11:57:32Z</time>
      </trkpt>
      <trkpt lat="47.26885" lon="-1.67129">
        <ele>42.599998</ele>
        <time>2014-02-16T11:57:35Z</time>
      </trkpt>
      <trkpt lat="47.26876" lon="-1.67134">
        <ele>42.7</ele>
        <time>2014-02-16T11:57:38Z</time>
      </trkpt>
      <trkpt lat="47.26866" lon="-1.67136">
        <ele>42.400001</ele>
        <time>2014-02-16T11:57:42Z</time>
      </trkpt>
      <trkpt lat="47.2685" lon="-1.6712">
        <ele>41.400001</ele>
        <time>2014-02-16T11:57:52Z</time>
      </trkpt>
      <trkpt lat="47.26841" lon="-1.67111">
        <ele>41</ele>
        <time>2014-02-16T11:57:57Z</time>
      </trkpt>
      <trkpt lat="47.26833" lon="-1.67104">
        <ele>41.099998</ele>
        <time>2014-02-16T11:58:01Z</time>
      </trkpt>
      <trkpt lat="47.26825" lon="-1.67098">
        <ele>41.299999</ele>
        <time>2014-02-16T11:58:04Z</time>
      </trkpt>
      <trkpt lat="47.26816" lon="-1.67092">
        <ele>41.5</ele>
        <time>2014-02-16T11:58:08Z</time>
      </trkpt>
      <trkpt lat="47.26807" lon="-1.671">
        <ele>41.799999</ele>
        <time>2014-02-16T11:58:14Z</time>
      </trkpt>
      <trkpt lat="47.26805" lon="-1.67113">
        <ele>41.799999</ele>
        <time>2014-02-16T11:58:17Z</time>
      </trkpt>
      <trkpt lat="47.26797" lon="-1.67122">
        <ele>41.799999</ele>
        <time>2014-02-16T11:58:22Z</time>
      </trkpt>
      <trkpt lat="47.26786" lon="-1.67126">
        <ele>41.7</ele>
        <time>2014-02-16T11:58:26Z</time>
      </trkpt>
      <trkpt lat="47.26776" lon="-1.67129">
        <ele>41.599998</ele>
        <time>2014-02-16T11:58:29Z</time>
      </trkpt>
      <trkpt lat="47.26783" lon="-1.67141">
        <ele>41.099998</ele>
        <time>2014-02-16T11:58:40Z</time>
      </trkpt>
      <trkpt lat="47.26793" lon="-1.67141">
        <ele>41.2</ele>
        <time>2014-02-16T11:58:43Z</time>
      </trkpt>
      <trkpt lat="47.26815" lon="-1.67143">
        <ele>41.299999</ele>
        <time>2014-02-16T11:58:49Z</time>
      </trkpt>
      <trkpt lat="47.26827" lon="-1.67145">
        <ele>41</ele>
        <time>2014-02-16T11:58:52Z</time>
      </trkpt>
      <trkpt lat="47.26838" lon="-1.67146">
        <ele>40.599998</ele>
        <time>2014-02-16T11:58:55Z</time>
      </trkpt>
      <trkpt lat="47.26846" lon="-1.67151">
        <ele>39.7</ele>
        <time>2014-02-16T11:59:00Z</time>
      </trkpt>
      <trkpt lat="47.2685" lon="-1.67164">
        <ele>39</ele>
        <time>2014-02-16T11:59:04Z</time>
      </trkpt>
      <trkpt lat="47.26855" lon="-1.67176">
        <ele>37.5</ele>
        <time>2014-02-16T11:59:06Z</time>
      </trkpt>
      <trkpt lat="47.26862" lon="-1.67191">
        <ele>33</ele>
        <time>2014-02-16T11:59:08Z</time>
      </trkpt>
      <trkpt lat="47.26869" lon="-1.67205">
        <ele>32.099998</ele>
        <time>2014-02-16T11:59:10Z</time>
      </trkpt>
      <trkpt lat="47.26875" lon="-1.67219">
        <ele>29.899999</ele>
        <time>2014-02-16T11:59:12Z</time>
      </trkpt>
      <trkpt lat="47.26876" lon="-1.67234">
        <ele>28.799999</ele>
        <time>2014-02-16T11:59:14Z</time>
      </trkpt>
      <trkpt lat="47.26873" lon="-1.67249">
        <ele>28.7</ele>
        <time>2014-02-16T11:59:16Z</time>
      </trkpt>
      <trkpt lat="47.26881" lon="-1.67259">
        <ele>28.899999</ele>
        <time>2014-02-16T11:59:21Z</time>
      </trkpt>
      <trkpt lat="47.26891" lon="-1.67261">
        <ele>29.1</ele>
        <time>2014-02-16T11:59:24Z</time>
      </trkpt>
      <trkpt lat="47.269" lon="-1.6726">
        <ele>31.1</ele>
        <time>2014-02-16T11:59:26Z</time>
      </trkpt>
      <trkpt lat="47.2691" lon="-1.67257">
        <ele>31.5</ele>
        <time>2014-02-16T11:59:28Z</time>
      </trkpt>
      <trkpt lat="47.26921" lon="-1.67255">
        <ele>31.399999</ele>
        <time>2014-02-16T11:59:30Z</time>
      </trkpt>
      <trkpt lat="47.26932" lon="-1.67256">
        <ele>31.399999</ele>
        <time>2014-02-16T11:59:32Z</time>
      </trkpt>
      <trkpt lat="47.26946" lon="-1.67259">
        <ele>32</ele>
        <time>2014-02-16T11:59:35Z</time>
      </trkpt>
      <trkpt lat="47.26958" lon="-1.67253">
        <ele>32.2</ele>
        <time>2014-02-16T11:59:38Z</time>
      </trkpt>
      <trkpt lat="47.26967" lon="-1.67248">
        <ele>32.2</ele>
        <time>2014-02-16T11:59:41Z</time>
      </trkpt>
      <trkpt lat="47.26979" lon="-1.67243">
        <ele>32.099998</ele>
        <time>2014-02-16T11:59:44Z</time>
      </trkpt>
      <trkpt lat="47.27002" lon="-1.67234">
        <ele>31.7</ele>
        <time>2014-02-16T11:59:50Z</time>
      </trkpt>
      <trkpt lat="47.27013" lon="-1.67231">
        <ele>31.399999</ele>
        <time>2014-02-16T11:59:53Z</time>
      </trkpt>
      <trkpt lat="47.27025" lon="-1.67229">
        <ele>31.2</ele>
        <time>2014-02-16T11:59:56Z</time>
      </trkpt>
      <trkpt lat="47.27036" lon="-1.67227">
        <ele>31.299999</ele>
        <time>2014-02-16T11:59:59Z</time>
      </trkpt>
      <trkpt lat="47.27045" lon="-1.6723">
        <ele>31.399999</ele>
        <time>2014-02-16T12:00:02Z</time>
      </trkpt>
      <trkpt lat="47.27052" lon="-1.67241">
        <ele>31.5</ele>
        <time>2014-02-16T12:00:05Z</time>
      </trkpt>
      <trkpt lat="47.27059" lon="-1.67253">
        <ele>31.2</ele>
        <time>2014-02-16T12:00:07Z</time>
      </trkpt>
      <trkpt lat="47.27065" lon="-1.67264">
        <ele>30.799999</ele>
        <time>2014-02-16T12:00:09Z</time>
      </trkpt>
      <trkpt lat="47.27071" lon="-1.67277">
        <ele>26.899999</ele>
        <time>2014-02-16T12:00:11Z</time>
      </trkpt>
      <trkpt lat="47.27075" lon="-1.67296">
        <ele>26.299999</ele>
        <time>2014-02-16T12:00:14Z</time>
      </trkpt>
      <trkpt lat="47.27072" lon="-1.67311">
        <ele>24</ele>
        <time>2014-02-16T12:00:16Z</time>
      </trkpt>
      <trkpt lat="47.27065" lon="-1.67321">
        <ele>24</ele>
        <time>2014-02-16T12:00:19Z</time>
      </trkpt>
      <trkpt lat="47.27061" lon="-1.67337">
        <ele>23.899999</ele>
        <time>2014-02-16T12:00:24Z</time>
      </trkpt>
      <trkpt lat="47.2706" lon="-1.67353">
        <ele>23.6</ele>
        <time>2014-02-16T12:00:28Z</time>
      </trkpt>
      <trkpt lat="47.2706" lon="-1.67367">
        <ele>23.899999</ele>
        <time>2014-02-16T12:00:56Z</time>
      </trkpt>
      <trkpt lat="47.27061" lon="-1.6741">
        <ele>27.399999</ele>
        <time>2014-02-16T12:02:55Z</time>
      </trkpt>
      <trkpt lat="47.27068" lon="-1.67427">
        <ele>27.6</ele>
        <time>2014-02-16T12:02:58Z</time>
      </trkpt>
      <trkpt lat="47.27071" lon="-1.67442">
        <ele>27.899999</ele>
        <time>2014-02-16T12:03:01Z</time>
      </trkpt>
      <trkpt lat="47.27071" lon="-1.67457">
        <ele>28.399999</ele>
        <time>2014-02-16T12:03:06Z</time>
      </trkpt>
      <trkpt lat="47.2707" lon="-1.67471">
        <ele>28.799999</ele>
        <time>2014-02-16T12:03:10Z</time>
      </trkpt>
      <trkpt lat="47.27071" lon="-1.67486">
        <ele>28.899999</ele>
        <time>2014-02-16T12:03:15Z</time>
      </trkpt>
      <trkpt lat="47.27075" lon="-1.67503">
        <ele>29.2</ele>
        <time>2014-02-16T12:03:19Z</time>
      </trkpt>
      <trkpt lat="47.27077" lon="-1.67519">
        <ele>29.299999</ele>
        <time>2014-02-16T12:03:23Z</time>
      </trkpt>
      <trkpt lat="47.27077" lon="-1.67533">
        <ele>29.399999</ele>
        <time>2014-02-16T12:03:26Z</time>
      </trkpt>
      <trkpt lat="47.2708" lon="-1.67547">
        <ele>29.6</ele>
        <time>2014-02-16T12:03:29Z</time>
      </trkpt>
      <trkpt lat="47.27086" lon="-1.67563">
        <ele>30</ele>
        <time>2014-02-16T12:03:32Z</time>
      </trkpt>
      <trkpt lat="47.27091" lon="-1.67575">
        <ele>30.1</ele>
        <time>2014-02-16T12:03:34Z</time>
      </trkpt>
      <trkpt lat="47.27097" lon="-1.67592">
        <ele>31.299999</ele>
        <time>2014-02-16T12:03:37Z</time>
      </trkpt>
      <trkpt lat="47.271" lon="-1.67607">
        <ele>31.6</ele>
        <time>2014-02-16T12:03:39Z</time>
      </trkpt>
      <trkpt lat="47.27102" lon="-1.67621">
        <ele>30.899999</ele>
        <time>2014-02-16T12:03:41Z</time>
      </trkpt>
      <trkpt lat="47.27105" lon="-1.67636">
        <ele>29.799999</ele>
        <time>2014-02-16T12:03:43Z</time>
      </trkpt>
      <trkpt lat="47.27109" lon="-1.67655">
        <ele>27.899999</ele>
        <time>2014-02-16T12:03:46Z</time>
      </trkpt>
      <trkpt lat="47.27112" lon="-1.67672">
        <ele>27.899999</ele>
        <time>2014-02-16T12:03:49Z</time>
      </trkpt>
      <trkpt lat="47.27112" lon="-1.67689">
        <ele>28.1</ele>
        <time>2014-02-16T12:03:52Z</time>
      </trkpt>
      <trkpt lat="47.27109" lon="-1.67719">
        <ele>28.1</ele>
        <time>2014-02-16T12:03:58Z</time>
      </trkpt>
      <trkpt lat="47.27107" lon="-1.67735">
        <ele>28</ele>
        <time>2014-02-16T12:04:02Z</time>
      </trkpt>
      <trkpt lat="47.27102" lon="-1.67751">
        <ele>27.6</ele>
        <time>2014-02-16T12:04:06Z</time>
      </trkpt>
      <trkpt lat="47.27098" lon="-1.67764">
        <ele>27.2</ele>
        <time>2014-02-16T12:04:10Z</time>
      </trkpt>
      <trkpt lat="47.27094" lon="-1.67776">
        <ele>26.899999</ele>
        <time>2014-02-16T12:04:13Z</time>
      </trkpt>
      <trkpt lat="47.2709" lon="-1.6779">
        <ele>26.5</ele>
        <time>2014-02-16T12:04:16Z</time>
      </trkpt>
      <trkpt lat="47.27083" lon="-1.67806">
        <ele>26.299999</ele>
        <time>2014-02-16T12:04:19Z</time>
      </trkpt>
      <trkpt lat="47.27077" lon="-1.67823">
        <ele>26.2</ele>
        <time>2014-02-16T12:04:22Z</time>
      </trkpt>
      <trkpt lat="47.27071" lon="-1.6784">
        <ele>26.2</ele>
        <time>2014-02-16T12:04:25Z</time>
      </trkpt>
      <trkpt lat="47.27066" lon="-1.67854">
        <ele>26.2</ele>
        <time>2014-02-16T12:04:28Z</time>
      </trkpt>
      <trkpt lat="47.27061" lon="-1.67867">
        <ele>26</ele>
        <time>2014-02-16T12:04:31Z</time>
      </trkpt>
      <trkpt lat="47.27056" lon="-1.67881">
        <ele>25.7</ele>
        <time>2014-02-16T12:04:34Z</time>
      </trkpt>
      <trkpt lat="47.27052" lon="-1.67897">
        <ele>25.1</ele>
        <time>2014-02-16T12:04:38Z</time>
      </trkpt>
      <trkpt lat="47.27048" lon="-1.67909">
        <ele>24.299999</ele>
        <time>2014-02-16T12:04:41Z</time>
      </trkpt>
      <trkpt lat="47.27044" lon="-1.67923">
        <ele>23.2</ele>
        <time>2014-02-16T12:04:44Z</time>
      </trkpt>
      <trkpt lat="47.27042" lon="-1.67937">
        <ele>22.7</ele>
        <time>2014-02-16T12:04:48Z</time>
      </trkpt>
      <trkpt lat="47.2704" lon="-1.67954">
        <ele>22.6</ele>
        <time>2014-02-16T12:04:52Z</time>
      </trkpt>
      <trkpt lat="47.27039" lon="-1.67973">
        <ele>23</ele>
        <time>2014-02-16T12:04:55Z</time>
      </trkpt>
      <trkpt lat="47.27038" lon="-1.68002">
        <ele>24.899999</ele>
        <time>2014-02-16T12:05:01Z</time>
      </trkpt>
      <trkpt lat="47.27036" lon="-1.68016">
        <ele>25.899999</ele>
        <time>2014-02-16T12:05:04Z</time>
      </trkpt>
      <trkpt lat="47.27038" lon="-1.68029">
        <ele>26.5</ele>
        <time>2014-02-16T12:05:08Z</time>
      </trkpt>
      <trkpt lat="47.27043" lon="-1.68042">
        <ele>26.7</ele>
        <time>2014-02-16T12:05:12Z</time>
      </trkpt>
      <trkpt lat="47.27047" lon="-1.68054">
        <ele>26.899999</ele>
        <time>2014-02-16T12:05:14Z</time>
      </trkpt>
      <trkpt lat="47.27055" lon="-1.68071">
        <ele>27.799999</ele>
        <time>2014-02-16T12:05:16Z</time>
      </trkpt>
      <trkpt lat="47.27064" lon="-1.68089">
        <ele>29.2</ele>
        <time>2014-02-16T12:05:18Z</time>
      </trkpt>
      <trkpt lat="47.27071" lon="-1.68104">
        <ele>31.299999</ele>
        <time>2014-02-16T12:05:20Z</time>
      </trkpt>
      <trkpt lat="47.27076" lon="-1.68118">
        <ele>33.5</ele>
        <time>2014-02-16T12:05:22Z</time>
      </trkpt>
      <trkpt lat="47.27081" lon="-1.68131">
        <ele>33.7</ele>
        <time>2014-02-16T12:05:25Z</time>
      </trkpt>
      <trkpt lat="47.27085" lon="-1.68144">
        <ele>34</ele>
        <time>2014-02-16T12:05:27Z</time>
      </trkpt>
      <trkpt lat="47.2708" lon="-1.68158">
        <ele>34.400001</ele>
        <time>2014-02-16T12:05:30Z</time>
      </trkpt>
      <trkpt lat="47.27075" lon="-1.6817">
        <ele>34.599998</ele>
        <time>2014-02-16T12:05:33Z</time>
      </trkpt>
      <trkpt lat="47.27069" lon="-1.68183">
        <ele>34.5</ele>
        <time>2014-02-16T12:05:38Z</time>
      </trkpt>
      <trkpt lat="47.27065" lon="-1.68198">
        <ele>34.5</ele>
        <time>2014-02-16T12:05:42Z</time>
      </trkpt>
      <trkpt lat="47.27062" lon="-1.68211">
        <ele>34.400001</ele>
        <time>2014-02-16T12:05:46Z</time>
      </trkpt>
      <trkpt lat="47.27058" lon="-1.68223">
        <ele>34.5</ele>
        <time>2014-02-16T12:05:51Z</time>
      </trkpt>
      <trkpt lat="47.27055" lon="-1.68239">
        <ele>34.799999</ele>
        <time>2014-02-16T12:05:55Z</time>
      </trkpt>
      <trkpt lat="47.27052" lon="-1.68254">
        <ele>35.299999</ele>
        <time>2014-02-16T12:06:00Z</time>
      </trkpt>
      <trkpt lat="47.2704" lon="-1.68283">
        <ele>36.799999</ele>
        <time>2014-02-16T12:06:11Z</time>
      </trkpt>
      <trkpt lat="47.27036" lon="-1.68296">
        <ele>37.799999</ele>
        <time>2014-02-16T12:06:16Z</time>
      </trkpt>
      <trkpt lat="47.27031" lon="-1.68308">
        <ele>39.299999</ele>
        <time>2014-02-16T12:06:24Z</time>
      </trkpt>
      <trkpt lat="47.27025" lon="-1.68319">
        <ele>40.5</ele>
        <time>2014-02-16T12:06:31Z</time>
      </trkpt>
      <trkpt lat="47.27021" lon="-1.68331">
        <ele>40.799999</ele>
        <time>2014-02-16T12:06:36Z</time>
      </trkpt>
      <trkpt lat="47.27016" lon="-1.68343">
        <ele>41.2</ele>
        <time>2014-02-16T12:06:41Z</time>
      </trkpt>
      <trkpt lat="47.27011" lon="-1.68355">
        <ele>41.2</ele>
        <time>2014-02-16T12:06:46Z</time>
      </trkpt>
      <trkpt lat="47.27006" lon="-1.68367">
        <ele>41.400001</ele>
        <time>2014-02-16T12:06:52Z</time>
      </trkpt>
      <trkpt lat="47.27" lon="-1.68379">
        <ele>41.900001</ele>
        <time>2014-02-16T12:06:58Z</time>
      </trkpt>
      <trkpt lat="47.26996" lon="-1.68392">
        <ele>43.299999</ele>
        <time>2014-02-16T12:07:06Z</time>
      </trkpt>
      <trkpt lat="47.26989" lon="-1.68417">
        <ele>44.5</ele>
        <time>2014-02-16T12:07:25Z</time>
      </trkpt>
      <trkpt lat="47.26984" lon="-1.68429">
        <ele>44.5</ele>
        <time>2014-02-16T12:07:31Z</time>
      </trkpt>
      <trkpt lat="47.26979" lon="-1.68439">
        <ele>46.799999</ele>
        <time>2014-02-16T12:08:57Z</time>
      </trkpt>
      <trkpt lat="47.26991" lon="-1.68461">
        <ele>49.599998</ele>
        <time>2014-02-16T12:09:12Z</time>
      </trkpt>
      <trkpt lat="47.27" lon="-1.68467">
        <ele>49.400001</ele>
        <time>2014-02-16T12:09:17Z</time>
      </trkpt>
      <trkpt lat="47.27008" lon="-1.68475">
        <ele>49.5</ele>
        <time>2014-02-16T12:09:31Z</time>
      </trkpt>
      <trkpt lat="47.27017" lon="-1.68481">
        <ele>49.400001</ele>
        <time>2014-02-16T12:09:39Z</time>
      </trkpt>
      <trkpt lat="47.27026" lon="-1.68486">
        <ele>49.7</ele>
        <time>2014-02-16T12:09:48Z</time>
      </trkpt>
      <trkpt lat="47.27033" lon="-1.68497">
        <ele>50.299999</ele>
        <time>2014-02-16T12:09:52Z</time>
      </trkpt>
      <trkpt lat="47.27039" lon="-1.68508">
        <ele>51.099998</ele>
        <time>2014-02-16T12:09:57Z</time>
      </trkpt>
      <trkpt lat="47.27046" lon="-1.68522">
        <ele>51.900001</ele>
        <time>2014-02-16T12:10:02Z</time>
      </trkpt>
      <trkpt lat="47.27067" lon="-1.68521">
        <ele>52.799999</ele>
        <time>2014-02-16T12:10:11Z</time>
      </trkpt>
      <trkpt lat="47.2708" lon="-1.68516">
        <ele>52.900001</ele>
        <time>2014-02-16T12:10:14Z</time>
      </trkpt>
      <trkpt lat="47.27089" lon="-1.68513">
        <ele>53.299999</ele>
        <time>2014-02-16T12:10:17Z</time>
      </trkpt>
      <trkpt lat="47.271" lon="-1.68517">
        <ele>53.7</ele>
        <time>2014-02-16T12:10:21Z</time>
      </trkpt>
      <trkpt lat="47.27107" lon="-1.68532">
        <ele>53.799999</ele>
        <time>2014-02-16T12:10:24Z</time>
      </trkpt>
      <trkpt lat="47.27108" lon="-1.68547">
        <ele>54.900001</ele>
        <time>2014-02-16T12:10:26Z</time>
      </trkpt>
      <trkpt lat="47.27106" lon="-1.68561">
        <ele>57.2</ele>
        <time>2014-02-16T12:10:28Z</time>
      </trkpt>
      <trkpt lat="47.27101" lon="-1.68576">
        <ele>59</ele>
        <time>2014-02-16T12:10:30Z</time>
      </trkpt>
      <trkpt lat="47.27095" lon="-1.68592">
        <ele>59.299999</ele>
        <time>2014-02-16T12:10:33Z</time>
      </trkpt>
      <trkpt lat="47.27089" lon="-1.68604">
        <ele>59.599998</ele>
        <time>2014-02-16T12:10:36Z</time>
      </trkpt>
      <trkpt lat="47.27084" lon="-1.68616">
        <ele>60</ele>
        <time>2014-02-16T12:10:39Z</time>
      </trkpt>
      <trkpt lat="47.2708" lon="-1.6863">
        <ele>60.299999</ele>
        <time>2014-02-16T12:10:42Z</time>
      </trkpt>
      <trkpt lat="47.2708" lon="-1.68644">
        <ele>60.7</ele>
        <time>2014-02-16T12:10:45Z</time>
      </trkpt>
      <trkpt lat="47.27089" lon="-1.68656">
        <ele>60.799999</ele>
        <time>2014-02-16T12:10:48Z</time>
      </trkpt>
      <trkpt lat="47.27097" lon="-1.68666">
        <ele>61.099998</ele>
        <time>2014-02-16T12:10:51Z</time>
      </trkpt>
      <trkpt lat="47.27106" lon="-1.68677">
        <ele>61.5</ele>
        <time>2014-02-16T12:10:54Z</time>
      </trkpt>
      <trkpt lat="47.27113" lon="-1.68687">
        <ele>62</ele>
        <time>2014-02-16T12:10:57Z</time>
      </trkpt>
      <trkpt lat="47.2712" lon="-1.68699">
        <ele>62.299999</ele>
        <time>2014-02-16T12:11:01Z</time>
      </trkpt>
      <trkpt lat="47.27116" lon="-1.68714">
        <ele>62.900001</ele>
        <time>2014-02-16T12:11:05Z</time>
      </trkpt>
      <trkpt lat="47.27104" lon="-1.68739">
        <ele>64.199996</ele>
        <time>2014-02-16T12:11:12Z</time>
      </trkpt>
      <trkpt lat="47.27095" lon="-1.68751">
        <ele>64.599998</ele>
        <time>2014-02-16T12:11:15Z</time>
      </trkpt>
      <trkpt lat="47.27087" lon="-1.68761">
        <ele>65</ele>
        <time>2014-02-16T12:11:19Z</time>
      </trkpt>
      <trkpt lat="47.27084" lon="-1.68779">
        <ele>65.699996</ele>
        <time>2014-02-16T12:11:24Z</time>
      </trkpt>
      <trkpt lat="47.27084" lon="-1.68793">
        <ele>66.099998</ele>
        <time>2014-02-16T12:11:28Z</time>
      </trkpt>
      <trkpt lat="47.27086" lon="-1.68807">
        <ele>66.800003</ele>
        <time>2014-02-16T12:11:34Z</time>
      </trkpt>
      <trkpt lat="47.27084" lon="-1.68821">
        <ele>67</ele>
        <time>2014-02-16T12:11:39Z</time>
      </trkpt>
      <trkpt lat="47.27086" lon="-1.68838">
        <ele>67.400001</ele>
        <time>2014-02-16T12:11:55Z</time>
      </trkpt>
      <trkpt lat="47.27088" lon="-1.68852">
        <ele>67.699996</ele>
        <time>2014-02-16T12:11:59Z</time>
      </trkpt>
      <trkpt lat="47.27097" lon="-1.68865">
        <ele>67.699996</ele>
        <time>2014-02-16T12:12:03Z</time>
      </trkpt>
      <trkpt lat="47.27107" lon="-1.68872">
        <ele>67.800003</ele>
        <time>2014-02-16T12:12:06Z</time>
      </trkpt>
      <trkpt lat="47.27131" lon="-1.68871">
        <ele>69</ele>
        <time>2014-02-16T12:12:11Z</time>
      </trkpt>
      <trkpt lat="47.2714" lon="-1.6887">
        <ele>69.099998</ele>
        <time>2014-02-16T12:12:13Z</time>
      </trkpt>
      <trkpt lat="47.27153" lon="-1.6887">
        <ele>68.699996</ele>
        <time>2014-02-16T12:12:16Z</time>
      </trkpt>
      <trkpt lat="47.27165" lon="-1.68871">
        <ele>68.300003</ele>
        <time>2014-02-16T12:12:19Z</time>
      </trkpt>
      <trkpt lat="47.27177" lon="-1.68873">
        <ele>69.099998</ele>
        <time>2014-02-16T12:12:22Z</time>
      </trkpt>
      <trkpt lat="47.27187" lon="-1.68879">
        <ele>69</ele>
        <time>2014-02-16T12:12:26Z</time>
      </trkpt>
      <trkpt lat="47.27195" lon="-1.68884">
        <ele>68.699996</ele>
        <time>2014-02-16T12:12:31Z</time>
      </trkpt>
      <trkpt lat="47.27204" lon="-1.6889">
        <ele>68.599998</ele>
        <time>2014-02-16T12:12:36Z</time>
      </trkpt>
      <trkpt lat="47.27213" lon="-1.68896">
        <ele>67.599998</ele>
        <time>2014-02-16T12:12:44Z</time>
      </trkpt>
      <trkpt lat="47.27201" lon="-1.68891">
        <ele>67.300003</ele>
        <time>2014-02-16T12:12:57Z</time>
      </trkpt>
      <trkpt lat="47.27191" lon="-1.68886">
        <ele>67.199996</ele>
        <time>2014-02-16T12:13:00Z</time>
      </trkpt>
      <trkpt lat="47.27182" lon="-1.6888">
        <ele>67.5</ele>
        <time>2014-02-16T12:13:03Z</time>
      </trkpt>
      <trkpt lat="47.27179" lon="-1.68866">
        <ele>67.800003</ele>
        <time>2014-02-16T12:13:07Z</time>
      </trkpt>
      <trkpt lat="47.27189" lon="-1.68835">
        <ele>67.800003</ele>
        <time>2014-02-16T12:13:13Z</time>
      </trkpt>
      <trkpt lat="47.27198" lon="-1.68821">
        <ele>67.599998</ele>
        <time>2014-02-16T12:13:16Z</time>
      </trkpt>
      <trkpt lat="47.27205" lon="-1.68812">
        <ele>67.599998</ele>
        <time>2014-02-16T12:13:18Z</time>
      </trkpt>
      <trkpt lat="47.27213" lon="-1.68801">
        <ele>65.900001</ele>
        <time>2014-02-16T12:13:21Z</time>
      </trkpt>
      <trkpt lat="47.2722" lon="-1.68791">
        <ele>65</ele>
        <time>2014-02-16T12:13:23Z</time>
      </trkpt>
      <trkpt lat="47.27228" lon="-1.68777">
        <ele>62.799999</ele>
        <time>2014-02-16T12:13:26Z</time>
      </trkpt>
      <trkpt lat="47.27235" lon="-1.68768">
        <ele>61</ele>
        <time>2014-02-16T12:13:28Z</time>
      </trkpt>
      <trkpt lat="47.27243" lon="-1.68758">
        <ele>60.2</ele>
        <time>2014-02-16T12:13:30Z</time>
      </trkpt>
      <trkpt lat="47.27251" lon="-1.68748">
        <ele>59.799999</ele>
        <time>2014-02-16T12:13:32Z</time>
      </trkpt>
      <trkpt lat="47.27258" lon="-1.68739">
        <ele>59.599998</ele>
        <time>2014-02-16T12:13:34Z</time>
      </trkpt>
      <trkpt lat="47.27266" lon="-1.68732">
        <ele>59.400001</ele>
        <time>2014-02-16T12:13:36Z</time>
      </trkpt>
      <trkpt lat="47.27277" lon="-1.68723">
        <ele>58.900001</ele>
        <time>2014-02-16T12:13:38Z</time>
      </trkpt>
      <trkpt lat="47.27286" lon="-1.68715">
        <ele>57.599998</ele>
        <time>2014-02-16T12:13:40Z</time>
      </trkpt>
      <trkpt lat="47.27295" lon="-1.68709">
        <ele>57</ele>
        <time>2014-02-16T12:13:42Z</time>
      </trkpt>
      <trkpt lat="47.27305" lon="-1.68705">
        <ele>57</ele>
        <time>2014-02-16T12:13:44Z</time>
      </trkpt>
      <trkpt lat="47.27314" lon="-1.68701">
        <ele>57</ele>
        <time>2014-02-16T12:13:46Z</time>
      </trkpt>
      <trkpt lat="47.27324" lon="-1.68693">
        <ele>56.099998</ele>
        <time>2014-02-16T12:13:48Z</time>
      </trkpt>
      <trkpt lat="47.27332" lon="-1.68683">
        <ele>54.799999</ele>
        <time>2014-02-16T12:13:50Z</time>
      </trkpt>
      <trkpt lat="47.27341" lon="-1.68672">
        <ele>53.599998</ele>
        <time>2014-02-16T12:13:52Z</time>
      </trkpt>
      <trkpt lat="47.27348" lon="-1.68662">
        <ele>53</ele>
        <time>2014-02-16T12:13:54Z</time>
      </trkpt>
      <trkpt lat="47.27358" lon="-1.68649">
        <ele>52.5</ele>
        <time>2014-02-16T12:13:57Z</time>
      </trkpt>
      <trkpt lat="47.27367" lon="-1.68637">
        <ele>52.099998</ele>
        <time>2014-02-16T12:14:00Z</time>
      </trkpt>
      <trkpt lat="47.27376" lon="-1.68627">
        <ele>50.5</ele>
        <time>2014-02-16T12:14:03Z</time>
      </trkpt>
      <trkpt lat="47.27385" lon="-1.68614">
        <ele>49.599998</ele>
        <time>2014-02-16T12:14:06Z</time>
      </trkpt>
      <trkpt lat="47.27393" lon="-1.68605">
        <ele>49.5</ele>
        <time>2014-02-16T12:14:09Z</time>
      </trkpt>
      <trkpt lat="47.27405" lon="-1.68585">
        <ele>48.799999</ele>
        <time>2014-02-16T12:14:20Z</time>
      </trkpt>
      <trkpt lat="47.2741" lon="-1.68574">
        <ele>47.799999</ele>
        <time>2014-02-16T12:14:29Z</time>
      </trkpt>
      <trkpt lat="47.27421" lon="-1.68572">
        <ele>46.799999</ele>
        <time>2014-02-16T12:14:34Z</time>
      </trkpt>
      <trkpt lat="47.27429" lon="-1.68561">
        <ele>44.900001</ele>
        <time>2014-02-16T12:14:43Z</time>
      </trkpt>
      <trkpt lat="47.27436" lon="-1.68549">
        <ele>44.099998</ele>
        <time>2014-02-16T12:14:48Z</time>
      </trkpt>
      <trkpt lat="47.27445" lon="-1.68546">
        <ele>43</ele>
        <time>2014-02-16T12:14:53Z</time>
      </trkpt>
      <trkpt lat="47.27454" lon="-1.68545">
        <ele>42.099998</ele>
        <time>2014-02-16T12:15:00Z</time>
      </trkpt>
      <trkpt lat="47.27447" lon="-1.68537">
        <ele>41.299999</ele>
        <time>2014-02-16T12:15:20Z</time>
      </trkpt>
      <trkpt lat="47.27446" lon="-1.68511">
        <ele>40.099998</ele>
        <time>2014-02-16T12:15:50Z</time>
      </trkpt>
      <trkpt lat="47.27455" lon="-1.68507">
        <ele>38.599998</ele>
        <time>2014-02-16T12:16:02Z</time>
      </trkpt>
      <trkpt lat="47.27462" lon="-1.68498">
        <ele>37.599998</ele>
        <time>2014-02-16T12:16:23Z</time>
      </trkpt>
      <trkpt lat="47.27472" lon="-1.68476">
        <ele>34.900001</ele>
        <time>2014-02-16T12:16:47Z</time>
      </trkpt>
      <trkpt lat="47.27474" lon="-1.68463">
        <ele>35.099998</ele>
        <time>2014-02-16T12:16:57Z</time>
      </trkpt>
      <trkpt lat="47.27474" lon="-1.68449">
        <ele>35.7</ele>
        <time>2014-02-16T12:17:14Z</time>
      </trkpt>
      <trkpt lat="47.27471" lon="-1.68436">
        <ele>36.400001</ele>
        <time>2014-02-16T12:17:23Z</time>
      </trkpt>
      <trkpt lat="47.2747" lon="-1.68422">
        <ele>37.299999</ele>
        <time>2014-02-16T12:17:31Z</time>
      </trkpt>
      <trkpt lat="47.27472" lon="-1.68397">
        <ele>44</ele>
        <time>2014-02-16T12:18:26Z</time>
      </trkpt>
      <trkpt lat="47.27478" lon="-1.68387">
        <ele>50.299999</ele>
        <time>2014-02-16T12:19:02Z</time>
      </trkpt>
      <trkpt lat="47.27492" lon="-1.68369">
        <ele>54.5</ele>
        <time>2014-02-16T12:19:27Z</time>
      </trkpt>
      <trkpt lat="47.27499" lon="-1.68361">
        <ele>55.2</ele>
        <time>2014-02-16T12:19:42Z</time>
      </trkpt>
      <trkpt lat="47.27506" lon="-1.6835">
        <ele>54.900001</ele>
        <time>2014-02-16T12:20:08Z</time>
      </trkpt>
      <trkpt lat="47.27508" lon="-1.68325">
        <ele>54.7</ele>
        <time>2014-02-16T12:20:21Z</time>
      </trkpt>
      <trkpt lat="47.27507" lon="-1.68312">
        <ele>54.900001</ele>
        <time>2014-02-16T12:20:26Z</time>
      </trkpt>
      <trkpt lat="47.27508" lon="-1.68298">
        <ele>55.299999</ele>
        <time>2014-02-16T12:20:32Z</time>
      </trkpt>
      <trkpt lat="47.27507" lon="-1.68284">
        <ele>55.400001</ele>
        <time>2014-02-16T12:20:38Z</time>
      </trkpt>
      <trkpt lat="47.27506" lon="-1.68271">
        <ele>55.2</ele>
        <time>2014-02-16T12:20:44Z</time>
      </trkpt>
      <trkpt lat="47.27506" lon="-1.68256">
        <ele>55.400001</ele>
        <time>2014-02-16T12:20:50Z</time>
      </trkpt>
      <trkpt lat="47.27507" lon="-1.68239">
        <ele>55.5</ele>
        <time>2014-02-16T12:20:55Z</time>
      </trkpt>
      <trkpt lat="47.27508" lon="-1.68226">
        <ele>55.299999</ele>
        <time>2014-02-16T12:20:59Z</time>
      </trkpt>
      <trkpt lat="47.27509" lon="-1.68211">
        <ele>55.400001</ele>
        <time>2014-02-16T12:21:03Z</time>
      </trkpt>
      <trkpt lat="47.2751" lon="-1.68196">
        <ele>55.400001</ele>
        <time>2014-02-16T12:21:07Z</time>
      </trkpt>
      <trkpt lat="47.27511" lon="-1.68182">
        <ele>55.5</ele>
        <time>2014-02-16T12:21:11Z</time>
      </trkpt>
      <trkpt lat="47.27517" lon="-1.68152">
        <ele>55.5</ele>
        <time>2014-02-16T12:21:18Z</time>
      </trkpt>
      <trkpt lat="47.2752" lon="-1.68136">
        <ele>55.400001</ele>
        <time>2014-02-16T12:21:21Z</time>
      </trkpt>
      <trkpt lat="47.27523" lon="-1.68124">
        <ele>55.299999</ele>
        <time>2014-02-16T12:21:24Z</time>
      </trkpt>
      <trkpt lat="47.27527" lon="-1.68109">
        <ele>55.400001</ele>
        <time>2014-02-16T12:21:27Z</time>
      </trkpt>
      <trkpt lat="47.2753" lon="-1.68095">
        <ele>55.400001</ele>
        <time>2014-02-16T12:21:30Z</time>
      </trkpt>
      <trkpt lat="47.27531" lon="-1.6808">
        <ele>55.5</ele>
        <time>2014-02-16T12:21:34Z</time>
      </trkpt>
      <trkpt lat="47.27532" lon="-1.68062">
        <ele>55.799999</ele>
        <time>2014-02-16T12:21:38Z</time>
      </trkpt>
      <trkpt lat="47.27537" lon="-1.6805">
        <ele>55.799999</ele>
        <time>2014-02-16T12:21:41Z</time>
      </trkpt>
      <trkpt lat="47.27548" lon="-1.68044">
        <ele>56.099998</ele>
        <time>2014-02-16T12:21:46Z</time>
      </trkpt>
      <trkpt lat="47.27554" lon="-1.68035">
        <ele>56.099998</ele>
        <time>2014-02-16T12:21:49Z</time>
      </trkpt>
      <trkpt lat="47.27559" lon="-1.68023">
        <ele>56.099998</ele>
        <time>2014-02-16T12:21:52Z</time>
      </trkpt>
      <trkpt lat="47.27567" lon="-1.68014">
        <ele>55.7</ele>
        <time>2014-02-16T12:21:57Z</time>
      </trkpt>
      <trkpt lat="47.27576" lon="-1.68015">
        <ele>55.599998</ele>
        <time>2014-02-16T12:22:01Z</time>
      </trkpt>
      <trkpt lat="47.27587" lon="-1.68018">
        <ele>55.5</ele>
        <time>2014-02-16T12:22:04Z</time>
      </trkpt>
      <trkpt lat="47.27598" lon="-1.68019">
        <ele>55.400001</ele>
        <time>2014-02-16T12:22:07Z</time>
      </trkpt>
      <trkpt lat="47.27611" lon="-1.68019">
        <ele>55.5</ele>
        <time>2014-02-16T12:22:10Z</time>
      </trkpt>
      <trkpt lat="47.27625" lon="-1.68017">
        <ele>56.099998</ele>
        <time>2014-02-16T12:22:13Z</time>
      </trkpt>
      <trkpt lat="47.27641" lon="-1.68003">
        <ele>57.2</ele>
        <time>2014-02-16T12:22:17Z</time>
      </trkpt>
      <trkpt lat="47.27649" lon="-1.67994">
        <ele>57</ele>
        <time>2014-02-16T12:22:19Z</time>
      </trkpt>
      <trkpt lat="47.27657" lon="-1.67981">
        <ele>57</ele>
        <time>2014-02-16T12:22:22Z</time>
      </trkpt>
      <trkpt lat="47.27666" lon="-1.67966">
        <ele>56.400001</ele>
        <time>2014-02-16T12:22:25Z</time>
      </trkpt>
      <trkpt lat="47.27672" lon="-1.67955">
        <ele>55.5</ele>
        <time>2014-02-16T12:22:27Z</time>
      </trkpt>
      <trkpt lat="47.2768" lon="-1.67944">
        <ele>54.799999</ele>
        <time>2014-02-16T12:22:29Z</time>
      </trkpt>
      <trkpt lat="47.27688" lon="-1.67931">
        <ele>54.299999</ele>
        <time>2014-02-16T12:22:31Z</time>
      </trkpt>
      <trkpt lat="47.27696" lon="-1.67921">
        <ele>54.400001</ele>
        <time>2014-02-16T12:22:33Z</time>
      </trkpt>
      <trkpt lat="47.27702" lon="-1.67911">
        <ele>54.599998</ele>
        <time>2014-02-16T12:22:35Z</time>
      </trkpt>
      <trkpt lat="47.27708" lon="-1.679">
        <ele>55.400001</ele>
        <time>2014-02-16T12:22:37Z</time>
      </trkpt>
      <trkpt lat="47.27716" lon="-1.67888">
        <ele>55.400001</ele>
        <time>2014-02-16T12:22:39Z</time>
      </trkpt>
      <trkpt lat="47.27724" lon="-1.67878">
        <ele>55.099998</ele>
        <time>2014-02-16T12:22:41Z</time>
      </trkpt>
      <trkpt lat="47.27732" lon="-1.67868">
        <ele>54.799999</ele>
        <time>2014-02-16T12:22:43Z</time>
      </trkpt>
      <trkpt lat="47.27742" lon="-1.67855">
        <ele>53.400001</ele>
        <time>2014-02-16T12:22:45Z</time>
      </trkpt>
      <trkpt lat="47.27751" lon="-1.67845">
        <ele>52.2</ele>
        <time>2014-02-16T12:22:47Z</time>
      </trkpt>
      <trkpt lat="47.27759" lon="-1.67835">
        <ele>52</ele>
        <time>2014-02-16T12:22:49Z</time>
      </trkpt>
      <trkpt lat="47.27768" lon="-1.67826">
        <ele>51.299999</ele>
        <time>2014-02-16T12:22:51Z</time>
      </trkpt>
      <trkpt lat="47.27775" lon="-1.67817">
        <ele>51.599998</ele>
        <time>2014-02-16T12:22:53Z</time>
      </trkpt>
      <trkpt lat="47.27784" lon="-1.67807">
        <ele>51.799999</ele>
        <time>2014-02-16T12:22:55Z</time>
      </trkpt>
      <trkpt lat="47.27791" lon="-1.67799">
        <ele>52.7</ele>
        <time>2014-02-16T12:22:57Z</time>
      </trkpt>
      <trkpt lat="47.27802" lon="-1.67791">
        <ele>52.900001</ele>
        <time>2014-02-16T12:23:00Z</time>
      </trkpt>
      <trkpt lat="47.2781" lon="-1.67785">
        <ele>52.900001</ele>
        <time>2014-02-16T12:23:02Z</time>
      </trkpt>
      <trkpt lat="47.27819" lon="-1.6778">
        <ele>53.099998</ele>
        <time>2014-02-16T12:23:05Z</time>
      </trkpt>
      <trkpt lat="47.2783" lon="-1.67776">
        <ele>53.2</ele>
        <time>2014-02-16T12:23:09Z</time>
      </trkpt>
      <trkpt lat="47.2784" lon="-1.67772">
        <ele>53.2</ele>
        <time>2014-02-16T12:23:13Z</time>
      </trkpt>
      <trkpt lat="47.27851" lon="-1.67771">
        <ele>53.400001</ele>
        <time>2014-02-16T12:23:16Z</time>
      </trkpt>
      <trkpt lat="47.27872" lon="-1.67775">
        <ele>53.900001</ele>
        <time>2014-02-16T12:23:21Z</time>
      </trkpt>
      <trkpt lat="47.27881" lon="-1.67773">
        <ele>55</ele>
        <time>2014-02-16T12:23:23Z</time>
      </trkpt>
      <trkpt lat="47.27891" lon="-1.67769">
        <ele>55.799999</ele>
        <time>2014-02-16T12:23:25Z</time>
      </trkpt>
      <trkpt lat="47.279" lon="-1.67766">
        <ele>56.099998</ele>
        <time>2014-02-16T12:23:27Z</time>
      </trkpt>
      <trkpt lat="47.2791" lon="-1.67761">
        <ele>55.900001</ele>
        <time>2014-02-16T12:23:30Z</time>
      </trkpt>
      <trkpt lat="47.27922" lon="-1.67756">
        <ele>56.099998</ele>
        <time>2014-02-16T12:23:32Z</time>
      </trkpt>
      <trkpt lat="47.27934" lon="-1.67752">
        <ele>55.900001</ele>
        <time>2014-02-16T12:23:34Z</time>
      </trkpt>
      <trkpt lat="47.27949" lon="-1.67748">
        <ele>55</ele>
        <time>2014-02-16T12:23:36Z</time>
      </trkpt>
      <trkpt lat="47.27966" lon="-1.67747">
        <ele>53.900001</ele>
        <time>2014-02-16T12:23:38Z</time>
      </trkpt>
      <trkpt lat="47.27981" lon="-1.67741">
        <ele>52.5</ele>
        <time>2014-02-16T12:23:40Z</time>
      </trkpt>
      <trkpt lat="47.27991" lon="-1.67728">
        <ele>51.299999</ele>
        <time>2014-02-16T12:23:42Z</time>
      </trkpt>
      <trkpt lat="47.27996" lon="-1.67708">
        <ele>51.2</ele>
        <time>2014-02-16T12:23:44Z</time>
      </trkpt>
      <trkpt lat="47.27999" lon="-1.67688">
        <ele>51.7</ele>
        <time>2014-02-16T12:23:46Z</time>
      </trkpt>
      <trkpt lat="47.28001" lon="-1.67666">
        <ele>53</ele>
        <time>2014-02-16T12:23:48Z</time>
      </trkpt>
      <trkpt lat="47.28002" lon="-1.67642">
        <ele>53.5</ele>
        <time>2014-02-16T12:23:50Z</time>
      </trkpt>
      <trkpt lat="47.28003" lon="-1.67618">
        <ele>53.7</ele>
        <time>2014-02-16T12:23:52Z</time>
      </trkpt>
      <trkpt lat="47.28003" lon="-1.67598">
        <ele>53.799999</ele>
        <time>2014-02-16T12:23:54Z</time>
      </trkpt>
      <trkpt lat="47.28004" lon="-1.6758">
        <ele>54</ele>
        <time>2014-02-16T12:23:56Z</time>
      </trkpt>
      <trkpt lat="47.28005" lon="-1.67564">
        <ele>54.7</ele>
        <time>2014-02-16T12:23:58Z</time>
      </trkpt>
      <trkpt lat="47.28007" lon="-1.67547">
        <ele>55.2</ele>
        <time>2014-02-16T12:24:00Z</time>
      </trkpt>
      <trkpt lat="47.28008" lon="-1.67534">
        <ele>55.5</ele>
        <time>2014-02-16T12:24:02Z</time>
      </trkpt>
      <trkpt lat="47.28009" lon="-1.67515">
        <ele>55.900001</ele>
        <time>2014-02-16T12:24:05Z</time>
      </trkpt>
      <trkpt lat="47.28011" lon="-1.67496">
        <ele>56.099998</ele>
        <time>2014-02-16T12:24:08Z</time>
      </trkpt>
      <trkpt lat="47.28009" lon="-1.67482">
        <ele>56.099998</ele>
        <time>2014-02-16T12:24:11Z</time>
      </trkpt>
      <trkpt lat="47.28005" lon="-1.67469">
        <ele>56.599998</ele>
        <time>2014-02-16T12:29:55Z</time>
      </trkpt>
      <trkpt lat="47.27985" lon="-1.67458">
        <ele>56.900001</ele>
        <time>2014-02-16T12:30:05Z</time>
      </trkpt>
      <trkpt lat="47.27974" lon="-1.67453">
        <ele>56.799999</ele>
        <time>2014-02-16T12:30:09Z</time>
      </trkpt>
      <trkpt lat="47.27962" lon="-1.67449">
        <ele>56.799999</ele>
        <time>2014-02-16T12:30:13Z</time>
      </trkpt>
      <trkpt lat="47.27951" lon="-1.67445">
        <ele>56.7</ele>
        <time>2014-02-16T12:30:17Z</time>
      </trkpt>
      <trkpt lat="47.27941" lon="-1.67443">
        <ele>56.7</ele>
        <time>2014-02-16T12:30:21Z</time>
      </trkpt>
      <trkpt lat="47.2793" lon="-1.67439">
        <ele>56.599998</ele>
        <time>2014-02-16T12:30:25Z</time>
      </trkpt>
      <trkpt lat="47.27921" lon="-1.67436">
        <ele>56.5</ele>
        <time>2014-02-16T12:30:29Z</time>
      </trkpt>
      <trkpt lat="47.27913" lon="-1.67432">
        <ele>56.400001</ele>
        <time>2014-02-16T12:30:34Z</time>
      </trkpt>
      <trkpt lat="47.27917" lon="-1.67418">
        <ele>56.400001</ele>
        <time>2014-02-16T12:30:39Z</time>
      </trkpt>
      <trkpt lat="47.27922" lon="-1.67403">
        <ele>56.2</ele>
        <time>2014-02-16T12:30:42Z</time>
      </trkpt>
      <trkpt lat="47.27927" lon="-1.67386">
        <ele>56</ele>
        <time>2014-02-16T12:30:45Z</time>
      </trkpt>
      <trkpt lat="47.27932" lon="-1.67371">
        <ele>55.7</ele>
        <time>2014-02-16T12:30:48Z</time>
      </trkpt>
      <trkpt lat="47.27937" lon="-1.67358">
        <ele>55.7</ele>
        <time>2014-02-16T12:30:51Z</time>
      </trkpt>
      <trkpt lat="47.27941" lon="-1.67345">
        <ele>55.599998</ele>
        <time>2014-02-16T12:30:54Z</time>
      </trkpt>
      <trkpt lat="47.27946" lon="-1.6733">
        <ele>55.599998</ele>
        <time>2014-02-16T12:30:57Z</time>
      </trkpt>
      <trkpt lat="47.27954" lon="-1.67299">
        <ele>55.7</ele>
        <time>2014-02-16T12:31:04Z</time>
      </trkpt>
      <trkpt lat="47.27957" lon="-1.67285">
        <ele>55.7</ele>
        <time>2014-02-16T12:31:07Z</time>
      </trkpt>
      <trkpt lat="47.27962" lon="-1.67269">
        <ele>55.599998</ele>
        <time>2014-02-16T12:31:10Z</time>
      </trkpt>
      <trkpt lat="47.27967" lon="-1.67255">
        <ele>55.5</ele>
        <time>2014-02-16T12:31:12Z</time>
      </trkpt>
      <trkpt lat="47.27971" lon="-1.67241">
        <ele>55.299999</ele>
        <time>2014-02-16T12:31:14Z</time>
      </trkpt>
      <trkpt lat="47.27976" lon="-1.67228">
        <ele>55.2</ele>
        <time>2014-02-16T12:31:16Z</time>
      </trkpt>
      <trkpt lat="47.27981" lon="-1.67211">
        <ele>54.599998</ele>
        <time>2014-02-16T12:31:19Z</time>
      </trkpt>
      <trkpt lat="47.27985" lon="-1.67198">
        <ele>54.299999</ele>
        <time>2014-02-16T12:31:21Z</time>
      </trkpt>
      <trkpt lat="47.2799" lon="-1.67186">
        <ele>54.299999</ele>
        <time>2014-02-16T12:31:23Z</time>
      </trkpt>
      <trkpt lat="47.27994" lon="-1.67171">
        <ele>54.299999</ele>
        <time>2014-02-16T12:31:26Z</time>
      </trkpt>
      <trkpt lat="47.27999" lon="-1.67154">
        <ele>54.299999</ele>
        <time>2014-02-16T12:31:29Z</time>
      </trkpt>
      <trkpt lat="47.28002" lon="-1.67135">
        <ele>54.5</ele>
        <time>2014-02-16T12:31:32Z</time>
      </trkpt>
      <trkpt lat="47.28006" lon="-1.67117">
        <ele>54.7</ele>
        <time>2014-02-16T12:31:35Z</time>
      </trkpt>
      <trkpt lat="47.28009" lon="-1.67105">
        <ele>54.900001</ele>
        <time>2014-02-16T12:31:37Z</time>
      </trkpt>
      <trkpt lat="47.28012" lon="-1.67087">
        <ele>55.099998</ele>
        <time>2014-02-16T12:31:40Z</time>
      </trkpt>
      <trkpt lat="47.28016" lon="-1.67074">
        <ele>54.900001</ele>
        <time>2014-02-16T12:31:42Z</time>
      </trkpt>
      <trkpt lat="47.28018" lon="-1.67054">
        <ele>53.799999</ele>
        <time>2014-02-16T12:31:45Z</time>
      </trkpt>
      <trkpt lat="47.2802" lon="-1.6704">
        <ele>54.599998</ele>
        <time>2014-02-16T12:31:47Z</time>
      </trkpt>
      <trkpt lat="47.28021" lon="-1.67027">
        <ele>54.5</ele>
        <time>2014-02-16T12:31:49Z</time>
      </trkpt>
      <trkpt lat="47.28022" lon="-1.67013">
        <ele>53.7</ele>
        <time>2014-02-16T12:31:51Z</time>
      </trkpt>
      <trkpt lat="47.28023" lon="-1.66998">
        <ele>52.400001</ele>
        <time>2014-02-16T12:31:53Z</time>
      </trkpt>
      <trkpt lat="47.28025" lon="-1.66984">
        <ele>51.5</ele>
        <time>2014-02-16T12:31:55Z</time>
      </trkpt>
      <trkpt lat="47.28031" lon="-1.66966">
        <ele>50.799999</ele>
        <time>2014-02-16T12:31:58Z</time>
      </trkpt>
      <trkpt lat="47.28041" lon="-1.6694">
        <ele>52.299999</ele>
        <time>2014-02-16T12:32:02Z</time>
      </trkpt>
      <trkpt lat="47.28045" lon="-1.66922">
        <ele>53.7</ele>
        <time>2014-02-16T12:32:05Z</time>
      </trkpt>
      <trkpt lat="47.28047" lon="-1.66909">
        <ele>54.400001</ele>
        <time>2014-02-16T12:32:07Z</time>
      </trkpt>
      <trkpt lat="47.2805" lon="-1.66892">
        <ele>54.7</ele>
        <time>2014-02-16T12:32:10Z</time>
      </trkpt>
      <trkpt lat="47.28054" lon="-1.66871">
        <ele>54.7</ele>
        <time>2014-02-16T12:32:13Z</time>
      </trkpt>
      <trkpt lat="47.28057" lon="-1.66858">
        <ele>54.599998</ele>
        <time>2014-02-16T12:32:15Z</time>
      </trkpt>
      <trkpt lat="47.2806" lon="-1.66845">
        <ele>54.599998</ele>
        <time>2014-02-16T12:32:17Z</time>
      </trkpt>
      <trkpt lat="47.28064" lon="-1.66827">
        <ele>53.900001</ele>
        <time>2014-02-16T12:32:19Z</time>
      </trkpt>
      <trkpt lat="47.28067" lon="-1.66811">
        <ele>52.900001</ele>
        <time>2014-02-16T12:32:21Z</time>
      </trkpt>
      <trkpt lat="47.28071" lon="-1.66795">
        <ele>52.799999</ele>
        <time>2014-02-16T12:32:23Z</time>
      </trkpt>
      <trkpt lat="47.28073" lon="-1.6678">
        <ele>54.299999</ele>
        <time>2014-02-16T12:32:25Z</time>
      </trkpt>
      <trkpt lat="47.28074" lon="-1.66766">
        <ele>56.599998</ele>
        <time>2014-02-16T12:32:27Z</time>
      </trkpt>
      <trkpt lat="47.28078" lon="-1.66747">
        <ele>57.299999</ele>
        <time>2014-02-16T12:32:30Z</time>
      </trkpt>
      <trkpt lat="47.28081" lon="-1.66728">
        <ele>57.599998</ele>
        <time>2014-02-16T12:32:33Z</time>
      </trkpt>
      <trkpt lat="47.28085" lon="-1.66707">
        <ele>57.900001</ele>
        <time>2014-02-16T12:32:36Z</time>
      </trkpt>
      <trkpt lat="47.28086" lon="-1.66693">
        <ele>58.2</ele>
        <time>2014-02-16T12:32:38Z</time>
      </trkpt>
      <trkpt lat="47.28088" lon="-1.66678">
        <ele>58.799999</ele>
        <time>2014-02-16T12:32:40Z</time>
      </trkpt>
      <trkpt lat="47.2809" lon="-1.66663">
        <ele>58.2</ele>
        <time>2014-02-16T12:32:42Z</time>
      </trkpt>
      <trkpt lat="47.28093" lon="-1.66649">
        <ele>57.599998</ele>
        <time>2014-02-16T12:32:44Z</time>
      </trkpt>
      <trkpt lat="47.28087" lon="-1.66632">
        <ele>57.400001</ele>
        <time>2014-02-16T12:32:47Z</time>
      </trkpt>
      <trkpt lat="47.28081" lon="-1.66622">
        <ele>57.5</ele>
        <time>2014-02-16T12:32:49Z</time>
      </trkpt>
      <trkpt lat="47.28073" lon="-1.66613">
        <ele>57.7</ele>
        <time>2014-02-16T12:32:51Z</time>
      </trkpt>
      <trkpt lat="47.28064" lon="-1.66603">
        <ele>58.299999</ele>
        <time>2014-02-16T12:32:55Z</time>
      </trkpt>
      <trkpt lat="47.28056" lon="-1.66594">
        <ele>58.799999</ele>
        <time>2014-02-16T12:32:58Z</time>
      </trkpt>
      <trkpt lat="47.28047" lon="-1.66584">
        <ele>59.2</ele>
        <time>2014-02-16T12:33:01Z</time>
      </trkpt>
      <trkpt lat="47.28031" lon="-1.66562">
        <ele>59.7</ele>
        <time>2014-02-16T12:33:07Z</time>
      </trkpt>
      <trkpt lat="47.28024" lon="-1.66549">
        <ele>60</ele>
        <time>2014-02-16T12:33:10Z</time>
      </trkpt>
      <trkpt lat="47.28016" lon="-1.66538">
        <ele>60.299999</ele>
        <time>2014-02-16T12:33:13Z</time>
      </trkpt>
      <trkpt lat="47.28007" lon="-1.66528">
        <ele>60.7</ele>
        <time>2014-02-16T12:33:16Z</time>
      </trkpt>
      <trkpt lat="47.27997" lon="-1.66519">
        <ele>61</ele>
        <time>2014-02-16T12:33:19Z</time>
      </trkpt>
      <trkpt lat="47.27989" lon="-1.66511">
        <ele>61.2</ele>
        <time>2014-02-16T12:33:22Z</time>
      </trkpt>
      <trkpt lat="47.27988" lon="-1.66495">
        <ele>61.299999</ele>
        <time>2014-02-16T12:33:27Z</time>
      </trkpt>
      <trkpt lat="47.27997" lon="-1.66488">
        <ele>61</ele>
        <time>2014-02-16T12:33:30Z</time>
      </trkpt>
      <trkpt lat="47.28009" lon="-1.66482">
        <ele>60.5</ele>
        <time>2014-02-16T12:33:34Z</time>
      </trkpt>
      <trkpt lat="47.28017" lon="-1.66478">
        <ele>60.299999</ele>
        <time>2014-02-16T12:33:36Z</time>
      </trkpt>
      <trkpt lat="47.28029" lon="-1.66474">
        <ele>60</ele>
        <time>2014-02-16T12:33:39Z</time>
      </trkpt>
      <trkpt lat="47.28041" lon="-1.66468">
        <ele>59.900001</ele>
        <time>2014-02-16T12:33:42Z</time>
      </trkpt>
      <trkpt lat="47.28052" lon="-1.66462">
        <ele>59.299999</ele>
        <time>2014-02-16T12:33:45Z</time>
      </trkpt>
      <trkpt lat="47.28061" lon="-1.66457">
        <ele>58.599998</ele>
        <time>2014-02-16T12:33:47Z</time>
      </trkpt>
      <trkpt lat="47.28072" lon="-1.66451">
        <ele>59</ele>
        <time>2014-02-16T12:33:49Z</time>
      </trkpt>
      <trkpt lat="47.28082" lon="-1.66446">
        <ele>59.400001</ele>
        <time>2014-02-16T12:33:51Z</time>
      </trkpt>
      <trkpt lat="47.28092" lon="-1.6644">
        <ele>60.099998</ele>
        <time>2014-02-16T12:33:53Z</time>
      </trkpt>
      <trkpt lat="47.28104" lon="-1.66431">
        <ele>60.5</ele>
        <time>2014-02-16T12:33:56Z</time>
      </trkpt>
      <trkpt lat="47.28113" lon="-1.66424">
        <ele>60.400001</ele>
        <time>2014-02-16T12:33:59Z</time>
      </trkpt>
      <trkpt lat="47.28123" lon="-1.66416">
        <ele>60.299999</ele>
        <time>2014-02-16T12:34:02Z</time>
      </trkpt>
      <trkpt lat="47.28141" lon="-1.664">
        <ele>60.099998</ele>
        <time>2014-02-16T12:34:08Z</time>
      </trkpt>
      <trkpt lat="47.28149" lon="-1.66394">
        <ele>60.5</ele>
        <time>2014-02-16T12:34:10Z</time>
      </trkpt>
      <trkpt lat="47.28158" lon="-1.66386">
        <ele>60.900001</ele>
        <time>2014-02-16T12:34:12Z</time>
      </trkpt>
      <trkpt lat="47.2817" lon="-1.66377">
        <ele>59.900001</ele>
        <time>2014-02-16T12:34:15Z</time>
      </trkpt>
      <trkpt lat="47.28178" lon="-1.66364">
        <ele>58.400001</ele>
        <time>2014-02-16T12:34:18Z</time>
      </trkpt>
      <trkpt lat="47.28177" lon="-1.66344">
        <ele>57.900001</ele>
        <time>2014-02-16T12:34:21Z</time>
      </trkpt>
      <trkpt lat="47.28174" lon="-1.66329">
        <ele>57.900001</ele>
        <time>2014-02-16T12:34:23Z</time>
      </trkpt>
      <trkpt lat="47.2817" lon="-1.6631">
        <ele>58.299999</ele>
        <time>2014-02-16T12:34:25Z</time>
      </trkpt>
      <trkpt lat="47.28166" lon="-1.66291">
        <ele>59.799999</ele>
        <time>2014-02-16T12:34:27Z</time>
      </trkpt>
      <trkpt lat="47.28162" lon="-1.66271">
        <ele>61.299999</ele>
        <time>2014-02-16T12:34:29Z</time>
      </trkpt>
      <trkpt lat="47.28157" lon="-1.6625">
        <ele>61.799999</ele>
        <time>2014-02-16T12:34:31Z</time>
      </trkpt>
      <trkpt lat="47.28153" lon="-1.66229">
        <ele>61.599998</ele>
        <time>2014-02-16T12:34:33Z</time>
      </trkpt>
      <trkpt lat="47.28148" lon="-1.66211">
        <ele>61.400001</ele>
        <time>2014-02-16T12:34:35Z</time>
      </trkpt>
      <trkpt lat="47.28144" lon="-1.66192">
        <ele>61.7</ele>
        <time>2014-02-16T12:34:37Z</time>
      </trkpt>
      <trkpt lat="47.28139" lon="-1.66175">
        <ele>62.400001</ele>
        <time>2014-02-16T12:34:39Z</time>
      </trkpt>
      <trkpt lat="47.28135" lon="-1.66158">
        <ele>62.799999</ele>
        <time>2014-02-16T12:34:41Z</time>
      </trkpt>
      <trkpt lat="47.28132" lon="-1.6614">
        <ele>63.599998</ele>
        <time>2014-02-16T12:34:43Z</time>
      </trkpt>
      <trkpt lat="47.28129" lon="-1.66123">
        <ele>63.599998</ele>
        <time>2014-02-16T12:34:45Z</time>
      </trkpt>
      <trkpt lat="47.28126" lon="-1.66109">
        <ele>62.799999</ele>
        <time>2014-02-16T12:34:47Z</time>
      </trkpt>
      <trkpt lat="47.28123" lon="-1.66094">
        <ele>62.5</ele>
        <time>2014-02-16T12:34:51Z</time>
      </trkpt>
      <trkpt lat="47.28113" lon="-1.66091">
        <ele>62.5</ele>
        <time>2014-02-16T12:35:13Z</time>
      </trkpt>
      <trkpt lat="47.2809" lon="-1.66088">
        <ele>61.599998</ele>
        <time>2014-02-16T12:35:22Z</time>
      </trkpt>
      <trkpt lat="47.28081" lon="-1.66089">
        <ele>61.099998</ele>
        <time>2014-02-16T12:35:24Z</time>
      </trkpt>
      <trkpt lat="47.28072" lon="-1.6609">
        <ele>60.5</ele>
        <time>2014-02-16T12:35:26Z</time>
      </trkpt>
      <trkpt lat="47.28058" lon="-1.66091">
        <ele>60.799999</ele>
        <time>2014-02-16T12:35:29Z</time>
      </trkpt>
      <trkpt lat="47.28046" lon="-1.66092">
        <ele>60.900001</ele>
        <time>2014-02-16T12:35:32Z</time>
      </trkpt>
      <trkpt lat="47.28033" lon="-1.66091">
        <ele>60.7</ele>
        <time>2014-02-16T12:35:35Z</time>
      </trkpt>
      <trkpt lat="47.2802" lon="-1.66091">
        <ele>60.7</ele>
        <time>2014-02-16T12:35:38Z</time>
      </trkpt>
      <trkpt lat="47.28006" lon="-1.66091">
        <ele>61.099998</ele>
        <time>2014-02-16T12:35:41Z</time>
      </trkpt>
      <trkpt lat="47.27993" lon="-1.66091">
        <ele>62.299999</ele>
        <time>2014-02-16T12:35:44Z</time>
      </trkpt>
      <trkpt lat="47.2798" lon="-1.66091">
        <ele>63.400001</ele>
        <time>2014-02-16T12:35:47Z</time>
      </trkpt>
      <trkpt lat="47.27967" lon="-1.66092">
        <ele>64.5</ele>
        <time>2014-02-16T12:35:50Z</time>
      </trkpt>
      <trkpt lat="47.27955" lon="-1.66091">
        <ele>64.599998</ele>
        <time>2014-02-16T12:35:53Z</time>
      </trkpt>
      <trkpt lat="47.27945" lon="-1.66084">
        <ele>64.400001</ele>
        <time>2014-02-16T12:35:56Z</time>
      </trkpt>
      <trkpt lat="47.27938" lon="-1.66071">
        <ele>64.199996</ele>
        <time>2014-02-16T12:35:59Z</time>
      </trkpt>
      <trkpt lat="47.27934" lon="-1.66056">
        <ele>64</ele>
        <time>2014-02-16T12:36:02Z</time>
      </trkpt>
      <trkpt lat="47.2793" lon="-1.66036">
        <ele>63.799999</ele>
        <time>2014-02-16T12:36:05Z</time>
      </trkpt>
      <trkpt lat="47.27925" lon="-1.66019">
        <ele>64.400001</ele>
        <time>2014-02-16T12:36:07Z</time>
      </trkpt>
      <trkpt lat="47.27922" lon="-1.66004">
        <ele>64.699996</ele>
        <time>2014-02-16T12:36:10Z</time>
      </trkpt>
      <trkpt lat="47.27924" lon="-1.65987">
        <ele>64.800003</ele>
        <time>2014-02-16T12:36:13Z</time>
      </trkpt>
      <trkpt lat="47.27925" lon="-1.65969">
        <ele>64.599998</ele>
        <time>2014-02-16T12:36:16Z</time>
      </trkpt>
      <trkpt lat="47.27924" lon="-1.65934">
        <ele>63.900001</ele>
        <time>2014-02-16T12:36:22Z</time>
      </trkpt>
      <trkpt lat="47.27922" lon="-1.65918">
        <ele>63.7</ele>
        <time>2014-02-16T12:36:25Z</time>
      </trkpt>
      <trkpt lat="47.2792" lon="-1.65904">
        <ele>63.400001</ele>
        <time>2014-02-16T12:36:28Z</time>
      </trkpt>
      <trkpt lat="47.27916" lon="-1.65884">
        <ele>62.099998</ele>
        <time>2014-02-16T12:36:31Z</time>
      </trkpt>
      <trkpt lat="47.27914" lon="-1.6587">
        <ele>62.2</ele>
        <time>2014-02-16T12:36:33Z</time>
      </trkpt>
      <trkpt lat="47.27913" lon="-1.65856">
        <ele>62.5</ele>
        <time>2014-02-16T12:36:35Z</time>
      </trkpt>
      <trkpt lat="47.27913" lon="-1.65839">
        <ele>62.599998</ele>
        <time>2014-02-16T12:36:38Z</time>
      </trkpt>
      <trkpt lat="47.27913" lon="-1.65822">
        <ele>62.599998</ele>
        <time>2014-02-16T12:36:41Z</time>
      </trkpt>
      <trkpt lat="47.27914" lon="-1.65808">
        <ele>62.599998</ele>
        <time>2014-02-16T12:36:43Z</time>
      </trkpt>
      <trkpt lat="47.27916" lon="-1.6579">
        <ele>61.900001</ele>
        <time>2014-02-16T12:36:46Z</time>
      </trkpt>
      <trkpt lat="47.27916" lon="-1.6577">
        <ele>61.2</ele>
        <time>2014-02-16T12:36:49Z</time>
      </trkpt>
      <trkpt lat="47.27916" lon="-1.65754">
        <ele>60.099998</ele>
        <time>2014-02-16T12:36:51Z</time>
      </trkpt>
      <trkpt lat="47.27916" lon="-1.6574">
        <ele>59.099998</ele>
        <time>2014-02-16T12:36:53Z</time>
      </trkpt>
      <trkpt lat="47.27916" lon="-1.65724">
        <ele>59.099998</ele>
        <time>2014-02-16T12:36:55Z</time>
      </trkpt>
      <trkpt lat="47.27916" lon="-1.6571">
        <ele>58.900001</ele>
        <time>2014-02-16T12:36:57Z</time>
      </trkpt>
      <trkpt lat="47.27916" lon="-1.65695">
        <ele>58.900001</ele>
        <time>2014-02-16T12:36:59Z</time>
      </trkpt>
      <trkpt lat="47.27917" lon="-1.65679">
        <ele>58.5</ele>
        <time>2014-02-16T12:37:01Z</time>
      </trkpt>
      <trkpt lat="47.27919" lon="-1.65663">
        <ele>58.099998</ele>
        <time>2014-02-16T12:37:04Z</time>
      </trkpt>
      <trkpt lat="47.27919" lon="-1.65645">
        <ele>58</ele>
        <time>2014-02-16T12:37:07Z</time>
      </trkpt>
      <trkpt lat="47.27918" lon="-1.6563">
        <ele>58.099998</ele>
        <time>2014-02-16T12:37:10Z</time>
      </trkpt>
      <trkpt lat="47.27916" lon="-1.65617">
        <ele>58.400001</ele>
        <time>2014-02-16T12:37:12Z</time>
      </trkpt>
      <trkpt lat="47.27914" lon="-1.65603">
        <ele>58.400001</ele>
        <time>2014-02-16T12:37:14Z</time>
      </trkpt>
      <trkpt lat="47.27911" lon="-1.65586">
        <ele>58.2</ele>
        <time>2014-02-16T12:37:17Z</time>
      </trkpt>
      <trkpt lat="47.27906" lon="-1.65551">
        <ele>57.799999</ele>
        <time>2014-02-16T12:37:24Z</time>
      </trkpt>
      <trkpt lat="47.27902" lon="-1.65531">
        <ele>57.599998</ele>
        <time>2014-02-16T12:37:27Z</time>
      </trkpt>
      <trkpt lat="47.27899" lon="-1.65514">
        <ele>57.400001</ele>
        <time>2014-02-16T12:37:30Z</time>
      </trkpt>
      <trkpt lat="47.27895" lon="-1.65501">
        <ele>57.5</ele>
        <time>2014-02-16T12:37:33Z</time>
      </trkpt>
      <trkpt lat="47.27888" lon="-1.65487">
        <ele>57.799999</ele>
        <time>2014-02-16T12:37:37Z</time>
      </trkpt>
      <trkpt lat="47.2788" lon="-1.65475">
        <ele>57.900001</ele>
        <time>2014-02-16T12:37:40Z</time>
      </trkpt>
      <trkpt lat="47.27871" lon="-1.65466">
        <ele>58.099998</ele>
        <time>2014-02-16T12:37:44Z</time>
      </trkpt>
      <trkpt lat="47.27861" lon="-1.65461">
        <ele>58.2</ele>
        <time>2014-02-16T12:37:47Z</time>
      </trkpt>
      <trkpt lat="47.27851" lon="-1.65459">
        <ele>58.2</ele>
        <time>2014-02-16T12:37:51Z</time>
      </trkpt>
      <trkpt lat="47.27841" lon="-1.6546">
        <ele>58.099998</ele>
        <time>2014-02-16T12:37:55Z</time>
      </trkpt>
      <trkpt lat="47.27831" lon="-1.65461">
        <ele>58</ele>
        <time>2014-02-16T12:38:00Z</time>
      </trkpt>
      <trkpt lat="47.2782" lon="-1.65461">
        <ele>57.900001</ele>
        <time>2014-02-16T12:38:05Z</time>
      </trkpt>
      <trkpt lat="47.27809" lon="-1.65458">
        <ele>58.099998</ele>
        <time>2014-02-16T12:38:09Z</time>
      </trkpt>
      <trkpt lat="47.27798" lon="-1.65456">
        <ele>58.400001</ele>
        <time>2014-02-16T12:38:13Z</time>
      </trkpt>
      <trkpt lat="47.27789" lon="-1.65454">
        <ele>58.599998</ele>
        <time>2014-02-16T12:38:17Z</time>
      </trkpt>
      <trkpt lat="47.27778" lon="-1.65452">
        <ele>58.7</ele>
        <time>2014-02-16T12:38:22Z</time>
      </trkpt>
      <trkpt lat="47.27757" lon="-1.65445">
        <ele>58.900001</ele>
        <time>2014-02-16T12:38:34Z</time>
      </trkpt>
      <trkpt lat="47.27748" lon="-1.65444">
        <ele>59.299999</ele>
        <time>2014-02-16T12:39:15Z</time>
      </trkpt>
      <trkpt lat="47.27737" lon="-1.65446">
        <ele>59.5</ele>
        <time>2014-02-16T12:39:20Z</time>
      </trkpt>
      <trkpt lat="47.27727" lon="-1.65446">
        <ele>59.799999</ele>
        <time>2014-02-16T12:39:25Z</time>
      </trkpt>
      <trkpt lat="47.2771" lon="-1.65431">
        <ele>60</ele>
        <time>2014-02-16T12:39:36Z</time>
      </trkpt>
      <trkpt lat="47.27705" lon="-1.65417">
        <ele>59.5</ele>
        <time>2014-02-16T12:39:43Z</time>
      </trkpt>
      <trkpt lat="47.27702" lon="-1.65402">
        <ele>59.400001</ele>
        <time>2014-02-16T12:39:47Z</time>
      </trkpt>
      <trkpt lat="47.27698" lon="-1.65388">
        <ele>59.400001</ele>
        <time>2014-02-16T12:39:50Z</time>
      </trkpt>
      <trkpt lat="47.27694" lon="-1.65375">
        <ele>59.2</ele>
        <time>2014-02-16T12:39:54Z</time>
      </trkpt>
      <trkpt lat="47.2769" lon="-1.6536">
        <ele>59</ele>
        <time>2014-02-16T12:39:59Z</time>
      </trkpt>
      <trkpt lat="47.27683" lon="-1.6535">
        <ele>58.599998</ele>
        <time>2014-02-16T12:40:05Z</time>
      </trkpt>
      <trkpt lat="47.27672" lon="-1.65346">
        <ele>57.599998</ele>
        <time>2014-02-16T12:40:15Z</time>
      </trkpt>
      <trkpt lat="47.27664" lon="-1.65343">
        <ele>57.400001</ele>
        <time>2014-02-16T12:40:20Z</time>
      </trkpt>
      <trkpt lat="47.27653" lon="-1.65337">
        <ele>56.799999</ele>
        <time>2014-02-16T12:40:25Z</time>
      </trkpt>
      <trkpt lat="47.27645" lon="-1.6533">
        <ele>56.5</ele>
        <time>2014-02-16T12:40:28Z</time>
      </trkpt>
      <trkpt lat="47.27638" lon="-1.65303">
        <ele>55.799999</ele>
        <time>2014-02-16T12:40:39Z</time>
      </trkpt>
      <trkpt lat="47.27636" lon="-1.65288">
        <ele>55.799999</ele>
        <time>2014-02-16T12:40:45Z</time>
      </trkpt>
      <trkpt lat="47.27636" lon="-1.65274">
        <ele>55.5</ele>
        <time>2014-02-16T12:40:54Z</time>
      </trkpt>
      <trkpt lat="47.27632" lon="-1.65262">
        <ele>55.7</ele>
        <time>2014-02-16T12:41:00Z</time>
      </trkpt>
      <trkpt lat="47.27624" lon="-1.65253">
        <ele>56.299999</ele>
        <time>2014-02-16T12:41:04Z</time>
      </trkpt>
      <trkpt lat="47.27616" lon="-1.65242">
        <ele>56.799999</ele>
        <time>2014-02-16T12:41:07Z</time>
      </trkpt>
      <trkpt lat="47.27609" lon="-1.65234">
        <ele>57.299999</ele>
        <time>2014-02-16T12:41:11Z</time>
      </trkpt>
      <trkpt lat="47.27601" lon="-1.65221">
        <ele>57.799999</ele>
        <time>2014-02-16T12:41:15Z</time>
      </trkpt>
      <trkpt lat="47.27596" lon="-1.65209">
        <ele>58.299999</ele>
        <time>2014-02-16T12:41:18Z</time>
      </trkpt>
      <trkpt lat="47.27591" lon="-1.65198">
        <ele>59</ele>
        <time>2014-02-16T12:41:21Z</time>
      </trkpt>
      <trkpt lat="47.27584" lon="-1.65185">
        <ele>59.400001</ele>
        <time>2014-02-16T12:41:24Z</time>
      </trkpt>
      <trkpt lat="47.27579" lon="-1.65172">
        <ele>59.7</ele>
        <time>2014-02-16T12:41:27Z</time>
      </trkpt>
      <trkpt lat="47.27574" lon="-1.65154">
        <ele>59.7</ele>
        <time>2014-02-16T12:41:30Z</time>
      </trkpt>
      <trkpt lat="47.27563" lon="-1.65127">
        <ele>59.400001</ele>
        <time>2014-02-16T12:41:35Z</time>
      </trkpt>
      <trkpt lat="47.27555" lon="-1.65114">
        <ele>59.2</ele>
        <time>2014-02-16T12:41:38Z</time>
      </trkpt>
      <trkpt lat="47.27552" lon="-1.65095">
        <ele>58.900001</ele>
        <time>2014-02-16T12:41:41Z</time>
      </trkpt>
      <trkpt lat="47.2755" lon="-1.65079">
        <ele>58.7</ele>
        <time>2014-02-16T12:41:44Z</time>
      </trkpt>
      <trkpt lat="47.27547" lon="-1.65062">
        <ele>58.5</ele>
        <time>2014-02-16T12:41:47Z</time>
      </trkpt>
      <trkpt lat="47.27543" lon="-1.65045">
        <ele>58.2</ele>
        <time>2014-02-16T12:41:50Z</time>
      </trkpt>
      <trkpt lat="47.27539" lon="-1.65027">
        <ele>58.299999</ele>
        <time>2014-02-16T12:41:53Z</time>
      </trkpt>
      <trkpt lat="47.27535" lon="-1.6501">
        <ele>59.599998</ele>
        <time>2014-02-16T12:41:56Z</time>
      </trkpt>
      <trkpt lat="47.27531" lon="-1.64994">
        <ele>60.099998</ele>
        <time>2014-02-16T12:41:59Z</time>
      </trkpt>
      <trkpt lat="47.27528" lon="-1.64976">
        <ele>60.2</ele>
        <time>2014-02-16T12:42:02Z</time>
      </trkpt>
      <trkpt lat="47.27528" lon="-1.64958">
        <ele>60.400001</ele>
        <time>2014-02-16T12:42:05Z</time>
      </trkpt>
      <trkpt lat="47.27528" lon="-1.6494">
        <ele>61.400001</ele>
        <time>2014-02-16T12:42:08Z</time>
      </trkpt>
      <trkpt lat="47.27529" lon="-1.64925">
        <ele>62</ele>
        <time>2014-02-16T12:42:10Z</time>
      </trkpt>
      <trkpt lat="47.27529" lon="-1.64911">
        <ele>62.2</ele>
        <time>2014-02-16T12:42:12Z</time>
      </trkpt>
      <trkpt lat="47.27528" lon="-1.64898">
        <ele>61.599998</ele>
        <time>2014-02-16T12:42:14Z</time>
      </trkpt>
      <trkpt lat="47.27526" lon="-1.64877">
        <ele>61.099998</ele>
        <time>2014-02-16T12:42:17Z</time>
      </trkpt>
      <trkpt lat="47.27524" lon="-1.64861">
        <ele>60.799999</ele>
        <time>2014-02-16T12:42:19Z</time>
      </trkpt>
      <trkpt lat="47.27522" lon="-1.64844">
        <ele>60.5</ele>
        <time>2014-02-16T12:42:21Z</time>
      </trkpt>
      <trkpt lat="47.27521" lon="-1.64829">
        <ele>60.299999</ele>
        <time>2014-02-16T12:42:23Z</time>
      </trkpt>
      <trkpt lat="47.27522" lon="-1.64815">
        <ele>60.099998</ele>
        <time>2014-02-16T12:42:25Z</time>
      </trkpt>
      <trkpt lat="47.27524" lon="-1.64802">
        <ele>60</ele>
        <time>2014-02-16T12:42:27Z</time>
      </trkpt>
      <trkpt lat="47.27528" lon="-1.64788">
        <ele>59.599998</ele>
        <time>2014-02-16T12:42:29Z</time>
      </trkpt>
      <trkpt lat="47.27533" lon="-1.64771">
        <ele>59.7</ele>
        <time>2014-02-16T12:42:32Z</time>
      </trkpt>
      <trkpt lat="47.27541" lon="-1.64738">
        <ele>58.799999</ele>
        <time>2014-02-16T12:42:37Z</time>
      </trkpt>
      <trkpt lat="47.27543" lon="-1.64722">
        <ele>58.400001</ele>
        <time>2014-02-16T12:42:39Z</time>
      </trkpt>
      <trkpt lat="47.27545" lon="-1.64705">
        <ele>57.599998</ele>
        <time>2014-02-16T12:42:41Z</time>
      </trkpt>
      <trkpt lat="47.27546" lon="-1.64687">
        <ele>56.799999</ele>
        <time>2014-02-16T12:42:43Z</time>
      </trkpt>
      <trkpt lat="47.27547" lon="-1.64667">
        <ele>56</ele>
        <time>2014-02-16T12:42:45Z</time>
      </trkpt>
      <trkpt lat="47.27549" lon="-1.64645">
        <ele>54.5</ele>
        <time>2014-02-16T12:42:47Z</time>
      </trkpt>
      <trkpt lat="47.27553" lon="-1.64623">
        <ele>52.900001</ele>
        <time>2014-02-16T12:42:49Z</time>
      </trkpt>
      <trkpt lat="47.27556" lon="-1.646">
        <ele>51.400001</ele>
        <time>2014-02-16T12:42:51Z</time>
      </trkpt>
      <trkpt lat="47.2756" lon="-1.64578">
        <ele>50.599998</ele>
        <time>2014-02-16T12:42:53Z</time>
      </trkpt>
      <trkpt lat="47.27563" lon="-1.64555">
        <ele>49.799999</ele>
        <time>2014-02-16T12:42:55Z</time>
      </trkpt>
      <trkpt lat="47.27565" lon="-1.64534">
        <ele>49.799999</ele>
        <time>2014-02-16T12:42:57Z</time>
      </trkpt>
      <trkpt lat="47.27565" lon="-1.64515">
        <ele>49.7</ele>
        <time>2014-02-16T12:42:59Z</time>
      </trkpt>
      <trkpt lat="47.27563" lon="-1.64499">
        <ele>50.799999</ele>
        <time>2014-02-16T12:43:01Z</time>
      </trkpt>
      <trkpt lat="47.27561" lon="-1.64483">
        <ele>52.299999</ele>
        <time>2014-02-16T12:43:04Z</time>
      </trkpt>
      <trkpt lat="47.27558" lon="-1.64468">
        <ele>52.5</ele>
        <time>2014-02-16T12:43:08Z</time>
      </trkpt>
      <trkpt lat="47.27557" lon="-1.64453">
        <ele>52.900001</ele>
        <time>2014-02-16T12:43:12Z</time>
      </trkpt>
      <trkpt lat="47.27546" lon="-1.64454">
        <ele>53.099998</ele>
        <time>2014-02-16T12:43:19Z</time>
      </trkpt>
      <trkpt lat="47.27532" lon="-1.64462">
        <ele>53.299999</ele>
        <time>2014-02-16T12:43:22Z</time>
      </trkpt>
      <trkpt lat="47.27522" lon="-1.64468">
        <ele>53.400001</ele>
        <time>2014-02-16T12:43:24Z</time>
      </trkpt>
      <trkpt lat="47.27512" lon="-1.64473">
        <ele>53.2</ele>
        <time>2014-02-16T12:43:26Z</time>
      </trkpt>
      <trkpt lat="47.27501" lon="-1.6448">
        <ele>53.099998</ele>
        <time>2014-02-16T12:43:29Z</time>
      </trkpt>
      <trkpt lat="47.27492" lon="-1.64486">
        <ele>53</ele>
        <time>2014-02-16T12:43:32Z</time>
      </trkpt>
      <trkpt lat="47.27482" lon="-1.6449">
        <ele>52.799999</ele>
        <time>2014-02-16T12:43:36Z</time>
      </trkpt>
      <trkpt lat="47.27462" lon="-1.64495">
        <ele>52.299999</ele>
        <time>2014-02-16T12:43:42Z</time>
      </trkpt>
      <trkpt lat="47.27451" lon="-1.64497">
        <ele>52.299999</ele>
        <time>2014-02-16T12:43:45Z</time>
      </trkpt>
      <trkpt lat="47.27441" lon="-1.64498">
        <ele>52.299999</ele>
        <time>2014-02-16T12:43:48Z</time>
      </trkpt>
      <trkpt lat="47.27429" lon="-1.64498">
        <ele>52.299999</ele>
        <time>2014-02-16T12:43:51Z</time>
      </trkpt>
      <trkpt lat="47.27419" lon="-1.64496">
        <ele>52.2</ele>
        <time>2014-02-16T12:43:54Z</time>
      </trkpt>
      <trkpt lat="47.2741" lon="-1.64497">
        <ele>52.099998</ele>
        <time>2014-02-16T12:43:57Z</time>
      </trkpt>
      <trkpt lat="47.274" lon="-1.645">
        <ele>51.799999</ele>
        <time>2014-02-16T12:44:00Z</time>
      </trkpt>
      <trkpt lat="47.2739" lon="-1.64504">
        <ele>51.599998</ele>
        <time>2014-02-16T12:44:04Z</time>
      </trkpt>
      <trkpt lat="47.2738" lon="-1.6451">
        <ele>51.400001</ele>
        <time>2014-02-16T12:44:07Z</time>
      </trkpt>
      <trkpt lat="47.27369" lon="-1.64518">
        <ele>51.299999</ele>
        <time>2014-02-16T12:44:10Z</time>
      </trkpt>
      <trkpt lat="47.27359" lon="-1.64526">
        <ele>51</ele>
        <time>2014-02-16T12:44:13Z</time>
      </trkpt>
      <trkpt lat="47.27348" lon="-1.64531">
        <ele>50.5</ele>
        <time>2014-02-16T12:44:16Z</time>
      </trkpt>
      <trkpt lat="47.27338" lon="-1.64535">
        <ele>50.400001</ele>
        <time>2014-02-16T12:44:19Z</time>
      </trkpt>
      <trkpt lat="47.27327" lon="-1.64538">
        <ele>50.299999</ele>
        <time>2014-02-16T12:44:22Z</time>
      </trkpt>
      <trkpt lat="47.27317" lon="-1.6454">
        <ele>50.2</ele>
        <time>2014-02-16T12:44:25Z</time>
      </trkpt>
      <trkpt lat="47.27307" lon="-1.6454">
        <ele>50</ele>
        <time>2014-02-16T12:44:28Z</time>
      </trkpt>
      <trkpt lat="47.27296" lon="-1.6454">
        <ele>49.7</ele>
        <time>2014-02-16T12:44:33Z</time>
      </trkpt>
      <trkpt lat="47.27286" lon="-1.6454">
        <ele>49.299999</ele>
        <time>2014-02-16T12:44:38Z</time>
      </trkpt>
      <trkpt lat="47.27266" lon="-1.64537">
        <ele>48.400001</ele>
        <time>2014-02-16T12:44:48Z</time>
      </trkpt>
      <trkpt lat="47.27256" lon="-1.64535">
        <ele>48.099998</ele>
        <time>2014-02-16T12:44:52Z</time>
      </trkpt>
      <trkpt lat="47.27246" lon="-1.64535">
        <ele>47.799999</ele>
        <time>2014-02-16T12:44:56Z</time>
      </trkpt>
      <trkpt lat="47.27236" lon="-1.64535">
        <ele>47.5</ele>
        <time>2014-02-16T12:45:00Z</time>
      </trkpt>
      <trkpt lat="47.27225" lon="-1.64536">
        <ele>47.5</ele>
        <time>2014-02-16T12:45:04Z</time>
      </trkpt>
      <trkpt lat="47.27216" lon="-1.64537">
        <ele>47.400001</ele>
        <time>2014-02-16T12:45:07Z</time>
      </trkpt>
      <trkpt lat="47.27204" lon="-1.64538">
        <ele>47.299999</ele>
        <time>2014-02-16T12:45:11Z</time>
      </trkpt>
      <trkpt lat="47.27192" lon="-1.64539">
        <ele>47.299999</ele>
        <time>2014-02-16T12:45:15Z</time>
      </trkpt>
      <trkpt lat="47.2718" lon="-1.64539">
        <ele>47.2</ele>
        <time>2014-02-16T12:45:19Z</time>
      </trkpt>
      <trkpt lat="47.2717" lon="-1.6454">
        <ele>47</ele>
        <time>2014-02-16T12:45:22Z</time>
      </trkpt>
      <trkpt lat="47.27159" lon="-1.6454">
        <ele>46.900001</ele>
        <time>2014-02-16T12:45:26Z</time>
      </trkpt>
      <trkpt lat="47.27147" lon="-1.6454">
        <ele>46.5</ele>
        <time>2014-02-16T12:45:30Z</time>
      </trkpt>
      <trkpt lat="47.27138" lon="-1.64541">
        <ele>46.299999</ele>
        <time>2014-02-16T12:45:33Z</time>
      </trkpt>
      <trkpt lat="47.27127" lon="-1.64543">
        <ele>46.099998</ele>
        <time>2014-02-16T12:45:37Z</time>
      </trkpt>
      <trkpt lat="47.27117" lon="-1.64545">
        <ele>45.5</ele>
        <time>2014-02-16T12:45:41Z</time>
      </trkpt>
      <trkpt lat="47.27099" lon="-1.6454">
        <ele>44.099998</ele>
        <time>2014-02-16T12:45:49Z</time>
      </trkpt>
      <trkpt lat="47.27093" lon="-1.64529">
        <ele>42.900001</ele>
        <time>2014-02-16T12:46:05Z</time>
      </trkpt>
      <trkpt lat="47.27085" lon="-1.64517">
        <ele>42.7</ele>
        <time>2014-02-16T12:46:16Z</time>
      </trkpt>
      <trkpt lat="47.27077" lon="-1.64504">
        <ele>42.599998</ele>
        <time>2014-02-16T12:46:22Z</time>
      </trkpt>
      <trkpt lat="47.27071" lon="-1.64493">
        <ele>42.099998</ele>
        <time>2014-02-16T12:46:27Z</time>
      </trkpt>
      <trkpt lat="47.27069" lon="-1.6448">
        <ele>36.7</ele>
        <time>2014-02-16T12:48:52Z</time>
      </trkpt>
      <trkpt lat="47.27066" lon="-1.64479">
        <ele>33</ele>
        <time>2014-02-16T12:54:39Z</time>
      </trkpt>
      <trkpt lat="47.27072" lon="-1.64489">
        <ele>27.1</ele>
        <time>2014-02-16T12:56:11Z</time>
      </trkpt>
      <trkpt lat="47.27046" lon="-1.64466">
        <ele>16.5</ele>
        <time>2014-02-16T12:58:31Z</time>
      </trkpt>
      <trkpt lat="47.27041" lon="-1.64454">
        <ele>16</ele>
        <time>2014-02-16T12:58:35Z</time>
      </trkpt>
      <trkpt lat="47.27037" lon="-1.64441">
        <ele>15.899999</ele>
        <time>2014-02-16T12:58:39Z</time>
      </trkpt>
      <trkpt lat="47.27034" lon="-1.64423">
        <ele>16.5</ele>
        <time>2014-02-16T12:58:42Z</time>
      </trkpt>
      <trkpt lat="47.27034" lon="-1.64407">
        <ele>16.7</ele>
        <time>2014-02-16T12:58:45Z</time>
      </trkpt>
      <trkpt lat="47.27036" lon="-1.64393">
        <ele>17</ele>
        <time>2014-02-16T12:58:48Z</time>
      </trkpt>
      <trkpt lat="47.27037" lon="-1.6438">
        <ele>17.5</ele>
        <time>2014-02-16T12:58:52Z</time>
      </trkpt>
      <trkpt lat="47.27035" lon="-1.64366">
        <ele>18</ele>
        <time>2014-02-16T12:58:57Z</time>
      </trkpt>
      <trkpt lat="47.27034" lon="-1.64351">
        <ele>18.399999</ele>
        <time>2014-02-16T12:59:02Z</time>
      </trkpt>
      <trkpt lat="47.27036" lon="-1.64338">
        <ele>18.5</ele>
        <time>2014-02-16T12:59:05Z</time>
      </trkpt>
      <trkpt lat="47.27032" lon="-1.64319">
        <ele>19.399999</ele>
        <time>2014-02-16T12:59:08Z</time>
      </trkpt>
      <trkpt lat="47.27029" lon="-1.64303">
        <ele>20.1</ele>
        <time>2014-02-16T12:59:10Z</time>
      </trkpt>
      <trkpt lat="47.27024" lon="-1.64286">
        <ele>21.1</ele>
        <time>2014-02-16T12:59:13Z</time>
      </trkpt>
      <trkpt lat="47.27018" lon="-1.6427">
        <ele>22</ele>
        <time>2014-02-16T12:59:16Z</time>
      </trkpt>
      <trkpt lat="47.27015" lon="-1.64258">
        <ele>22.5</ele>
        <time>2014-02-16T12:59:18Z</time>
      </trkpt>
      <trkpt lat="47.27011" lon="-1.64244">
        <ele>23.299999</ele>
        <time>2014-02-16T12:59:21Z</time>
      </trkpt>
      <trkpt lat="47.27006" lon="-1.64231">
        <ele>24.399999</ele>
        <time>2014-02-16T12:59:26Z</time>
      </trkpt>
      <trkpt lat="47.26988" lon="-1.6421">
        <ele>24.7</ele>
        <time>2014-02-16T12:59:32Z</time>
      </trkpt>
      <trkpt lat="47.26982" lon="-1.64199">
        <ele>24.6</ele>
        <time>2014-02-16T12:59:33Z</time>
      </trkpt>
      <trkpt lat="47.26973" lon="-1.64181">
        <ele>24.2</ele>
        <time>2014-02-16T12:59:35Z</time>
      </trkpt>
      <trkpt lat="47.26967" lon="-1.64168">
        <ele>24.2</ele>
        <time>2014-02-16T12:59:37Z</time>
      </trkpt>
      <trkpt lat="47.26959" lon="-1.64155">
        <ele>24.1</ele>
        <time>2014-02-16T12:59:40Z</time>
      </trkpt>
      <trkpt lat="47.26953" lon="-1.64146">
        <ele>24.2</ele>
        <time>2014-02-16T12:59:43Z</time>
      </trkpt>
      <trkpt lat="47.26944" lon="-1.64134">
        <ele>25</ele>
        <time>2014-02-16T12:59:47Z</time>
      </trkpt>
      <trkpt lat="47.26936" lon="-1.64123">
        <ele>25.7</ele>
        <time>2014-02-16T12:59:52Z</time>
      </trkpt>
      <trkpt lat="47.26929" lon="-1.64107">
        <ele>25.899999</ele>
        <time>2014-02-16T12:59:54Z</time>
      </trkpt>
      <trkpt lat="47.26925" lon="-1.64092">
        <ele>26.399999</ele>
        <time>2014-02-16T12:59:57Z</time>
      </trkpt>
      <trkpt lat="47.26923" lon="-1.64079">
        <ele>26.7</ele>
        <time>2014-02-16T13:00:01Z</time>
      </trkpt>
      <trkpt lat="47.26918" lon="-1.64063">
        <ele>26.899999</ele>
        <time>2014-02-16T13:00:06Z</time>
      </trkpt>
      <trkpt lat="47.26921" lon="-1.6405">
        <ele>27.2</ele>
        <time>2014-02-16T13:00:10Z</time>
      </trkpt>
      <trkpt lat="47.2692" lon="-1.64037">
        <ele>26.5</ele>
        <time>2014-02-16T13:00:23Z</time>
      </trkpt>
      <trkpt lat="47.26921" lon="-1.64024">
        <ele>30.6</ele>
        <time>2014-02-16T13:00:56Z</time>
      </trkpt>
      <trkpt lat="47.26927" lon="-1.64">
        <ele>31.1</ele>
        <time>2014-02-16T13:01:29Z</time>
      </trkpt>
      <trkpt lat="47.26922" lon="-1.63988">
        <ele>30.5</ele>
        <time>2014-02-16T13:01:36Z</time>
      </trkpt>
      <trkpt lat="47.26915" lon="-1.63979">
        <ele>30.2</ele>
        <time>2014-02-16T13:01:40Z</time>
      </trkpt>
      <trkpt lat="47.26909" lon="-1.63969">
        <ele>29.799999</ele>
        <time>2014-02-16T13:01:48Z</time>
      </trkpt>
      <trkpt lat="47.26908" lon="-1.63955">
        <ele>29.1</ele>
        <time>2014-02-16T13:02:02Z</time>
      </trkpt>
      <trkpt lat="47.26905" lon="-1.63929">
        <ele>29.899999</ele>
        <time>2014-02-16T13:02:30Z</time>
      </trkpt>
      <trkpt lat="47.26899" lon="-1.63917">
        <ele>29.7</ele>
        <time>2014-02-16T13:02:42Z</time>
      </trkpt>
      <trkpt lat="47.26893" lon="-1.63907">
        <ele>31.399999</ele>
        <time>2014-02-16T13:02:54Z</time>
      </trkpt>
      <trkpt lat="47.26884" lon="-1.63903">
        <ele>33</ele>
        <time>2014-02-16T13:03:09Z</time>
      </trkpt>
      <trkpt lat="47.26866" lon="-1.63893">
        <ele>32.599998</ele>
        <time>2014-02-16T13:03:23Z</time>
      </trkpt>
      <trkpt lat="47.26857" lon="-1.63893">
        <ele>32.400001</ele>
        <time>2014-02-16T13:03:41Z</time>
      </trkpt>
      <trkpt lat="47.26848" lon="-1.63893">
        <ele>31.799999</ele>
        <time>2014-02-16T13:03:50Z</time>
      </trkpt>
      <trkpt lat="47.26839" lon="-1.63889">
        <ele>31.799999</ele>
        <time>2014-02-16T13:03:56Z</time>
      </trkpt>
      <trkpt lat="47.26832" lon="-1.63879">
        <ele>33.5</ele>
        <time>2014-02-16T13:04:12Z</time>
      </trkpt>
      <trkpt lat="47.26814" lon="-1.63882">
        <ele>30.299999</ele>
        <time>2014-02-16T13:04:56Z</time>
      </trkpt>
      <trkpt lat="47.26807" lon="-1.63892">
        <ele>29.5</ele>
        <time>2014-02-16T13:05:01Z</time>
      </trkpt>
      <trkpt lat="47.26803" lon="-1.63904">
        <ele>28.7</ele>
        <time>2014-02-16T13:05:06Z</time>
      </trkpt>
      <trkpt lat="47.26794" lon="-1.63909">
        <ele>27.799999</ele>
        <time>2014-02-16T13:05:11Z</time>
      </trkpt>
      <trkpt lat="47.26785" lon="-1.6392">
        <ele>26.5</ele>
        <time>2014-02-16T13:05:15Z</time>
      </trkpt>
      <trkpt lat="47.26769" lon="-1.63932">
        <ele>23.7</ele>
        <time>2014-02-16T13:05:22Z</time>
      </trkpt>
      <trkpt lat="47.26759" lon="-1.63932">
        <ele>22.5</ele>
        <time>2014-02-16T13:05:25Z</time>
      </trkpt>
      <trkpt lat="47.2675" lon="-1.63927">
        <ele>20.7</ele>
        <time>2014-02-16T13:05:30Z</time>
      </trkpt>
      <trkpt lat="47.26742" lon="-1.6392">
        <ele>18.6</ele>
        <time>2014-02-16T13:05:38Z</time>
      </trkpt>
      <trkpt lat="47.26735" lon="-1.63908">
        <ele>18</ele>
        <time>2014-02-16T13:05:44Z</time>
      </trkpt>
      <trkpt lat="47.26725" lon="-1.63902">
        <ele>17.6</ele>
        <time>2014-02-16T13:05:47Z</time>
      </trkpt>
      <trkpt lat="47.26723" lon="-1.63888">
        <ele>16.899999</ele>
        <time>2014-02-16T13:05:52Z</time>
      </trkpt>
      <trkpt lat="47.26726" lon="-1.63873">
        <ele>15.5</ele>
        <time>2014-02-16T13:06:00Z</time>
      </trkpt>
      <trkpt lat="47.26728" lon="-1.63858">
        <ele>14.3</ele>
        <time>2014-02-16T13:06:05Z</time>
      </trkpt>
      <trkpt lat="47.2673" lon="-1.63845">
        <ele>14.1</ele>
        <time>2014-02-16T13:06:09Z</time>
      </trkpt>
      <trkpt lat="47.26731" lon="-1.63831">
        <ele>14.399999</ele>
        <time>2014-02-16T13:06:13Z</time>
      </trkpt>
      <trkpt lat="47.2673" lon="-1.63816">
        <ele>14.899999</ele>
        <time>2014-02-16T13:06:18Z</time>
      </trkpt>
      <trkpt lat="47.26734" lon="-1.63786">
        <ele>15</ele>
        <time>2014-02-16T13:06:25Z</time>
      </trkpt>
      <trkpt lat="47.26736" lon="-1.63771">
        <ele>15.3</ele>
        <time>2014-02-16T13:06:28Z</time>
      </trkpt>
      <trkpt lat="47.26738" lon="-1.63757">
        <ele>15.6</ele>
        <time>2014-02-16T13:06:31Z</time>
      </trkpt>
      <trkpt lat="47.26741" lon="-1.63743">
        <ele>15.699999</ele>
        <time>2014-02-16T13:06:34Z</time>
      </trkpt>
      <trkpt lat="47.26745" lon="-1.6373">
        <ele>15.8</ele>
        <time>2014-02-16T13:06:37Z</time>
      </trkpt>
      <trkpt lat="47.2675" lon="-1.63717">
        <ele>15.699999</ele>
        <time>2014-02-16T13:06:41Z</time>
      </trkpt>
      <trkpt lat="47.26757" lon="-1.63701">
        <ele>15.699999</ele>
        <time>2014-02-16T13:06:44Z</time>
      </trkpt>
      <trkpt lat="47.26764" lon="-1.6369">
        <ele>15.699999</ele>
        <time>2014-02-16T13:06:47Z</time>
      </trkpt>
      <trkpt lat="47.2677" lon="-1.63681">
        <ele>15.699999</ele>
        <time>2014-02-16T13:06:50Z</time>
      </trkpt>
      <trkpt lat="47.26772" lon="-1.63667">
        <ele>15.699999</ele>
        <time>2014-02-16T13:06:53Z</time>
      </trkpt>
      <trkpt lat="47.26771" lon="-1.63649">
        <ele>15.6</ele>
        <time>2014-02-16T13:06:57Z</time>
      </trkpt>
      <trkpt lat="47.26772" lon="-1.63633">
        <ele>15.699999</ele>
        <time>2014-02-16T13:07:00Z</time>
      </trkpt>
      <trkpt lat="47.26777" lon="-1.63621">
        <ele>15.899999</ele>
        <time>2014-02-16T13:07:03Z</time>
      </trkpt>
      <trkpt lat="47.26787" lon="-1.63612">
        <ele>16.299999</ele>
        <time>2014-02-16T13:07:07Z</time>
      </trkpt>
      <trkpt lat="47.26798" lon="-1.63604">
        <ele>16.5</ele>
        <time>2014-02-16T13:07:10Z</time>
      </trkpt>
      <trkpt lat="47.26808" lon="-1.63597">
        <ele>16.5</ele>
        <time>2014-02-16T13:07:13Z</time>
      </trkpt>
      <trkpt lat="47.26816" lon="-1.63587">
        <ele>16.399999</ele>
        <time>2014-02-16T13:07:17Z</time>
      </trkpt>
      <trkpt lat="47.26825" lon="-1.63575">
        <ele>16.2</ele>
        <time>2014-02-16T13:07:22Z</time>
      </trkpt>
      <trkpt lat="47.26835" lon="-1.63547">
        <ele>16</ele>
        <time>2014-02-16T13:07:28Z</time>
      </trkpt>
      <trkpt lat="47.26839" lon="-1.63533">
        <ele>16</ele>
        <time>2014-02-16T13:07:31Z</time>
      </trkpt>
      <trkpt lat="47.26845" lon="-1.63518">
        <ele>15.899999</ele>
        <time>2014-02-16T13:07:35Z</time>
      </trkpt>
      <trkpt lat="47.26849" lon="-1.63505">
        <ele>15.899999</ele>
        <time>2014-02-16T13:07:38Z</time>
      </trkpt>
      <trkpt lat="47.26853" lon="-1.63492">
        <ele>16</ele>
        <time>2014-02-16T13:07:41Z</time>
      </trkpt>
      <trkpt lat="47.26859" lon="-1.63478">
        <ele>16.399999</ele>
        <time>2014-02-16T13:07:45Z</time>
      </trkpt>
      <trkpt lat="47.26865" lon="-1.63462">
        <ele>16.899999</ele>
        <time>2014-02-16T13:07:48Z</time>
      </trkpt>
      <trkpt lat="47.26869" lon="-1.63449">
        <ele>17.299999</ele>
        <time>2014-02-16T13:07:51Z</time>
      </trkpt>
      <trkpt lat="47.26874" lon="-1.63436">
        <ele>17.7</ele>
        <time>2014-02-16T13:07:54Z</time>
      </trkpt>
      <trkpt lat="47.26877" lon="-1.63424">
        <ele>18</ele>
        <time>2014-02-16T13:07:57Z</time>
      </trkpt>
      <trkpt lat="47.26879" lon="-1.6341">
        <ele>18.2</ele>
        <time>2014-02-16T13:08:00Z</time>
      </trkpt>
      <trkpt lat="47.26879" lon="-1.63397">
        <ele>18.6</ele>
        <time>2014-02-16T13:08:03Z</time>
      </trkpt>
      <trkpt lat="47.26879" lon="-1.63377">
        <ele>18.399999</ele>
        <time>2014-02-16T13:08:06Z</time>
      </trkpt>
      <trkpt lat="47.26881" lon="-1.63364">
        <ele>18</ele>
        <time>2014-02-16T13:08:08Z</time>
      </trkpt>
      <trkpt lat="47.2689" lon="-1.63355">
        <ele>17.7</ele>
        <time>2014-02-16T13:08:13Z</time>
      </trkpt>
      <trkpt lat="47.26893" lon="-1.63341">
        <ele>17.299999</ele>
        <time>2014-02-16T13:08:18Z</time>
      </trkpt>
      <trkpt lat="47.26895" lon="-1.63327">
        <ele>17</ele>
        <time>2014-02-16T13:08:22Z</time>
      </trkpt>
      <trkpt lat="47.26899" lon="-1.63311">
        <ele>16.7</ele>
        <time>2014-02-16T13:08:25Z</time>
      </trkpt>
      <trkpt lat="47.26905" lon="-1.63284">
        <ele>16.899999</ele>
        <time>2014-02-16T13:08:31Z</time>
      </trkpt>
      <trkpt lat="47.26907" lon="-1.63269">
        <ele>17.799999</ele>
        <time>2014-02-16T13:08:37Z</time>
      </trkpt>
      <trkpt lat="47.2691" lon="-1.63253">
        <ele>17.7</ele>
        <time>2014-02-16T13:08:41Z</time>
      </trkpt>
      <trkpt lat="47.26912" lon="-1.63239">
        <ele>17.399999</ele>
        <time>2014-02-16T13:08:44Z</time>
      </trkpt>
      <trkpt lat="47.26913" lon="-1.63226">
        <ele>17.6</ele>
        <time>2014-02-16T13:08:47Z</time>
      </trkpt>
      <trkpt lat="47.26914" lon="-1.63211">
        <ele>17.5</ele>
        <time>2014-02-16T13:08:50Z</time>
      </trkpt>
      <trkpt lat="47.26911" lon="-1.63192">
        <ele>17.299999</ele>
        <time>2014-02-16T13:08:53Z</time>
      </trkpt>
      <trkpt lat="47.26907" lon="-1.63179">
        <ele>17.5</ele>
        <time>2014-02-16T13:08:54Z</time>
      </trkpt>
      <trkpt lat="47.26899" lon="-1.6316">
        <ele>18.6</ele>
        <time>2014-02-16T13:08:56Z</time>
      </trkpt>
      <trkpt lat="47.26894" lon="-1.63145">
        <ele>20.6</ele>
        <time>2014-02-16T13:08:58Z</time>
      </trkpt>
      <trkpt lat="47.2689" lon="-1.63132">
        <ele>21</ele>
        <time>2014-02-16T13:09:00Z</time>
      </trkpt>
      <trkpt lat="47.26887" lon="-1.63119">
        <ele>21</ele>
        <time>2014-02-16T13:09:02Z</time>
      </trkpt>
      <trkpt lat="47.26882" lon="-1.63102">
        <ele>21</ele>
        <time>2014-02-16T13:09:05Z</time>
      </trkpt>
      <trkpt lat="47.26876" lon="-1.63086">
        <ele>21</ele>
        <time>2014-02-16T13:09:08Z</time>
      </trkpt>
      <trkpt lat="47.26868" lon="-1.63075">
        <ele>21</ele>
        <time>2014-02-16T13:09:11Z</time>
      </trkpt>
      <trkpt lat="47.26857" lon="-1.63061">
        <ele>21</ele>
        <time>2014-02-16T13:09:14Z</time>
      </trkpt>
      <trkpt lat="47.26847" lon="-1.63049">
        <ele>19.899999</ele>
        <time>2014-02-16T13:09:17Z</time>
      </trkpt>
      <trkpt lat="47.26839" lon="-1.63043">
        <ele>19</ele>
        <time>2014-02-16T13:09:19Z</time>
      </trkpt>
      <trkpt lat="47.26826" lon="-1.63036">
        <ele>18.5</ele>
        <time>2014-02-16T13:09:22Z</time>
      </trkpt>
      <trkpt lat="47.26817" lon="-1.63032">
        <ele>16.2</ele>
        <time>2014-02-16T13:09:24Z</time>
      </trkpt>
      <trkpt lat="47.26806" lon="-1.63031">
        <ele>17.2</ele>
        <time>2014-02-16T13:09:27Z</time>
      </trkpt>
      <trkpt lat="47.26784" lon="-1.63023">
        <ele>13.899999</ele>
        <time>2014-02-16T13:09:32Z</time>
      </trkpt>
      <trkpt lat="47.26773" lon="-1.63017">
        <ele>13.1</ele>
        <time>2014-02-16T13:09:35Z</time>
      </trkpt>
      <trkpt lat="47.26767" lon="-1.63003">
        <ele>12</ele>
        <time>2014-02-16T13:09:38Z</time>
      </trkpt>
      <trkpt lat="47.26763" lon="-1.62991">
        <ele>11.6</ele>
        <time>2014-02-16T13:09:40Z</time>
      </trkpt>
      <trkpt lat="47.26761" lon="-1.62972">
        <ele>11.399999</ele>
        <time>2014-02-16T13:09:43Z</time>
      </trkpt>
      <trkpt lat="47.26766" lon="-1.62954">
        <ele>12.1</ele>
        <time>2014-02-16T13:09:46Z</time>
      </trkpt>
      <trkpt lat="47.2677" lon="-1.62941">
        <ele>13.699999</ele>
        <time>2014-02-16T13:09:48Z</time>
      </trkpt>
      <trkpt lat="47.26773" lon="-1.62928">
        <ele>13.6</ele>
        <time>2014-02-16T13:09:50Z</time>
      </trkpt>
      <trkpt lat="47.26777" lon="-1.62914">
        <ele>12.199999</ele>
        <time>2014-02-16T13:09:52Z</time>
      </trkpt>
      <trkpt lat="47.26781" lon="-1.62902">
        <ele>11</ele>
        <time>2014-02-16T13:09:54Z</time>
      </trkpt>
      <trkpt lat="47.26786" lon="-1.62883">
        <ele>9.8</ele>
        <time>2014-02-16T13:09:57Z</time>
      </trkpt>
      <trkpt lat="47.26788" lon="-1.62869">
        <ele>8.6</ele>
        <time>2014-02-16T13:09:59Z</time>
      </trkpt>
      <trkpt lat="47.26786" lon="-1.6285">
        <ele>9.5</ele>
        <time>2014-02-16T13:10:02Z</time>
      </trkpt>
      <trkpt lat="47.26784" lon="-1.62837">
        <ele>9.3</ele>
        <time>2014-02-16T13:10:04Z</time>
      </trkpt>
      <trkpt lat="47.26781" lon="-1.62823">
        <ele>8.8</ele>
        <time>2014-02-16T13:10:06Z</time>
      </trkpt>
      <trkpt lat="47.26779" lon="-1.62809">
        <ele>9.5</ele>
        <time>2014-02-16T13:10:08Z</time>
      </trkpt>
      <trkpt lat="47.2678" lon="-1.62792">
        <ele>9.8</ele>
        <time>2014-02-16T13:10:11Z</time>
      </trkpt>
      <trkpt lat="47.2678" lon="-1.62774">
        <ele>10.1</ele>
        <time>2014-02-16T13:10:14Z</time>
      </trkpt>
      <trkpt lat="47.2678" lon="-1.62759">
        <ele>10.1</ele>
        <time>2014-02-16T13:10:16Z</time>
      </trkpt>
      <trkpt lat="47.2678" lon="-1.62743">
        <ele>10.199999</ele>
        <time>2014-02-16T13:10:18Z</time>
      </trkpt>
      <trkpt lat="47.26779" lon="-1.62727">
        <ele>9.8</ele>
        <time>2014-02-16T13:10:20Z</time>
      </trkpt>
      <trkpt lat="47.26778" lon="-1.62712">
        <ele>9.6</ele>
        <time>2014-02-16T13:10:22Z</time>
      </trkpt>
      <trkpt lat="47.26777" lon="-1.62695">
        <ele>9.199999</ele>
        <time>2014-02-16T13:10:24Z</time>
      </trkpt>
      <trkpt lat="47.26777" lon="-1.62681">
        <ele>8.8</ele>
        <time>2014-02-16T13:10:26Z</time>
      </trkpt>
      <trkpt lat="47.26776" lon="-1.62664">
        <ele>9.1</ele>
        <time>2014-02-16T13:10:28Z</time>
      </trkpt>
      <trkpt lat="47.26777" lon="-1.62635">
        <ele>10.399999</ele>
        <time>2014-02-16T13:10:32Z</time>
      </trkpt>
      <trkpt lat="47.26778" lon="-1.62617">
        <ele>9.8</ele>
        <time>2014-02-16T13:10:34Z</time>
      </trkpt>
      <trkpt lat="47.26779" lon="-1.62602">
        <ele>9.699999</ele>
        <time>2014-02-16T13:10:36Z</time>
      </trkpt>
      <trkpt lat="47.26778" lon="-1.62586">
        <ele>9.5</ele>
        <time>2014-02-16T13:10:38Z</time>
      </trkpt>
      <trkpt lat="47.26778" lon="-1.6257">
        <ele>9.1</ele>
        <time>2014-02-16T13:10:40Z</time>
      </trkpt>
      <trkpt lat="47.2678" lon="-1.62551">
        <ele>7.8</ele>
        <time>2014-02-16T13:10:42Z</time>
      </trkpt>
      <trkpt lat="47.26781" lon="-1.62536">
        <ele>7.199999</ele>
        <time>2014-02-16T13:10:44Z</time>
      </trkpt>
      <trkpt lat="47.2678" lon="-1.62518">
        <ele>6.699999</ele>
        <time>2014-02-16T13:10:47Z</time>
      </trkpt>
      <trkpt lat="47.26779" lon="-1.62504">
        <ele>7.4</ele>
        <time>2014-02-16T13:10:49Z</time>
      </trkpt>
      <trkpt lat="47.26779" lon="-1.62489">
        <ele>8.699999</ele>
        <time>2014-02-16T13:10:51Z</time>
      </trkpt>
      <trkpt lat="47.26782" lon="-1.62475">
        <ele>10.3</ele>
        <time>2014-02-16T13:10:53Z</time>
      </trkpt>
      <trkpt lat="47.26784" lon="-1.62462">
        <ele>10.5</ele>
        <time>2014-02-16T13:10:55Z</time>
      </trkpt>
      <trkpt lat="47.26786" lon="-1.62444">
        <ele>10.899999</ele>
        <time>2014-02-16T13:10:58Z</time>
      </trkpt>
      <trkpt lat="47.26787" lon="-1.6243">
        <ele>10.699999</ele>
        <time>2014-02-16T13:11:00Z</time>
      </trkpt>
      <trkpt lat="47.26789" lon="-1.62415">
        <ele>10.6</ele>
        <time>2014-02-16T13:11:03Z</time>
      </trkpt>
      <trkpt lat="47.26792" lon="-1.62397">
        <ele>10.6</ele>
        <time>2014-02-16T13:11:06Z</time>
      </trkpt>
      <trkpt lat="47.26795" lon="-1.62381">
        <ele>10.5</ele>
        <time>2014-02-16T13:11:09Z</time>
      </trkpt>
      <trkpt lat="47.26791" lon="-1.62368">
        <ele>10.399999</ele>
        <time>2014-02-16T13:11:13Z</time>
      </trkpt>
      <trkpt lat="47.26785" lon="-1.62359">
        <ele>10.3</ele>
        <time>2014-02-16T13:11:15Z</time>
      </trkpt>
      <trkpt lat="47.26779" lon="-1.62347">
        <ele>10.399999</ele>
        <time>2014-02-16T13:11:17Z</time>
      </trkpt>
      <trkpt lat="47.26773" lon="-1.62334">
        <ele>12.5</ele>
        <time>2014-02-16T13:11:19Z</time>
      </trkpt>
      <trkpt lat="47.26766" lon="-1.62322">
        <ele>13.699999</ele>
        <time>2014-02-16T13:11:22Z</time>
      </trkpt>
      <trkpt lat="47.26761" lon="-1.6231">
        <ele>14.199999</ele>
        <time>2014-02-16T13:11:27Z</time>
      </trkpt>
      <trkpt lat="47.26762" lon="-1.62295">
        <ele>14.399999</ele>
        <time>2014-02-16T13:11:31Z</time>
      </trkpt>
      <trkpt lat="47.26774" lon="-1.62271">
        <ele>14.399999</ele>
        <time>2014-02-16T13:11:38Z</time>
      </trkpt>
      <trkpt lat="47.26767" lon="-1.6226">
        <ele>13.8</ele>
        <time>2014-02-16T13:11:47Z</time>
      </trkpt>
      <trkpt lat="47.26762" lon="-1.62246">
        <ele>13.8</ele>
        <time>2014-02-16T13:11:51Z</time>
      </trkpt>
      <trkpt lat="47.26759" lon="-1.62228">
        <ele>14.1</ele>
        <time>2014-02-16T13:11:54Z</time>
      </trkpt>
      <trkpt lat="47.26758" lon="-1.62215">
        <ele>14.1</ele>
        <time>2014-02-16T13:11:56Z</time>
      </trkpt>
      <trkpt lat="47.26757" lon="-1.62198">
        <ele>14.1</ele>
        <time>2014-02-16T13:11:59Z</time>
      </trkpt>
      <trkpt lat="47.26759" lon="-1.62184">
        <ele>14</ele>
        <time>2014-02-16T13:12:02Z</time>
      </trkpt>
      <trkpt lat="47.26759" lon="-1.62169">
        <ele>13.899999</ele>
        <time>2014-02-16T13:12:04Z</time>
      </trkpt>
      <trkpt lat="47.26757" lon="-1.62146">
        <ele>13.8</ele>
        <time>2014-02-16T13:12:07Z</time>
      </trkpt>
      <trkpt lat="47.26754" lon="-1.62129">
        <ele>13.699999</ele>
        <time>2014-02-16T13:12:09Z</time>
      </trkpt>
      <trkpt lat="47.26752" lon="-1.62112">
        <ele>13.6</ele>
        <time>2014-02-16T13:12:12Z</time>
      </trkpt>
      <trkpt lat="47.2675" lon="-1.62097">
        <ele>13.199999</ele>
        <time>2014-02-16T13:12:14Z</time>
      </trkpt>
      <trkpt lat="47.26748" lon="-1.62077">
        <ele>12.899999</ele>
        <time>2014-02-16T13:12:17Z</time>
      </trkpt>
      <trkpt lat="47.26746" lon="-1.62062">
        <ele>13.3</ele>
        <time>2014-02-16T13:12:22Z</time>
      </trkpt>
      <trkpt lat="47.26743" lon="-1.62049">
        <ele>13.5</ele>
        <time>2014-02-16T13:12:25Z</time>
      </trkpt>
      <trkpt lat="47.26742" lon="-1.62033">
        <ele>13.699999</ele>
        <time>2014-02-16T13:12:28Z</time>
      </trkpt>
      <trkpt lat="47.26744" lon="-1.62016">
        <ele>15.199999</ele>
        <time>2014-02-16T13:12:31Z</time>
      </trkpt>
      <trkpt lat="47.26745" lon="-1.61998">
        <ele>16.1</ele>
        <time>2014-02-16T13:12:34Z</time>
      </trkpt>
      <trkpt lat="47.26745" lon="-1.61964">
        <ele>17.2</ele>
        <time>2014-02-16T13:12:39Z</time>
      </trkpt>
      <trkpt lat="47.26747" lon="-1.61949">
        <ele>17.7</ele>
        <time>2014-02-16T13:12:41Z</time>
      </trkpt>
      <trkpt lat="47.26747" lon="-1.61935">
        <ele>17.7</ele>
        <time>2014-02-16T13:12:43Z</time>
      </trkpt>
      <trkpt lat="47.26749" lon="-1.61921">
        <ele>17.6</ele>
        <time>2014-02-16T13:12:45Z</time>
      </trkpt>
      <trkpt lat="47.26751" lon="-1.61904">
        <ele>17.299999</ele>
        <time>2014-02-16T13:12:48Z</time>
      </trkpt>
      <trkpt lat="47.26754" lon="-1.61888">
        <ele>15.1</ele>
        <time>2014-02-16T13:12:51Z</time>
      </trkpt>
      <trkpt lat="47.26758" lon="-1.6187">
        <ele>13.899999</ele>
        <time>2014-02-16T13:12:54Z</time>
      </trkpt>
      <trkpt lat="47.26757" lon="-1.61851">
        <ele>11.3</ele>
        <time>2014-02-16T13:12:57Z</time>
      </trkpt>
      <trkpt lat="47.2675" lon="-1.61836">
        <ele>10.899999</ele>
        <time>2014-02-16T13:13:00Z</time>
      </trkpt>
      <trkpt lat="47.26741" lon="-1.61825">
        <ele>12.199999</ele>
        <time>2014-02-16T13:13:03Z</time>
      </trkpt>
      <trkpt lat="47.26732" lon="-1.61817">
        <ele>13</ele>
        <time>2014-02-16T13:13:05Z</time>
      </trkpt>
      <trkpt lat="47.26722" lon="-1.61809">
        <ele>13.399999</ele>
        <time>2014-02-16T13:13:07Z</time>
      </trkpt>
      <trkpt lat="47.26714" lon="-1.61803">
        <ele>14.1</ele>
        <time>2014-02-16T13:13:09Z</time>
      </trkpt>
      <trkpt lat="47.26704" lon="-1.61798">
        <ele>15.5</ele>
        <time>2014-02-16T13:13:11Z</time>
      </trkpt>
      <trkpt lat="47.26692" lon="-1.61793">
        <ele>17.799999</ele>
        <time>2014-02-16T13:13:13Z</time>
      </trkpt>
      <trkpt lat="47.2668" lon="-1.61787">
        <ele>20.399999</ele>
        <time>2014-02-16T13:13:15Z</time>
      </trkpt>
      <trkpt lat="47.26667" lon="-1.6178">
        <ele>21.299999</ele>
        <time>2014-02-16T13:13:17Z</time>
      </trkpt>
      <trkpt lat="47.26654" lon="-1.61773">
        <ele>21.399999</ele>
        <time>2014-02-16T13:13:19Z</time>
      </trkpt>
      <trkpt lat="47.26642" lon="-1.61767">
        <ele>21.399999</ele>
        <time>2014-02-16T13:13:21Z</time>
      </trkpt>
      <trkpt lat="47.26631" lon="-1.61761">
        <ele>21.5</ele>
        <time>2014-02-16T13:13:23Z</time>
      </trkpt>
      <trkpt lat="47.26621" lon="-1.61755">
        <ele>21.6</ele>
        <time>2014-02-16T13:13:25Z</time>
      </trkpt>
      <trkpt lat="47.26612" lon="-1.61747">
        <ele>22.2</ele>
        <time>2014-02-16T13:13:27Z</time>
      </trkpt>
      <trkpt lat="47.26603" lon="-1.61738">
        <ele>23.299999</ele>
        <time>2014-02-16T13:13:29Z</time>
      </trkpt>
      <trkpt lat="47.26592" lon="-1.61726">
        <ele>23.2</ele>
        <time>2014-02-16T13:13:31Z</time>
      </trkpt>
      <trkpt lat="47.26585" lon="-1.61713">
        <ele>23.2</ele>
        <time>2014-02-16T13:13:33Z</time>
      </trkpt>
      <trkpt lat="47.26579" lon="-1.61701">
        <ele>23.799999</ele>
        <time>2014-02-16T13:13:35Z</time>
      </trkpt>
      <trkpt lat="47.26568" lon="-1.61677">
        <ele>24</ele>
        <time>2014-02-16T13:13:39Z</time>
      </trkpt>
      <trkpt lat="47.26562" lon="-1.61665">
        <ele>23.5</ele>
        <time>2014-02-16T13:13:41Z</time>
      </trkpt>
      <trkpt lat="47.26556" lon="-1.61655">
        <ele>22.7</ele>
        <time>2014-02-16T13:13:43Z</time>
      </trkpt>
      <trkpt lat="47.26551" lon="-1.61643">
        <ele>21.799999</ele>
        <time>2014-02-16T13:13:45Z</time>
      </trkpt>
      <trkpt lat="47.26545" lon="-1.6163">
        <ele>21</ele>
        <time>2014-02-16T13:13:47Z</time>
      </trkpt>
      <trkpt lat="47.26538" lon="-1.61618">
        <ele>20.399999</ele>
        <time>2014-02-16T13:13:49Z</time>
      </trkpt>
      <trkpt lat="47.26528" lon="-1.61607">
        <ele>20.399999</ele>
        <time>2014-02-16T13:13:52Z</time>
      </trkpt>
      <trkpt lat="47.26518" lon="-1.61603">
        <ele>20.5</ele>
        <time>2014-02-16T13:13:54Z</time>
      </trkpt>
      <trkpt lat="47.26508" lon="-1.61598">
        <ele>21.399999</ele>
        <time>2014-02-16T13:13:56Z</time>
      </trkpt>
      <trkpt lat="47.26498" lon="-1.61594">
        <ele>22.299999</ele>
        <time>2014-02-16T13:13:58Z</time>
      </trkpt>
      <trkpt lat="47.26489" lon="-1.61589">
        <ele>22.6</ele>
        <time>2014-02-16T13:14:00Z</time>
      </trkpt>
      <trkpt lat="47.26478" lon="-1.61583">
        <ele>23</ele>
        <time>2014-02-16T13:14:02Z</time>
      </trkpt>
      <trkpt lat="47.26469" lon="-1.61579">
        <ele>23</ele>
        <time>2014-02-16T13:14:04Z</time>
      </trkpt>
      <trkpt lat="47.26456" lon="-1.61574">
        <ele>22.7</ele>
        <time>2014-02-16T13:14:07Z</time>
      </trkpt>
      <trkpt lat="47.26446" lon="-1.61563">
        <ele>22.6</ele>
        <time>2014-02-16T13:14:10Z</time>
      </trkpt>
      <trkpt lat="47.26437" lon="-1.61546">
        <ele>20.5</ele>
        <time>2014-02-16T13:14:12Z</time>
      </trkpt>
      <trkpt lat="47.26426" lon="-1.61527">
        <ele>19.2</ele>
        <time>2014-02-16T13:14:14Z</time>
      </trkpt>
      <trkpt lat="47.26416" lon="-1.61513">
        <ele>18.5</ele>
        <time>2014-02-16T13:14:16Z</time>
      </trkpt>
      <trkpt lat="47.26408" lon="-1.61505">
        <ele>18.7</ele>
        <time>2014-02-16T13:14:18Z</time>
      </trkpt>
      <trkpt lat="47.26399" lon="-1.61498">
        <ele>18.7</ele>
        <time>2014-02-16T13:14:20Z</time>
      </trkpt>
      <trkpt lat="47.26391" lon="-1.61491">
        <ele>19.299999</ele>
        <time>2014-02-16T13:14:22Z</time>
      </trkpt>
      <trkpt lat="47.26383" lon="-1.61479">
        <ele>19.899999</ele>
        <time>2014-02-16T13:14:24Z</time>
      </trkpt>
      <trkpt lat="47.26377" lon="-1.61467">
        <ele>20.1</ele>
        <time>2014-02-16T13:14:26Z</time>
      </trkpt>
      <trkpt lat="47.2637" lon="-1.61451">
        <ele>19.299999</ele>
        <time>2014-02-16T13:14:28Z</time>
      </trkpt>
      <trkpt lat="47.26365" lon="-1.61438">
        <ele>17.1</ele>
        <time>2014-02-16T13:14:30Z</time>
      </trkpt>
      <trkpt lat="47.26362" lon="-1.61425">
        <ele>16.299999</ele>
        <time>2014-02-16T13:14:32Z</time>
      </trkpt>
      <trkpt lat="47.26364" lon="-1.61408">
        <ele>16.1</ele>
        <time>2014-02-16T13:14:35Z</time>
      </trkpt>
      <trkpt lat="47.26366" lon="-1.61395">
        <ele>15.1</ele>
        <time>2014-02-16T13:14:37Z</time>
      </trkpt>
      <trkpt lat="47.26372" lon="-1.61362">
        <ele>13.8</ele>
        <time>2014-02-16T13:14:42Z</time>
      </trkpt>
      <trkpt lat="47.26374" lon="-1.61345">
        <ele>12.5</ele>
        <time>2014-02-16T13:14:45Z</time>
      </trkpt>
      <trkpt lat="47.26376" lon="-1.61328">
        <ele>11.399999</ele>
        <time>2014-02-16T13:14:48Z</time>
      </trkpt>
      <trkpt lat="47.2638" lon="-1.61308">
        <ele>10</ele>
        <time>2014-02-16T13:14:51Z</time>
      </trkpt>
      <trkpt lat="47.26383" lon="-1.61291">
        <ele>10.399999</ele>
        <time>2014-02-16T13:14:54Z</time>
      </trkpt>
      <trkpt lat="47.26386" lon="-1.61275">
        <ele>10.3</ele>
        <time>2014-02-16T13:14:57Z</time>
      </trkpt>
      <trkpt lat="47.26391" lon="-1.61259">
        <ele>10.199999</ele>
        <time>2014-02-16T13:15:00Z</time>
      </trkpt>
      <trkpt lat="47.26396" lon="-1.61248">
        <ele>10</ele>
        <time>2014-02-16T13:15:02Z</time>
      </trkpt>
      <trkpt lat="47.26404" lon="-1.61236">
        <ele>9.699999</ele>
        <time>2014-02-16T13:15:05Z</time>
      </trkpt>
      <trkpt lat="47.26415" lon="-1.61226">
        <ele>9.699999</ele>
        <time>2014-02-16T13:15:08Z</time>
      </trkpt>
      <trkpt lat="47.26424" lon="-1.6122">
        <ele>9.6</ele>
        <time>2014-02-16T13:15:11Z</time>
      </trkpt>
      <trkpt lat="47.26434" lon="-1.61212">
        <ele>9.3</ele>
        <time>2014-02-16T13:15:14Z</time>
      </trkpt>
      <trkpt lat="47.26443" lon="-1.61198">
        <ele>6.4</ele>
        <time>2014-02-16T13:15:17Z</time>
      </trkpt>
      <trkpt lat="47.26449" lon="-1.61187">
        <ele>4.5</ele>
        <time>2014-02-16T13:15:19Z</time>
      </trkpt>
      <trkpt lat="47.26453" lon="-1.61175">
        <ele>4.199999</ele>
        <time>2014-02-16T13:15:21Z</time>
      </trkpt>
      <trkpt lat="47.26457" lon="-1.6116">
        <ele>4.099999</ele>
        <time>2014-02-16T13:15:23Z</time>
      </trkpt>
      <trkpt lat="47.26464" lon="-1.61146">
        <ele>4</ele>
        <time>2014-02-16T13:15:26Z</time>
      </trkpt>
      <trkpt lat="47.2647" lon="-1.61129">
        <ele>4.9</ele>
        <time>2014-02-16T13:15:29Z</time>
      </trkpt>
      <trkpt lat="47.26476" lon="-1.61113">
        <ele>6</ele>
        <time>2014-02-16T13:15:32Z</time>
      </trkpt>
      <trkpt lat="47.26477" lon="-1.611">
        <ele>6.9</ele>
        <time>2014-02-16T13:15:34Z</time>
      </trkpt>
      <trkpt lat="47.26477" lon="-1.6108">
        <ele>8.5</ele>
        <time>2014-02-16T13:15:37Z</time>
      </trkpt>
      <trkpt lat="47.26477" lon="-1.61065">
        <ele>8.699999</ele>
        <time>2014-02-16T13:15:39Z</time>
      </trkpt>
      <trkpt lat="47.26477" lon="-1.61035">
        <ele>7.4</ele>
        <time>2014-02-16T13:15:43Z</time>
      </trkpt>
      <trkpt lat="47.26476" lon="-1.6102">
        <ele>6.699999</ele>
        <time>2014-02-16T13:15:45Z</time>
      </trkpt>
      <trkpt lat="47.26475" lon="-1.61006">
        <ele>6.199999</ele>
        <time>2014-02-16T13:15:47Z</time>
      </trkpt>
      <trkpt lat="47.26471" lon="-1.60988">
        <ele>6.4</ele>
        <time>2014-02-16T13:15:50Z</time>
      </trkpt>
      <trkpt lat="47.26468" lon="-1.60975">
        <ele>5.9</ele>
        <time>2014-02-16T13:15:52Z</time>
      </trkpt>
      <trkpt lat="47.26463" lon="-1.60962">
        <ele>4.5</ele>
        <time>2014-02-16T13:15:54Z</time>
      </trkpt>
      <trkpt lat="47.26456" lon="-1.60949">
        <ele>2</ele>
        <time>2014-02-16T13:15:56Z</time>
      </trkpt>
      <trkpt lat="47.2645" lon="-1.60938">
        <ele>0.899999</ele>
        <time>2014-02-16T13:15:58Z</time>
      </trkpt>
      <trkpt lat="47.26444" lon="-1.60928">
        <ele>0.699999</ele>
        <time>2014-02-16T13:16:00Z</time>
      </trkpt>
      <trkpt lat="47.26437" lon="-1.60918">
        <ele>2.099999</ele>
        <time>2014-02-16T13:16:02Z</time>
      </trkpt>
      <trkpt lat="47.26431" lon="-1.60908">
        <ele>3.299999</ele>
        <time>2014-02-16T13:16:04Z</time>
      </trkpt>
      <trkpt lat="47.26424" lon="-1.60897">
        <ele>5.199999</ele>
        <time>2014-02-16T13:16:06Z</time>
      </trkpt>
      <trkpt lat="47.26415" lon="-1.60884">
        <ele>6.4</ele>
        <time>2014-02-16T13:16:09Z</time>
      </trkpt>
      <trkpt lat="47.26408" lon="-1.60874">
        <ele>6.599999</ele>
        <time>2014-02-16T13:16:11Z</time>
      </trkpt>
      <trkpt lat="47.26402" lon="-1.60861">
        <ele>7.599999</ele>
        <time>2014-02-16T13:16:13Z</time>
      </trkpt>
      <trkpt lat="47.26398" lon="-1.60848">
        <ele>7.9</ele>
        <time>2014-02-16T13:16:15Z</time>
      </trkpt>
      <trkpt lat="47.26394" lon="-1.60835">
        <ele>8.699999</ele>
        <time>2014-02-16T13:16:17Z</time>
      </trkpt>
      <trkpt lat="47.2639" lon="-1.60819">
        <ele>8.699999</ele>
        <time>2014-02-16T13:16:19Z</time>
      </trkpt>
      <trkpt lat="47.26384" lon="-1.60807">
        <ele>7.9</ele>
        <time>2014-02-16T13:16:21Z</time>
      </trkpt>
      <trkpt lat="47.26374" lon="-1.60808">
        <ele>7.5</ele>
        <time>2014-02-16T13:16:24Z</time>
      </trkpt>
      <trkpt lat="47.26366" lon="-1.60814">
        <ele>6.199999</ele>
        <time>2014-02-16T13:16:26Z</time>
      </trkpt>
      <trkpt lat="47.26356" lon="-1.60822">
        <ele>4.8</ele>
        <time>2014-02-16T13:16:28Z</time>
      </trkpt>
      <trkpt lat="47.26348" lon="-1.60831">
        <ele>4.4</ele>
        <time>2014-02-16T13:16:30Z</time>
      </trkpt>
      <trkpt lat="47.26341" lon="-1.60843">
        <ele>4.599999</ele>
        <time>2014-02-16T13:16:33Z</time>
      </trkpt>
      <trkpt lat="47.26332" lon="-1.60855">
        <ele>4.599999</ele>
        <time>2014-02-16T13:16:36Z</time>
      </trkpt>
      <trkpt lat="47.26329" lon="-1.6084">
        <ele>5.199999</ele>
        <time>2014-02-16T13:16:45Z</time>
      </trkpt>
      <trkpt lat="47.2634" lon="-1.60809">
        <ele>6.599999</ele>
        <time>2014-02-16T13:16:50Z</time>
      </trkpt>
      <trkpt lat="47.26344" lon="-1.60794">
        <ele>9.699999</ele>
        <time>2014-02-16T13:16:52Z</time>
      </trkpt>
      <trkpt lat="47.26349" lon="-1.60781">
        <ele>11.5</ele>
        <time>2014-02-16T13:16:54Z</time>
      </trkpt>
      <trkpt lat="47.26354" lon="-1.60768">
        <ele>11.6</ele>
        <time>2014-02-16T13:16:56Z</time>
      </trkpt>
      <trkpt lat="47.26357" lon="-1.60752">
        <ele>10.8</ele>
        <time>2014-02-16T13:16:58Z</time>
      </trkpt>
      <trkpt lat="47.2636" lon="-1.60735">
        <ele>9.8</ele>
        <time>2014-02-16T13:17:00Z</time>
      </trkpt>
      <trkpt lat="47.26363" lon="-1.60718">
        <ele>10.199999</ele>
        <time>2014-02-16T13:17:02Z</time>
      </trkpt>
      <trkpt lat="47.26369" lon="-1.60703">
        <ele>10.399999</ele>
        <time>2014-02-16T13:17:05Z</time>
      </trkpt>
      <trkpt lat="47.26371" lon="-1.60687">
        <ele>10</ele>
        <time>2014-02-16T13:17:09Z</time>
      </trkpt>
      <trkpt lat="47.26366" lon="-1.60674">
        <ele>9.5</ele>
        <time>2014-02-16T13:17:13Z</time>
      </trkpt>
      <trkpt lat="47.2636" lon="-1.60665">
        <ele>9.199999</ele>
        <time>2014-02-16T13:17:17Z</time>
      </trkpt>
      <trkpt lat="47.26352" lon="-1.60657">
        <ele>9</ele>
        <time>2014-02-16T13:17:20Z</time>
      </trkpt>
      <trkpt lat="47.26341" lon="-1.60647">
        <ele>8.6</ele>
        <time>2014-02-16T13:17:23Z</time>
      </trkpt>
      <trkpt lat="47.26331" lon="-1.60636">
        <ele>8.3</ele>
        <time>2014-02-16T13:17:25Z</time>
      </trkpt>
      <trkpt lat="47.26324" lon="-1.60621">
        <ele>7.8</ele>
        <time>2014-02-16T13:17:28Z</time>
      </trkpt>
      <trkpt lat="47.2632" lon="-1.60608">
        <ele>7.5</ele>
        <time>2014-02-16T13:17:30Z</time>
      </trkpt>
      <trkpt lat="47.26318" lon="-1.6059">
        <ele>7.199999</ele>
        <time>2014-02-16T13:17:33Z</time>
      </trkpt>
      <trkpt lat="47.26317" lon="-1.60573">
        <ele>7</ele>
        <time>2014-02-16T13:17:36Z</time>
      </trkpt>
      <trkpt lat="47.26317" lon="-1.60555">
        <ele>6.699999</ele>
        <time>2014-02-16T13:17:39Z</time>
      </trkpt>
      <trkpt lat="47.26319" lon="-1.60536">
        <ele>6.699999</ele>
        <time>2014-02-16T13:17:42Z</time>
      </trkpt>
      <trkpt lat="47.2632" lon="-1.60523">
        <ele>6.8</ele>
        <time>2014-02-16T13:17:44Z</time>
      </trkpt>
      <trkpt lat="47.26323" lon="-1.60508">
        <ele>7.699999</ele>
        <time>2014-02-16T13:17:46Z</time>
      </trkpt>
      <trkpt lat="47.26327" lon="-1.60476">
        <ele>9.399999</ele>
        <time>2014-02-16T13:17:51Z</time>
      </trkpt>
      <trkpt lat="47.2633" lon="-1.60462">
        <ele>9.6</ele>
        <time>2014-02-16T13:17:53Z</time>
      </trkpt>
      <trkpt lat="47.26332" lon="-1.60446">
        <ele>9.6</ele>
        <time>2014-02-16T13:17:56Z</time>
      </trkpt>
      <trkpt lat="47.26333" lon="-1.60427">
        <ele>9.199999</ele>
        <time>2014-02-16T13:17:59Z</time>
      </trkpt>
      <trkpt lat="47.26334" lon="-1.60408">
        <ele>8.899999</ele>
        <time>2014-02-16T13:18:02Z</time>
      </trkpt>
      <trkpt lat="47.26336" lon="-1.60391">
        <ele>8.899999</ele>
        <time>2014-02-16T13:18:05Z</time>
      </trkpt>
      <trkpt lat="47.26338" lon="-1.60376">
        <ele>8.699999</ele>
        <time>2014-02-16T13:18:08Z</time>
      </trkpt>
      <trkpt lat="47.2634" lon="-1.60359">
        <ele>8.5</ele>
        <time>2014-02-16T13:18:11Z</time>
      </trkpt>
      <trkpt lat="47.26343" lon="-1.60341">
        <ele>8.1</ele>
        <time>2014-02-16T13:18:13Z</time>
      </trkpt>
      <trkpt lat="47.26345" lon="-1.60326">
        <ele>7.4</ele>
        <time>2014-02-16T13:18:15Z</time>
      </trkpt>
      <trkpt lat="47.26348" lon="-1.60309">
        <ele>6.699999</ele>
        <time>2014-02-16T13:18:17Z</time>
      </trkpt>
      <trkpt lat="47.26351" lon="-1.60295">
        <ele>6.599999</ele>
        <time>2014-02-16T13:18:19Z</time>
      </trkpt>
      <trkpt lat="47.26351" lon="-1.6028">
        <ele>5.8</ele>
        <time>2014-02-16T13:18:21Z</time>
      </trkpt>
      <trkpt lat="47.26352" lon="-1.60265">
        <ele>5.3</ele>
        <time>2014-02-16T13:18:23Z</time>
      </trkpt>
      <trkpt lat="47.26352" lon="-1.60249">
        <ele>4.199999</ele>
        <time>2014-02-16T13:18:25Z</time>
      </trkpt>
      <trkpt lat="47.26348" lon="-1.60234">
        <ele>2.299999</ele>
        <time>2014-02-16T13:18:27Z</time>
      </trkpt>
      <trkpt lat="47.26342" lon="-1.60221">
        <ele>1.799999</ele>
        <time>2014-02-16T13:18:29Z</time>
      </trkpt>
      <trkpt lat="47.26332" lon="-1.60208">
        <ele>1.5</ele>
        <time>2014-02-16T13:18:32Z</time>
      </trkpt>
      <trkpt lat="47.26324" lon="-1.60197">
        <ele>1</ele>
        <time>2014-02-16T13:18:34Z</time>
      </trkpt>
      <trkpt lat="47.26314" lon="-1.60185">
        <ele>1.1</ele>
        <time>2014-02-16T13:18:37Z</time>
      </trkpt>
      <trkpt lat="47.26308" lon="-1.60175">
        <ele>1.2</ele>
        <time>2014-02-16T13:18:39Z</time>
      </trkpt>
      <trkpt lat="47.26302" lon="-1.60162">
        <ele>1.1</ele>
        <time>2014-02-16T13:18:41Z</time>
      </trkpt>
      <trkpt lat="47.26296" lon="-1.6015">
        <ele>0.899999</ele>
        <time>2014-02-16T13:18:43Z</time>
      </trkpt>
      <trkpt lat="47.2629" lon="-1.60139">
        <ele>0.8</ele>
        <time>2014-02-16T13:18:45Z</time>
      </trkpt>
      <trkpt lat="47.26284" lon="-1.60125">
        <ele>-0.899999</ele>
        <time>2014-02-16T13:18:47Z</time>
      </trkpt>
      <trkpt lat="47.26268" lon="-1.60097">
        <ele>-2.5</ele>
        <time>2014-02-16T13:18:51Z</time>
      </trkpt>
      <trkpt lat="47.26257" lon="-1.60087">
        <ele>0.8</ele>
        <time>2014-02-16T13:18:54Z</time>
      </trkpt>
      <trkpt lat="47.26246" lon="-1.60087">
        <ele>2.5</ele>
        <time>2014-02-16T13:18:57Z</time>
      </trkpt>
      <trkpt lat="47.26236" lon="-1.60089">
        <ele>3.7</ele>
        <time>2014-02-16T13:19:00Z</time>
      </trkpt>
      <trkpt lat="47.26226" lon="-1.60094">
        <ele>4.8</ele>
        <time>2014-02-16T13:19:03Z</time>
      </trkpt>
      <trkpt lat="47.26216" lon="-1.60097">
        <ele>5.099999</ele>
        <time>2014-02-16T13:19:06Z</time>
      </trkpt>
      <trkpt lat="47.26207" lon="-1.6009">
        <ele>5.099999</ele>
        <time>2014-02-16T13:19:09Z</time>
      </trkpt>
      <trkpt lat="47.26202" lon="-1.60079">
        <ele>5.4</ele>
        <time>2014-02-16T13:19:12Z</time>
      </trkpt>
      <trkpt lat="47.26203" lon="-1.60059">
        <ele>5.4</ele>
        <time>2014-02-16T13:19:15Z</time>
      </trkpt>
      <trkpt lat="47.26205" lon="-1.60042">
        <ele>5.4</ele>
        <time>2014-02-16T13:19:18Z</time>
      </trkpt>
      <trkpt lat="47.26209" lon="-1.60026">
        <ele>4.699999</ele>
        <time>2014-02-16T13:19:21Z</time>
      </trkpt>
      <trkpt lat="47.26215" lon="-1.60012">
        <ele>4.4</ele>
        <time>2014-02-16T13:19:24Z</time>
      </trkpt>
      <trkpt lat="47.26222" lon="-1.59998">
        <ele>4.4</ele>
        <time>2014-02-16T13:19:27Z</time>
      </trkpt>
      <trkpt lat="47.26228" lon="-1.59983">
        <ele>1.899999</ele>
        <time>2014-02-16T13:19:30Z</time>
      </trkpt>
      <trkpt lat="47.26237" lon="-1.5997">
        <ele>0.3</ele>
        <time>2014-02-16T13:19:33Z</time>
      </trkpt>
      <trkpt lat="47.26243" lon="-1.59958">
        <ele>0.5</ele>
        <time>2014-02-16T13:19:35Z</time>
      </trkpt>
      <trkpt lat="47.26249" lon="-1.59946">
        <ele>2.9</ele>
        <time>2014-02-16T13:19:37Z</time>
      </trkpt>
      <trkpt lat="47.26253" lon="-1.59933">
        <ele>3.2</ele>
        <time>2014-02-16T13:19:39Z</time>
      </trkpt>
      <trkpt lat="47.26256" lon="-1.59915">
        <ele>3.5</ele>
        <time>2014-02-16T13:19:42Z</time>
      </trkpt>
      <trkpt lat="47.26257" lon="-1.59898">
        <ele>3.7</ele>
        <time>2014-02-16T13:19:45Z</time>
      </trkpt>
      <trkpt lat="47.2626" lon="-1.59883">
        <ele>4.3</ele>
        <time>2014-02-16T13:19:48Z</time>
      </trkpt>
      <trkpt lat="47.2626" lon="-1.59853">
        <ele>4.3</ele>
        <time>2014-02-16T13:19:52Z</time>
      </trkpt>
      <trkpt lat="47.26259" lon="-1.59838">
        <ele>4</ele>
        <time>2014-02-16T13:19:54Z</time>
      </trkpt>
      <trkpt lat="47.26256" lon="-1.59819">
        <ele>1.899999</ele>
        <time>2014-02-16T13:19:57Z</time>
      </trkpt>
      <trkpt lat="47.26254" lon="-1.59805">
        <ele>1.7</ele>
        <time>2014-02-16T13:20:00Z</time>
      </trkpt>
      <trkpt lat="47.26251" lon="-1.5979">
        <ele>1.7</ele>
        <time>2014-02-16T13:20:04Z</time>
      </trkpt>
      <trkpt lat="47.26244" lon="-1.59776">
        <ele>2</ele>
        <time>2014-02-16T13:20:08Z</time>
      </trkpt>
      <trkpt lat="47.26236" lon="-1.59765">
        <ele>2.299999</ele>
        <time>2014-02-16T13:20:10Z</time>
      </trkpt>
      <trkpt lat="47.26229" lon="-1.59755">
        <ele>2.5</ele>
        <time>2014-02-16T13:20:12Z</time>
      </trkpt>
      <trkpt lat="47.26219" lon="-1.59744">
        <ele>2.9</ele>
        <time>2014-02-16T13:20:15Z</time>
      </trkpt>
      <trkpt lat="47.2621" lon="-1.59734">
        <ele>3.2</ele>
        <time>2014-02-16T13:20:18Z</time>
      </trkpt>
      <trkpt lat="47.262" lon="-1.59728">
        <ele>3.599999</ele>
        <time>2014-02-16T13:20:21Z</time>
      </trkpt>
      <trkpt lat="47.26187" lon="-1.59724">
        <ele>6.5</ele>
        <time>2014-02-16T13:20:24Z</time>
      </trkpt>
      <trkpt lat="47.26177" lon="-1.59723">
        <ele>7.099999</ele>
        <time>2014-02-16T13:20:26Z</time>
      </trkpt>
      <trkpt lat="47.26166" lon="-1.59722">
        <ele>6.4</ele>
        <time>2014-02-16T13:20:29Z</time>
      </trkpt>
      <trkpt lat="47.26157" lon="-1.5972">
        <ele>5.4</ele>
        <time>2014-02-16T13:20:31Z</time>
      </trkpt>
      <trkpt lat="47.26144" lon="-1.59717">
        <ele>4.199999</ele>
        <time>2014-02-16T13:20:34Z</time>
      </trkpt>
      <trkpt lat="47.26134" lon="-1.59715">
        <ele>4</ele>
        <time>2014-02-16T13:20:36Z</time>
      </trkpt>
      <trkpt lat="47.26122" lon="-1.59711">
        <ele>4.3</ele>
        <time>2014-02-16T13:20:39Z</time>
      </trkpt>
      <trkpt lat="47.26113" lon="-1.59708">
        <ele>4.099999</ele>
        <time>2014-02-16T13:20:41Z</time>
      </trkpt>
      <trkpt lat="47.26103" lon="-1.59706">
        <ele>3.7</ele>
        <time>2014-02-16T13:20:43Z</time>
      </trkpt>
      <trkpt lat="47.26092" lon="-1.59704">
        <ele>4</ele>
        <time>2014-02-16T13:20:46Z</time>
      </trkpt>
      <trkpt lat="47.26081" lon="-1.59701">
        <ele>4</ele>
        <time>2014-02-16T13:20:49Z</time>
      </trkpt>
      <trkpt lat="47.26058" lon="-1.59687">
        <ele>3.799999</ele>
        <time>2014-02-16T13:20:55Z</time>
      </trkpt>
      <trkpt lat="47.26049" lon="-1.59679">
        <ele>3.799999</ele>
        <time>2014-02-16T13:20:57Z</time>
      </trkpt>
      <trkpt lat="47.26041" lon="-1.5967">
        <ele>5.4</ele>
        <time>2014-02-16T13:20:59Z</time>
      </trkpt>
      <trkpt lat="47.26032" lon="-1.5966">
        <ele>7.599999</ele>
        <time>2014-02-16T13:21:02Z</time>
      </trkpt>
      <trkpt lat="47.26024" lon="-1.59652">
        <ele>7.599999</ele>
        <time>2014-02-16T13:21:04Z</time>
      </trkpt>
      <trkpt lat="47.26017" lon="-1.59644">
        <ele>7.8</ele>
        <time>2014-02-16T13:21:06Z</time>
      </trkpt>
      <trkpt lat="47.26007" lon="-1.59634">
        <ele>8.3</ele>
        <time>2014-02-16T13:21:09Z</time>
      </trkpt>
      <trkpt lat="47.25996" lon="-1.59621">
        <ele>8.399999</ele>
        <time>2014-02-16T13:21:12Z</time>
      </trkpt>
      <trkpt lat="47.25989" lon="-1.59605">
        <ele>8.5</ele>
        <time>2014-02-16T13:21:15Z</time>
      </trkpt>
      <trkpt lat="47.25983" lon="-1.59591">
        <ele>7.8</ele>
        <time>2014-02-16T13:21:17Z</time>
      </trkpt>
      <trkpt lat="47.2598" lon="-1.59578">
        <ele>5.4</ele>
        <time>2014-02-16T13:21:19Z</time>
      </trkpt>
      <trkpt lat="47.25977" lon="-1.59563">
        <ele>3</ele>
        <time>2014-02-16T13:21:21Z</time>
      </trkpt>
      <trkpt lat="47.25977" lon="-1.59548">
        <ele>2.599999</ele>
        <time>2014-02-16T13:21:24Z</time>
      </trkpt>
      <trkpt lat="47.25978" lon="-1.59532">
        <ele>2.2</ele>
        <time>2014-02-16T13:21:27Z</time>
      </trkpt>
      <trkpt lat="47.25979" lon="-1.59515">
        <ele>2</ele>
        <time>2014-02-16T13:21:30Z</time>
      </trkpt>
      <trkpt lat="47.2598" lon="-1.595">
        <ele>2.099999</ele>
        <time>2014-02-16T13:21:33Z</time>
      </trkpt>
      <trkpt lat="47.25978" lon="-1.59484">
        <ele>2.2</ele>
        <time>2014-02-16T13:21:36Z</time>
      </trkpt>
      <trkpt lat="47.25974" lon="-1.59468">
        <ele>2.2</ele>
        <time>2014-02-16T13:21:39Z</time>
      </trkpt>
      <trkpt lat="47.25973" lon="-1.59451">
        <ele>2</ele>
        <time>2014-02-16T13:21:42Z</time>
      </trkpt>
      <trkpt lat="47.25975" lon="-1.59435">
        <ele>1.899999</ele>
        <time>2014-02-16T13:21:45Z</time>
      </trkpt>
      <trkpt lat="47.25983" lon="-1.59417">
        <ele>1.2</ele>
        <time>2014-02-16T13:21:48Z</time>
      </trkpt>
      <trkpt lat="47.25989" lon="-1.59405">
        <ele>0.699999</ele>
        <time>2014-02-16T13:21:50Z</time>
      </trkpt>
      <trkpt lat="47.26002" lon="-1.59381">
        <ele>0.5</ele>
        <time>2014-02-16T13:21:55Z</time>
      </trkpt>
      <trkpt lat="47.26008" lon="-1.5937">
        <ele>1.1</ele>
        <time>2014-02-16T13:21:57Z</time>
      </trkpt>
      <trkpt lat="47.26013" lon="-1.59357">
        <ele>1.299999</ele>
        <time>2014-02-16T13:22:00Z</time>
      </trkpt>
      <trkpt lat="47.26019" lon="-1.59343">
        <ele>1.299999</ele>
        <time>2014-02-16T13:22:03Z</time>
      </trkpt>
      <trkpt lat="47.26025" lon="-1.59328">
        <ele>1.2</ele>
        <time>2014-02-16T13:22:06Z</time>
      </trkpt>
      <trkpt lat="47.26029" lon="-1.59313">
        <ele>1.2</ele>
        <time>2014-02-16T13:22:09Z</time>
      </trkpt>
      <trkpt lat="47.26029" lon="-1.59295">
        <ele>1.299999</ele>
        <time>2014-02-16T13:22:12Z</time>
      </trkpt>
      <trkpt lat="47.26027" lon="-1.5928">
        <ele>1.2</ele>
        <time>2014-02-16T13:22:15Z</time>
      </trkpt>
      <trkpt lat="47.26025" lon="-1.59263">
        <ele>1</ele>
        <time>2014-02-16T13:22:18Z</time>
      </trkpt>
      <trkpt lat="47.26025" lon="-1.59245">
        <ele>0.8</ele>
        <time>2014-02-16T13:22:21Z</time>
      </trkpt>
      <trkpt lat="47.26021" lon="-1.59227">
        <ele>0.5</ele>
        <time>2014-02-16T13:22:24Z</time>
      </trkpt>
      <trkpt lat="47.26013" lon="-1.59219">
        <ele>0.5</ele>
        <time>2014-02-16T13:22:27Z</time>
      </trkpt>
      <trkpt lat="47.26003" lon="-1.59215">
        <ele>1.1</ele>
        <time>2014-02-16T13:22:29Z</time>
      </trkpt>
      <trkpt lat="47.25992" lon="-1.5921">
        <ele>1.399999</ele>
        <time>2014-02-16T13:22:31Z</time>
      </trkpt>
      <trkpt lat="47.25978" lon="-1.59204">
        <ele>9.7</ele>
        <time>2014-02-16T13:22:33Z</time>
      </trkpt>
      <trkpt lat="47.25964" lon="-1.59196">
        <ele>-0.699999</ele>
        <time>2014-02-16T13:22:35Z</time>
      </trkpt>
      <trkpt lat="47.25951" lon="-1.5919">
        <ele>-0.1</ele>
        <time>2014-02-16T13:22:37Z</time>
      </trkpt>
      <trkpt lat="47.25941" lon="-1.59189">
        <ele>0.4</ele>
        <time>2014-02-16T13:22:39Z</time>
      </trkpt>
      <trkpt lat="47.25931" lon="-1.5919">
        <ele>1.1</ele>
        <time>2014-02-16T13:22:42Z</time>
      </trkpt>
      <trkpt lat="47.25921" lon="-1.59199">
        <ele>2.299999</ele>
        <time>2014-02-16T13:22:45Z</time>
      </trkpt>
      <trkpt lat="47.25914" lon="-1.59208">
        <ele>2.2</ele>
        <time>2014-02-16T13:22:47Z</time>
      </trkpt>
      <trkpt lat="47.25906" lon="-1.59223">
        <ele>1.899999</ele>
        <time>2014-02-16T13:22:49Z</time>
      </trkpt>
      <trkpt lat="47.259" lon="-1.5924">
        <ele>1.399999</ele>
        <time>2014-02-16T13:22:52Z</time>
      </trkpt>
      <trkpt lat="47.25885" lon="-1.59262">
        <ele>0.8</ele>
        <time>2014-02-16T13:22:58Z</time>
      </trkpt>
      <trkpt lat="47.25875" lon="-1.59267">
        <ele>0.5</ele>
        <time>2014-02-16T13:23:01Z</time>
      </trkpt>
      <trkpt lat="47.25863" lon="-1.59268">
        <ele>-1.2</ele>
        <time>2014-02-16T13:23:04Z</time>
      </trkpt>
      <trkpt lat="47.25851" lon="-1.59266">
        <ele>-2.599999</ele>
        <time>2014-02-16T13:23:07Z</time>
      </trkpt>
      <trkpt lat="47.25843" lon="-1.59261">
        <ele>-4.099999</ele>
        <time>2014-02-16T13:23:09Z</time>
      </trkpt>
      <trkpt lat="47.25834" lon="-1.59255">
        <ele>-3.9</ele>
        <time>2014-02-16T13:23:11Z</time>
      </trkpt>
      <trkpt lat="47.25826" lon="-1.59244">
        <ele>-4</ele>
        <time>2014-02-16T13:23:14Z</time>
      </trkpt>
      <trkpt lat="47.25818" lon="-1.59233">
        <ele>-3.9</ele>
        <time>2014-02-16T13:23:17Z</time>
      </trkpt>
      <trkpt lat="47.25811" lon="-1.59223">
        <ele>-3.599999</ele>
        <time>2014-02-16T13:23:20Z</time>
      </trkpt>
      <trkpt lat="47.25805" lon="-1.5921">
        <ele>-2.9</ele>
        <time>2014-02-16T13:23:23Z</time>
      </trkpt>
      <trkpt lat="47.25798" lon="-1.59196">
        <ele>-1.799999</ele>
        <time>2014-02-16T13:23:27Z</time>
      </trkpt>
      <trkpt lat="47.2579" lon="-1.59184">
        <ele>-0.6</ele>
        <time>2014-02-16T13:23:30Z</time>
      </trkpt>
      <trkpt lat="47.25783" lon="-1.59172">
        <ele>0.6</ele>
        <time>2014-02-16T13:23:33Z</time>
      </trkpt>
      <trkpt lat="47.25774" lon="-1.5916">
        <ele>2.2</ele>
        <time>2014-02-16T13:23:37Z</time>
      </trkpt>
      <trkpt lat="47.25766" lon="-1.59151">
        <ele>3</ele>
        <time>2014-02-16T13:23:40Z</time>
      </trkpt>
      <trkpt lat="47.25756" lon="-1.59142">
        <ele>3.599999</ele>
        <time>2014-02-16T13:23:43Z</time>
      </trkpt>
      <trkpt lat="47.25746" lon="-1.59135">
        <ele>4.099999</ele>
        <time>2014-02-16T13:23:47Z</time>
      </trkpt>
      <trkpt lat="47.25735" lon="-1.5913">
        <ele>4.099999</ele>
        <time>2014-02-16T13:23:51Z</time>
      </trkpt>
      <trkpt lat="47.25724" lon="-1.59125">
        <ele>4.5</ele>
        <time>2014-02-16T13:23:56Z</time>
      </trkpt>
      <trkpt lat="47.25704" lon="-1.59119">
        <ele>5.4</ele>
        <time>2014-02-16T13:24:10Z</time>
      </trkpt>
      <trkpt lat="47.25696" lon="-1.59125">
        <ele>5.599999</ele>
        <time>2014-02-16T13:24:25Z</time>
      </trkpt>
      <trkpt lat="47.25689" lon="-1.59134">
        <ele>3.7</ele>
        <time>2014-02-16T13:24:54Z</time>
      </trkpt>
      <trkpt lat="47.2568" lon="-1.5914">
        <ele>5.4</ele>
        <time>2014-02-16T13:25:09Z</time>
      </trkpt>
      <trkpt lat="47.25665" lon="-1.59157">
        <ele>9.1</ele>
        <time>2014-02-16T13:25:36Z</time>
      </trkpt>
      <trkpt lat="47.25656" lon="-1.59164">
        <ele>10.899999</ele>
        <time>2014-02-16T13:25:46Z</time>
      </trkpt>
      <trkpt lat="47.25648" lon="-1.5917">
        <ele>11.8</ele>
        <time>2014-02-16T13:25:55Z</time>
      </trkpt>
      <trkpt lat="47.25649" lon="-1.59183">
        <ele>14.1</ele>
        <time>2014-02-16T13:26:18Z</time>
      </trkpt>
      <trkpt lat="47.25659" lon="-1.59208">
        <ele>15.6</ele>
        <time>2014-02-16T13:26:29Z</time>
      </trkpt>
      <trkpt lat="47.25664" lon="-1.5922">
        <ele>15.8</ele>
        <time>2014-02-16T13:26:32Z</time>
      </trkpt>
      <trkpt lat="47.25669" lon="-1.59234">
        <ele>16.5</ele>
        <time>2014-02-16T13:26:36Z</time>
      </trkpt>
      <trkpt lat="47.25675" lon="-1.59248">
        <ele>17.299999</ele>
        <time>2014-02-16T13:26:39Z</time>
      </trkpt>
      <trkpt lat="47.25681" lon="-1.59258">
        <ele>17.799999</ele>
        <time>2014-02-16T13:26:41Z</time>
      </trkpt>
      <trkpt lat="47.25689" lon="-1.59273">
        <ele>18.299999</ele>
        <time>2014-02-16T13:26:44Z</time>
      </trkpt>
      <trkpt lat="47.25697" lon="-1.59285">
        <ele>18.7</ele>
        <time>2014-02-16T13:26:47Z</time>
      </trkpt>
      <trkpt lat="47.25706" lon="-1.59298">
        <ele>19</ele>
        <time>2014-02-16T13:26:51Z</time>
      </trkpt>
      <trkpt lat="47.25713" lon="-1.59309">
        <ele>19</ele>
        <time>2014-02-16T13:26:54Z</time>
      </trkpt>
      <trkpt lat="47.25719" lon="-1.5932">
        <ele>19</ele>
        <time>2014-02-16T13:26:57Z</time>
      </trkpt>
      <trkpt lat="47.25725" lon="-1.59333">
        <ele>19.2</ele>
        <time>2014-02-16T13:27:01Z</time>
      </trkpt>
      <trkpt lat="47.25731" lon="-1.59348">
        <ele>18.799999</ele>
        <time>2014-02-16T13:27:05Z</time>
      </trkpt>
      <trkpt lat="47.25728" lon="-1.59368">
        <ele>18.6</ele>
        <time>2014-02-16T13:27:08Z</time>
      </trkpt>
      <trkpt lat="47.25721" lon="-1.59379">
        <ele>18.799999</ele>
        <time>2014-02-16T13:27:11Z</time>
      </trkpt>
      <trkpt lat="47.25711" lon="-1.59389">
        <ele>19</ele>
        <time>2014-02-16T13:27:14Z</time>
      </trkpt>
      <trkpt lat="47.25701" lon="-1.59397">
        <ele>19.299999</ele>
        <time>2014-02-16T13:27:17Z</time>
      </trkpt>
      <trkpt lat="47.25692" lon="-1.59403">
        <ele>19.7</ele>
        <time>2014-02-16T13:27:20Z</time>
      </trkpt>
      <trkpt lat="47.25674" lon="-1.59419">
        <ele>20.7</ele>
        <time>2014-02-16T13:27:27Z</time>
      </trkpt>
      <trkpt lat="47.25664" lon="-1.59427">
        <ele>21.2</ele>
        <time>2014-02-16T13:27:30Z</time>
      </trkpt>
      <trkpt lat="47.25654" lon="-1.59437">
        <ele>21.899999</ele>
        <time>2014-02-16T13:27:34Z</time>
      </trkpt>
      <trkpt lat="47.25647" lon="-1.59444">
        <ele>22.399999</ele>
        <time>2014-02-16T13:27:37Z</time>
      </trkpt>
      <trkpt lat="47.25636" lon="-1.59453">
        <ele>23.1</ele>
        <time>2014-02-16T13:27:41Z</time>
      </trkpt>
      <trkpt lat="47.25629" lon="-1.59461">
        <ele>23.6</ele>
        <time>2014-02-16T13:27:44Z</time>
      </trkpt>
      <trkpt lat="47.25621" lon="-1.59468">
        <ele>24</ele>
        <time>2014-02-16T13:27:47Z</time>
      </trkpt>
      <trkpt lat="47.25612" lon="-1.59475">
        <ele>24.5</ele>
        <time>2014-02-16T13:27:50Z</time>
      </trkpt>
      <trkpt lat="47.25602" lon="-1.59483">
        <ele>25.2</ele>
        <time>2014-02-16T13:27:54Z</time>
      </trkpt>
      <trkpt lat="47.25595" lon="-1.59492">
        <ele>25.799999</ele>
        <time>2014-02-16T13:27:57Z</time>
      </trkpt>
      <trkpt lat="47.25585" lon="-1.59502">
        <ele>26.6</ele>
        <time>2014-02-16T13:28:01Z</time>
      </trkpt>
      <trkpt lat="47.25577" lon="-1.5951">
        <ele>27.2</ele>
        <time>2014-02-16T13:28:04Z</time>
      </trkpt>
      <trkpt lat="47.25569" lon="-1.59517">
        <ele>27.6</ele>
        <time>2014-02-16T13:28:07Z</time>
      </trkpt>
      <trkpt lat="47.25559" lon="-1.59525">
        <ele>28</ele>
        <time>2014-02-16T13:28:10Z</time>
      </trkpt>
      <trkpt lat="47.25551" lon="-1.59531">
        <ele>28.399999</ele>
        <time>2014-02-16T13:28:13Z</time>
      </trkpt>
      <trkpt lat="47.25543" lon="-1.59539">
        <ele>28.899999</ele>
        <time>2014-02-16T13:28:16Z</time>
      </trkpt>
      <trkpt lat="47.25532" lon="-1.59548">
        <ele>29.7</ele>
        <time>2014-02-16T13:28:20Z</time>
      </trkpt>
      <trkpt lat="47.25524" lon="-1.59556">
        <ele>30.399999</ele>
        <time>2014-02-16T13:28:23Z</time>
      </trkpt>
      <trkpt lat="47.25507" lon="-1.59569">
        <ele>32.099998</ele>
        <time>2014-02-16T13:28:29Z</time>
      </trkpt>
      <trkpt lat="47.25497" lon="-1.59578">
        <ele>32.799999</ele>
        <time>2014-02-16T13:28:32Z</time>
      </trkpt>
      <trkpt lat="47.25487" lon="-1.59588">
        <ele>33.299999</ele>
        <time>2014-02-16T13:28:35Z</time>
      </trkpt>
      <trkpt lat="47.2548" lon="-1.59598">
        <ele>33.7</ele>
        <time>2014-02-16T13:28:38Z</time>
      </trkpt>
      <trkpt lat="47.25473" lon="-1.59607">
        <ele>34.099998</ele>
        <time>2014-02-16T13:28:41Z</time>
      </trkpt>
      <trkpt lat="47.25464" lon="-1.59616">
        <ele>34.400001</ele>
        <time>2014-02-16T13:28:44Z</time>
      </trkpt>
      <trkpt lat="47.25456" lon="-1.59624">
        <ele>34.7</ele>
        <time>2014-02-16T13:28:47Z</time>
      </trkpt>
      <trkpt lat="47.25448" lon="-1.59632">
        <ele>35</ele>
        <time>2014-02-16T13:28:50Z</time>
      </trkpt>
      <trkpt lat="47.2544" lon="-1.5964">
        <ele>35.099998</ele>
        <time>2014-02-16T13:28:53Z</time>
      </trkpt>
      <trkpt lat="47.25432" lon="-1.59648">
        <ele>35.400001</ele>
        <time>2014-02-16T13:28:56Z</time>
      </trkpt>
      <trkpt lat="47.25425" lon="-1.59656">
        <ele>35.7</ele>
        <time>2014-02-16T13:28:59Z</time>
      </trkpt>
      <trkpt lat="47.25415" lon="-1.59665">
        <ele>35.900001</ele>
        <time>2014-02-16T13:29:02Z</time>
      </trkpt>
      <trkpt lat="47.25408" lon="-1.59676">
        <ele>36.099998</ele>
        <time>2014-02-16T13:29:05Z</time>
      </trkpt>
      <trkpt lat="47.25405" lon="-1.59692">
        <ele>36.2</ele>
        <time>2014-02-16T13:29:08Z</time>
      </trkpt>
      <trkpt lat="47.25396" lon="-1.59705">
        <ele>36.599998</ele>
        <time>2014-02-16T13:29:12Z</time>
      </trkpt>
      <trkpt lat="47.25385" lon="-1.5971">
        <ele>36.7</ele>
        <time>2014-02-16T13:29:15Z</time>
      </trkpt>
      <trkpt lat="47.25375" lon="-1.59713">
        <ele>36.900001</ele>
        <time>2014-02-16T13:29:18Z</time>
      </trkpt>
      <trkpt lat="47.25365" lon="-1.59716">
        <ele>37.099998</ele>
        <time>2014-02-16T13:29:21Z</time>
      </trkpt>
      <trkpt lat="47.25355" lon="-1.5972">
        <ele>37.299999</ele>
        <time>2014-02-16T13:29:24Z</time>
      </trkpt>
      <trkpt lat="47.25333" lon="-1.59727">
        <ele>38.799999</ele>
        <time>2014-02-16T13:29:30Z</time>
      </trkpt>
      <trkpt lat="47.25322" lon="-1.59734">
        <ele>38.900001</ele>
        <time>2014-02-16T13:29:33Z</time>
      </trkpt>
      <trkpt lat="47.25313" lon="-1.5974">
        <ele>39.099998</ele>
        <time>2014-02-16T13:29:36Z</time>
      </trkpt>
      <trkpt lat="47.25301" lon="-1.59745">
        <ele>39.2</ele>
        <time>2014-02-16T13:29:39Z</time>
      </trkpt>
      <trkpt lat="47.25291" lon="-1.59752">
        <ele>40.299999</ele>
        <time>2014-02-16T13:29:42Z</time>
      </trkpt>
      <trkpt lat="47.25281" lon="-1.59759">
        <ele>40.299999</ele>
        <time>2014-02-16T13:29:45Z</time>
      </trkpt>
      <trkpt lat="47.25271" lon="-1.59764">
        <ele>40.2</ele>
        <time>2014-02-16T13:29:48Z</time>
      </trkpt>
      <trkpt lat="47.25262" lon="-1.59769">
        <ele>40.2</ele>
        <time>2014-02-16T13:29:51Z</time>
      </trkpt>
      <trkpt lat="47.2525" lon="-1.59775">
        <ele>40.2</ele>
        <time>2014-02-16T13:29:54Z</time>
      </trkpt>
      <trkpt lat="47.25239" lon="-1.59782">
        <ele>40</ele>
        <time>2014-02-16T13:29:57Z</time>
      </trkpt>
      <trkpt lat="47.25228" lon="-1.5979">
        <ele>39.299999</ele>
        <time>2014-02-16T13:30:00Z</time>
      </trkpt>
      <trkpt lat="47.25217" lon="-1.59796">
        <ele>39.599998</ele>
        <time>2014-02-16T13:30:03Z</time>
      </trkpt>
      <trkpt lat="47.25205" lon="-1.59803">
        <ele>40.099998</ele>
        <time>2014-02-16T13:30:06Z</time>
      </trkpt>
      <trkpt lat="47.25192" lon="-1.59809">
        <ele>40.299999</ele>
        <time>2014-02-16T13:30:09Z</time>
      </trkpt>
      <trkpt lat="47.2518" lon="-1.59816">
        <ele>40.299999</ele>
        <time>2014-02-16T13:30:12Z</time>
      </trkpt>
      <trkpt lat="47.25168" lon="-1.59822">
        <ele>40</ele>
        <time>2014-02-16T13:30:15Z</time>
      </trkpt>
      <trkpt lat="47.25158" lon="-1.59828">
        <ele>40.2</ele>
        <time>2014-02-16T13:30:18Z</time>
      </trkpt>
      <trkpt lat="47.25147" lon="-1.59835">
        <ele>41</ele>
        <time>2014-02-16T13:30:21Z</time>
      </trkpt>
      <trkpt lat="47.25135" lon="-1.59842">
        <ele>42.099998</ele>
        <time>2014-02-16T13:30:24Z</time>
      </trkpt>
      <trkpt lat="47.25127" lon="-1.59846">
        <ele>42.299999</ele>
        <time>2014-02-16T13:30:26Z</time>
      </trkpt>
      <trkpt lat="47.25106" lon="-1.59854">
        <ele>43</ele>
        <time>2014-02-16T13:30:31Z</time>
      </trkpt>
      <trkpt lat="47.25093" lon="-1.59859">
        <ele>41.900001</ele>
        <time>2014-02-16T13:30:34Z</time>
      </trkpt>
      <trkpt lat="47.25082" lon="-1.59864">
        <ele>41.799999</ele>
        <time>2014-02-16T13:30:37Z</time>
      </trkpt>
      <trkpt lat="47.25072" lon="-1.59869">
        <ele>42.299999</ele>
        <time>2014-02-16T13:30:40Z</time>
      </trkpt>
      <trkpt lat="47.2506" lon="-1.59877">
        <ele>42.099998</ele>
        <time>2014-02-16T13:30:43Z</time>
      </trkpt>
      <trkpt lat="47.25048" lon="-1.59885">
        <ele>42.299999</ele>
        <time>2014-02-16T13:30:46Z</time>
      </trkpt>
      <trkpt lat="47.2504" lon="-1.59893">
        <ele>42.799999</ele>
        <time>2014-02-16T13:30:48Z</time>
      </trkpt>
      <trkpt lat="47.25033" lon="-1.59902">
        <ele>43.099998</ele>
        <time>2014-02-16T13:30:50Z</time>
      </trkpt>
      <trkpt lat="47.25026" lon="-1.59911">
        <ele>43</ele>
        <time>2014-02-16T13:30:53Z</time>
      </trkpt>
      <trkpt lat="47.25015" lon="-1.59911">
        <ele>42.900001</ele>
        <time>2014-02-16T13:30:56Z</time>
      </trkpt>
      <trkpt lat="47.25005" lon="-1.59917">
        <ele>42.900001</ele>
        <time>2014-02-16T13:30:59Z</time>
      </trkpt>
      <trkpt lat="47.24995" lon="-1.59928">
        <ele>44</ele>
        <time>2014-02-16T13:31:02Z</time>
      </trkpt>
      <trkpt lat="47.24986" lon="-1.5994">
        <ele>45.599998</ele>
        <time>2014-02-16T13:31:05Z</time>
      </trkpt>
      <trkpt lat="47.24977" lon="-1.59954">
        <ele>45.900001</ele>
        <time>2014-02-16T13:31:08Z</time>
      </trkpt>
      <trkpt lat="47.24969" lon="-1.59963">
        <ele>44.5</ele>
        <time>2014-02-16T13:31:10Z</time>
      </trkpt>
      <trkpt lat="47.24962" lon="-1.59972">
        <ele>44.099998</ele>
        <time>2014-02-16T13:31:12Z</time>
      </trkpt>
      <trkpt lat="47.24955" lon="-1.59981">
        <ele>43.599998</ele>
        <time>2014-02-16T13:31:14Z</time>
      </trkpt>
      <trkpt lat="47.24946" lon="-1.59993">
        <ele>43.599998</ele>
        <time>2014-02-16T13:31:17Z</time>
      </trkpt>
      <trkpt lat="47.24937" lon="-1.60006">
        <ele>43.599998</ele>
        <time>2014-02-16T13:31:20Z</time>
      </trkpt>
      <trkpt lat="47.24928" lon="-1.60018">
        <ele>43.799999</ele>
        <time>2014-02-16T13:31:23Z</time>
      </trkpt>
      <trkpt lat="47.2492" lon="-1.60031">
        <ele>44.2</ele>
        <time>2014-02-16T13:31:26Z</time>
      </trkpt>
      <trkpt lat="47.24913" lon="-1.60041">
        <ele>44.299999</ele>
        <time>2014-02-16T13:31:29Z</time>
      </trkpt>
      <trkpt lat="47.249" lon="-1.60064">
        <ele>44.400001</ele>
        <time>2014-02-16T13:31:35Z</time>
      </trkpt>
      <trkpt lat="47.24891" lon="-1.60073">
        <ele>44.400001</ele>
        <time>2014-02-16T13:31:38Z</time>
      </trkpt>
      <trkpt lat="47.24881" lon="-1.60081">
        <ele>44.5</ele>
        <time>2014-02-16T13:31:41Z</time>
      </trkpt>
      <trkpt lat="47.24872" lon="-1.60091">
        <ele>44.400001</ele>
        <time>2014-02-16T13:31:44Z</time>
      </trkpt>
      <trkpt lat="47.24864" lon="-1.60102">
        <ele>44.400001</ele>
        <time>2014-02-16T13:31:47Z</time>
      </trkpt>
      <trkpt lat="47.24857" lon="-1.60115">
        <ele>44.299999</ele>
        <time>2014-02-16T13:31:50Z</time>
      </trkpt>
      <trkpt lat="47.24848" lon="-1.60128">
        <ele>44.400001</ele>
        <time>2014-02-16T13:31:53Z</time>
      </trkpt>
      <trkpt lat="47.24841" lon="-1.60138">
        <ele>44.400001</ele>
        <time>2014-02-16T13:31:56Z</time>
      </trkpt>
      <trkpt lat="47.24833" lon="-1.6015">
        <ele>44.400001</ele>
        <time>2014-02-16T13:31:59Z</time>
      </trkpt>
      <trkpt lat="47.24824" lon="-1.60158">
        <ele>44.400001</ele>
        <time>2014-02-16T13:32:02Z</time>
      </trkpt>
      <trkpt lat="47.24815" lon="-1.60169">
        <ele>44.5</ele>
        <time>2014-02-16T13:32:05Z</time>
      </trkpt>
      <trkpt lat="47.24807" lon="-1.60182">
        <ele>44.7</ele>
        <time>2014-02-16T13:32:08Z</time>
      </trkpt>
      <trkpt lat="47.24799" lon="-1.60194">
        <ele>44.7</ele>
        <time>2014-02-16T13:32:11Z</time>
      </trkpt>
      <trkpt lat="47.24793" lon="-1.60205">
        <ele>44.5</ele>
        <time>2014-02-16T13:32:14Z</time>
      </trkpt>
      <trkpt lat="47.24788" lon="-1.60217">
        <ele>44.299999</ele>
        <time>2014-02-16T13:32:17Z</time>
      </trkpt>
      <trkpt lat="47.2478" lon="-1.60227">
        <ele>43.799999</ele>
        <time>2014-02-16T13:32:20Z</time>
      </trkpt>
      <trkpt lat="47.24774" lon="-1.60237">
        <ele>43.5</ele>
        <time>2014-02-16T13:32:23Z</time>
      </trkpt>
      <trkpt lat="47.24768" lon="-1.60247">
        <ele>43.400001</ele>
        <time>2014-02-16T13:32:26Z</time>
      </trkpt>
      <trkpt lat="47.24762" lon="-1.60259">
        <ele>43.599998</ele>
        <time>2014-02-16T13:32:29Z</time>
      </trkpt>
      <trkpt lat="47.24755" lon="-1.60272">
        <ele>43.900001</ele>
        <time>2014-02-16T13:32:32Z</time>
      </trkpt>
      <trkpt lat="47.24737" lon="-1.60293">
        <ele>46.099998</ele>
        <time>2014-02-16T13:32:38Z</time>
      </trkpt>
      <trkpt lat="47.24729" lon="-1.60305">
        <ele>46.2</ele>
        <time>2014-02-16T13:32:41Z</time>
      </trkpt>
      <trkpt lat="47.24721" lon="-1.60318">
        <ele>46.400001</ele>
        <time>2014-02-16T13:32:44Z</time>
      </trkpt>
      <trkpt lat="47.24716" lon="-1.6033">
        <ele>46.599998</ele>
        <time>2014-02-16T13:32:47Z</time>
      </trkpt>
      <trkpt lat="47.24709" lon="-1.60345">
        <ele>46.900001</ele>
        <time>2014-02-16T13:32:50Z</time>
      </trkpt>
      <trkpt lat="47.24701" lon="-1.60357">
        <ele>47.299999</ele>
        <time>2014-02-16T13:32:53Z</time>
      </trkpt>
      <trkpt lat="47.24693" lon="-1.60368">
        <ele>47.7</ele>
        <time>2014-02-16T13:32:56Z</time>
      </trkpt>
      <trkpt lat="47.24684" lon="-1.60382">
        <ele>47.7</ele>
        <time>2014-02-16T13:32:59Z</time>
      </trkpt>
      <trkpt lat="47.24676" lon="-1.60392">
        <ele>47.599998</ele>
        <time>2014-02-16T13:33:02Z</time>
      </trkpt>
      <trkpt lat="47.2467" lon="-1.60405">
        <ele>47.799999</ele>
        <time>2014-02-16T13:33:05Z</time>
      </trkpt>
      <trkpt lat="47.2467" lon="-1.60423">
        <ele>48.099998</ele>
        <time>2014-02-16T13:33:10Z</time>
      </trkpt>
      <trkpt lat="47.24666" lon="-1.6044">
        <ele>48.299999</ele>
        <time>2014-02-16T13:33:13Z</time>
      </trkpt>
      <trkpt lat="47.2466" lon="-1.6045">
        <ele>48.299999</ele>
        <time>2014-02-16T13:33:15Z</time>
      </trkpt>
      <trkpt lat="47.24651" lon="-1.60462">
        <ele>48.299999</ele>
        <time>2014-02-16T13:33:18Z</time>
      </trkpt>
      <trkpt lat="47.24641" lon="-1.60476">
        <ele>47</ele>
        <time>2014-02-16T13:33:21Z</time>
      </trkpt>
      <trkpt lat="47.24632" lon="-1.60486">
        <ele>47.2</ele>
        <time>2014-02-16T13:33:23Z</time>
      </trkpt>
      <trkpt lat="47.24625" lon="-1.60496">
        <ele>47.2</ele>
        <time>2014-02-16T13:33:25Z</time>
      </trkpt>
      <trkpt lat="47.2462" lon="-1.60507">
        <ele>47.599998</ele>
        <time>2014-02-16T13:33:27Z</time>
      </trkpt>
      <trkpt lat="47.24611" lon="-1.60521">
        <ele>47.799999</ele>
        <time>2014-02-16T13:33:30Z</time>
      </trkpt>
      <trkpt lat="47.24604" lon="-1.60536">
        <ele>47</ele>
        <time>2014-02-16T13:33:33Z</time>
      </trkpt>
      <trkpt lat="47.24589" lon="-1.60553">
        <ele>46.7</ele>
        <time>2014-02-16T13:33:39Z</time>
      </trkpt>
      <trkpt lat="47.24578" lon="-1.60562">
        <ele>46.400001</ele>
        <time>2014-02-16T13:33:42Z</time>
      </trkpt>
      <trkpt lat="47.24566" lon="-1.6057">
        <ele>45.900001</ele>
        <time>2014-02-16T13:33:45Z</time>
      </trkpt>
      <trkpt lat="47.24556" lon="-1.60576">
        <ele>45.400001</ele>
        <time>2014-02-16T13:33:47Z</time>
      </trkpt>
      <trkpt lat="47.24545" lon="-1.60583">
        <ele>44.7</ele>
        <time>2014-02-16T13:33:49Z</time>
      </trkpt>
      <trkpt lat="47.24537" lon="-1.60591">
        <ele>43.900001</ele>
        <time>2014-02-16T13:33:51Z</time>
      </trkpt>
      <trkpt lat="47.24532" lon="-1.60604">
        <ele>43.900001</ele>
        <time>2014-02-16T13:33:54Z</time>
      </trkpt>
      <trkpt lat="47.24524" lon="-1.60626">
        <ele>42.400001</ele>
        <time>2014-02-16T13:33:55Z</time>
      </trkpt>
      <trkpt lat="47.24518" lon="-1.60662">
        <ele>42</ele>
        <time>2014-02-16T13:33:57Z</time>
      </trkpt>
      <trkpt lat="47.24525" lon="-1.60672">
        <ele>42.099998</ele>
        <time>2014-02-16T13:33:58Z</time>
      </trkpt>
      <trkpt lat="47.24532" lon="-1.60686">
        <ele>43</ele>
        <time>2014-02-16T13:34:00Z</time>
      </trkpt>
      <trkpt lat="47.24524" lon="-1.60697">
        <ele>45.400001</ele>
        <time>2014-02-16T13:34:03Z</time>
      </trkpt>
      <trkpt lat="47.24515" lon="-1.60711">
        <ele>45.799999</ele>
        <time>2014-02-16T13:34:06Z</time>
      </trkpt>
      <trkpt lat="47.24505" lon="-1.6072">
        <ele>46.900001</ele>
        <time>2014-02-16T13:34:09Z</time>
      </trkpt>
      <trkpt lat="47.24494" lon="-1.60723">
        <ele>47.5</ele>
        <time>2014-02-16T13:34:12Z</time>
      </trkpt>
      <trkpt lat="47.24484" lon="-1.60723">
        <ele>47.2</ele>
        <time>2014-02-16T13:34:15Z</time>
      </trkpt>
      <trkpt lat="47.24475" lon="-1.60717">
        <ele>47.2</ele>
        <time>2014-02-16T13:34:17Z</time>
      </trkpt>
      <trkpt lat="47.24467" lon="-1.60708">
        <ele>46.599998</ele>
        <time>2014-02-16T13:34:19Z</time>
      </trkpt>
      <trkpt lat="47.24456" lon="-1.60701">
        <ele>45.5</ele>
        <time>2014-02-16T13:34:21Z</time>
      </trkpt>
      <trkpt lat="47.24444" lon="-1.60696">
        <ele>44.5</ele>
        <time>2014-02-16T13:34:24Z</time>
      </trkpt>
      <trkpt lat="47.24431" lon="-1.60692">
        <ele>45.799999</ele>
        <time>2014-02-16T13:34:27Z</time>
      </trkpt>
      <trkpt lat="47.24419" lon="-1.60685">
        <ele>46.7</ele>
        <time>2014-02-16T13:34:30Z</time>
      </trkpt>
      <trkpt lat="47.2441" lon="-1.60676">
        <ele>46.900001</ele>
        <time>2014-02-16T13:34:33Z</time>
      </trkpt>
      <trkpt lat="47.24399" lon="-1.6068">
        <ele>46.7</ele>
        <time>2014-02-16T13:34:37Z</time>
      </trkpt>
      <trkpt lat="47.24385" lon="-1.607">
        <ele>39.400001</ele>
        <time>2014-02-16T13:34:43Z</time>
      </trkpt>
      <trkpt lat="47.24376" lon="-1.60706">
        <ele>38.2</ele>
        <time>2014-02-16T13:34:45Z</time>
      </trkpt>
      <trkpt lat="47.24365" lon="-1.60714">
        <ele>36</ele>
        <time>2014-02-16T13:34:47Z</time>
      </trkpt>
      <trkpt lat="47.24356" lon="-1.60721">
        <ele>35.7</ele>
        <time>2014-02-16T13:34:49Z</time>
      </trkpt>
      <trkpt lat="47.24347" lon="-1.60726">
        <ele>36.099998</ele>
        <time>2014-02-16T13:34:51Z</time>
      </trkpt>
      <trkpt lat="47.24335" lon="-1.60734">
        <ele>35.799999</ele>
        <time>2014-02-16T13:34:54Z</time>
      </trkpt>
      <trkpt lat="47.24324" lon="-1.60744">
        <ele>36.900001</ele>
        <time>2014-02-16T13:34:57Z</time>
      </trkpt>
      <trkpt lat="47.24314" lon="-1.60752">
        <ele>37.2</ele>
        <time>2014-02-16T13:35:00Z</time>
      </trkpt>
      <trkpt lat="47.24304" lon="-1.60759">
        <ele>37.400001</ele>
        <time>2014-02-16T13:35:03Z</time>
      </trkpt>
      <trkpt lat="47.24295" lon="-1.60767">
        <ele>38.2</ele>
        <time>2014-02-16T13:35:05Z</time>
      </trkpt>
      <trkpt lat="47.24286" lon="-1.60773">
        <ele>39.2</ele>
        <time>2014-02-16T13:35:07Z</time>
      </trkpt>
      <trkpt lat="47.24278" lon="-1.60779">
        <ele>39.900001</ele>
        <time>2014-02-16T13:35:09Z</time>
      </trkpt>
      <trkpt lat="47.24267" lon="-1.60788">
        <ele>40.5</ele>
        <time>2014-02-16T13:35:12Z</time>
      </trkpt>
      <trkpt lat="47.24255" lon="-1.60798">
        <ele>40.400001</ele>
        <time>2014-02-16T13:35:15Z</time>
      </trkpt>
      <trkpt lat="47.24246" lon="-1.60805">
        <ele>40.5</ele>
        <time>2014-02-16T13:35:17Z</time>
      </trkpt>
      <trkpt lat="47.24238" lon="-1.60814">
        <ele>39.400001</ele>
        <time>2014-02-16T13:35:19Z</time>
      </trkpt>
      <trkpt lat="47.24229" lon="-1.60825">
        <ele>39.299999</ele>
        <time>2014-02-16T13:35:21Z</time>
      </trkpt>
      <trkpt lat="47.24221" lon="-1.60834">
        <ele>39.599998</ele>
        <time>2014-02-16T13:35:23Z</time>
      </trkpt>
      <trkpt lat="47.24211" lon="-1.6084">
        <ele>39.2</ele>
        <time>2014-02-16T13:35:25Z</time>
      </trkpt>
      <trkpt lat="47.24201" lon="-1.60844">
        <ele>39.5</ele>
        <time>2014-02-16T13:35:27Z</time>
      </trkpt>
      <trkpt lat="47.24191" lon="-1.60848">
        <ele>40.099998</ele>
        <time>2014-02-16T13:35:29Z</time>
      </trkpt>
      <trkpt lat="47.24181" lon="-1.60853">
        <ele>40.599998</ele>
        <time>2014-02-16T13:35:31Z</time>
      </trkpt>
      <trkpt lat="47.2417" lon="-1.6086">
        <ele>41.7</ele>
        <time>2014-02-16T13:35:33Z</time>
      </trkpt>
      <trkpt lat="47.2416" lon="-1.60867">
        <ele>41.799999</ele>
        <time>2014-02-16T13:35:35Z</time>
      </trkpt>
      <trkpt lat="47.2415" lon="-1.60874">
        <ele>41.7</ele>
        <time>2014-02-16T13:35:37Z</time>
      </trkpt>
      <trkpt lat="47.2414" lon="-1.60883">
        <ele>41.799999</ele>
        <time>2014-02-16T13:35:39Z</time>
      </trkpt>
      <trkpt lat="47.24118" lon="-1.60897">
        <ele>42.099998</ele>
        <time>2014-02-16T13:35:43Z</time>
      </trkpt>
      <trkpt lat="47.24107" lon="-1.60905">
        <ele>42.400001</ele>
        <time>2014-02-16T13:35:45Z</time>
      </trkpt>
      <trkpt lat="47.24097" lon="-1.60911">
        <ele>41.400001</ele>
        <time>2014-02-16T13:35:47Z</time>
      </trkpt>
      <trkpt lat="47.24086" lon="-1.60917">
        <ele>40.400001</ele>
        <time>2014-02-16T13:35:49Z</time>
      </trkpt>
      <trkpt lat="47.24075" lon="-1.60924">
        <ele>39.299999</ele>
        <time>2014-02-16T13:35:51Z</time>
      </trkpt>
      <trkpt lat="47.24064" lon="-1.60931">
        <ele>38.7</ele>
        <time>2014-02-16T13:35:53Z</time>
      </trkpt>
      <trkpt lat="47.24053" lon="-1.60939">
        <ele>38.400001</ele>
        <time>2014-02-16T13:35:55Z</time>
      </trkpt>
      <trkpt lat="47.24043" lon="-1.60946">
        <ele>37.599998</ele>
        <time>2014-02-16T13:35:57Z</time>
      </trkpt>
      <trkpt lat="47.24031" lon="-1.60958">
        <ele>38.299999</ele>
        <time>2014-02-16T13:35:59Z</time>
      </trkpt>
      <trkpt lat="47.24019" lon="-1.60966">
        <ele>38.299999</ele>
        <time>2014-02-16T13:36:01Z</time>
      </trkpt>
      <trkpt lat="47.24008" lon="-1.60974">
        <ele>37.2</ele>
        <time>2014-02-16T13:36:03Z</time>
      </trkpt>
      <trkpt lat="47.23996" lon="-1.60982">
        <ele>36.5</ele>
        <time>2014-02-16T13:36:05Z</time>
      </trkpt>
      <trkpt lat="47.23984" lon="-1.60991">
        <ele>36.400001</ele>
        <time>2014-02-16T13:36:07Z</time>
      </trkpt>
      <trkpt lat="47.23972" lon="-1.61002">
        <ele>36.900001</ele>
        <time>2014-02-16T13:36:09Z</time>
      </trkpt>
      <trkpt lat="47.23962" lon="-1.61011">
        <ele>36.400001</ele>
        <time>2014-02-16T13:36:11Z</time>
      </trkpt>
      <trkpt lat="47.23951" lon="-1.6102">
        <ele>35.599998</ele>
        <time>2014-02-16T13:36:13Z</time>
      </trkpt>
      <trkpt lat="47.2394" lon="-1.61027">
        <ele>35.2</ele>
        <time>2014-02-16T13:36:15Z</time>
      </trkpt>
      <trkpt lat="47.2393" lon="-1.61034">
        <ele>34.799999</ele>
        <time>2014-02-16T13:36:17Z</time>
      </trkpt>
      <trkpt lat="47.2392" lon="-1.61042">
        <ele>34.299999</ele>
        <time>2014-02-16T13:36:19Z</time>
      </trkpt>
      <trkpt lat="47.23911" lon="-1.61051">
        <ele>33.7</ele>
        <time>2014-02-16T13:36:21Z</time>
      </trkpt>
      <trkpt lat="47.23902" lon="-1.6106">
        <ele>33</ele>
        <time>2014-02-16T13:36:23Z</time>
      </trkpt>
      <trkpt lat="47.23892" lon="-1.6107">
        <ele>33.2</ele>
        <time>2014-02-16T13:36:25Z</time>
      </trkpt>
      <trkpt lat="47.23883" lon="-1.61078">
        <ele>33.900001</ele>
        <time>2014-02-16T13:36:27Z</time>
      </trkpt>
      <trkpt lat="47.23875" lon="-1.61085">
        <ele>33.7</ele>
        <time>2014-02-16T13:36:29Z</time>
      </trkpt>
      <trkpt lat="47.23866" lon="-1.61093">
        <ele>32.7</ele>
        <time>2014-02-16T13:36:31Z</time>
      </trkpt>
      <trkpt lat="47.23857" lon="-1.61101">
        <ele>31.5</ele>
        <time>2014-02-16T13:36:33Z</time>
      </trkpt>
      <trkpt lat="47.23847" lon="-1.61109">
        <ele>29.899999</ele>
        <time>2014-02-16T13:36:35Z</time>
      </trkpt>
      <trkpt lat="47.23838" lon="-1.61116">
        <ele>27</ele>
        <time>2014-02-16T13:36:37Z</time>
      </trkpt>
      <trkpt lat="47.23828" lon="-1.61125">
        <ele>24.2</ele>
        <time>2014-02-16T13:36:39Z</time>
      </trkpt>
      <trkpt lat="47.23816" lon="-1.61135">
        <ele>22.899999</ele>
        <time>2014-02-16T13:36:41Z</time>
      </trkpt>
      <trkpt lat="47.23792" lon="-1.61156">
        <ele>22.2</ele>
        <time>2014-02-16T13:36:45Z</time>
      </trkpt>
      <trkpt lat="47.2378" lon="-1.61167">
        <ele>22</ele>
        <time>2014-02-16T13:36:47Z</time>
      </trkpt>
      <trkpt lat="47.23768" lon="-1.61178">
        <ele>21.1</ele>
        <time>2014-02-16T13:36:49Z</time>
      </trkpt>
      <trkpt lat="47.23756" lon="-1.61188">
        <ele>20.2</ele>
        <time>2014-02-16T13:36:51Z</time>
      </trkpt>
      <trkpt lat="47.23746" lon="-1.61196">
        <ele>19</ele>
        <time>2014-02-16T13:36:53Z</time>
      </trkpt>
      <trkpt lat="47.23737" lon="-1.61204">
        <ele>18.799999</ele>
        <time>2014-02-16T13:36:55Z</time>
      </trkpt>
      <trkpt lat="47.2373" lon="-1.61215">
        <ele>17.5</ele>
        <time>2014-02-16T13:36:57Z</time>
      </trkpt>
      <trkpt lat="47.23725" lon="-1.61228">
        <ele>16.5</ele>
        <time>2014-02-16T13:36:59Z</time>
      </trkpt>
      <trkpt lat="47.23717" lon="-1.61237">
        <ele>16.399999</ele>
        <time>2014-02-16T13:37:04Z</time>
      </trkpt>
      <trkpt lat="47.23707" lon="-1.61234">
        <ele>16.1</ele>
        <time>2014-02-16T13:37:08Z</time>
      </trkpt>
      <trkpt lat="47.2371" lon="-1.61217">
        <ele>15.3</ele>
        <time>2014-02-16T13:37:22Z</time>
      </trkpt>
      <trkpt lat="47.23705" lon="-1.61204">
        <ele>15.399999</ele>
        <time>2014-02-16T13:37:34Z</time>
      </trkpt>
      <trkpt lat="47.237" lon="-1.61222">
        <ele>12.899999</ele>
        <time>2014-02-16T13:37:42Z</time>
      </trkpt>
      <trkpt lat="47.23696" lon="-1.61246">
        <ele>10.899999</ele>
        <time>2014-02-16T13:37:47Z</time>
      </trkpt>
      <trkpt lat="47.23687" lon="-1.61235">
        <ele>10.399999</ele>
        <time>2014-02-16T13:37:50Z</time>
      </trkpt>
      <trkpt lat="47.2368" lon="-1.61222">
        <ele>10.1</ele>
        <time>2014-02-16T13:37:53Z</time>
      </trkpt>
      <trkpt lat="47.23675" lon="-1.61209">
        <ele>10.1</ele>
        <time>2014-02-16T13:37:56Z</time>
      </trkpt>
      <trkpt lat="47.23669" lon="-1.61197">
        <ele>10.1</ele>
        <time>2014-02-16T13:37:59Z</time>
      </trkpt>
      <trkpt lat="47.23662" lon="-1.61183">
        <ele>10</ele>
        <time>2014-02-16T13:38:02Z</time>
      </trkpt>
      <trkpt lat="47.23657" lon="-1.61172">
        <ele>9.6</ele>
        <time>2014-02-16T13:38:04Z</time>
      </trkpt>
      <trkpt lat="47.23651" lon="-1.61157">
        <ele>9.1</ele>
        <time>2014-02-16T13:38:06Z</time>
      </trkpt>
      <trkpt lat="47.23648" lon="-1.61143">
        <ele>8.8</ele>
        <time>2014-02-16T13:38:08Z</time>
      </trkpt>
      <trkpt lat="47.23649" lon="-1.61126">
        <ele>8.6</ele>
        <time>2014-02-16T13:38:10Z</time>
      </trkpt>
      <trkpt lat="47.23651" lon="-1.6111">
        <ele>8.399999</ele>
        <time>2014-02-16T13:38:12Z</time>
      </trkpt>
      <trkpt lat="47.23654" lon="-1.61094">
        <ele>8.3</ele>
        <time>2014-02-16T13:38:15Z</time>
      </trkpt>
      <trkpt lat="47.23657" lon="-1.61079">
        <ele>8.199999</ele>
        <time>2014-02-16T13:38:19Z</time>
      </trkpt>
      <trkpt lat="47.2366" lon="-1.6106">
        <ele>8.6</ele>
        <time>2014-02-16T13:38:23Z</time>
      </trkpt>
      <trkpt lat="47.23662" lon="-1.61044">
        <ele>8.699999</ele>
        <time>2014-02-16T13:38:25Z</time>
      </trkpt>
      <trkpt lat="47.23665" lon="-1.61027">
        <ele>8.8</ele>
        <time>2014-02-16T13:38:28Z</time>
      </trkpt>
      <trkpt lat="47.23666" lon="-1.61014">
        <ele>8.8</ele>
        <time>2014-02-16T13:38:31Z</time>
      </trkpt>
      <trkpt lat="47.23663" lon="-1.60999">
        <ele>8.8</ele>
        <time>2014-02-16T13:38:34Z</time>
      </trkpt>
      <trkpt lat="47.23659" lon="-1.60983">
        <ele>8.699999</ele>
        <time>2014-02-16T13:38:37Z</time>
      </trkpt>
      <trkpt lat="47.23659" lon="-1.60967">
        <ele>8.5</ele>
        <time>2014-02-16T13:38:39Z</time>
      </trkpt>
      <trkpt lat="47.2366" lon="-1.60954">
        <ele>8.399999</ele>
        <time>2014-02-16T13:38:41Z</time>
      </trkpt>
      <trkpt lat="47.23659" lon="-1.60936">
        <ele>8</ele>
        <time>2014-02-16T13:38:44Z</time>
      </trkpt>
      <trkpt lat="47.23646" lon="-1.60911">
        <ele>6.9</ele>
        <time>2014-02-16T13:38:49Z</time>
      </trkpt>
      <trkpt lat="47.23634" lon="-1.60902">
        <ele>5</ele>
        <time>2014-02-16T13:38:52Z</time>
      </trkpt>
      <trkpt lat="47.23627" lon="-1.60888">
        <ele>3.299999</ele>
        <time>2014-02-16T13:39:02Z</time>
      </trkpt>
      <trkpt lat="47.23626" lon="-1.60874">
        <ele>3.299999</ele>
        <time>2014-02-16T13:39:08Z</time>
      </trkpt>
      <trkpt lat="47.23627" lon="-1.6086">
        <ele>3.5</ele>
        <time>2014-02-16T13:39:13Z</time>
      </trkpt>
      <trkpt lat="47.23629" lon="-1.60843">
        <ele>3.5</ele>
        <time>2014-02-16T13:39:17Z</time>
      </trkpt>
      <trkpt lat="47.23626" lon="-1.60827">
        <ele>3.799999</ele>
        <time>2014-02-16T13:39:21Z</time>
      </trkpt>
      <trkpt lat="47.2362" lon="-1.60818">
        <ele>4.099999</ele>
        <time>2014-02-16T13:39:24Z</time>
      </trkpt>
      <trkpt lat="47.23611" lon="-1.60811">
        <ele>4.599999</ele>
        <time>2014-02-16T13:39:27Z</time>
      </trkpt>
      <trkpt lat="47.23599" lon="-1.60803">
        <ele>5.099999</ele>
        <time>2014-02-16T13:39:30Z</time>
      </trkpt>
      <trkpt lat="47.23588" lon="-1.60797">
        <ele>5.8</ele>
        <time>2014-02-16T13:39:33Z</time>
      </trkpt>
      <trkpt lat="47.23579" lon="-1.60791">
        <ele>6.5</ele>
        <time>2014-02-16T13:39:36Z</time>
      </trkpt>
      <trkpt lat="47.23571" lon="-1.60783">
        <ele>7.099999</ele>
        <time>2014-02-16T13:39:40Z</time>
      </trkpt>
      <trkpt lat="47.23563" lon="-1.60771">
        <ele>7.599999</ele>
        <time>2014-02-16T13:39:44Z</time>
      </trkpt>
      <trkpt lat="47.23556" lon="-1.60761">
        <ele>7.9</ele>
        <time>2014-02-16T13:39:47Z</time>
      </trkpt>
      <trkpt lat="47.23543" lon="-1.60734">
        <ele>8.399999</ele>
        <time>2014-02-16T13:39:53Z</time>
      </trkpt>
      <trkpt lat="47.23537" lon="-1.60719">
        <ele>8.699999</ele>
        <time>2014-02-16T13:39:56Z</time>
      </trkpt>
      <trkpt lat="47.23533" lon="-1.60707">
        <ele>9.199999</ele>
        <time>2014-02-16T13:39:59Z</time>
      </trkpt>
      <trkpt lat="47.23527" lon="-1.60694">
        <ele>10</ele>
        <time>2014-02-16T13:40:04Z</time>
      </trkpt>
      <trkpt lat="47.23521" lon="-1.60681">
        <ele>10.3</ele>
        <time>2014-02-16T13:40:07Z</time>
      </trkpt>
      <trkpt lat="47.23518" lon="-1.60665">
        <ele>10.399999</ele>
        <time>2014-02-16T13:40:09Z</time>
      </trkpt>
      <trkpt lat="47.23515" lon="-1.60642">
        <ele>10.5</ele>
        <time>2014-02-16T13:40:11Z</time>
      </trkpt>
      <trkpt lat="47.23511" lon="-1.60621">
        <ele>9.6</ele>
        <time>2014-02-16T13:40:13Z</time>
      </trkpt>
      <trkpt lat="47.23506" lon="-1.60604">
        <ele>7.8</ele>
        <time>2014-02-16T13:40:15Z</time>
      </trkpt>
      <trkpt lat="47.23502" lon="-1.60587">
        <ele>6.3</ele>
        <time>2014-02-16T13:40:17Z</time>
      </trkpt>
      <trkpt lat="47.23498" lon="-1.60574">
        <ele>6.099999</ele>
        <time>2014-02-16T13:40:21Z</time>
      </trkpt>
      <trkpt lat="47.23495" lon="-1.60561">
        <ele>5.8</ele>
        <time>2014-02-16T13:40:24Z</time>
      </trkpt>
      <trkpt lat="47.23493" lon="-1.60547">
        <ele>5.599999</ele>
        <time>2014-02-16T13:40:27Z</time>
      </trkpt>
      <trkpt lat="47.2349" lon="-1.60533">
        <ele>5.4</ele>
        <time>2014-02-16T13:40:31Z</time>
      </trkpt>
      <trkpt lat="47.23485" lon="-1.60522">
        <ele>5</ele>
        <time>2014-02-16T13:40:35Z</time>
      </trkpt>
      <trkpt lat="47.23477" lon="-1.60514">
        <ele>5.4</ele>
        <time>2014-02-16T13:40:40Z</time>
      </trkpt>
      <trkpt lat="47.23469" lon="-1.60508">
        <ele>5.699999</ele>
        <time>2014-02-16T13:40:47Z</time>
      </trkpt>
      <trkpt lat="47.2346" lon="-1.60502">
        <ele>5.8</ele>
        <time>2014-02-16T13:40:51Z</time>
      </trkpt>
      <trkpt lat="47.23445" lon="-1.60488">
        <ele>6.599999</ele>
        <time>2014-02-16T13:41:00Z</time>
      </trkpt>
      <trkpt lat="47.23437" lon="-1.6048">
        <ele>6.9</ele>
        <time>2014-02-16T13:41:05Z</time>
      </trkpt>
      <trkpt lat="47.2343" lon="-1.6047">
        <ele>7</ele>
        <time>2014-02-16T13:41:10Z</time>
      </trkpt>
      <trkpt lat="47.23423" lon="-1.6046">
        <ele>7.599999</ele>
        <time>2014-02-16T13:41:15Z</time>
      </trkpt>
      <trkpt lat="47.23414" lon="-1.60454">
        <ele>8.199999</ele>
        <time>2014-02-16T13:41:19Z</time>
      </trkpt>
      <trkpt lat="47.23406" lon="-1.60446">
        <ele>8.899999</ele>
        <time>2014-02-16T13:41:23Z</time>
      </trkpt>
      <trkpt lat="47.23399" lon="-1.60437">
        <ele>9.6</ele>
        <time>2014-02-16T13:41:27Z</time>
      </trkpt>
      <trkpt lat="47.23392" lon="-1.60426">
        <ele>10.3</ele>
        <time>2014-02-16T13:41:31Z</time>
      </trkpt>
      <trkpt lat="47.23385" lon="-1.60414">
        <ele>10.899999</ele>
        <time>2014-02-16T13:41:35Z</time>
      </trkpt>
      <trkpt lat="47.2338" lon="-1.60402">
        <ele>11.3</ele>
        <time>2014-02-16T13:41:38Z</time>
      </trkpt>
      <trkpt lat="47.23373" lon="-1.60391">
        <ele>11.699999</ele>
        <time>2014-02-16T13:41:41Z</time>
      </trkpt>
      <trkpt lat="47.23367" lon="-1.6038">
        <ele>11.899999</ele>
        <time>2014-02-16T13:41:44Z</time>
      </trkpt>
      <trkpt lat="47.23356" lon="-1.60374">
        <ele>12.3</ele>
        <time>2014-02-16T13:41:48Z</time>
      </trkpt>
      <trkpt lat="47.23347" lon="-1.60375">
        <ele>12.699999</ele>
        <time>2014-02-16T13:41:51Z</time>
      </trkpt>
      <trkpt lat="47.23335" lon="-1.6038">
        <ele>14.6</ele>
        <time>2014-02-16T13:41:54Z</time>
      </trkpt>
      <trkpt lat="47.23316" lon="-1.60394">
        <ele>15.199999</ele>
        <time>2014-02-16T13:42:00Z</time>
      </trkpt>
      <trkpt lat="47.23307" lon="-1.604">
        <ele>15.399999</ele>
        <time>2014-02-16T13:42:03Z</time>
      </trkpt>
      <trkpt lat="47.23299" lon="-1.60407">
        <ele>15.5</ele>
        <time>2014-02-16T13:42:06Z</time>
      </trkpt>
      <trkpt lat="47.2329" lon="-1.60416">
        <ele>15.6</ele>
        <time>2014-02-16T13:42:09Z</time>
      </trkpt>
      <trkpt lat="47.2328" lon="-1.6041">
        <ele>15.5</ele>
        <time>2014-02-16T13:42:15Z</time>
      </trkpt>
      <trkpt lat="47.23272" lon="-1.604">
        <ele>15.8</ele>
        <time>2014-02-16T13:42:19Z</time>
      </trkpt>
      <trkpt lat="47.23262" lon="-1.60388">
        <ele>16</ele>
        <time>2014-02-16T13:42:22Z</time>
      </trkpt>
      <trkpt lat="47.23254" lon="-1.60379">
        <ele>16.399999</ele>
        <time>2014-02-16T13:42:25Z</time>
      </trkpt>
      <trkpt lat="47.23245" lon="-1.60382">
        <ele>16.7</ele>
        <time>2014-02-16T13:42:28Z</time>
      </trkpt>
      <trkpt lat="47.23239" lon="-1.60394">
        <ele>17.2</ele>
        <time>2014-02-16T13:42:35Z</time>
      </trkpt>
      <trkpt lat="47.23231" lon="-1.60403">
        <ele>17.7</ele>
        <time>2014-02-16T13:42:40Z</time>
      </trkpt>
      <trkpt lat="47.23225" lon="-1.60414">
        <ele>18.2</ele>
        <time>2014-02-16T13:42:44Z</time>
      </trkpt>
      <trkpt lat="47.23219" lon="-1.60426">
        <ele>18.799999</ele>
        <time>2014-02-16T13:42:48Z</time>
      </trkpt>
      <trkpt lat="47.23214" lon="-1.60438">
        <ele>19.399999</ele>
        <time>2014-02-16T13:42:52Z</time>
      </trkpt>
      <trkpt lat="47.23208" lon="-1.6045">
        <ele>19.899999</ele>
        <time>2014-02-16T13:42:57Z</time>
      </trkpt>
      <trkpt lat="47.23192" lon="-1.60469">
        <ele>20.5</ele>
        <time>2014-02-16T13:43:06Z</time>
      </trkpt>
      <trkpt lat="47.23187" lon="-1.6048">
        <ele>21</ele>
        <time>2014-02-16T13:43:10Z</time>
      </trkpt>
      <trkpt lat="47.23181" lon="-1.60492">
        <ele>21.899999</ele>
        <time>2014-02-16T13:43:15Z</time>
      </trkpt>
      <trkpt lat="47.23174" lon="-1.60502">
        <ele>22.6</ele>
        <time>2014-02-16T13:43:20Z</time>
      </trkpt>
      <trkpt lat="47.23168" lon="-1.60516">
        <ele>22.5</ele>
        <time>2014-02-16T13:43:25Z</time>
      </trkpt>
      <trkpt lat="47.23161" lon="-1.60529">
        <ele>22.299999</ele>
        <time>2014-02-16T13:43:31Z</time>
      </trkpt>
      <trkpt lat="47.2315" lon="-1.60533">
        <ele>22</ele>
        <time>2014-02-16T13:43:35Z</time>
      </trkpt>
      <trkpt lat="47.23138" lon="-1.60534">
        <ele>22.2</ele>
        <time>2014-02-16T13:43:38Z</time>
      </trkpt>
      <trkpt lat="47.23127" lon="-1.60534">
        <ele>22.2</ele>
        <time>2014-02-16T13:43:42Z</time>
      </trkpt>
      <trkpt lat="47.23117" lon="-1.60531">
        <ele>22.7</ele>
        <time>2014-02-16T13:43:49Z</time>
      </trkpt>
      <trkpt lat="47.2311" lon="-1.60519">
        <ele>22.899999</ele>
        <time>2014-02-16T13:43:54Z</time>
      </trkpt>
      <trkpt lat="47.231" lon="-1.6051">
        <ele>23.299999</ele>
        <time>2014-02-16T13:43:58Z</time>
      </trkpt>
      <trkpt lat="47.23087" lon="-1.60532">
        <ele>24.2</ele>
        <time>2014-02-16T13:44:08Z</time>
      </trkpt>
      <trkpt lat="47.23082" lon="-1.60543">
        <ele>24.799999</ele>
        <time>2014-02-16T13:44:13Z</time>
      </trkpt>
      <trkpt lat="47.23072" lon="-1.60548">
        <ele>25.299999</ele>
        <time>2014-02-16T13:44:18Z</time>
      </trkpt>
      <trkpt lat="47.23062" lon="-1.60542">
        <ele>25.6</ele>
        <time>2014-02-16T13:44:23Z</time>
      </trkpt>
      <trkpt lat="47.23053" lon="-1.60545">
        <ele>26.6</ele>
        <time>2014-02-16T13:44:29Z</time>
      </trkpt>
      <trkpt lat="47.23046" lon="-1.60554">
        <ele>26.799999</ele>
        <time>2014-02-16T13:44:33Z</time>
      </trkpt>
      <trkpt lat="47.23037" lon="-1.60554">
        <ele>26.899999</ele>
        <time>2014-02-16T13:44:36Z</time>
      </trkpt>
      <trkpt lat="47.23026" lon="-1.60561">
        <ele>27.1</ele>
        <time>2014-02-16T13:44:39Z</time>
      </trkpt>
      <trkpt lat="47.23016" lon="-1.6057">
        <ele>27.1</ele>
        <time>2014-02-16T13:44:42Z</time>
      </trkpt>
      <trkpt lat="47.23005" lon="-1.60578">
        <ele>27.1</ele>
        <time>2014-02-16T13:44:46Z</time>
      </trkpt>
      <trkpt lat="47.23003" lon="-1.60592">
        <ele>27.5</ele>
        <time>2014-02-16T13:44:52Z</time>
      </trkpt>
      <trkpt lat="47.23008" lon="-1.60606">
        <ele>27.7</ele>
        <time>2014-02-16T13:44:56Z</time>
      </trkpt>
      <trkpt lat="47.23014" lon="-1.60622">
        <ele>27.899999</ele>
        <time>2014-02-16T13:44:59Z</time>
      </trkpt>
      <trkpt lat="47.23025" lon="-1.60648">
        <ele>28.799999</ele>
        <time>2014-02-16T13:45:05Z</time>
      </trkpt>
      <trkpt lat="47.2303" lon="-1.6066">
        <ele>28.799999</ele>
        <time>2014-02-16T13:45:08Z</time>
      </trkpt>
      <trkpt lat="47.23036" lon="-1.60674">
        <ele>28.5</ele>
        <time>2014-02-16T13:45:12Z</time>
      </trkpt>
      <trkpt lat="47.23041" lon="-1.60689">
        <ele>28.2</ele>
        <time>2014-02-16T13:45:16Z</time>
      </trkpt>
      <trkpt lat="47.23046" lon="-1.60701">
        <ele>28.399999</ele>
        <time>2014-02-16T13:45:22Z</time>
      </trkpt>
      <trkpt lat="47.23052" lon="-1.60713">
        <ele>28.7</ele>
        <time>2014-02-16T13:45:29Z</time>
      </trkpt>
      <trkpt lat="47.23057" lon="-1.60727">
        <ele>29.2</ele>
        <time>2014-02-16T13:45:34Z</time>
      </trkpt>
      <trkpt lat="47.23061" lon="-1.60742">
        <ele>29.1</ele>
        <time>2014-02-16T13:45:40Z</time>
      </trkpt>
      <trkpt lat="47.2307" lon="-1.60749">
        <ele>29.1</ele>
        <time>2014-02-16T13:45:45Z</time>
      </trkpt>
      <trkpt lat="47.23079" lon="-1.60739">
        <ele>29.299999</ele>
        <time>2014-02-16T13:45:50Z</time>
      </trkpt>
      <trkpt lat="47.23081" lon="-1.60724">
        <ele>29.299999</ele>
        <time>2014-02-16T13:45:54Z</time>
      </trkpt>
      <trkpt lat="47.23079" lon="-1.60708">
        <ele>29.399999</ele>
        <time>2014-02-16T13:45:58Z</time>
      </trkpt>
      <trkpt lat="47.23076" lon="-1.60693">
        <ele>29.6</ele>
        <time>2014-02-16T13:46:01Z</time>
      </trkpt>
      <trkpt lat="47.23076" lon="-1.60665">
        <ele>29.799999</ele>
        <time>2014-02-16T13:46:09Z</time>
      </trkpt>
      <trkpt lat="47.23081" lon="-1.60652">
        <ele>30</ele>
        <time>2014-02-16T13:46:27Z</time>
      </trkpt>
      <trkpt lat="47.23035" lon="-1.60623">
        <ele>69.125213</ele>
        <time>2014-02-16T13:55:15Z</time>
      </trkpt>
      <trkpt lat="47.23086" lon="-1.60664">
        <ele>20</ele>
        <time>2014-02-16T13:55:44Z</time>
      </trkpt>
      <trkpt lat="47.23098" lon="-1.60673">
        <ele>17.3</ele>
        <time>2014-02-16T13:56:34Z</time>
      </trkpt>
    </trkseg>
  </trk>
</gpx>